<?xml version="1.0" encoding="UTF-8" standalone="no" ?>
<gpx xmlns="http://www.topografix.com/GPX/1/1" xmlns:xsi="http://www.w3.org/2001/XMLSchema-instance" xsi:schemaLocation="http://www.topografix.com/GPX/1/1 http://www.topografix.com/GPX/1/1/gpx.xsd" version="1.1" creator="VisuGPX - https://www.visugpx.com">
  <metadata>
    <name>Champagnat Cyclisme sur route</name>
  </metadata>
  <trk>
    <name><![CDATA[Champagnat Cyclisme sur route_1]]></name>
    <trkseg>
      <trkpt lat="46.48268" lon="5.36833">
        <ele>265.6</ele>
        <time>2022-03-08T13:09:46Z</time>
      </trkpt>
      <trkpt lat="46.48259" lon="5.36823">
        <ele>265</ele>
        <time>2022-03-08T13:09:47Z</time>
      </trkpt>
      <trkpt lat="46.48251" lon="5.36814">
        <ele>263.8</ele>
        <time>2022-03-08T13:09:48Z</time>
      </trkpt>
      <trkpt lat="46.48241" lon="5.36805">
        <ele>262.6</ele>
        <time>2022-03-08T13:09:49Z</time>
      </trkpt>
      <trkpt lat="46.48221" lon="5.36788">
        <ele>261</ele>
        <time>2022-03-08T13:09:51Z</time>
      </trkpt>
      <trkpt lat="46.48211" lon="5.36781">
        <ele>260.4</ele>
        <time>2022-03-08T13:09:52Z</time>
      </trkpt>
      <trkpt lat="46.48203" lon="5.36774">
        <ele>259.4</ele>
        <time>2022-03-08T13:09:53Z</time>
      </trkpt>
      <trkpt lat="46.48186" lon="5.36759">
        <ele>258.2</ele>
        <time>2022-03-08T13:09:55Z</time>
      </trkpt>
      <trkpt lat="46.48169" lon="5.36746">
        <ele>257.2</ele>
        <time>2022-03-08T13:09:57Z</time>
      </trkpt>
      <trkpt lat="46.48161" lon="5.3674">
        <ele>256.6</ele>
        <time>2022-03-08T13:09:58Z</time>
      </trkpt>
      <trkpt lat="46.48145" lon="5.36727">
        <ele>255.4</ele>
        <time>2022-03-08T13:10:00Z</time>
      </trkpt>
      <trkpt lat="46.48123" lon="5.36711">
        <ele>253.6</ele>
        <time>2022-03-08T13:10:03Z</time>
      </trkpt>
      <trkpt lat="46.48111" lon="5.36699">
        <ele>252.6</ele>
        <time>2022-03-08T13:10:05Z</time>
      </trkpt>
      <trkpt lat="46.4811" lon="5.3669">
        <ele>252.2</ele>
        <time>2022-03-08T13:10:06Z</time>
      </trkpt>
      <trkpt lat="46.48112" lon="5.3668">
        <ele>251.4</ele>
        <time>2022-03-08T13:10:07Z</time>
      </trkpt>
      <trkpt lat="46.48115" lon="5.36674">
        <ele>251.2</ele>
        <time>2022-03-08T13:10:08Z</time>
      </trkpt>
      <trkpt lat="46.4812" lon="5.36668">
        <ele>250.8</ele>
        <time>2022-03-08T13:10:09Z</time>
      </trkpt>
      <trkpt lat="46.48128" lon="5.36661">
        <ele>250.4</ele>
        <time>2022-03-08T13:10:10Z</time>
      </trkpt>
      <trkpt lat="46.48135" lon="5.36654">
        <ele>249.8</ele>
        <time>2022-03-08T13:10:11Z</time>
      </trkpt>
      <trkpt lat="46.48142" lon="5.36648">
        <ele>249.2</ele>
        <time>2022-03-08T13:10:12Z</time>
      </trkpt>
      <trkpt lat="46.4815" lon="5.36641">
        <ele>249</ele>
        <time>2022-03-08T13:10:13Z</time>
      </trkpt>
      <trkpt lat="46.48157" lon="5.36634">
        <ele>248.4</ele>
        <time>2022-03-08T13:10:14Z</time>
      </trkpt>
      <trkpt lat="46.48172" lon="5.36617">
        <ele>247.4</ele>
        <time>2022-03-08T13:10:16Z</time>
      </trkpt>
      <trkpt lat="46.4818" lon="5.36611">
        <ele>247.2</ele>
        <time>2022-03-08T13:10:17Z</time>
      </trkpt>
      <trkpt lat="46.48188" lon="5.36607">
        <ele>247</ele>
        <time>2022-03-08T13:10:18Z</time>
      </trkpt>
      <trkpt lat="46.48197" lon="5.36603">
        <ele>246.8</ele>
        <time>2022-03-08T13:10:19Z</time>
      </trkpt>
      <trkpt lat="46.48203" lon="5.36601">
        <ele>246.6</ele>
        <time>2022-03-08T13:10:20Z</time>
      </trkpt>
      <trkpt lat="46.48218" lon="5.36588">
        <ele>246.4</ele>
        <time>2022-03-08T13:10:22Z</time>
      </trkpt>
      <trkpt lat="46.48222" lon="5.36577">
        <ele>246.2</ele>
        <time>2022-03-08T13:10:23Z</time>
      </trkpt>
      <trkpt lat="46.4823" lon="5.36557">
        <ele>246</ele>
        <time>2022-03-08T13:10:25Z</time>
      </trkpt>
      <trkpt lat="46.48251" lon="5.36532">
        <ele>245.6</ele>
        <time>2022-03-08T13:10:28Z</time>
      </trkpt>
      <trkpt lat="46.48287" lon="5.36494">
        <ele>244.8</ele>
        <time>2022-03-08T13:10:33Z</time>
      </trkpt>
      <trkpt lat="46.48315" lon="5.36462">
        <ele>243.6</ele>
        <time>2022-03-08T13:10:37Z</time>
      </trkpt>
      <trkpt lat="46.48322" lon="5.36454">
        <ele>243.6</ele>
        <time>2022-03-08T13:10:38Z</time>
      </trkpt>
      <trkpt lat="46.4835" lon="5.36425">
        <ele>242.4</ele>
        <time>2022-03-08T13:10:42Z</time>
      </trkpt>
      <trkpt lat="46.4838" lon="5.36392">
        <ele>241</ele>
        <time>2022-03-08T13:10:46Z</time>
      </trkpt>
      <trkpt lat="46.4842" lon="5.36358">
        <ele>240</ele>
        <time>2022-03-08T13:10:51Z</time>
      </trkpt>
      <trkpt lat="46.48454" lon="5.36347">
        <ele>239.2</ele>
        <time>2022-03-08T13:10:55Z</time>
      </trkpt>
      <trkpt lat="46.48498" lon="5.36341">
        <ele>239</ele>
        <time>2022-03-08T13:11:00Z</time>
      </trkpt>
      <trkpt lat="46.48524" lon="5.36336">
        <ele>238.8</ele>
        <time>2022-03-08T13:11:03Z</time>
      </trkpt>
      <trkpt lat="46.48577" lon="5.36327">
        <ele>238.6</ele>
        <time>2022-03-08T13:11:09Z</time>
      </trkpt>
      <trkpt lat="46.48596" lon="5.36325">
        <ele>238.4</ele>
        <time>2022-03-08T13:11:11Z</time>
      </trkpt>
      <trkpt lat="46.48615" lon="5.36318">
        <ele>237.8</ele>
        <time>2022-03-08T13:11:13Z</time>
      </trkpt>
      <trkpt lat="46.48623" lon="5.36309">
        <ele>237.6</ele>
        <time>2022-03-08T13:11:14Z</time>
      </trkpt>
      <trkpt lat="46.4863" lon="5.36298">
        <ele>237.6</ele>
        <time>2022-03-08T13:11:15Z</time>
      </trkpt>
      <trkpt lat="46.48634" lon="5.36285">
        <ele>237.2</ele>
        <time>2022-03-08T13:11:16Z</time>
      </trkpt>
      <trkpt lat="46.48636" lon="5.36274">
        <ele>237</ele>
        <time>2022-03-08T13:11:17Z</time>
      </trkpt>
      <trkpt lat="46.48639" lon="5.36257">
        <ele>236.2</ele>
        <time>2022-03-08T13:11:18Z</time>
      </trkpt>
      <trkpt lat="46.48642" lon="5.36228">
        <ele>235.2</ele>
        <time>2022-03-08T13:11:20Z</time>
      </trkpt>
      <trkpt lat="46.48646" lon="5.36185">
        <ele>233.6</ele>
        <time>2022-03-08T13:11:23Z</time>
      </trkpt>
      <trkpt lat="46.48651" lon="5.36132">
        <ele>232.8</ele>
        <time>2022-03-08T13:11:27Z</time>
      </trkpt>
      <trkpt lat="46.48654" lon="5.36119">
        <ele>232.4</ele>
        <time>2022-03-08T13:11:28Z</time>
      </trkpt>
      <trkpt lat="46.48659" lon="5.36094">
        <ele>232</ele>
        <time>2022-03-08T13:11:30Z</time>
      </trkpt>
      <trkpt lat="46.48666" lon="5.36062">
        <ele>231.8</ele>
        <time>2022-03-08T13:11:33Z</time>
      </trkpt>
      <trkpt lat="46.48676" lon="5.36013">
        <ele>231.6</ele>
        <time>2022-03-08T13:11:38Z</time>
      </trkpt>
      <trkpt lat="46.48684" lon="5.3597">
        <ele>231.8</ele>
        <time>2022-03-08T13:11:43Z</time>
      </trkpt>
      <trkpt lat="46.48691" lon="5.35922">
        <ele>232.6</ele>
        <time>2022-03-08T13:11:48Z</time>
      </trkpt>
      <trkpt lat="46.48693" lon="5.35912">
        <ele>232.8</ele>
        <time>2022-03-08T13:11:49Z</time>
      </trkpt>
      <trkpt lat="46.48711" lon="5.35863">
        <ele>232.4</ele>
        <time>2022-03-08T13:11:54Z</time>
      </trkpt>
      <trkpt lat="46.4874" lon="5.35792">
        <ele>231.8</ele>
        <time>2022-03-08T13:12:01Z</time>
      </trkpt>
      <trkpt lat="46.48753" lon="5.35763">
        <ele>231.2</ele>
        <time>2022-03-08T13:12:04Z</time>
      </trkpt>
      <trkpt lat="46.4877" lon="5.35725">
        <ele>230.6</ele>
        <time>2022-03-08T13:12:08Z</time>
      </trkpt>
      <trkpt lat="46.48786" lon="5.35689">
        <ele>230.2</ele>
        <time>2022-03-08T13:12:12Z</time>
      </trkpt>
      <trkpt lat="46.4881" lon="5.35638">
        <ele>230.2</ele>
        <time>2022-03-08T13:12:18Z</time>
      </trkpt>
      <trkpt lat="46.48839" lon="5.35569">
        <ele>230.2</ele>
        <time>2022-03-08T13:12:26Z</time>
      </trkpt>
      <trkpt lat="46.48846" lon="5.35552">
        <ele>230.4</ele>
        <time>2022-03-08T13:12:28Z</time>
      </trkpt>
      <trkpt lat="46.48875" lon="5.35486">
        <ele>230.2</ele>
        <time>2022-03-08T13:12:36Z</time>
      </trkpt>
      <trkpt lat="46.48894" lon="5.35444">
        <ele>230</ele>
        <time>2022-03-08T13:12:41Z</time>
      </trkpt>
      <trkpt lat="46.48909" lon="5.3541">
        <ele>230</ele>
        <time>2022-03-08T13:12:45Z</time>
      </trkpt>
      <trkpt lat="46.48936" lon="5.35348">
        <ele>229.2</ele>
        <time>2022-03-08T13:12:52Z</time>
      </trkpt>
      <trkpt lat="46.4894" lon="5.3534">
        <ele>229.2</ele>
        <time>2022-03-08T13:12:53Z</time>
      </trkpt>
      <trkpt lat="46.48969" lon="5.35273">
        <ele>228.4</ele>
        <time>2022-03-08T13:13:01Z</time>
      </trkpt>
      <trkpt lat="46.48976" lon="5.35257">
        <ele>228.4</ele>
        <time>2022-03-08T13:13:03Z</time>
      </trkpt>
      <trkpt lat="46.49003" lon="5.35196">
        <ele>229</ele>
        <time>2022-03-08T13:13:11Z</time>
      </trkpt>
      <trkpt lat="46.49023" lon="5.35153">
        <ele>229.6</ele>
        <time>2022-03-08T13:13:17Z</time>
      </trkpt>
      <trkpt lat="46.49037" lon="5.35121">
        <ele>230.2</ele>
        <time>2022-03-08T13:13:21Z</time>
      </trkpt>
      <trkpt lat="46.49041" lon="5.35105">
        <ele>230.2</ele>
        <time>2022-03-08T13:13:23Z</time>
      </trkpt>
      <trkpt lat="46.49043" lon="5.35096">
        <ele>230.4</ele>
        <time>2022-03-08T13:13:24Z</time>
      </trkpt>
      <trkpt lat="46.49059" lon="5.35018">
        <ele>230.4</ele>
        <time>2022-03-08T13:13:32Z</time>
      </trkpt>
      <trkpt lat="46.49073" lon="5.34942">
        <ele>229.4</ele>
        <time>2022-03-08T13:13:39Z</time>
      </trkpt>
      <trkpt lat="46.49075" lon="5.34931">
        <ele>229.4</ele>
        <time>2022-03-08T13:13:40Z</time>
      </trkpt>
      <trkpt lat="46.49082" lon="5.34897">
        <ele>228.8</ele>
        <time>2022-03-08T13:13:43Z</time>
      </trkpt>
      <trkpt lat="46.49093" lon="5.34841">
        <ele>227.8</ele>
        <time>2022-03-08T13:13:48Z</time>
      </trkpt>
      <trkpt lat="46.49095" lon="5.34829">
        <ele>227.6</ele>
        <time>2022-03-08T13:13:49Z</time>
      </trkpt>
      <trkpt lat="46.49104" lon="5.34783">
        <ele>226.6</ele>
        <time>2022-03-08T13:13:53Z</time>
      </trkpt>
      <trkpt lat="46.4912" lon="5.347">
        <ele>225.4</ele>
        <time>2022-03-08T13:14:00Z</time>
      </trkpt>
      <trkpt lat="46.49135" lon="5.34623">
        <ele>224.6</ele>
        <time>2022-03-08T13:14:07Z</time>
      </trkpt>
      <trkpt lat="46.49146" lon="5.34565">
        <ele>224.4</ele>
        <time>2022-03-08T13:14:13Z</time>
      </trkpt>
      <trkpt lat="46.49161" lon="5.34489">
        <ele>224.4</ele>
        <time>2022-03-08T13:14:20Z</time>
      </trkpt>
      <trkpt lat="46.49163" lon="5.34478">
        <ele>224.2</ele>
        <time>2022-03-08T13:14:21Z</time>
      </trkpt>
      <trkpt lat="46.49177" lon="5.34402">
        <ele>223.4</ele>
        <time>2022-03-08T13:14:28Z</time>
      </trkpt>
      <trkpt lat="46.49179" lon="5.34392">
        <ele>223.4</ele>
        <time>2022-03-08T13:14:29Z</time>
      </trkpt>
      <trkpt lat="46.49188" lon="5.3435">
        <ele>224.2</ele>
        <time>2022-03-08T13:14:34Z</time>
      </trkpt>
      <trkpt lat="46.4919" lon="5.34342">
        <ele>224.2</ele>
        <time>2022-03-08T13:14:35Z</time>
      </trkpt>
      <trkpt lat="46.49196" lon="5.34304">
        <ele>224.8</ele>
        <time>2022-03-08T13:14:39Z</time>
      </trkpt>
      <trkpt lat="46.4921" lon="5.34229">
        <ele>225</ele>
        <time>2022-03-08T13:14:46Z</time>
      </trkpt>
      <trkpt lat="46.49226" lon="5.34146">
        <ele>224.6</ele>
        <time>2022-03-08T13:14:54Z</time>
      </trkpt>
      <trkpt lat="46.49228" lon="5.34137">
        <ele>224.6</ele>
        <time>2022-03-08T13:14:55Z</time>
      </trkpt>
      <trkpt lat="46.49236" lon="5.34096">
        <ele>224.6</ele>
        <time>2022-03-08T13:15:00Z</time>
      </trkpt>
      <trkpt lat="46.49246" lon="5.34053">
        <ele>225.2</ele>
        <time>2022-03-08T13:15:06Z</time>
      </trkpt>
      <trkpt lat="46.49249" lon="5.34037">
        <ele>225.4</ele>
        <time>2022-03-08T13:15:08Z</time>
      </trkpt>
      <trkpt lat="46.49255" lon="5.34003">
        <ele>226.2</ele>
        <time>2022-03-08T13:15:12Z</time>
      </trkpt>
      <trkpt lat="46.49261" lon="5.33968">
        <ele>226.8</ele>
        <time>2022-03-08T13:15:16Z</time>
      </trkpt>
      <trkpt lat="46.49276" lon="5.33892">
        <ele>226.8</ele>
        <time>2022-03-08T13:15:24Z</time>
      </trkpt>
      <trkpt lat="46.49278" lon="5.33882">
        <ele>226.8</ele>
        <time>2022-03-08T13:15:25Z</time>
      </trkpt>
      <trkpt lat="46.49293" lon="5.33803">
        <ele>227.2</ele>
        <time>2022-03-08T13:15:33Z</time>
      </trkpt>
      <trkpt lat="46.49295" lon="5.33793">
        <ele>227.2</ele>
        <time>2022-03-08T13:15:34Z</time>
      </trkpt>
      <trkpt lat="46.49297" lon="5.33783">
        <ele>227.2</ele>
        <time>2022-03-08T13:15:35Z</time>
      </trkpt>
      <trkpt lat="46.49299" lon="5.33773">
        <ele>227</ele>
        <time>2022-03-08T13:15:36Z</time>
      </trkpt>
      <trkpt lat="46.49307" lon="5.33699">
        <ele>226.8</ele>
        <time>2022-03-08T13:15:43Z</time>
      </trkpt>
      <trkpt lat="46.4931" lon="5.33629">
        <ele>226</ele>
        <time>2022-03-08T13:15:49Z</time>
      </trkpt>
      <trkpt lat="46.49313" lon="5.33608">
        <ele>225.6</ele>
        <time>2022-03-08T13:15:51Z</time>
      </trkpt>
      <trkpt lat="46.49322" lon="5.3355">
        <ele>225.4</ele>
        <time>2022-03-08T13:15:56Z</time>
      </trkpt>
      <trkpt lat="46.49322" lon="5.33541">
        <ele>225.4</ele>
        <time>2022-03-08T13:15:57Z</time>
      </trkpt>
      <trkpt lat="46.49321" lon="5.3353">
        <ele>225.4</ele>
        <time>2022-03-08T13:15:58Z</time>
      </trkpt>
      <trkpt lat="46.49316" lon="5.33483">
        <ele>225.4</ele>
        <time>2022-03-08T13:16:02Z</time>
      </trkpt>
      <trkpt lat="46.49304" lon="5.33408">
        <ele>225.4</ele>
        <time>2022-03-08T13:16:09Z</time>
      </trkpt>
      <trkpt lat="46.49287" lon="5.33327">
        <ele>225.2</ele>
        <time>2022-03-08T13:16:16Z</time>
      </trkpt>
      <trkpt lat="46.4928" lon="5.33292">
        <ele>225</ele>
        <time>2022-03-08T13:16:19Z</time>
      </trkpt>
      <trkpt lat="46.49269" lon="5.33236">
        <ele>223.8</ele>
        <time>2022-03-08T13:16:24Z</time>
      </trkpt>
      <trkpt lat="46.49264" lon="5.33223">
        <ele>223.6</ele>
        <time>2022-03-08T13:16:25Z</time>
      </trkpt>
      <trkpt lat="46.49259" lon="5.33213">
        <ele>223.6</ele>
        <time>2022-03-08T13:16:26Z</time>
      </trkpt>
      <trkpt lat="46.49254" lon="5.33203">
        <ele>223.4</ele>
        <time>2022-03-08T13:16:27Z</time>
      </trkpt>
      <trkpt lat="46.49242" lon="5.33186">
        <ele>223.2</ele>
        <time>2022-03-08T13:16:29Z</time>
      </trkpt>
      <trkpt lat="46.49219" lon="5.33169">
        <ele>222.6</ele>
        <time>2022-03-08T13:16:32Z</time>
      </trkpt>
      <trkpt lat="46.49204" lon="5.33157">
        <ele>222</ele>
        <time>2022-03-08T13:16:34Z</time>
      </trkpt>
      <trkpt lat="46.49189" lon="5.33145">
        <ele>221.4</ele>
        <time>2022-03-08T13:16:36Z</time>
      </trkpt>
      <trkpt lat="46.49169" lon="5.33125">
        <ele>221</ele>
        <time>2022-03-08T13:16:39Z</time>
      </trkpt>
      <trkpt lat="46.49163" lon="5.33116">
        <ele>220.6</ele>
        <time>2022-03-08T13:16:40Z</time>
      </trkpt>
      <trkpt lat="46.49158" lon="5.33107">
        <ele>220.4</ele>
        <time>2022-03-08T13:16:41Z</time>
      </trkpt>
      <trkpt lat="46.49154" lon="5.33096">
        <ele>220.4</ele>
        <time>2022-03-08T13:16:42Z</time>
      </trkpt>
      <trkpt lat="46.49147" lon="5.33078">
        <ele>220.2</ele>
        <time>2022-03-08T13:16:44Z</time>
      </trkpt>
      <trkpt lat="46.49136" lon="5.33034">
        <ele>220.2</ele>
        <time>2022-03-08T13:16:48Z</time>
      </trkpt>
      <trkpt lat="46.49133" lon="5.33015">
        <ele>220.2</ele>
        <time>2022-03-08T13:16:50Z</time>
      </trkpt>
      <trkpt lat="46.49126" lon="5.32956">
        <ele>219.8</ele>
        <time>2022-03-08T13:16:55Z</time>
      </trkpt>
      <trkpt lat="46.49125" lon="5.32909">
        <ele>219.4</ele>
        <time>2022-03-08T13:16:59Z</time>
      </trkpt>
      <trkpt lat="46.49126" lon="5.32898">
        <ele>219.4</ele>
        <time>2022-03-08T13:17:00Z</time>
      </trkpt>
      <trkpt lat="46.49127" lon="5.32886">
        <ele>219.2</ele>
        <time>2022-03-08T13:17:01Z</time>
      </trkpt>
      <trkpt lat="46.49129" lon="5.32876">
        <ele>219.2</ele>
        <time>2022-03-08T13:17:02Z</time>
      </trkpt>
      <trkpt lat="46.49138" lon="5.32844">
        <ele>218.8</ele>
        <time>2022-03-08T13:17:05Z</time>
      </trkpt>
      <trkpt lat="46.49143" lon="5.32823">
        <ele>218.8</ele>
        <time>2022-03-08T13:17:07Z</time>
      </trkpt>
      <trkpt lat="46.49145" lon="5.32801">
        <ele>218.8</ele>
        <time>2022-03-08T13:17:09Z</time>
      </trkpt>
      <trkpt lat="46.4914" lon="5.32761">
        <ele>218.8</ele>
        <time>2022-03-08T13:17:13Z</time>
      </trkpt>
      <trkpt lat="46.49132" lon="5.32723">
        <ele>218.8</ele>
        <time>2022-03-08T13:17:17Z</time>
      </trkpt>
      <trkpt lat="46.49124" lon="5.32705">
        <ele>218.8</ele>
        <time>2022-03-08T13:17:19Z</time>
      </trkpt>
      <trkpt lat="46.49113" lon="5.32692">
        <ele>218.8</ele>
        <time>2022-03-08T13:17:21Z</time>
      </trkpt>
      <trkpt lat="46.49107" lon="5.32689">
        <ele>218.6</ele>
        <time>2022-03-08T13:17:22Z</time>
      </trkpt>
      <trkpt lat="46.49099" lon="5.32688">
        <ele>218.6</ele>
        <time>2022-03-08T13:17:23Z</time>
      </trkpt>
      <trkpt lat="46.49084" lon="5.32691">
        <ele>218.4</ele>
        <time>2022-03-08T13:17:25Z</time>
      </trkpt>
      <trkpt lat="46.49076" lon="5.32693">
        <ele>218.2</ele>
        <time>2022-03-08T13:17:26Z</time>
      </trkpt>
      <trkpt lat="46.49032" lon="5.32701">
        <ele>216.6</ele>
        <time>2022-03-08T13:17:31Z</time>
      </trkpt>
      <trkpt lat="46.48993" lon="5.32705">
        <ele>215</ele>
        <time>2022-03-08T13:17:35Z</time>
      </trkpt>
      <trkpt lat="46.48984" lon="5.32705">
        <ele>214.4</ele>
        <time>2022-03-08T13:17:36Z</time>
      </trkpt>
      <trkpt lat="46.48974" lon="5.32704">
        <ele>214.2</ele>
        <time>2022-03-08T13:17:37Z</time>
      </trkpt>
      <trkpt lat="46.48964" lon="5.32702">
        <ele>213.8</ele>
        <time>2022-03-08T13:17:38Z</time>
      </trkpt>
      <trkpt lat="46.48954" lon="5.32696">
        <ele>213.4</ele>
        <time>2022-03-08T13:17:39Z</time>
      </trkpt>
      <trkpt lat="46.48938" lon="5.3268">
        <ele>212.6</ele>
        <time>2022-03-08T13:17:41Z</time>
      </trkpt>
      <trkpt lat="46.48931" lon="5.3267">
        <ele>211.8</ele>
        <time>2022-03-08T13:17:42Z</time>
      </trkpt>
      <trkpt lat="46.48924" lon="5.32659">
        <ele>211</ele>
        <time>2022-03-08T13:17:43Z</time>
      </trkpt>
      <trkpt lat="46.48917" lon="5.32633">
        <ele>210.2</ele>
        <time>2022-03-08T13:17:45Z</time>
      </trkpt>
      <trkpt lat="46.48916" lon="5.32618">
        <ele>209.6</ele>
        <time>2022-03-08T13:17:46Z</time>
      </trkpt>
      <trkpt lat="46.48919" lon="5.32605">
        <ele>208.6</ele>
        <time>2022-03-08T13:17:47Z</time>
      </trkpt>
      <trkpt lat="46.48923" lon="5.32593">
        <ele>208.4</ele>
        <time>2022-03-08T13:17:48Z</time>
      </trkpt>
      <trkpt lat="46.48929" lon="5.32581">
        <ele>207.2</ele>
        <time>2022-03-08T13:17:49Z</time>
      </trkpt>
      <trkpt lat="46.48937" lon="5.3257">
        <ele>206.8</ele>
        <time>2022-03-08T13:17:50Z</time>
      </trkpt>
      <trkpt lat="46.48944" lon="5.32558">
        <ele>206</ele>
        <time>2022-03-08T13:17:51Z</time>
      </trkpt>
      <trkpt lat="46.48953" lon="5.32531">
        <ele>204.8</ele>
        <time>2022-03-08T13:17:53Z</time>
      </trkpt>
      <trkpt lat="46.4895" lon="5.32503">
        <ele>203.6</ele>
        <time>2022-03-08T13:17:55Z</time>
      </trkpt>
      <trkpt lat="46.48947" lon="5.32491">
        <ele>203</ele>
        <time>2022-03-08T13:17:56Z</time>
      </trkpt>
      <trkpt lat="46.4894" lon="5.32467">
        <ele>202.2</ele>
        <time>2022-03-08T13:17:58Z</time>
      </trkpt>
      <trkpt lat="46.4893" lon="5.32432">
        <ele>201.8</ele>
        <time>2022-03-08T13:18:01Z</time>
      </trkpt>
      <trkpt lat="46.4892" lon="5.32397">
        <ele>201.8</ele>
        <time>2022-03-08T13:18:04Z</time>
      </trkpt>
      <trkpt lat="46.48913" lon="5.32378">
        <ele>202</ele>
        <time>2022-03-08T13:18:06Z</time>
      </trkpt>
      <trkpt lat="46.48899" lon="5.32338">
        <ele>202.2</ele>
        <time>2022-03-08T13:18:10Z</time>
      </trkpt>
      <trkpt lat="46.48895" lon="5.3233">
        <ele>202.2</ele>
        <time>2022-03-08T13:18:11Z</time>
      </trkpt>
      <trkpt lat="46.48879" lon="5.32305">
        <ele>202.4</ele>
        <time>2022-03-08T13:18:15Z</time>
      </trkpt>
      <trkpt lat="46.48859" lon="5.32277">
        <ele>203.6</ele>
        <time>2022-03-08T13:18:21Z</time>
      </trkpt>
      <trkpt lat="46.4885" lon="5.32265">
        <ele>204.8</ele>
        <time>2022-03-08T13:18:24Z</time>
      </trkpt>
      <trkpt lat="46.48842" lon="5.32252">
        <ele>205.8</ele>
        <time>2022-03-08T13:18:27Z</time>
      </trkpt>
      <trkpt lat="46.48839" lon="5.32248">
        <ele>206.2</ele>
        <time>2022-03-08T13:18:28Z</time>
      </trkpt>
      <trkpt lat="46.48837" lon="5.32243">
        <ele>206.4</ele>
        <time>2022-03-08T13:18:29Z</time>
      </trkpt>
      <trkpt lat="46.48833" lon="5.32231">
        <ele>207.2</ele>
        <time>2022-03-08T13:18:31Z</time>
      </trkpt>
      <trkpt lat="46.48831" lon="5.32223">
        <ele>207.4</ele>
        <time>2022-03-08T13:18:32Z</time>
      </trkpt>
      <trkpt lat="46.4883" lon="5.32216">
        <ele>207.6</ele>
        <time>2022-03-08T13:18:33Z</time>
      </trkpt>
      <trkpt lat="46.48825" lon="5.32164">
        <ele>207.8</ele>
        <time>2022-03-08T13:18:39Z</time>
      </trkpt>
      <trkpt lat="46.48825" lon="5.32134">
        <ele>207.6</ele>
        <time>2022-03-08T13:18:42Z</time>
      </trkpt>
      <trkpt lat="46.48827" lon="5.32124">
        <ele>207.4</ele>
        <time>2022-03-08T13:18:43Z</time>
      </trkpt>
      <trkpt lat="46.48839" lon="5.32061">
        <ele>206.2</ele>
        <time>2022-03-08T13:18:49Z</time>
      </trkpt>
      <trkpt lat="46.48841" lon="5.3205">
        <ele>206</ele>
        <time>2022-03-08T13:18:50Z</time>
      </trkpt>
      <trkpt lat="46.4885" lon="5.31986">
        <ele>205.4</ele>
        <time>2022-03-08T13:18:56Z</time>
      </trkpt>
      <trkpt lat="46.4885" lon="5.31975">
        <ele>205.4</ele>
        <time>2022-03-08T13:18:57Z</time>
      </trkpt>
      <trkpt lat="46.48849" lon="5.31944">
        <ele>205</ele>
        <time>2022-03-08T13:19:00Z</time>
      </trkpt>
      <trkpt lat="46.48843" lon="5.31891">
        <ele>204.6</ele>
        <time>2022-03-08T13:19:05Z</time>
      </trkpt>
      <trkpt lat="46.48841" lon="5.31881">
        <ele>204.4</ele>
        <time>2022-03-08T13:19:06Z</time>
      </trkpt>
      <trkpt lat="46.48838" lon="5.31872">
        <ele>204</ele>
        <time>2022-03-08T13:19:07Z</time>
      </trkpt>
      <trkpt lat="46.48834" lon="5.31863">
        <ele>203.8</ele>
        <time>2022-03-08T13:19:08Z</time>
      </trkpt>
      <trkpt lat="46.48822" lon="5.31851">
        <ele>203.4</ele>
        <time>2022-03-08T13:19:10Z</time>
      </trkpt>
      <trkpt lat="46.48815" lon="5.31847">
        <ele>203.2</ele>
        <time>2022-03-08T13:19:11Z</time>
      </trkpt>
      <trkpt lat="46.48795" lon="5.31836">
        <ele>203</ele>
        <time>2022-03-08T13:19:14Z</time>
      </trkpt>
      <trkpt lat="46.4879" lon="5.3183">
        <ele>203</ele>
        <time>2022-03-08T13:19:15Z</time>
      </trkpt>
      <trkpt lat="46.48786" lon="5.31822">
        <ele>203</ele>
        <time>2022-03-08T13:19:16Z</time>
      </trkpt>
      <trkpt lat="46.48783" lon="5.31803">
        <ele>202.8</ele>
        <time>2022-03-08T13:19:18Z</time>
      </trkpt>
      <trkpt lat="46.48778" lon="5.3173">
        <ele>202.8</ele>
        <time>2022-03-08T13:19:26Z</time>
      </trkpt>
      <trkpt lat="46.4877" lon="5.31708">
        <ele>203</ele>
        <time>2022-03-08T13:19:29Z</time>
      </trkpt>
      <trkpt lat="46.48766" lon="5.31703">
        <ele>203.2</ele>
        <time>2022-03-08T13:19:30Z</time>
      </trkpt>
      <trkpt lat="46.48762" lon="5.31698">
        <ele>203.2</ele>
        <time>2022-03-08T13:19:31Z</time>
      </trkpt>
      <trkpt lat="46.48753" lon="5.3169">
        <ele>203.4</ele>
        <time>2022-03-08T13:19:33Z</time>
      </trkpt>
      <trkpt lat="46.48749" lon="5.31684">
        <ele>203.4</ele>
        <time>2022-03-08T13:19:34Z</time>
      </trkpt>
      <trkpt lat="46.48732" lon="5.31664">
        <ele>204</ele>
        <time>2022-03-08T13:19:38Z</time>
      </trkpt>
      <trkpt lat="46.48722" lon="5.31653">
        <ele>204.2</ele>
        <time>2022-03-08T13:19:40Z</time>
      </trkpt>
      <trkpt lat="46.48701" lon="5.31627">
        <ele>204.4</ele>
        <time>2022-03-08T13:19:45Z</time>
      </trkpt>
      <trkpt lat="46.48697" lon="5.3162">
        <ele>204.4</ele>
        <time>2022-03-08T13:19:46Z</time>
      </trkpt>
      <trkpt lat="46.48693" lon="5.31613">
        <ele>204.4</ele>
        <time>2022-03-08T13:19:47Z</time>
      </trkpt>
      <trkpt lat="46.48673" lon="5.31587">
        <ele>204.2</ele>
        <time>2022-03-08T13:19:51Z</time>
      </trkpt>
      <trkpt lat="46.48663" lon="5.31575">
        <ele>204</ele>
        <time>2022-03-08T13:19:53Z</time>
      </trkpt>
      <trkpt lat="46.4865" lon="5.31559">
        <ele>204</ele>
        <time>2022-03-08T13:19:56Z</time>
      </trkpt>
      <trkpt lat="46.4863" lon="5.31529">
        <ele>204</ele>
        <time>2022-03-08T13:20:01Z</time>
      </trkpt>
      <trkpt lat="46.48621" lon="5.31513">
        <ele>203.8</ele>
        <time>2022-03-08T13:20:03Z</time>
      </trkpt>
      <trkpt lat="46.48612" lon="5.31496">
        <ele>203.8</ele>
        <time>2022-03-08T13:20:05Z</time>
      </trkpt>
      <trkpt lat="46.48611" lon="5.31486">
        <ele>203.8</ele>
        <time>2022-03-08T13:20:06Z</time>
      </trkpt>
      <trkpt lat="46.48609" lon="5.31457">
        <ele>203.8</ele>
        <time>2022-03-08T13:20:09Z</time>
      </trkpt>
      <trkpt lat="46.48608" lon="5.31441">
        <ele>203.8</ele>
        <time>2022-03-08T13:20:11Z</time>
      </trkpt>
      <trkpt lat="46.48605" lon="5.31428">
        <ele>203.8</ele>
        <time>2022-03-08T13:20:13Z</time>
      </trkpt>
      <trkpt lat="46.48601" lon="5.31416">
        <ele>204</ele>
        <time>2022-03-08T13:20:15Z</time>
      </trkpt>
      <trkpt lat="46.48594" lon="5.31405">
        <ele>204</ele>
        <time>2022-03-08T13:20:17Z</time>
      </trkpt>
      <trkpt lat="46.48588" lon="5.31398">
        <ele>204</ele>
        <time>2022-03-08T13:20:19Z</time>
      </trkpt>
      <trkpt lat="46.48581" lon="5.31391">
        <ele>204.2</ele>
        <time>2022-03-08T13:20:21Z</time>
      </trkpt>
      <trkpt lat="46.48577" lon="5.31387">
        <ele>204.2</ele>
        <time>2022-03-08T13:20:22Z</time>
      </trkpt>
      <trkpt lat="46.48568" lon="5.31376">
        <ele>204.8</ele>
        <time>2022-03-08T13:20:25Z</time>
      </trkpt>
      <trkpt lat="46.48564" lon="5.31367">
        <ele>205.2</ele>
        <time>2022-03-08T13:20:27Z</time>
      </trkpt>
      <trkpt lat="46.48561" lon="5.31348">
        <ele>206</ele>
        <time>2022-03-08T13:20:31Z</time>
      </trkpt>
      <trkpt lat="46.4856" lon="5.31343">
        <ele>206</ele>
        <time>2022-03-08T13:20:32Z</time>
      </trkpt>
      <trkpt lat="46.48559" lon="5.31329">
        <ele>207.2</ele>
        <time>2022-03-08T13:20:35Z</time>
      </trkpt>
      <trkpt lat="46.48557" lon="5.31311">
        <ele>208</ele>
        <time>2022-03-08T13:20:38Z</time>
      </trkpt>
      <trkpt lat="46.48556" lon="5.31304">
        <ele>208.2</ele>
        <time>2022-03-08T13:20:39Z</time>
      </trkpt>
      <trkpt lat="46.48554" lon="5.31266">
        <ele>209</ele>
        <time>2022-03-08T13:20:45Z</time>
      </trkpt>
      <trkpt lat="46.48554" lon="5.31253">
        <ele>209.4</ele>
        <time>2022-03-08T13:20:47Z</time>
      </trkpt>
      <trkpt lat="46.48557" lon="5.3124">
        <ele>209.6</ele>
        <time>2022-03-08T13:20:49Z</time>
      </trkpt>
      <trkpt lat="46.48559" lon="5.31233">
        <ele>209.6</ele>
        <time>2022-03-08T13:20:50Z</time>
      </trkpt>
      <trkpt lat="46.48576" lon="5.31196">
        <ele>210.4</ele>
        <time>2022-03-08T13:20:57Z</time>
      </trkpt>
      <trkpt lat="46.48595" lon="5.31158">
        <ele>211.4</ele>
        <time>2022-03-08T13:21:04Z</time>
      </trkpt>
      <trkpt lat="46.48602" lon="5.31142">
        <ele>211.8</ele>
        <time>2022-03-08T13:21:07Z</time>
      </trkpt>
      <trkpt lat="46.48613" lon="5.3112">
        <ele>212.4</ele>
        <time>2022-03-08T13:21:11Z</time>
      </trkpt>
      <trkpt lat="46.48631" lon="5.31081">
        <ele>213.2</ele>
        <time>2022-03-08T13:21:18Z</time>
      </trkpt>
      <trkpt lat="46.48633" lon="5.31077">
        <ele>213.4</ele>
        <time>2022-03-08T13:21:19Z</time>
      </trkpt>
      <trkpt lat="46.48652" lon="5.31039">
        <ele>214.6</ele>
        <time>2022-03-08T13:21:26Z</time>
      </trkpt>
      <trkpt lat="46.48654" lon="5.31034">
        <ele>214.6</ele>
        <time>2022-03-08T13:21:27Z</time>
      </trkpt>
      <trkpt lat="46.48673" lon="5.30994">
        <ele>215.8</ele>
        <time>2022-03-08T13:21:35Z</time>
      </trkpt>
      <trkpt lat="46.48676" lon="5.30988">
        <ele>215.8</ele>
        <time>2022-03-08T13:21:36Z</time>
      </trkpt>
      <trkpt lat="46.48701" lon="5.30937">
        <ele>216.4</ele>
        <time>2022-03-08T13:21:44Z</time>
      </trkpt>
      <trkpt lat="46.4871" lon="5.30923">
        <ele>216.4</ele>
        <time>2022-03-08T13:21:46Z</time>
      </trkpt>
      <trkpt lat="46.4872" lon="5.30909">
        <ele>216.2</ele>
        <time>2022-03-08T13:21:48Z</time>
      </trkpt>
      <trkpt lat="46.48725" lon="5.3089">
        <ele>215.8</ele>
        <time>2022-03-08T13:21:50Z</time>
      </trkpt>
      <trkpt lat="46.48721" lon="5.30869">
        <ele>215.2</ele>
        <time>2022-03-08T13:21:52Z</time>
      </trkpt>
      <trkpt lat="46.48717" lon="5.3086">
        <ele>214.4</ele>
        <time>2022-03-08T13:21:53Z</time>
      </trkpt>
      <trkpt lat="46.48712" lon="5.30852">
        <ele>214</ele>
        <time>2022-03-08T13:21:54Z</time>
      </trkpt>
      <trkpt lat="46.487" lon="5.3084">
        <ele>213.4</ele>
        <time>2022-03-08T13:21:56Z</time>
      </trkpt>
      <trkpt lat="46.48693" lon="5.30836">
        <ele>213.4</ele>
        <time>2022-03-08T13:21:57Z</time>
      </trkpt>
      <trkpt lat="46.48663" lon="5.30818">
        <ele>212.2</ele>
        <time>2022-03-08T13:22:01Z</time>
      </trkpt>
      <trkpt lat="46.48655" lon="5.30814">
        <ele>212</ele>
        <time>2022-03-08T13:22:02Z</time>
      </trkpt>
      <trkpt lat="46.48618" lon="5.30791">
        <ele>211.2</ele>
        <time>2022-03-08T13:22:07Z</time>
      </trkpt>
      <trkpt lat="46.48612" lon="5.30786">
        <ele>211.2</ele>
        <time>2022-03-08T13:22:08Z</time>
      </trkpt>
      <trkpt lat="46.4859" lon="5.30767">
        <ele>211</ele>
        <time>2022-03-08T13:22:12Z</time>
      </trkpt>
      <trkpt lat="46.48571" lon="5.30749">
        <ele>211.6</ele>
        <time>2022-03-08T13:22:16Z</time>
      </trkpt>
      <trkpt lat="46.48564" lon="5.3074">
        <ele>211.8</ele>
        <time>2022-03-08T13:22:18Z</time>
      </trkpt>
      <trkpt lat="46.48555" lon="5.30723">
        <ele>212.2</ele>
        <time>2022-03-08T13:22:21Z</time>
      </trkpt>
      <trkpt lat="46.48549" lon="5.30712">
        <ele>212.4</ele>
        <time>2022-03-08T13:22:23Z</time>
      </trkpt>
      <trkpt lat="46.48546" lon="5.30699">
        <ele>212.4</ele>
        <time>2022-03-08T13:22:25Z</time>
      </trkpt>
      <trkpt lat="46.48543" lon="5.30681">
        <ele>212.8</ele>
        <time>2022-03-08T13:22:28Z</time>
      </trkpt>
      <trkpt lat="46.48543" lon="5.30668">
        <ele>213.4</ele>
        <time>2022-03-08T13:22:30Z</time>
      </trkpt>
      <trkpt lat="46.48543" lon="5.30662">
        <ele>213.6</ele>
        <time>2022-03-08T13:22:31Z</time>
      </trkpt>
      <trkpt lat="46.48545" lon="5.30649">
        <ele>214</ele>
        <time>2022-03-08T13:22:33Z</time>
      </trkpt>
      <trkpt lat="46.48546" lon="5.30636">
        <ele>214.4</ele>
        <time>2022-03-08T13:22:35Z</time>
      </trkpt>
      <trkpt lat="46.48548" lon="5.30617">
        <ele>215</ele>
        <time>2022-03-08T13:22:38Z</time>
      </trkpt>
      <trkpt lat="46.48551" lon="5.30598">
        <ele>215.6</ele>
        <time>2022-03-08T13:22:41Z</time>
      </trkpt>
      <trkpt lat="46.48555" lon="5.30564">
        <ele>216.8</ele>
        <time>2022-03-08T13:22:46Z</time>
      </trkpt>
      <trkpt lat="46.48557" lon="5.30553">
        <ele>217.4</ele>
        <time>2022-03-08T13:22:48Z</time>
      </trkpt>
      <trkpt lat="46.4856" lon="5.30533">
        <ele>218</ele>
        <time>2022-03-08T13:22:51Z</time>
      </trkpt>
      <trkpt lat="46.48562" lon="5.3052">
        <ele>218.2</ele>
        <time>2022-03-08T13:22:53Z</time>
      </trkpt>
      <trkpt lat="46.48562" lon="5.30508">
        <ele>218.2</ele>
        <time>2022-03-08T13:22:55Z</time>
      </trkpt>
      <trkpt lat="46.48558" lon="5.30496">
        <ele>218.4</ele>
        <time>2022-03-08T13:22:57Z</time>
      </trkpt>
      <trkpt lat="46.4855" lon="5.30493">
        <ele>218.4</ele>
        <time>2022-03-08T13:22:59Z</time>
      </trkpt>
      <trkpt lat="46.48545" lon="5.30494">
        <ele>218.6</ele>
        <time>2022-03-08T13:23:00Z</time>
      </trkpt>
      <trkpt lat="46.4852" lon="5.30511">
        <ele>219</ele>
        <time>2022-03-08T13:23:05Z</time>
      </trkpt>
      <trkpt lat="46.48481" lon="5.30545">
        <ele>219.4</ele>
        <time>2022-03-08T13:23:13Z</time>
      </trkpt>
      <trkpt lat="46.48436" lon="5.30586">
        <ele>219.4</ele>
        <time>2022-03-08T13:23:22Z</time>
      </trkpt>
      <trkpt lat="46.48386" lon="5.30633">
        <ele>218.4</ele>
        <time>2022-03-08T13:23:31Z</time>
      </trkpt>
      <trkpt lat="46.48381" lon="5.30639">
        <ele>218.4</ele>
        <time>2022-03-08T13:23:32Z</time>
      </trkpt>
      <trkpt lat="46.48333" lon="5.30681">
        <ele>218</ele>
        <time>2022-03-08T13:23:40Z</time>
      </trkpt>
      <trkpt lat="46.48327" lon="5.30685">
        <ele>218</ele>
        <time>2022-03-08T13:23:41Z</time>
      </trkpt>
      <trkpt lat="46.48306" lon="5.30692">
        <ele>217.6</ele>
        <time>2022-03-08T13:23:44Z</time>
      </trkpt>
      <trkpt lat="46.483" lon="5.30693">
        <ele>217.4</ele>
        <time>2022-03-08T13:23:45Z</time>
      </trkpt>
      <trkpt lat="46.48293" lon="5.30693">
        <ele>217.4</ele>
        <time>2022-03-08T13:23:46Z</time>
      </trkpt>
      <trkpt lat="46.48274" lon="5.30691">
        <ele>217.2</ele>
        <time>2022-03-08T13:23:49Z</time>
      </trkpt>
      <trkpt lat="46.48267" lon="5.30689">
        <ele>217.2</ele>
        <time>2022-03-08T13:23:50Z</time>
      </trkpt>
      <trkpt lat="46.48239" lon="5.30683">
        <ele>217.6</ele>
        <time>2022-03-08T13:23:55Z</time>
      </trkpt>
      <trkpt lat="46.48213" lon="5.30684">
        <ele>218</ele>
        <time>2022-03-08T13:24:00Z</time>
      </trkpt>
      <trkpt lat="46.48207" lon="5.30686">
        <ele>218</ele>
        <time>2022-03-08T13:24:01Z</time>
      </trkpt>
      <trkpt lat="46.48203" lon="5.30687">
        <ele>218.2</ele>
        <time>2022-03-08T13:24:02Z</time>
      </trkpt>
      <trkpt lat="46.48176" lon="5.30701">
        <ele>218.6</ele>
        <time>2022-03-08T13:24:08Z</time>
      </trkpt>
      <trkpt lat="46.48162" lon="5.30709">
        <ele>219</ele>
        <time>2022-03-08T13:24:11Z</time>
      </trkpt>
      <trkpt lat="46.48144" lon="5.30718">
        <ele>219.8</ele>
        <time>2022-03-08T13:24:15Z</time>
      </trkpt>
      <trkpt lat="46.4814" lon="5.3072">
        <ele>220.2</ele>
        <time>2022-03-08T13:24:16Z</time>
      </trkpt>
      <trkpt lat="46.48112" lon="5.30734">
        <ele>221.2</ele>
        <time>2022-03-08T13:24:22Z</time>
      </trkpt>
      <trkpt lat="46.48094" lon="5.30744">
        <ele>221.6</ele>
        <time>2022-03-08T13:24:26Z</time>
      </trkpt>
      <trkpt lat="46.48057" lon="5.30765">
        <ele>222.2</ele>
        <time>2022-03-08T13:24:34Z</time>
      </trkpt>
      <trkpt lat="46.48052" lon="5.30768">
        <ele>222.2</ele>
        <time>2022-03-08T13:24:35Z</time>
      </trkpt>
      <trkpt lat="46.48007" lon="5.30792">
        <ele>222.2</ele>
        <time>2022-03-08T13:24:43Z</time>
      </trkpt>
      <trkpt lat="46.47963" lon="5.30813">
        <ele>221</ele>
        <time>2022-03-08T13:24:50Z</time>
      </trkpt>
      <trkpt lat="46.47929" lon="5.30816">
        <ele>220.2</ele>
        <time>2022-03-08T13:24:55Z</time>
      </trkpt>
      <trkpt lat="46.4791" lon="5.30812">
        <ele>220</ele>
        <time>2022-03-08T13:24:59Z</time>
      </trkpt>
      <trkpt lat="46.47907" lon="5.30811">
        <ele>220</ele>
        <time>2022-03-08T13:25:00Z</time>
      </trkpt>
      <trkpt lat="46.4789" lon="5.30806">
        <ele>220.8</ele>
        <time>2022-03-08T13:25:04Z</time>
      </trkpt>
      <trkpt lat="46.47873" lon="5.308">
        <ele>222.2</ele>
        <time>2022-03-08T13:25:08Z</time>
      </trkpt>
      <trkpt lat="46.47866" lon="5.30798">
        <ele>222.8</ele>
        <time>2022-03-08T13:25:10Z</time>
      </trkpt>
      <trkpt lat="46.47861" lon="5.30798">
        <ele>223.2</ele>
        <time>2022-03-08T13:25:11Z</time>
      </trkpt>
      <trkpt lat="46.47854" lon="5.30797">
        <ele>223.8</ele>
        <time>2022-03-08T13:25:13Z</time>
      </trkpt>
      <trkpt lat="46.47843" lon="5.3079">
        <ele>224.4</ele>
        <time>2022-03-08T13:25:16Z</time>
      </trkpt>
      <trkpt lat="46.4784" lon="5.30786">
        <ele>224.6</ele>
        <time>2022-03-08T13:25:17Z</time>
      </trkpt>
      <trkpt lat="46.47833" lon="5.30778">
        <ele>225</ele>
        <time>2022-03-08T13:25:19Z</time>
      </trkpt>
      <trkpt lat="46.47821" lon="5.30771">
        <ele>225.2</ele>
        <time>2022-03-08T13:25:21Z</time>
      </trkpt>
      <trkpt lat="46.47809" lon="5.30769">
        <ele>225.2</ele>
        <time>2022-03-08T13:25:23Z</time>
      </trkpt>
      <trkpt lat="46.47795" lon="5.3077">
        <ele>225.4</ele>
        <time>2022-03-08T13:25:25Z</time>
      </trkpt>
      <trkpt lat="46.47744" lon="5.30778">
        <ele>223.4</ele>
        <time>2022-03-08T13:25:33Z</time>
      </trkpt>
      <trkpt lat="46.47739" lon="5.30779">
        <ele>223.4</ele>
        <time>2022-03-08T13:25:34Z</time>
      </trkpt>
      <trkpt lat="46.47705" lon="5.30784">
        <ele>223.2</ele>
        <time>2022-03-08T13:25:40Z</time>
      </trkpt>
      <trkpt lat="46.47658" lon="5.30791">
        <ele>223.8</ele>
        <time>2022-03-08T13:25:49Z</time>
      </trkpt>
      <trkpt lat="46.47603" lon="5.308">
        <ele>224</ele>
        <time>2022-03-08T13:25:59Z</time>
      </trkpt>
      <trkpt lat="46.47587" lon="5.30802">
        <ele>224</ele>
        <time>2022-03-08T13:26:02Z</time>
      </trkpt>
      <trkpt lat="46.47532" lon="5.30812">
        <ele>224.2</ele>
        <time>2022-03-08T13:26:12Z</time>
      </trkpt>
      <trkpt lat="46.47491" lon="5.30829">
        <ele>224</ele>
        <time>2022-03-08T13:26:19Z</time>
      </trkpt>
      <trkpt lat="46.47442" lon="5.30856">
        <ele>223.4</ele>
        <time>2022-03-08T13:26:27Z</time>
      </trkpt>
      <trkpt lat="46.47389" lon="5.30881">
        <ele>223.2</ele>
        <time>2022-03-08T13:26:36Z</time>
      </trkpt>
      <trkpt lat="46.47348" lon="5.30894">
        <ele>223</ele>
        <time>2022-03-08T13:26:43Z</time>
      </trkpt>
      <trkpt lat="46.47342" lon="5.30894">
        <ele>223</ele>
        <time>2022-03-08T13:26:44Z</time>
      </trkpt>
      <trkpt lat="46.47337" lon="5.30891">
        <ele>223</ele>
        <time>2022-03-08T13:26:45Z</time>
      </trkpt>
      <trkpt lat="46.47332" lon="5.30886">
        <ele>223</ele>
        <time>2022-03-08T13:26:46Z</time>
      </trkpt>
      <trkpt lat="46.47329" lon="5.30878">
        <ele>223</ele>
        <time>2022-03-08T13:26:47Z</time>
      </trkpt>
      <trkpt lat="46.47325" lon="5.30861">
        <ele>223</ele>
        <time>2022-03-08T13:26:49Z</time>
      </trkpt>
      <trkpt lat="46.47319" lon="5.30783">
        <ele>222.8</ele>
        <time>2022-03-08T13:26:57Z</time>
      </trkpt>
      <trkpt lat="46.47316" lon="5.30697">
        <ele>222.8</ele>
        <time>2022-03-08T13:27:06Z</time>
      </trkpt>
      <trkpt lat="46.47316" lon="5.30689">
        <ele>222.8</ele>
        <time>2022-03-08T13:27:07Z</time>
      </trkpt>
      <trkpt lat="46.47314" lon="5.30656">
        <ele>223.6</ele>
        <time>2022-03-08T13:27:11Z</time>
      </trkpt>
      <trkpt lat="46.47312" lon="5.30648">
        <ele>223.6</ele>
        <time>2022-03-08T13:27:12Z</time>
      </trkpt>
      <trkpt lat="46.47308" lon="5.30641">
        <ele>223.8</ele>
        <time>2022-03-08T13:27:13Z</time>
      </trkpt>
      <trkpt lat="46.47295" lon="5.30622">
        <ele>224</ele>
        <time>2022-03-08T13:27:16Z</time>
      </trkpt>
      <trkpt lat="46.47281" lon="5.30606">
        <ele>224</ele>
        <time>2022-03-08T13:27:19Z</time>
      </trkpt>
      <trkpt lat="46.47268" lon="5.30588">
        <ele>224</ele>
        <time>2022-03-08T13:27:22Z</time>
      </trkpt>
      <trkpt lat="46.47258" lon="5.30577">
        <ele>223.8</ele>
        <time>2022-03-08T13:27:24Z</time>
      </trkpt>
      <trkpt lat="46.47241" lon="5.30564">
        <ele>223.8</ele>
        <time>2022-03-08T13:27:27Z</time>
      </trkpt>
      <trkpt lat="46.47223" lon="5.30556">
        <ele>223.8</ele>
        <time>2022-03-08T13:27:30Z</time>
      </trkpt>
      <trkpt lat="46.47211" lon="5.30554">
        <ele>223.8</ele>
        <time>2022-03-08T13:27:32Z</time>
      </trkpt>
      <trkpt lat="46.47181" lon="5.30558">
        <ele>223.8</ele>
        <time>2022-03-08T13:27:37Z</time>
      </trkpt>
      <trkpt lat="46.47148" lon="5.30553">
        <ele>224.2</ele>
        <time>2022-03-08T13:27:43Z</time>
      </trkpt>
      <trkpt lat="46.47122" lon="5.3054">
        <ele>224.4</ele>
        <time>2022-03-08T13:27:48Z</time>
      </trkpt>
      <trkpt lat="46.47105" lon="5.30531">
        <ele>224.4</ele>
        <time>2022-03-08T13:27:51Z</time>
      </trkpt>
      <trkpt lat="46.47069" lon="5.30503">
        <ele>224.4</ele>
        <time>2022-03-08T13:27:58Z</time>
      </trkpt>
      <trkpt lat="46.4702" lon="5.3046">
        <ele>224</ele>
        <time>2022-03-08T13:28:07Z</time>
      </trkpt>
      <trkpt lat="46.47015" lon="5.30456">
        <ele>223.8</ele>
        <time>2022-03-08T13:28:08Z</time>
      </trkpt>
      <trkpt lat="46.46987" lon="5.30432">
        <ele>223.4</ele>
        <time>2022-03-08T13:28:13Z</time>
      </trkpt>
      <trkpt lat="46.46972" lon="5.30419">
        <ele>223.2</ele>
        <time>2022-03-08T13:28:16Z</time>
      </trkpt>
      <trkpt lat="46.46933" lon="5.30396">
        <ele>222.8</ele>
        <time>2022-03-08T13:28:23Z</time>
      </trkpt>
      <trkpt lat="46.4688" lon="5.30372">
        <ele>222.8</ele>
        <time>2022-03-08T13:28:33Z</time>
      </trkpt>
      <trkpt lat="46.46875" lon="5.30369">
        <ele>222.8</ele>
        <time>2022-03-08T13:28:34Z</time>
      </trkpt>
      <trkpt lat="46.46843" lon="5.30337">
        <ele>223.2</ele>
        <time>2022-03-08T13:28:41Z</time>
      </trkpt>
      <trkpt lat="46.46799" lon="5.30283">
        <ele>223.4</ele>
        <time>2022-03-08T13:28:51Z</time>
      </trkpt>
      <trkpt lat="46.46795" lon="5.30277">
        <ele>223.6</ele>
        <time>2022-03-08T13:28:52Z</time>
      </trkpt>
      <trkpt lat="46.4675" lon="5.30225">
        <ele>223.6</ele>
        <time>2022-03-08T13:29:02Z</time>
      </trkpt>
      <trkpt lat="46.46742" lon="5.30212">
        <ele>223.6</ele>
        <time>2022-03-08T13:29:04Z</time>
      </trkpt>
      <trkpt lat="46.46733" lon="5.3019">
        <ele>223.6</ele>
        <time>2022-03-08T13:29:07Z</time>
      </trkpt>
      <trkpt lat="46.46716" lon="5.30127">
        <ele>223.4</ele>
        <time>2022-03-08T13:29:14Z</time>
      </trkpt>
      <trkpt lat="46.46708" lon="5.30095">
        <ele>223.2</ele>
        <time>2022-03-08T13:29:17Z</time>
      </trkpt>
      <trkpt lat="46.46703" lon="5.30085">
        <ele>223.2</ele>
        <time>2022-03-08T13:29:18Z</time>
      </trkpt>
      <trkpt lat="46.46696" lon="5.30078">
        <ele>223.2</ele>
        <time>2022-03-08T13:29:19Z</time>
      </trkpt>
      <trkpt lat="46.46682" lon="5.3007">
        <ele>223.2</ele>
        <time>2022-03-08T13:29:21Z</time>
      </trkpt>
      <trkpt lat="46.46642" lon="5.30058">
        <ele>223.2</ele>
        <time>2022-03-08T13:29:27Z</time>
      </trkpt>
      <trkpt lat="46.46609" lon="5.30064">
        <ele>223.6</ele>
        <time>2022-03-08T13:29:32Z</time>
      </trkpt>
      <trkpt lat="46.46596" lon="5.30066">
        <ele>223.6</ele>
        <time>2022-03-08T13:29:34Z</time>
      </trkpt>
      <trkpt lat="46.46575" lon="5.30063">
        <ele>223.6</ele>
        <time>2022-03-08T13:29:37Z</time>
      </trkpt>
      <trkpt lat="46.46538" lon="5.3006">
        <ele>223.2</ele>
        <time>2022-03-08T13:29:42Z</time>
      </trkpt>
      <trkpt lat="46.46507" lon="5.30059">
        <ele>222.2</ele>
        <time>2022-03-08T13:29:46Z</time>
      </trkpt>
      <trkpt lat="46.46499" lon="5.30059">
        <ele>221.6</ele>
        <time>2022-03-08T13:29:47Z</time>
      </trkpt>
      <trkpt lat="46.4647" lon="5.30055">
        <ele>221</ele>
        <time>2022-03-08T13:29:51Z</time>
      </trkpt>
      <trkpt lat="46.46455" lon="5.30051">
        <ele>220.8</ele>
        <time>2022-03-08T13:29:53Z</time>
      </trkpt>
      <trkpt lat="46.46416" lon="5.30051">
        <ele>220.2</ele>
        <time>2022-03-08T13:29:58Z</time>
      </trkpt>
      <trkpt lat="46.46401" lon="5.30054">
        <ele>219.6</ele>
        <time>2022-03-08T13:30:00Z</time>
      </trkpt>
      <trkpt lat="46.46384" lon="5.30057">
        <ele>218.6</ele>
        <time>2022-03-08T13:30:02Z</time>
      </trkpt>
      <trkpt lat="46.46367" lon="5.3006">
        <ele>217.4</ele>
        <time>2022-03-08T13:30:04Z</time>
      </trkpt>
      <trkpt lat="46.46358" lon="5.30062">
        <ele>217</ele>
        <time>2022-03-08T13:30:05Z</time>
      </trkpt>
      <trkpt lat="46.46341" lon="5.30063">
        <ele>216.4</ele>
        <time>2022-03-08T13:30:07Z</time>
      </trkpt>
      <trkpt lat="46.46315" lon="5.30062">
        <ele>214.8</ele>
        <time>2022-03-08T13:30:10Z</time>
      </trkpt>
      <trkpt lat="46.46306" lon="5.30061">
        <ele>214.4</ele>
        <time>2022-03-08T13:30:11Z</time>
      </trkpt>
      <trkpt lat="46.46297" lon="5.3006">
        <ele>213.4</ele>
        <time>2022-03-08T13:30:12Z</time>
      </trkpt>
      <trkpt lat="46.46259" lon="5.30057">
        <ele>212</ele>
        <time>2022-03-08T13:30:16Z</time>
      </trkpt>
      <trkpt lat="46.46241" lon="5.30055">
        <ele>210.8</ele>
        <time>2022-03-08T13:30:18Z</time>
      </trkpt>
      <trkpt lat="46.46221" lon="5.30054">
        <ele>209.6</ele>
        <time>2022-03-08T13:30:20Z</time>
      </trkpt>
      <trkpt lat="46.46211" lon="5.30052">
        <ele>208.6</ele>
        <time>2022-03-08T13:30:21Z</time>
      </trkpt>
      <trkpt lat="46.46202" lon="5.30049">
        <ele>208.4</ele>
        <time>2022-03-08T13:30:22Z</time>
      </trkpt>
      <trkpt lat="46.46193" lon="5.30043">
        <ele>207.6</ele>
        <time>2022-03-08T13:30:23Z</time>
      </trkpt>
      <trkpt lat="46.46185" lon="5.30036">
        <ele>206.8</ele>
        <time>2022-03-08T13:30:24Z</time>
      </trkpt>
      <trkpt lat="46.46164" lon="5.30009">
        <ele>205.6</ele>
        <time>2022-03-08T13:30:27Z</time>
      </trkpt>
      <trkpt lat="46.46153" lon="5.29992">
        <ele>204.4</ele>
        <time>2022-03-08T13:30:29Z</time>
      </trkpt>
      <trkpt lat="46.46149" lon="5.29984">
        <ele>203.8</ele>
        <time>2022-03-08T13:30:30Z</time>
      </trkpt>
      <trkpt lat="46.46146" lon="5.29976">
        <ele>203.2</ele>
        <time>2022-03-08T13:30:31Z</time>
      </trkpt>
      <trkpt lat="46.46144" lon="5.2997">
        <ele>203</ele>
        <time>2022-03-08T13:30:32Z</time>
      </trkpt>
      <trkpt lat="46.46145" lon="5.29957">
        <ele>202.2</ele>
        <time>2022-03-08T13:30:34Z</time>
      </trkpt>
      <trkpt lat="46.46151" lon="5.29916">
        <ele>201.2</ele>
        <time>2022-03-08T13:30:39Z</time>
      </trkpt>
      <trkpt lat="46.46154" lon="5.29888">
        <ele>201.2</ele>
        <time>2022-03-08T13:30:42Z</time>
      </trkpt>
      <trkpt lat="46.46156" lon="5.29869">
        <ele>201.2</ele>
        <time>2022-03-08T13:30:44Z</time>
      </trkpt>
      <trkpt lat="46.46163" lon="5.29804">
        <ele>201.4</ele>
        <time>2022-03-08T13:30:51Z</time>
      </trkpt>
      <trkpt lat="46.46174" lon="5.2972">
        <ele>202</ele>
        <time>2022-03-08T13:31:00Z</time>
      </trkpt>
      <trkpt lat="46.46177" lon="5.29701">
        <ele>202.2</ele>
        <time>2022-03-08T13:31:02Z</time>
      </trkpt>
      <trkpt lat="46.46186" lon="5.29643">
        <ele>202.4</ele>
        <time>2022-03-08T13:31:08Z</time>
      </trkpt>
      <trkpt lat="46.46193" lon="5.29598">
        <ele>202.4</ele>
        <time>2022-03-08T13:31:12Z</time>
      </trkpt>
      <trkpt lat="46.46197" lon="5.29578">
        <ele>202.4</ele>
        <time>2022-03-08T13:31:14Z</time>
      </trkpt>
      <trkpt lat="46.46203" lon="5.29548">
        <ele>202.4</ele>
        <time>2022-03-08T13:31:17Z</time>
      </trkpt>
      <trkpt lat="46.46208" lon="5.29524">
        <ele>202.2</ele>
        <time>2022-03-08T13:31:19Z</time>
      </trkpt>
      <trkpt lat="46.46214" lon="5.29503">
        <ele>202</ele>
        <time>2022-03-08T13:31:21Z</time>
      </trkpt>
      <trkpt lat="46.46238" lon="5.29459">
        <ele>202.2</ele>
        <time>2022-03-08T13:31:26Z</time>
      </trkpt>
      <trkpt lat="46.4626" lon="5.29424">
        <ele>202.8</ele>
        <time>2022-03-08T13:31:31Z</time>
      </trkpt>
      <trkpt lat="46.46267" lon="5.2941">
        <ele>203.4</ele>
        <time>2022-03-08T13:31:33Z</time>
      </trkpt>
      <trkpt lat="46.46285" lon="5.29378">
        <ele>204.4</ele>
        <time>2022-03-08T13:31:38Z</time>
      </trkpt>
      <trkpt lat="46.4629" lon="5.29365">
        <ele>204.8</ele>
        <time>2022-03-08T13:31:40Z</time>
      </trkpt>
      <trkpt lat="46.46296" lon="5.29345">
        <ele>205.6</ele>
        <time>2022-03-08T13:31:43Z</time>
      </trkpt>
      <trkpt lat="46.463" lon="5.29327">
        <ele>206.6</ele>
        <time>2022-03-08T13:31:46Z</time>
      </trkpt>
      <trkpt lat="46.46304" lon="5.2931">
        <ele>207.4</ele>
        <time>2022-03-08T13:31:49Z</time>
      </trkpt>
      <trkpt lat="46.46306" lon="5.29299">
        <ele>207.8</ele>
        <time>2022-03-08T13:31:51Z</time>
      </trkpt>
      <trkpt lat="46.46308" lon="5.29278">
        <ele>208.8</ele>
        <time>2022-03-08T13:31:55Z</time>
      </trkpt>
      <trkpt lat="46.46309" lon="5.29273">
        <ele>209.2</ele>
        <time>2022-03-08T13:31:56Z</time>
      </trkpt>
      <trkpt lat="46.4631" lon="5.29251">
        <ele>210</ele>
        <time>2022-03-08T13:32:00Z</time>
      </trkpt>
      <trkpt lat="46.46309" lon="5.29232">
        <ele>211.2</ele>
        <time>2022-03-08T13:32:04Z</time>
      </trkpt>
      <trkpt lat="46.46306" lon="5.29212">
        <ele>212.2</ele>
        <time>2022-03-08T13:32:08Z</time>
      </trkpt>
      <trkpt lat="46.46302" lon="5.29188">
        <ele>213.2</ele>
        <time>2022-03-08T13:32:13Z</time>
      </trkpt>
      <trkpt lat="46.46301" lon="5.29184">
        <ele>213.2</ele>
        <time>2022-03-08T13:32:14Z</time>
      </trkpt>
      <trkpt lat="46.46298" lon="5.29165">
        <ele>214.4</ele>
        <time>2022-03-08T13:32:18Z</time>
      </trkpt>
      <trkpt lat="46.46296" lon="5.2915">
        <ele>215.4</ele>
        <time>2022-03-08T13:32:21Z</time>
      </trkpt>
      <trkpt lat="46.46295" lon="5.2914">
        <ele>215.8</ele>
        <time>2022-03-08T13:32:23Z</time>
      </trkpt>
      <trkpt lat="46.46293" lon="5.29131">
        <ele>216.6</ele>
        <time>2022-03-08T13:32:25Z</time>
      </trkpt>
      <trkpt lat="46.46291" lon="5.29112">
        <ele>217.6</ele>
        <time>2022-03-08T13:32:29Z</time>
      </trkpt>
      <trkpt lat="46.46288" lon="5.29093">
        <ele>218.4</ele>
        <time>2022-03-08T13:32:33Z</time>
      </trkpt>
      <trkpt lat="46.46287" lon="5.29087">
        <ele>218.4</ele>
        <time>2022-03-08T13:32:34Z</time>
      </trkpt>
      <trkpt lat="46.46283" lon="5.29055">
        <ele>219</ele>
        <time>2022-03-08T13:32:39Z</time>
      </trkpt>
      <trkpt lat="46.46276" lon="5.29012">
        <ele>219</ele>
        <time>2022-03-08T13:32:44Z</time>
      </trkpt>
      <trkpt lat="46.46266" lon="5.28943">
        <ele>217.4</ele>
        <time>2022-03-08T13:32:50Z</time>
      </trkpt>
      <trkpt lat="46.46261" lon="5.28904">
        <ele>216</ele>
        <time>2022-03-08T13:32:53Z</time>
      </trkpt>
      <trkpt lat="46.46253" lon="5.28849">
        <ele>214.6</ele>
        <time>2022-03-08T13:32:57Z</time>
      </trkpt>
      <trkpt lat="46.46248" lon="5.28813">
        <ele>212.8</ele>
        <time>2022-03-08T13:33:00Z</time>
      </trkpt>
      <trkpt lat="46.46245" lon="5.28791">
        <ele>212.2</ele>
        <time>2022-03-08T13:33:02Z</time>
      </trkpt>
      <trkpt lat="46.46243" lon="5.28771">
        <ele>211.6</ele>
        <time>2022-03-08T13:33:04Z</time>
      </trkpt>
      <trkpt lat="46.46239" lon="5.28738">
        <ele>211.6</ele>
        <time>2022-03-08T13:33:08Z</time>
      </trkpt>
      <trkpt lat="46.46233" lon="5.2869">
        <ele>212</ele>
        <time>2022-03-08T13:33:14Z</time>
      </trkpt>
      <trkpt lat="46.4623" lon="5.28673">
        <ele>212.2</ele>
        <time>2022-03-08T13:33:16Z</time>
      </trkpt>
      <trkpt lat="46.46227" lon="5.28653">
        <ele>212.4</ele>
        <time>2022-03-08T13:33:18Z</time>
      </trkpt>
      <trkpt lat="46.46218" lon="5.28594">
        <ele>212.6</ele>
        <time>2022-03-08T13:33:23Z</time>
      </trkpt>
      <trkpt lat="46.46206" lon="5.28516">
        <ele>211.2</ele>
        <time>2022-03-08T13:33:29Z</time>
      </trkpt>
      <trkpt lat="46.46204" lon="5.28503">
        <ele>210.4</ele>
        <time>2022-03-08T13:33:30Z</time>
      </trkpt>
      <trkpt lat="46.46195" lon="5.28446">
        <ele>209</ele>
        <time>2022-03-08T13:33:34Z</time>
      </trkpt>
      <trkpt lat="46.46191" lon="5.28417">
        <ele>207.6</ele>
        <time>2022-03-08T13:33:36Z</time>
      </trkpt>
      <trkpt lat="46.46185" lon="5.28378">
        <ele>206</ele>
        <time>2022-03-08T13:33:39Z</time>
      </trkpt>
      <trkpt lat="46.46183" lon="5.28365">
        <ele>205.6</ele>
        <time>2022-03-08T13:33:40Z</time>
      </trkpt>
      <trkpt lat="46.46181" lon="5.28352">
        <ele>205</ele>
        <time>2022-03-08T13:33:41Z</time>
      </trkpt>
      <trkpt lat="46.46174" lon="5.28308">
        <ele>204.6</ele>
        <time>2022-03-08T13:33:45Z</time>
      </trkpt>
      <trkpt lat="46.46171" lon="5.28261">
        <ele>205</ele>
        <time>2022-03-08T13:33:50Z</time>
      </trkpt>
      <trkpt lat="46.46173" lon="5.28236">
        <ele>205.6</ele>
        <time>2022-03-08T13:33:53Z</time>
      </trkpt>
      <trkpt lat="46.46176" lon="5.28211">
        <ele>206</ele>
        <time>2022-03-08T13:33:56Z</time>
      </trkpt>
      <trkpt lat="46.46183" lon="5.2818">
        <ele>207.2</ele>
        <time>2022-03-08T13:34:00Z</time>
      </trkpt>
      <trkpt lat="46.46187" lon="5.28156">
        <ele>207.8</ele>
        <time>2022-03-08T13:34:03Z</time>
      </trkpt>
      <trkpt lat="46.4619" lon="5.2813">
        <ele>208.4</ele>
        <time>2022-03-08T13:34:06Z</time>
      </trkpt>
      <trkpt lat="46.46192" lon="5.28109">
        <ele>208.6</ele>
        <time>2022-03-08T13:34:08Z</time>
      </trkpt>
      <trkpt lat="46.46199" lon="5.28024">
        <ele>208.6</ele>
        <time>2022-03-08T13:34:17Z</time>
      </trkpt>
      <trkpt lat="46.46199" lon="5.28017">
        <ele>208.8</ele>
        <time>2022-03-08T13:34:18Z</time>
      </trkpt>
      <trkpt lat="46.46192" lon="5.28005">
        <ele>209</ele>
        <time>2022-03-08T13:34:20Z</time>
      </trkpt>
      <trkpt lat="46.46168" lon="5.27987">
        <ele>209</ele>
        <time>2022-03-08T13:34:24Z</time>
      </trkpt>
      <trkpt lat="46.46147" lon="5.2797">
        <ele>208.8</ele>
        <time>2022-03-08T13:34:27Z</time>
      </trkpt>
      <trkpt lat="46.4614" lon="5.27961">
        <ele>208.8</ele>
        <time>2022-03-08T13:34:28Z</time>
      </trkpt>
      <trkpt lat="46.46135" lon="5.27949">
        <ele>208.4</ele>
        <time>2022-03-08T13:34:29Z</time>
      </trkpt>
      <trkpt lat="46.46131" lon="5.27936">
        <ele>208</ele>
        <time>2022-03-08T13:34:30Z</time>
      </trkpt>
      <trkpt lat="46.46129" lon="5.27921">
        <ele>207.2</ele>
        <time>2022-03-08T13:34:31Z</time>
      </trkpt>
      <trkpt lat="46.46128" lon="5.27906">
        <ele>206</ele>
        <time>2022-03-08T13:34:32Z</time>
      </trkpt>
      <trkpt lat="46.46127" lon="5.27874">
        <ele>204.2</ele>
        <time>2022-03-08T13:34:34Z</time>
      </trkpt>
      <trkpt lat="46.46126" lon="5.27842">
        <ele>202.6</ele>
        <time>2022-03-08T13:34:36Z</time>
      </trkpt>
      <trkpt lat="46.46125" lon="5.2781">
        <ele>201.2</ele>
        <time>2022-03-08T13:34:38Z</time>
      </trkpt>
      <trkpt lat="46.46125" lon="5.27779">
        <ele>199.6</ele>
        <time>2022-03-08T13:34:40Z</time>
      </trkpt>
      <trkpt lat="46.46126" lon="5.27763">
        <ele>198.8</ele>
        <time>2022-03-08T13:34:41Z</time>
      </trkpt>
      <trkpt lat="46.46126" lon="5.27747">
        <ele>198.4</ele>
        <time>2022-03-08T13:34:42Z</time>
      </trkpt>
      <trkpt lat="46.46127" lon="5.27687">
        <ele>197.4</ele>
        <time>2022-03-08T13:34:46Z</time>
      </trkpt>
      <trkpt lat="46.46128" lon="5.27658">
        <ele>196.4</ele>
        <time>2022-03-08T13:34:48Z</time>
      </trkpt>
      <trkpt lat="46.46128" lon="5.27644">
        <ele>196.2</ele>
        <time>2022-03-08T13:34:49Z</time>
      </trkpt>
      <trkpt lat="46.46129" lon="5.27603">
        <ele>195.2</ele>
        <time>2022-03-08T13:34:52Z</time>
      </trkpt>
      <trkpt lat="46.46131" lon="5.27578">
        <ele>194.4</ele>
        <time>2022-03-08T13:34:54Z</time>
      </trkpt>
      <trkpt lat="46.46131" lon="5.27565">
        <ele>194</ele>
        <time>2022-03-08T13:34:55Z</time>
      </trkpt>
      <trkpt lat="46.46133" lon="5.27479">
        <ele>193.2</ele>
        <time>2022-03-08T13:35:02Z</time>
      </trkpt>
      <trkpt lat="46.46136" lon="5.2739">
        <ele>194</ele>
        <time>2022-03-08T13:35:10Z</time>
      </trkpt>
      <trkpt lat="46.46138" lon="5.27303">
        <ele>194</ele>
        <time>2022-03-08T13:35:18Z</time>
      </trkpt>
      <trkpt lat="46.46139" lon="5.27293">
        <ele>194</ele>
        <time>2022-03-08T13:35:19Z</time>
      </trkpt>
      <trkpt lat="46.46141" lon="5.27213">
        <ele>194</ele>
        <time>2022-03-08T13:35:27Z</time>
      </trkpt>
      <trkpt lat="46.46142" lon="5.27129">
        <ele>193.6</ele>
        <time>2022-03-08T13:35:36Z</time>
      </trkpt>
      <trkpt lat="46.46142" lon="5.27121">
        <ele>193.8</ele>
        <time>2022-03-08T13:35:37Z</time>
      </trkpt>
      <trkpt lat="46.46144" lon="5.2707">
        <ele>194.6</ele>
        <time>2022-03-08T13:35:43Z</time>
      </trkpt>
      <trkpt lat="46.46145" lon="5.27018">
        <ele>195.2</ele>
        <time>2022-03-08T13:35:49Z</time>
      </trkpt>
      <trkpt lat="46.46147" lon="5.26994">
        <ele>195.8</ele>
        <time>2022-03-08T13:35:52Z</time>
      </trkpt>
      <trkpt lat="46.46148" lon="5.26929">
        <ele>196</ele>
        <time>2022-03-08T13:35:59Z</time>
      </trkpt>
      <trkpt lat="46.46151" lon="5.26843">
        <ele>195.2</ele>
        <time>2022-03-08T13:36:08Z</time>
      </trkpt>
      <trkpt lat="46.46152" lon="5.26793">
        <ele>195.2</ele>
        <time>2022-03-08T13:36:14Z</time>
      </trkpt>
      <trkpt lat="46.46154" lon="5.26723">
        <ele>196</ele>
        <time>2022-03-08T13:36:23Z</time>
      </trkpt>
      <trkpt lat="46.46154" lon="5.26701">
        <ele>196.4</ele>
        <time>2022-03-08T13:36:26Z</time>
      </trkpt>
      <trkpt lat="46.46155" lon="5.26666">
        <ele>197.2</ele>
        <time>2022-03-08T13:36:31Z</time>
      </trkpt>
      <trkpt lat="46.46156" lon="5.26654">
        <ele>197.6</ele>
        <time>2022-03-08T13:36:33Z</time>
      </trkpt>
      <trkpt lat="46.46157" lon="5.26626">
        <ele>198.8</ele>
        <time>2022-03-08T13:36:38Z</time>
      </trkpt>
      <trkpt lat="46.46158" lon="5.26598">
        <ele>200</ele>
        <time>2022-03-08T13:36:43Z</time>
      </trkpt>
      <trkpt lat="46.46159" lon="5.26588">
        <ele>200.4</ele>
        <time>2022-03-08T13:36:45Z</time>
      </trkpt>
      <trkpt lat="46.4616" lon="5.26567">
        <ele>201.2</ele>
        <time>2022-03-08T13:36:49Z</time>
      </trkpt>
      <trkpt lat="46.46163" lon="5.2654">
        <ele>202.2</ele>
        <time>2022-03-08T13:36:54Z</time>
      </trkpt>
      <trkpt lat="46.46163" lon="5.26533">
        <ele>202.2</ele>
        <time>2022-03-08T13:36:55Z</time>
      </trkpt>
      <trkpt lat="46.46166" lon="5.26508">
        <ele>203.4</ele>
        <time>2022-03-08T13:37:00Z</time>
      </trkpt>
      <trkpt lat="46.46169" lon="5.26483">
        <ele>204.6</ele>
        <time>2022-03-08T13:37:05Z</time>
      </trkpt>
      <trkpt lat="46.46169" lon="5.26478">
        <ele>204.8</ele>
        <time>2022-03-08T13:37:06Z</time>
      </trkpt>
      <trkpt lat="46.46173" lon="5.26447">
        <ele>205.8</ele>
        <time>2022-03-08T13:37:12Z</time>
      </trkpt>
      <trkpt lat="46.46174" lon="5.26438">
        <ele>206.4</ele>
        <time>2022-03-08T13:37:14Z</time>
      </trkpt>
      <trkpt lat="46.46175" lon="5.26422">
        <ele>206.8</ele>
        <time>2022-03-08T13:37:17Z</time>
      </trkpt>
      <trkpt lat="46.46178" lon="5.26393">
        <ele>208</ele>
        <time>2022-03-08T13:37:23Z</time>
      </trkpt>
      <trkpt lat="46.46179" lon="5.26377">
        <ele>208.6</ele>
        <time>2022-03-08T13:37:26Z</time>
      </trkpt>
      <trkpt lat="46.46181" lon="5.26362">
        <ele>209.2</ele>
        <time>2022-03-08T13:37:29Z</time>
      </trkpt>
      <trkpt lat="46.46183" lon="5.26338">
        <ele>210.2</ele>
        <time>2022-03-08T13:37:34Z</time>
      </trkpt>
      <trkpt lat="46.46184" lon="5.26324">
        <ele>211.2</ele>
        <time>2022-03-08T13:37:37Z</time>
      </trkpt>
      <trkpt lat="46.46187" lon="5.26301">
        <ele>212.4</ele>
        <time>2022-03-08T13:37:42Z</time>
      </trkpt>
      <trkpt lat="46.4619" lon="5.26272">
        <ele>213.6</ele>
        <time>2022-03-08T13:37:48Z</time>
      </trkpt>
      <trkpt lat="46.4619" lon="5.26267">
        <ele>213.8</ele>
        <time>2022-03-08T13:37:49Z</time>
      </trkpt>
      <trkpt lat="46.4619" lon="5.26252">
        <ele>214.4</ele>
        <time>2022-03-08T13:37:52Z</time>
      </trkpt>
      <trkpt lat="46.46188" lon="5.26248">
        <ele>214.6</ele>
        <time>2022-03-08T13:37:53Z</time>
      </trkpt>
      <trkpt lat="46.46171" lon="5.26236">
        <ele>215.6</ele>
        <time>2022-03-08T13:37:58Z</time>
      </trkpt>
      <trkpt lat="46.46162" lon="5.26232">
        <ele>215.8</ele>
        <time>2022-03-08T13:38:00Z</time>
      </trkpt>
      <trkpt lat="46.46142" lon="5.26221">
        <ele>216.2</ele>
        <time>2022-03-08T13:38:05Z</time>
      </trkpt>
      <trkpt lat="46.46125" lon="5.26211">
        <ele>216.6</ele>
        <time>2022-03-08T13:38:09Z</time>
      </trkpt>
      <trkpt lat="46.4612" lon="5.26208">
        <ele>216.8</ele>
        <time>2022-03-08T13:38:10Z</time>
      </trkpt>
      <trkpt lat="46.46107" lon="5.26201">
        <ele>217</ele>
        <time>2022-03-08T13:38:13Z</time>
      </trkpt>
      <trkpt lat="46.46081" lon="5.26187">
        <ele>217.8</ele>
        <time>2022-03-08T13:38:19Z</time>
      </trkpt>
      <trkpt lat="46.46063" lon="5.26177">
        <ele>218</ele>
        <time>2022-03-08T13:38:23Z</time>
      </trkpt>
      <trkpt lat="46.46032" lon="5.26166">
        <ele>218.2</ele>
        <time>2022-03-08T13:38:30Z</time>
      </trkpt>
      <trkpt lat="46.46012" lon="5.26162">
        <ele>218.8</ele>
        <time>2022-03-08T13:38:34Z</time>
      </trkpt>
      <trkpt lat="46.45995" lon="5.26162">
        <ele>219.6</ele>
        <time>2022-03-08T13:38:38Z</time>
      </trkpt>
      <trkpt lat="46.45976" lon="5.26162">
        <ele>220</ele>
        <time>2022-03-08T13:38:42Z</time>
      </trkpt>
      <trkpt lat="46.45952" lon="5.26161">
        <ele>220.4</ele>
        <time>2022-03-08T13:38:47Z</time>
      </trkpt>
      <trkpt lat="46.45913" lon="5.26161">
        <ele>221.4</ele>
        <time>2022-03-08T13:38:55Z</time>
      </trkpt>
      <trkpt lat="46.45857" lon="5.26161">
        <ele>221.6</ele>
        <time>2022-03-08T13:39:06Z</time>
      </trkpt>
      <trkpt lat="46.4581" lon="5.2616">
        <ele>222</ele>
        <time>2022-03-08T13:39:14Z</time>
      </trkpt>
      <trkpt lat="46.45778" lon="5.26162">
        <ele>222.4</ele>
        <time>2022-03-08T13:39:20Z</time>
      </trkpt>
      <trkpt lat="46.45773" lon="5.26165">
        <ele>222.2</ele>
        <time>2022-03-08T13:39:21Z</time>
      </trkpt>
      <trkpt lat="46.45768" lon="5.26168">
        <ele>222.2</ele>
        <time>2022-03-08T13:39:22Z</time>
      </trkpt>
      <trkpt lat="46.4576" lon="5.26178">
        <ele>222.2</ele>
        <time>2022-03-08T13:39:24Z</time>
      </trkpt>
      <trkpt lat="46.45756" lon="5.26184">
        <ele>222.2</ele>
        <time>2022-03-08T13:39:25Z</time>
      </trkpt>
      <trkpt lat="46.45753" lon="5.26192">
        <ele>222.2</ele>
        <time>2022-03-08T13:39:26Z</time>
      </trkpt>
      <trkpt lat="46.45747" lon="5.26213">
        <ele>222</ele>
        <time>2022-03-08T13:39:29Z</time>
      </trkpt>
      <trkpt lat="46.45728" lon="5.26292">
        <ele>221.4</ele>
        <time>2022-03-08T13:39:39Z</time>
      </trkpt>
      <trkpt lat="46.45722" lon="5.26316">
        <ele>221</ele>
        <time>2022-03-08T13:39:42Z</time>
      </trkpt>
      <trkpt lat="46.45707" lon="5.26386">
        <ele>220</ele>
        <time>2022-03-08T13:39:50Z</time>
      </trkpt>
      <trkpt lat="46.45703" lon="5.26413">
        <ele>219.8</ele>
        <time>2022-03-08T13:39:53Z</time>
      </trkpt>
      <trkpt lat="46.45693" lon="5.2648">
        <ele>219.4</ele>
        <time>2022-03-08T13:40:00Z</time>
      </trkpt>
      <trkpt lat="46.45678" lon="5.26559">
        <ele>218.8</ele>
        <time>2022-03-08T13:40:08Z</time>
      </trkpt>
      <trkpt lat="46.45674" lon="5.26571">
        <ele>218.4</ele>
        <time>2022-03-08T13:40:09Z</time>
      </trkpt>
      <trkpt lat="46.4566" lon="5.26597">
        <ele>217.8</ele>
        <time>2022-03-08T13:40:12Z</time>
      </trkpt>
      <trkpt lat="46.45649" lon="5.26615">
        <ele>217.2</ele>
        <time>2022-03-08T13:40:14Z</time>
      </trkpt>
      <trkpt lat="46.45635" lon="5.26628">
        <ele>216.6</ele>
        <time>2022-03-08T13:40:16Z</time>
      </trkpt>
      <trkpt lat="46.45618" lon="5.26636">
        <ele>215.8</ele>
        <time>2022-03-08T13:40:18Z</time>
      </trkpt>
      <trkpt lat="46.456" lon="5.26641">
        <ele>215.4</ele>
        <time>2022-03-08T13:40:20Z</time>
      </trkpt>
      <trkpt lat="46.45564" lon="5.26647">
        <ele>215.2</ele>
        <time>2022-03-08T13:40:25Z</time>
      </trkpt>
      <trkpt lat="46.45557" lon="5.26646">
        <ele>215.2</ele>
        <time>2022-03-08T13:40:26Z</time>
      </trkpt>
      <trkpt lat="46.45525" lon="5.26636">
        <ele>215.4</ele>
        <time>2022-03-08T13:40:31Z</time>
      </trkpt>
      <trkpt lat="46.45484" lon="5.26618">
        <ele>216.2</ele>
        <time>2022-03-08T13:40:38Z</time>
      </trkpt>
      <trkpt lat="46.45436" lon="5.26594">
        <ele>216.4</ele>
        <time>2022-03-08T13:40:47Z</time>
      </trkpt>
      <trkpt lat="46.45417" lon="5.26583">
        <ele>217.2</ele>
        <time>2022-03-08T13:40:51Z</time>
      </trkpt>
      <trkpt lat="46.45395" lon="5.26572">
        <ele>217.8</ele>
        <time>2022-03-08T13:40:55Z</time>
      </trkpt>
      <trkpt lat="46.45381" lon="5.26565">
        <ele>218.4</ele>
        <time>2022-03-08T13:40:58Z</time>
      </trkpt>
      <trkpt lat="46.45348" lon="5.26554">
        <ele>218.8</ele>
        <time>2022-03-08T13:41:04Z</time>
      </trkpt>
      <trkpt lat="46.45304" lon="5.26547">
        <ele>219</ele>
        <time>2022-03-08T13:41:12Z</time>
      </trkpt>
      <trkpt lat="46.45251" lon="5.26555">
        <ele>218.8</ele>
        <time>2022-03-08T13:41:21Z</time>
      </trkpt>
      <trkpt lat="46.45201" lon="5.26558">
        <ele>218.6</ele>
        <time>2022-03-08T13:41:29Z</time>
      </trkpt>
      <trkpt lat="46.45159" lon="5.26543">
        <ele>218.4</ele>
        <time>2022-03-08T13:41:36Z</time>
      </trkpt>
      <trkpt lat="46.45101" lon="5.26521">
        <ele>219</ele>
        <time>2022-03-08T13:41:46Z</time>
      </trkpt>
      <trkpt lat="46.4506" lon="5.26515">
        <ele>218.8</ele>
        <time>2022-03-08T13:41:53Z</time>
      </trkpt>
      <trkpt lat="46.45001" lon="5.26513">
        <ele>218.2</ele>
        <time>2022-03-08T13:42:02Z</time>
      </trkpt>
      <trkpt lat="46.44994" lon="5.26513">
        <ele>218.2</ele>
        <time>2022-03-08T13:42:03Z</time>
      </trkpt>
      <trkpt lat="46.44948" lon="5.26519">
        <ele>217.8</ele>
        <time>2022-03-08T13:42:10Z</time>
      </trkpt>
      <trkpt lat="46.44914" lon="5.26535">
        <ele>217.4</ele>
        <time>2022-03-08T13:42:15Z</time>
      </trkpt>
      <trkpt lat="46.44895" lon="5.26544">
        <ele>217.2</ele>
        <time>2022-03-08T13:42:18Z</time>
      </trkpt>
      <trkpt lat="46.44872" lon="5.2656">
        <ele>217</ele>
        <time>2022-03-08T13:42:22Z</time>
      </trkpt>
      <trkpt lat="46.44846" lon="5.26594">
        <ele>217.6</ele>
        <time>2022-03-08T13:42:28Z</time>
      </trkpt>
      <trkpt lat="46.44838" lon="5.26622">
        <ele>218.4</ele>
        <time>2022-03-08T13:42:32Z</time>
      </trkpt>
      <trkpt lat="46.44832" lon="5.26643">
        <ele>219.2</ele>
        <time>2022-03-08T13:42:35Z</time>
      </trkpt>
      <trkpt lat="46.44829" lon="5.26648">
        <ele>219.4</ele>
        <time>2022-03-08T13:42:36Z</time>
      </trkpt>
      <trkpt lat="46.44825" lon="5.26653">
        <ele>219.6</ele>
        <time>2022-03-08T13:42:37Z</time>
      </trkpt>
      <trkpt lat="46.44815" lon="5.26659">
        <ele>220</ele>
        <time>2022-03-08T13:42:39Z</time>
      </trkpt>
      <trkpt lat="46.44808" lon="5.2666">
        <ele>220</ele>
        <time>2022-03-08T13:42:40Z</time>
      </trkpt>
      <trkpt lat="46.44794" lon="5.26662">
        <ele>220.4</ele>
        <time>2022-03-08T13:42:43Z</time>
      </trkpt>
      <trkpt lat="46.44788" lon="5.26665">
        <ele>220.4</ele>
        <time>2022-03-08T13:42:44Z</time>
      </trkpt>
      <trkpt lat="46.44778" lon="5.26671">
        <ele>220.6</ele>
        <time>2022-03-08T13:42:46Z</time>
      </trkpt>
      <trkpt lat="46.44761" lon="5.26684">
        <ele>220.6</ele>
        <time>2022-03-08T13:42:49Z</time>
      </trkpt>
      <trkpt lat="46.44755" lon="5.26688">
        <ele>220.6</ele>
        <time>2022-03-08T13:42:50Z</time>
      </trkpt>
      <trkpt lat="46.44713" lon="5.26702">
        <ele>219.6</ele>
        <time>2022-03-08T13:42:56Z</time>
      </trkpt>
      <trkpt lat="46.44704" lon="5.26703">
        <ele>219.4</ele>
        <time>2022-03-08T13:42:57Z</time>
      </trkpt>
      <trkpt lat="46.44677" lon="5.26701">
        <ele>217.6</ele>
        <time>2022-03-08T13:43:00Z</time>
      </trkpt>
      <trkpt lat="46.44641" lon="5.26682">
        <ele>216.6</ele>
        <time>2022-03-08T13:43:05Z</time>
      </trkpt>
      <trkpt lat="46.44607" lon="5.26658">
        <ele>216.4</ele>
        <time>2022-03-08T13:43:11Z</time>
      </trkpt>
      <trkpt lat="46.44583" lon="5.26645">
        <ele>216.6</ele>
        <time>2022-03-08T13:43:16Z</time>
      </trkpt>
      <trkpt lat="46.44565" lon="5.26638">
        <ele>217.4</ele>
        <time>2022-03-08T13:43:20Z</time>
      </trkpt>
      <trkpt lat="46.44561" lon="5.26638">
        <ele>217.8</ele>
        <time>2022-03-08T13:43:21Z</time>
      </trkpt>
      <trkpt lat="46.44555" lon="5.26639">
        <ele>217.8</ele>
        <time>2022-03-08T13:43:22Z</time>
      </trkpt>
      <trkpt lat="46.44546" lon="5.26642">
        <ele>218</ele>
        <time>2022-03-08T13:43:24Z</time>
      </trkpt>
      <trkpt lat="46.4453" lon="5.26649">
        <ele>218.8</ele>
        <time>2022-03-08T13:43:27Z</time>
      </trkpt>
      <trkpt lat="46.44516" lon="5.26658">
        <ele>219.4</ele>
        <time>2022-03-08T13:43:30Z</time>
      </trkpt>
      <trkpt lat="46.44506" lon="5.2667">
        <ele>219.6</ele>
        <time>2022-03-08T13:43:32Z</time>
      </trkpt>
      <trkpt lat="46.44478" lon="5.26705">
        <ele>218.4</ele>
        <time>2022-03-08T13:43:37Z</time>
      </trkpt>
      <trkpt lat="46.44465" lon="5.26715">
        <ele>217.8</ele>
        <time>2022-03-08T13:43:39Z</time>
      </trkpt>
      <trkpt lat="46.44448" lon="5.26721">
        <ele>216.8</ele>
        <time>2022-03-08T13:43:41Z</time>
      </trkpt>
      <trkpt lat="46.4444" lon="5.26723">
        <ele>216.2</ele>
        <time>2022-03-08T13:43:42Z</time>
      </trkpt>
      <trkpt lat="46.44416" lon="5.26729">
        <ele>215</ele>
        <time>2022-03-08T13:43:45Z</time>
      </trkpt>
      <trkpt lat="46.44384" lon="5.26741">
        <ele>214</ele>
        <time>2022-03-08T13:43:49Z</time>
      </trkpt>
      <trkpt lat="46.44376" lon="5.26747">
        <ele>213.6</ele>
        <time>2022-03-08T13:43:50Z</time>
      </trkpt>
      <trkpt lat="46.4437" lon="5.26755">
        <ele>212.8</ele>
        <time>2022-03-08T13:43:51Z</time>
      </trkpt>
      <trkpt lat="46.44365" lon="5.26762">
        <ele>212.6</ele>
        <time>2022-03-08T13:43:52Z</time>
      </trkpt>
      <trkpt lat="46.4436" lon="5.26773">
        <ele>212.2</ele>
        <time>2022-03-08T13:43:53Z</time>
      </trkpt>
      <trkpt lat="46.4435" lon="5.26797">
        <ele>211</ele>
        <time>2022-03-08T13:43:55Z</time>
      </trkpt>
      <trkpt lat="46.44344" lon="5.26807">
        <ele>210.6</ele>
        <time>2022-03-08T13:43:56Z</time>
      </trkpt>
      <trkpt lat="46.44338" lon="5.26813">
        <ele>210.2</ele>
        <time>2022-03-08T13:43:57Z</time>
      </trkpt>
      <trkpt lat="46.44331" lon="5.2682">
        <ele>210</ele>
        <time>2022-03-08T13:43:58Z</time>
      </trkpt>
      <trkpt lat="46.44323" lon="5.26824">
        <ele>209.4</ele>
        <time>2022-03-08T13:43:59Z</time>
      </trkpt>
      <trkpt lat="46.44306" lon="5.2683">
        <ele>208.8</ele>
        <time>2022-03-08T13:44:01Z</time>
      </trkpt>
      <trkpt lat="46.44289" lon="5.26835">
        <ele>208.4</ele>
        <time>2022-03-08T13:44:03Z</time>
      </trkpt>
      <trkpt lat="46.44266" lon="5.26844">
        <ele>207.8</ele>
        <time>2022-03-08T13:44:06Z</time>
      </trkpt>
      <trkpt lat="46.44242" lon="5.26859">
        <ele>207</ele>
        <time>2022-03-08T13:44:09Z</time>
      </trkpt>
      <trkpt lat="46.44227" lon="5.26869">
        <ele>206.2</ele>
        <time>2022-03-08T13:44:11Z</time>
      </trkpt>
      <trkpt lat="46.44211" lon="5.26882">
        <ele>205.6</ele>
        <time>2022-03-08T13:44:13Z</time>
      </trkpt>
      <trkpt lat="46.44201" lon="5.26892">
        <ele>204.8</ele>
        <time>2022-03-08T13:44:14Z</time>
      </trkpt>
      <trkpt lat="46.44188" lon="5.26909">
        <ele>203.6</ele>
        <time>2022-03-08T13:44:16Z</time>
      </trkpt>
      <trkpt lat="46.44179" lon="5.2692">
        <ele>203.2</ele>
        <time>2022-03-08T13:44:17Z</time>
      </trkpt>
      <trkpt lat="46.44171" lon="5.26926">
        <ele>202.8</ele>
        <time>2022-03-08T13:44:18Z</time>
      </trkpt>
      <trkpt lat="46.44161" lon="5.2693">
        <ele>202.6</ele>
        <time>2022-03-08T13:44:19Z</time>
      </trkpt>
      <trkpt lat="46.44144" lon="5.26927">
        <ele>201.2</ele>
        <time>2022-03-08T13:44:21Z</time>
      </trkpt>
      <trkpt lat="46.44126" lon="5.26913">
        <ele>200.2</ele>
        <time>2022-03-08T13:44:23Z</time>
      </trkpt>
      <trkpt lat="46.4412" lon="5.26907">
        <ele>200</ele>
        <time>2022-03-08T13:44:24Z</time>
      </trkpt>
      <trkpt lat="46.44083" lon="5.26873">
        <ele>199.2</ele>
        <time>2022-03-08T13:44:29Z</time>
      </trkpt>
      <trkpt lat="46.44062" lon="5.26852">
        <ele>198.8</ele>
        <time>2022-03-08T13:44:32Z</time>
      </trkpt>
      <trkpt lat="46.44027" lon="5.26821">
        <ele>199.4</ele>
        <time>2022-03-08T13:44:38Z</time>
      </trkpt>
      <trkpt lat="46.43993" lon="5.2679">
        <ele>200.4</ele>
        <time>2022-03-08T13:44:45Z</time>
      </trkpt>
      <trkpt lat="46.43983" lon="5.26784">
        <ele>201</ele>
        <time>2022-03-08T13:44:47Z</time>
      </trkpt>
      <trkpt lat="46.43971" lon="5.26783">
        <ele>201.2</ele>
        <time>2022-03-08T13:44:49Z</time>
      </trkpt>
      <trkpt lat="46.43965" lon="5.26782">
        <ele>201.4</ele>
        <time>2022-03-08T13:44:50Z</time>
      </trkpt>
      <trkpt lat="46.43959" lon="5.2678">
        <ele>201.4</ele>
        <time>2022-03-08T13:44:51Z</time>
      </trkpt>
      <trkpt lat="46.43955" lon="5.26776">
        <ele>201.6</ele>
        <time>2022-03-08T13:44:52Z</time>
      </trkpt>
      <trkpt lat="46.43952" lon="5.26772">
        <ele>201.6</ele>
        <time>2022-03-08T13:44:53Z</time>
      </trkpt>
      <trkpt lat="46.43948" lon="5.26766">
        <ele>201.6</ele>
        <time>2022-03-08T13:44:54Z</time>
      </trkpt>
      <trkpt lat="46.43937" lon="5.26758">
        <ele>201.8</ele>
        <time>2022-03-08T13:44:56Z</time>
      </trkpt>
      <trkpt lat="46.43932" lon="5.26757">
        <ele>201.8</ele>
        <time>2022-03-08T13:44:57Z</time>
      </trkpt>
      <trkpt lat="46.43927" lon="5.26758">
        <ele>201.8</ele>
        <time>2022-03-08T13:44:58Z</time>
      </trkpt>
      <trkpt lat="46.43916" lon="5.26764">
        <ele>202</ele>
        <time>2022-03-08T13:45:00Z</time>
      </trkpt>
      <trkpt lat="46.43909" lon="5.26773">
        <ele>202</ele>
        <time>2022-03-08T13:45:02Z</time>
      </trkpt>
      <trkpt lat="46.43902" lon="5.26788">
        <ele>202</ele>
        <time>2022-03-08T13:45:04Z</time>
      </trkpt>
      <trkpt lat="46.43899" lon="5.26794">
        <ele>202</ele>
        <time>2022-03-08T13:45:05Z</time>
      </trkpt>
      <trkpt lat="46.43891" lon="5.26802">
        <ele>202.2</ele>
        <time>2022-03-08T13:45:07Z</time>
      </trkpt>
      <trkpt lat="46.43881" lon="5.2681">
        <ele>202.2</ele>
        <time>2022-03-08T13:45:09Z</time>
      </trkpt>
      <trkpt lat="46.43874" lon="5.26818">
        <ele>202.4</ele>
        <time>2022-03-08T13:45:11Z</time>
      </trkpt>
      <trkpt lat="46.43871" lon="5.26824">
        <ele>202.4</ele>
        <time>2022-03-08T13:45:12Z</time>
      </trkpt>
      <trkpt lat="46.43869" lon="5.26832">
        <ele>202.4</ele>
        <time>2022-03-08T13:45:13Z</time>
      </trkpt>
      <trkpt lat="46.43867" lon="5.26838">
        <ele>202.6</ele>
        <time>2022-03-08T13:45:14Z</time>
      </trkpt>
      <trkpt lat="46.43866" lon="5.26845">
        <ele>202.6</ele>
        <time>2022-03-08T13:45:15Z</time>
      </trkpt>
      <trkpt lat="46.43866" lon="5.26851">
        <ele>202.6</ele>
        <time>2022-03-08T13:45:16Z</time>
      </trkpt>
      <trkpt lat="46.43864" lon="5.26895">
        <ele>203.6</ele>
        <time>2022-03-08T13:45:22Z</time>
      </trkpt>
      <trkpt lat="46.43863" lon="5.26903">
        <ele>204</ele>
        <time>2022-03-08T13:45:23Z</time>
      </trkpt>
      <trkpt lat="46.4386" lon="5.26918">
        <ele>204.2</ele>
        <time>2022-03-08T13:45:25Z</time>
      </trkpt>
      <trkpt lat="46.43855" lon="5.26932">
        <ele>204.4</ele>
        <time>2022-03-08T13:45:27Z</time>
      </trkpt>
      <trkpt lat="46.43845" lon="5.26951">
        <ele>204.6</ele>
        <time>2022-03-08T13:45:30Z</time>
      </trkpt>
      <trkpt lat="46.43836" lon="5.26963">
        <ele>204.4</ele>
        <time>2022-03-08T13:45:32Z</time>
      </trkpt>
      <trkpt lat="46.4382" lon="5.26977">
        <ele>204.4</ele>
        <time>2022-03-08T13:45:35Z</time>
      </trkpt>
      <trkpt lat="46.43814" lon="5.26981">
        <ele>204.2</ele>
        <time>2022-03-08T13:45:36Z</time>
      </trkpt>
      <trkpt lat="46.43793" lon="5.26988">
        <ele>203.6</ele>
        <time>2022-03-08T13:45:39Z</time>
      </trkpt>
      <trkpt lat="46.43786" lon="5.26989">
        <ele>203.6</ele>
        <time>2022-03-08T13:45:40Z</time>
      </trkpt>
      <trkpt lat="46.43772" lon="5.26987">
        <ele>203.2</ele>
        <time>2022-03-08T13:45:42Z</time>
      </trkpt>
      <trkpt lat="46.43765" lon="5.26985">
        <ele>203</ele>
        <time>2022-03-08T13:45:43Z</time>
      </trkpt>
      <trkpt lat="46.4371" lon="5.26965">
        <ele>202.8</ele>
        <time>2022-03-08T13:45:52Z</time>
      </trkpt>
      <trkpt lat="46.43658" lon="5.26945">
        <ele>203</ele>
        <time>2022-03-08T13:46:01Z</time>
      </trkpt>
      <trkpt lat="46.43652" lon="5.26943">
        <ele>203</ele>
        <time>2022-03-08T13:46:02Z</time>
      </trkpt>
      <trkpt lat="46.43596" lon="5.26923">
        <ele>203.4</ele>
        <time>2022-03-08T13:46:12Z</time>
      </trkpt>
      <trkpt lat="46.4359" lon="5.26921">
        <ele>203.4</ele>
        <time>2022-03-08T13:46:13Z</time>
      </trkpt>
      <trkpt lat="46.43552" lon="5.2691">
        <ele>203.4</ele>
        <time>2022-03-08T13:46:20Z</time>
      </trkpt>
      <trkpt lat="46.43496" lon="5.26901">
        <ele>203.6</ele>
        <time>2022-03-08T13:46:30Z</time>
      </trkpt>
      <trkpt lat="46.43443" lon="5.2689">
        <ele>204.4</ele>
        <time>2022-03-08T13:46:40Z</time>
      </trkpt>
      <trkpt lat="46.43429" lon="5.26888">
        <ele>204.6</ele>
        <time>2022-03-08T13:46:43Z</time>
      </trkpt>
      <trkpt lat="46.43407" lon="5.26882">
        <ele>205.2</ele>
        <time>2022-03-08T13:46:48Z</time>
      </trkpt>
      <trkpt lat="46.43389" lon="5.26878">
        <ele>205.8</ele>
        <time>2022-03-08T13:46:52Z</time>
      </trkpt>
      <trkpt lat="46.4337" lon="5.26874">
        <ele>206.2</ele>
        <time>2022-03-08T13:46:56Z</time>
      </trkpt>
      <trkpt lat="46.43333" lon="5.26871">
        <ele>206.6</ele>
        <time>2022-03-08T13:47:03Z</time>
      </trkpt>
      <trkpt lat="46.43317" lon="5.2687">
        <ele>206.8</ele>
        <time>2022-03-08T13:47:06Z</time>
      </trkpt>
      <trkpt lat="46.43299" lon="5.2687">
        <ele>207</ele>
        <time>2022-03-08T13:47:09Z</time>
      </trkpt>
      <trkpt lat="46.43271" lon="5.26872">
        <ele>207.2</ele>
        <time>2022-03-08T13:47:14Z</time>
      </trkpt>
      <trkpt lat="46.43267" lon="5.26873">
        <ele>207.2</ele>
        <time>2022-03-08T13:47:15Z</time>
      </trkpt>
      <trkpt lat="46.43226" lon="5.26872">
        <ele>207.4</ele>
        <time>2022-03-08T13:47:22Z</time>
      </trkpt>
      <trkpt lat="46.43181" lon="5.26864">
        <ele>207.6</ele>
        <time>2022-03-08T13:47:31Z</time>
      </trkpt>
      <trkpt lat="46.43173" lon="5.26862">
        <ele>207.8</ele>
        <time>2022-03-08T13:47:33Z</time>
      </trkpt>
      <trkpt lat="46.43153" lon="5.26856">
        <ele>208.8</ele>
        <time>2022-03-08T13:47:38Z</time>
      </trkpt>
      <trkpt lat="46.43127" lon="5.2685">
        <ele>209.8</ele>
        <time>2022-03-08T13:47:45Z</time>
      </trkpt>
      <trkpt lat="46.43123" lon="5.26849">
        <ele>209.8</ele>
        <time>2022-03-08T13:47:46Z</time>
      </trkpt>
      <trkpt lat="46.43109" lon="5.26845">
        <ele>211</ele>
        <time>2022-03-08T13:47:50Z</time>
      </trkpt>
      <trkpt lat="46.43102" lon="5.26844">
        <ele>211.8</ele>
        <time>2022-03-08T13:47:52Z</time>
      </trkpt>
      <trkpt lat="46.43096" lon="5.26842">
        <ele>212.4</ele>
        <time>2022-03-08T13:47:54Z</time>
      </trkpt>
      <trkpt lat="46.43082" lon="5.26838">
        <ele>213.2</ele>
        <time>2022-03-08T13:47:58Z</time>
      </trkpt>
      <trkpt lat="46.43078" lon="5.26838">
        <ele>213.4</ele>
        <time>2022-03-08T13:47:59Z</time>
      </trkpt>
      <trkpt lat="46.4306" lon="5.26836">
        <ele>214.8</ele>
        <time>2022-03-08T13:48:04Z</time>
      </trkpt>
      <trkpt lat="46.43048" lon="5.26836">
        <ele>215.8</ele>
        <time>2022-03-08T13:48:08Z</time>
      </trkpt>
      <trkpt lat="46.43044" lon="5.26836">
        <ele>216</ele>
        <time>2022-03-08T13:48:09Z</time>
      </trkpt>
      <trkpt lat="46.43036" lon="5.26836">
        <ele>217</ele>
        <time>2022-03-08T13:48:12Z</time>
      </trkpt>
      <trkpt lat="46.4302" lon="5.26837">
        <ele>218</ele>
        <time>2022-03-08T13:48:17Z</time>
      </trkpt>
      <trkpt lat="46.43016" lon="5.26837">
        <ele>218.2</ele>
        <time>2022-03-08T13:48:18Z</time>
      </trkpt>
      <trkpt lat="46.42991" lon="5.26839">
        <ele>219.2</ele>
        <time>2022-03-08T13:48:25Z</time>
      </trkpt>
      <trkpt lat="46.4298" lon="5.26841">
        <ele>219.4</ele>
        <time>2022-03-08T13:48:28Z</time>
      </trkpt>
      <trkpt lat="46.42949" lon="5.26845">
        <ele>220.2</ele>
        <time>2022-03-08T13:48:36Z</time>
      </trkpt>
      <trkpt lat="46.42941" lon="5.26846">
        <ele>220.4</ele>
        <time>2022-03-08T13:48:38Z</time>
      </trkpt>
      <trkpt lat="46.42897" lon="5.26852">
        <ele>221</ele>
        <time>2022-03-08T13:48:48Z</time>
      </trkpt>
      <trkpt lat="46.42853" lon="5.26855">
        <ele>220.6</ele>
        <time>2022-03-08T13:48:56Z</time>
      </trkpt>
      <trkpt lat="46.42803" lon="5.26849">
        <ele>220.2</ele>
        <time>2022-03-08T13:49:04Z</time>
      </trkpt>
      <trkpt lat="46.42776" lon="5.26843">
        <ele>219.2</ele>
        <time>2022-03-08T13:49:08Z</time>
      </trkpt>
      <trkpt lat="46.42767" lon="5.26841">
        <ele>219</ele>
        <time>2022-03-08T13:49:09Z</time>
      </trkpt>
      <trkpt lat="46.42738" lon="5.26834">
        <ele>217.8</ele>
        <time>2022-03-08T13:49:13Z</time>
      </trkpt>
      <trkpt lat="46.42719" lon="5.2683">
        <ele>217.4</ele>
        <time>2022-03-08T13:49:15Z</time>
      </trkpt>
      <trkpt lat="46.42704" lon="5.26826">
        <ele>216.4</ele>
        <time>2022-03-08T13:49:17Z</time>
      </trkpt>
      <trkpt lat="46.42675" lon="5.26818">
        <ele>215</ele>
        <time>2022-03-08T13:49:20Z</time>
      </trkpt>
      <trkpt lat="46.42658" lon="5.26814">
        <ele>214</ele>
        <time>2022-03-08T13:49:22Z</time>
      </trkpt>
      <trkpt lat="46.42647" lon="5.26812">
        <ele>213.6</ele>
        <time>2022-03-08T13:49:23Z</time>
      </trkpt>
      <trkpt lat="46.4263" lon="5.26808">
        <ele>212.4</ele>
        <time>2022-03-08T13:49:25Z</time>
      </trkpt>
      <trkpt lat="46.42609" lon="5.26802">
        <ele>210.8</ele>
        <time>2022-03-08T13:49:27Z</time>
      </trkpt>
      <trkpt lat="46.4259" lon="5.26798">
        <ele>209.8</ele>
        <time>2022-03-08T13:49:29Z</time>
      </trkpt>
      <trkpt lat="46.42573" lon="5.26793">
        <ele>208.4</ele>
        <time>2022-03-08T13:49:31Z</time>
      </trkpt>
      <trkpt lat="46.42552" lon="5.26788">
        <ele>207.4</ele>
        <time>2022-03-08T13:49:33Z</time>
      </trkpt>
      <trkpt lat="46.42526" lon="5.26782">
        <ele>206.2</ele>
        <time>2022-03-08T13:49:36Z</time>
      </trkpt>
      <trkpt lat="46.42492" lon="5.26774">
        <ele>205.6</ele>
        <time>2022-03-08T13:49:39Z</time>
      </trkpt>
      <trkpt lat="46.42456" lon="5.26765">
        <ele>205.2</ele>
        <time>2022-03-08T13:49:45Z</time>
      </trkpt>
      <trkpt lat="46.42415" lon="5.26755">
        <ele>205.8</ele>
        <time>2022-03-08T13:49:51Z</time>
      </trkpt>
      <trkpt lat="46.42369" lon="5.26744">
        <ele>206.4</ele>
        <time>2022-03-08T13:50:00Z</time>
      </trkpt>
      <trkpt lat="46.42314" lon="5.26731">
        <ele>207</ele>
        <time>2022-03-08T13:50:11Z</time>
      </trkpt>
      <trkpt lat="46.42304" lon="5.26728">
        <ele>207.4</ele>
        <time>2022-03-08T13:50:13Z</time>
      </trkpt>
      <trkpt lat="46.42284" lon="5.26722">
        <ele>208.2</ele>
        <time>2022-03-08T13:50:18Z</time>
      </trkpt>
      <trkpt lat="46.4227" lon="5.26718">
        <ele>209</ele>
        <time>2022-03-08T13:50:20Z</time>
      </trkpt>
      <trkpt lat="46.42256" lon="5.26714">
        <ele>209.6</ele>
        <time>2022-03-08T13:50:23Z</time>
      </trkpt>
      <trkpt lat="46.42238" lon="5.26708">
        <ele>210.6</ele>
        <time>2022-03-08T13:50:27Z</time>
      </trkpt>
      <trkpt lat="46.42229" lon="5.26705">
        <ele>210.8</ele>
        <time>2022-03-08T13:50:29Z</time>
      </trkpt>
      <trkpt lat="46.42191" lon="5.26691">
        <ele>211.6</ele>
        <time>2022-03-08T13:50:37Z</time>
      </trkpt>
      <trkpt lat="46.42186" lon="5.26689">
        <ele>211.6</ele>
        <time>2022-03-08T13:50:38Z</time>
      </trkpt>
      <trkpt lat="46.4214" lon="5.26674">
        <ele>211.8</ele>
        <time>2022-03-08T13:50:46Z</time>
      </trkpt>
      <trkpt lat="46.42095" lon="5.26658">
        <ele>210.8</ele>
        <time>2022-03-08T13:50:53Z</time>
      </trkpt>
      <trkpt lat="46.42095" lon="5.26658">
        <ele>210.6</ele>
        <time>2022-03-08T13:50:54Z</time>
      </trkpt>
      <trkpt lat="46.42043" lon="5.26638">
        <ele>209.8</ele>
        <time>2022-03-08T13:51:01Z</time>
      </trkpt>
      <trkpt lat="46.42025" lon="5.26631">
        <ele>209.6</ele>
        <time>2022-03-08T13:51:04Z</time>
      </trkpt>
      <trkpt lat="46.41978" lon="5.26613">
        <ele>209.6</ele>
        <time>2022-03-08T13:51:12Z</time>
      </trkpt>
      <trkpt lat="46.41925" lon="5.26592">
        <ele>209.8</ele>
        <time>2022-03-08T13:51:21Z</time>
      </trkpt>
      <trkpt lat="46.4187" lon="5.2657">
        <ele>209.6</ele>
        <time>2022-03-08T13:51:30Z</time>
      </trkpt>
      <trkpt lat="46.4187" lon="5.2657">
        <ele>209.4</ele>
        <time>2022-03-08T13:51:31Z</time>
      </trkpt>
      <trkpt lat="46.41856" lon="5.26565">
        <ele>209.4</ele>
        <time>2022-03-08T13:51:32Z</time>
      </trkpt>
      <trkpt lat="46.41831" lon="5.26554">
        <ele>208.4</ele>
        <time>2022-03-08T13:51:36Z</time>
      </trkpt>
      <trkpt lat="46.41787" lon="5.26535">
        <ele>207.8</ele>
        <time>2022-03-08T13:51:43Z</time>
      </trkpt>
      <trkpt lat="46.41732" lon="5.26513">
        <ele>207.6</ele>
        <time>2022-03-08T13:51:52Z</time>
      </trkpt>
      <trkpt lat="46.41714" lon="5.26507">
        <ele>207.6</ele>
        <time>2022-03-08T13:51:55Z</time>
      </trkpt>
      <trkpt lat="46.4167" lon="5.26502">
        <ele>207.6</ele>
        <time>2022-03-08T13:52:02Z</time>
      </trkpt>
      <trkpt lat="46.4162" lon="5.2651">
        <ele>207.4</ele>
        <time>2022-03-08T13:52:10Z</time>
      </trkpt>
      <trkpt lat="46.4158" lon="5.26529">
        <ele>207.4</ele>
        <time>2022-03-08T13:52:18Z</time>
      </trkpt>
      <trkpt lat="46.41534" lon="5.26568">
        <ele>207.4</ele>
        <time>2022-03-08T13:52:25Z</time>
      </trkpt>
      <trkpt lat="46.41487" lon="5.26615">
        <ele>207.4</ele>
        <time>2022-03-08T13:52:34Z</time>
      </trkpt>
      <trkpt lat="46.41484" lon="5.26618">
        <ele>207.6</ele>
        <time>2022-03-08T13:52:35Z</time>
      </trkpt>
      <trkpt lat="46.41448" lon="5.26654">
        <ele>208.2</ele>
        <time>2022-03-08T13:52:43Z</time>
      </trkpt>
      <trkpt lat="46.41435" lon="5.26666">
        <ele>208.6</ele>
        <time>2022-03-08T13:52:46Z</time>
      </trkpt>
      <trkpt lat="46.41415" lon="5.26686">
        <ele>209.2</ele>
        <time>2022-03-08T13:52:51Z</time>
      </trkpt>
      <trkpt lat="46.41405" lon="5.26696">
        <ele>209.8</ele>
        <time>2022-03-08T13:52:54Z</time>
      </trkpt>
      <trkpt lat="46.41392" lon="5.2671">
        <ele>210.6</ele>
        <time>2022-03-08T13:52:58Z</time>
      </trkpt>
      <trkpt lat="46.41382" lon="5.26719">
        <ele>210.8</ele>
        <time>2022-03-08T13:53:01Z</time>
      </trkpt>
      <trkpt lat="46.41365" lon="5.26737">
        <ele>212</ele>
        <time>2022-03-08T13:53:06Z</time>
      </trkpt>
      <trkpt lat="46.41361" lon="5.26741">
        <ele>212.2</ele>
        <time>2022-03-08T13:53:07Z</time>
      </trkpt>
      <trkpt lat="46.41345" lon="5.2676">
        <ele>213.2</ele>
        <time>2022-03-08T13:53:12Z</time>
      </trkpt>
      <trkpt lat="46.41332" lon="5.26772">
        <ele>214</ele>
        <time>2022-03-08T13:53:16Z</time>
      </trkpt>
      <trkpt lat="46.41329" lon="5.26776">
        <ele>214.4</ele>
        <time>2022-03-08T13:53:17Z</time>
      </trkpt>
      <trkpt lat="46.4132" lon="5.26785">
        <ele>215.4</ele>
        <time>2022-03-08T13:53:20Z</time>
      </trkpt>
      <trkpt lat="46.41307" lon="5.26796">
        <ele>216.4</ele>
        <time>2022-03-08T13:53:24Z</time>
      </trkpt>
      <trkpt lat="46.41304" lon="5.26798">
        <ele>216.6</ele>
        <time>2022-03-08T13:53:25Z</time>
      </trkpt>
      <trkpt lat="46.4129" lon="5.26807">
        <ele>217.6</ele>
        <time>2022-03-08T13:53:30Z</time>
      </trkpt>
      <trkpt lat="46.41276" lon="5.26812">
        <ele>218.2</ele>
        <time>2022-03-08T13:53:33Z</time>
      </trkpt>
      <trkpt lat="46.41268" lon="5.26813">
        <ele>218.6</ele>
        <time>2022-03-08T13:53:35Z</time>
      </trkpt>
      <trkpt lat="46.41251" lon="5.26819">
        <ele>219.8</ele>
        <time>2022-03-08T13:53:40Z</time>
      </trkpt>
      <trkpt lat="46.41247" lon="5.26821">
        <ele>220</ele>
        <time>2022-03-08T13:53:41Z</time>
      </trkpt>
      <trkpt lat="46.41232" lon="5.26829">
        <ele>221</ele>
        <time>2022-03-08T13:53:45Z</time>
      </trkpt>
      <trkpt lat="46.41221" lon="5.26838">
        <ele>221.6</ele>
        <time>2022-03-08T13:53:48Z</time>
      </trkpt>
      <trkpt lat="46.41214" lon="5.26844">
        <ele>222</ele>
        <time>2022-03-08T13:53:50Z</time>
      </trkpt>
      <trkpt lat="46.41211" lon="5.26846">
        <ele>222</ele>
        <time>2022-03-08T13:53:51Z</time>
      </trkpt>
      <trkpt lat="46.41207" lon="5.26849">
        <ele>222.2</ele>
        <time>2022-03-08T13:53:52Z</time>
      </trkpt>
      <trkpt lat="46.41198" lon="5.2685">
        <ele>222.4</ele>
        <time>2022-03-08T13:53:54Z</time>
      </trkpt>
      <trkpt lat="46.41193" lon="5.2685">
        <ele>222.4</ele>
        <time>2022-03-08T13:53:55Z</time>
      </trkpt>
      <trkpt lat="46.41184" lon="5.26854">
        <ele>222.8</ele>
        <time>2022-03-08T13:53:57Z</time>
      </trkpt>
      <trkpt lat="46.4118" lon="5.26857">
        <ele>222.8</ele>
        <time>2022-03-08T13:53:58Z</time>
      </trkpt>
      <trkpt lat="46.41177" lon="5.26862">
        <ele>223</ele>
        <time>2022-03-08T13:53:59Z</time>
      </trkpt>
      <trkpt lat="46.41171" lon="5.26872">
        <ele>223.2</ele>
        <time>2022-03-08T13:54:01Z</time>
      </trkpt>
      <trkpt lat="46.41164" lon="5.26881">
        <ele>223.2</ele>
        <time>2022-03-08T13:54:03Z</time>
      </trkpt>
      <trkpt lat="46.41143" lon="5.26893">
        <ele>223.8</ele>
        <time>2022-03-08T13:54:08Z</time>
      </trkpt>
      <trkpt lat="46.41123" lon="5.26899">
        <ele>224.2</ele>
        <time>2022-03-08T13:54:12Z</time>
      </trkpt>
      <trkpt lat="46.41098" lon="5.26903">
        <ele>224.8</ele>
        <time>2022-03-08T13:54:17Z</time>
      </trkpt>
      <trkpt lat="46.41085" lon="5.26904">
        <ele>224.6</ele>
        <time>2022-03-08T13:54:19Z</time>
      </trkpt>
      <trkpt lat="46.41056" lon="5.26901">
        <ele>224.2</ele>
        <time>2022-03-08T13:54:24Z</time>
      </trkpt>
      <trkpt lat="46.40999" lon="5.26904">
        <ele>223.4</ele>
        <time>2022-03-08T13:54:33Z</time>
      </trkpt>
      <trkpt lat="46.40981" lon="5.26907">
        <ele>223</ele>
        <time>2022-03-08T13:54:36Z</time>
      </trkpt>
      <trkpt lat="46.40932" lon="5.26917">
        <ele>222.2</ele>
        <time>2022-03-08T13:54:43Z</time>
      </trkpt>
      <trkpt lat="46.40918" lon="5.26921">
        <ele>222</ele>
        <time>2022-03-08T13:54:45Z</time>
      </trkpt>
      <trkpt lat="46.40894" lon="5.26931">
        <ele>221.4</ele>
        <time>2022-03-08T13:54:49Z</time>
      </trkpt>
      <trkpt lat="46.4086" lon="5.26948">
        <ele>220.8</ele>
        <time>2022-03-08T13:54:54Z</time>
      </trkpt>
      <trkpt lat="46.40839" lon="5.2696">
        <ele>220.4</ele>
        <time>2022-03-08T13:54:57Z</time>
      </trkpt>
      <trkpt lat="46.40818" lon="5.2697">
        <ele>220</ele>
        <time>2022-03-08T13:55:01Z</time>
      </trkpt>
      <trkpt lat="46.40783" lon="5.2698">
        <ele>219.8</ele>
        <time>2022-03-08T13:55:05Z</time>
      </trkpt>
      <trkpt lat="46.40769" lon="5.2698">
        <ele>219.6</ele>
        <time>2022-03-08T13:55:07Z</time>
      </trkpt>
      <trkpt lat="46.40749" lon="5.26976">
        <ele>219.4</ele>
        <time>2022-03-08T13:55:10Z</time>
      </trkpt>
      <trkpt lat="46.40708" lon="5.26969">
        <ele>219.4</ele>
        <time>2022-03-08T13:55:17Z</time>
      </trkpt>
      <trkpt lat="46.40662" lon="5.26959">
        <ele>220.2</ele>
        <time>2022-03-08T13:55:25Z</time>
      </trkpt>
      <trkpt lat="46.40657" lon="5.26957">
        <ele>220.4</ele>
        <time>2022-03-08T13:55:26Z</time>
      </trkpt>
      <trkpt lat="46.40615" lon="5.26935">
        <ele>220.8</ele>
        <time>2022-03-08T13:55:33Z</time>
      </trkpt>
      <trkpt lat="46.40558" lon="5.26904">
        <ele>220.6</ele>
        <time>2022-03-08T13:55:42Z</time>
      </trkpt>
      <trkpt lat="46.40551" lon="5.26901">
        <ele>220.6</ele>
        <time>2022-03-08T13:55:43Z</time>
      </trkpt>
      <trkpt lat="46.40503" lon="5.26887">
        <ele>220</ele>
        <time>2022-03-08T13:55:50Z</time>
      </trkpt>
      <trkpt lat="46.40466" lon="5.26883">
        <ele>219.6</ele>
        <time>2022-03-08T13:55:56Z</time>
      </trkpt>
      <trkpt lat="46.40419" lon="5.26877">
        <ele>220.2</ele>
        <time>2022-03-08T13:56:04Z</time>
      </trkpt>
      <trkpt lat="46.40378" lon="5.26876">
        <ele>220.6</ele>
        <time>2022-03-08T13:56:11Z</time>
      </trkpt>
      <trkpt lat="46.40338" lon="5.26886">
        <ele>220.8</ele>
        <time>2022-03-08T13:56:18Z</time>
      </trkpt>
      <trkpt lat="46.40327" lon="5.26887">
        <ele>221</ele>
        <time>2022-03-08T13:56:20Z</time>
      </trkpt>
      <trkpt lat="46.40304" lon="5.26887">
        <ele>221.4</ele>
        <time>2022-03-08T13:56:24Z</time>
      </trkpt>
      <trkpt lat="46.40258" lon="5.2689">
        <ele>221.4</ele>
        <time>2022-03-08T13:56:32Z</time>
      </trkpt>
      <trkpt lat="46.40203" lon="5.26893">
        <ele>221.6</ele>
        <time>2022-03-08T13:56:42Z</time>
      </trkpt>
      <trkpt lat="46.40198" lon="5.26893">
        <ele>221.6</ele>
        <time>2022-03-08T13:56:43Z</time>
      </trkpt>
      <trkpt lat="46.40176" lon="5.26895">
        <ele>222</ele>
        <time>2022-03-08T13:56:47Z</time>
      </trkpt>
      <trkpt lat="46.40147" lon="5.26897">
        <ele>222.6</ele>
        <time>2022-03-08T13:56:53Z</time>
      </trkpt>
      <trkpt lat="46.40103" lon="5.26897">
        <ele>223</ele>
        <time>2022-03-08T13:57:01Z</time>
      </trkpt>
      <trkpt lat="46.40094" lon="5.26896">
        <ele>223.2</ele>
        <time>2022-03-08T13:57:03Z</time>
      </trkpt>
      <trkpt lat="46.40053" lon="5.26883">
        <ele>224.2</ele>
        <time>2022-03-08T13:57:11Z</time>
      </trkpt>
      <trkpt lat="46.40013" lon="5.26867">
        <ele>225.2</ele>
        <time>2022-03-08T13:57:19Z</time>
      </trkpt>
      <trkpt lat="46.39993" lon="5.26857">
        <ele>225.4</ele>
        <time>2022-03-08T13:57:23Z</time>
      </trkpt>
      <trkpt lat="46.39942" lon="5.26834">
        <ele>225.4</ele>
        <time>2022-03-08T13:57:32Z</time>
      </trkpt>
      <trkpt lat="46.39893" lon="5.26812">
        <ele>224</ele>
        <time>2022-03-08T13:57:39Z</time>
      </trkpt>
      <trkpt lat="46.39887" lon="5.2681">
        <ele>223.6</ele>
        <time>2022-03-08T13:57:40Z</time>
      </trkpt>
      <trkpt lat="46.39872" lon="5.26807">
        <ele>223</ele>
        <time>2022-03-08T13:57:42Z</time>
      </trkpt>
      <trkpt lat="46.39862" lon="5.26806">
        <ele>222.8</ele>
        <time>2022-03-08T13:57:43Z</time>
      </trkpt>
      <trkpt lat="46.39862" lon="5.26806">
        <ele>222.6</ele>
        <time>2022-03-08T13:57:44Z</time>
      </trkpt>
      <trkpt lat="46.39832" lon="5.26809">
        <ele>221.8</ele>
        <time>2022-03-08T13:57:47Z</time>
      </trkpt>
      <trkpt lat="46.39801" lon="5.26812">
        <ele>220.6</ele>
        <time>2022-03-08T13:57:51Z</time>
      </trkpt>
      <trkpt lat="46.39768" lon="5.26822">
        <ele>220</ele>
        <time>2022-03-08T13:57:56Z</time>
      </trkpt>
      <trkpt lat="46.39727" lon="5.26835">
        <ele>220.2</ele>
        <time>2022-03-08T13:58:03Z</time>
      </trkpt>
      <trkpt lat="46.39703" lon="5.26838">
        <ele>220.8</ele>
        <time>2022-03-08T13:58:08Z</time>
      </trkpt>
      <trkpt lat="46.39672" lon="5.26835">
        <ele>221.4</ele>
        <time>2022-03-08T13:58:14Z</time>
      </trkpt>
      <trkpt lat="46.39666" lon="5.26835">
        <ele>221.4</ele>
        <time>2022-03-08T13:58:15Z</time>
      </trkpt>
      <trkpt lat="46.39661" lon="5.26834">
        <ele>221.6</ele>
        <time>2022-03-08T13:58:16Z</time>
      </trkpt>
      <trkpt lat="46.39646" lon="5.26831">
        <ele>222</ele>
        <time>2022-03-08T13:58:19Z</time>
      </trkpt>
      <trkpt lat="46.39631" lon="5.26828">
        <ele>222.6</ele>
        <time>2022-03-08T13:58:22Z</time>
      </trkpt>
      <trkpt lat="46.39627" lon="5.26828">
        <ele>222.8</ele>
        <time>2022-03-08T13:58:23Z</time>
      </trkpt>
      <trkpt lat="46.39607" lon="5.2683">
        <ele>223.2</ele>
        <time>2022-03-08T13:58:27Z</time>
      </trkpt>
      <trkpt lat="46.39601" lon="5.26834">
        <ele>223.4</ele>
        <time>2022-03-08T13:58:28Z</time>
      </trkpt>
      <trkpt lat="46.39596" lon="5.26838">
        <ele>223.6</ele>
        <time>2022-03-08T13:58:29Z</time>
      </trkpt>
      <trkpt lat="46.39592" lon="5.26843">
        <ele>223.8</ele>
        <time>2022-03-08T13:58:30Z</time>
      </trkpt>
      <trkpt lat="46.3959" lon="5.26847">
        <ele>223.8</ele>
        <time>2022-03-08T13:58:31Z</time>
      </trkpt>
      <trkpt lat="46.39587" lon="5.26854">
        <ele>224.2</ele>
        <time>2022-03-08T13:58:32Z</time>
      </trkpt>
      <trkpt lat="46.39578" lon="5.2688">
        <ele>224.8</ele>
        <time>2022-03-08T13:58:36Z</time>
      </trkpt>
      <trkpt lat="46.39575" lon="5.26885">
        <ele>225</ele>
        <time>2022-03-08T13:58:37Z</time>
      </trkpt>
      <trkpt lat="46.3957" lon="5.26891">
        <ele>225</ele>
        <time>2022-03-08T13:58:38Z</time>
      </trkpt>
      <trkpt lat="46.39558" lon="5.26903">
        <ele>225.8</ele>
        <time>2022-03-08T13:58:41Z</time>
      </trkpt>
      <trkpt lat="46.39552" lon="5.26907">
        <ele>226.2</ele>
        <time>2022-03-08T13:58:42Z</time>
      </trkpt>
      <trkpt lat="46.39519" lon="5.26922">
        <ele>226.6</ele>
        <time>2022-03-08T13:58:48Z</time>
      </trkpt>
      <trkpt lat="46.39503" lon="5.26932">
        <ele>226.6</ele>
        <time>2022-03-08T13:58:51Z</time>
      </trkpt>
      <trkpt lat="46.39497" lon="5.26938">
        <ele>226.6</ele>
        <time>2022-03-08T13:58:52Z</time>
      </trkpt>
      <trkpt lat="46.39493" lon="5.26945">
        <ele>226.6</ele>
        <time>2022-03-08T13:58:53Z</time>
      </trkpt>
      <trkpt lat="46.39478" lon="5.26975">
        <ele>226.4</ele>
        <time>2022-03-08T13:58:57Z</time>
      </trkpt>
      <trkpt lat="46.39459" lon="5.27021">
        <ele>226</ele>
        <time>2022-03-08T13:59:02Z</time>
      </trkpt>
      <trkpt lat="46.39441" lon="5.27083">
        <ele>225.4</ele>
        <time>2022-03-08T13:59:08Z</time>
      </trkpt>
      <trkpt lat="46.39433" lon="5.27099">
        <ele>225.2</ele>
        <time>2022-03-08T13:59:10Z</time>
      </trkpt>
      <trkpt lat="46.3942" lon="5.27113">
        <ele>225</ele>
        <time>2022-03-08T13:59:12Z</time>
      </trkpt>
      <trkpt lat="46.39382" lon="5.27137">
        <ele>225</ele>
        <time>2022-03-08T13:59:18Z</time>
      </trkpt>
      <trkpt lat="46.39339" lon="5.27169">
        <ele>225.2</ele>
        <time>2022-03-08T13:59:25Z</time>
      </trkpt>
      <trkpt lat="46.39304" lon="5.27188">
        <ele>225.2</ele>
        <time>2022-03-08T13:59:31Z</time>
      </trkpt>
      <trkpt lat="46.39254" lon="5.27214">
        <ele>225.4</ele>
        <time>2022-03-08T13:59:40Z</time>
      </trkpt>
      <trkpt lat="46.39248" lon="5.27218">
        <ele>225.4</ele>
        <time>2022-03-08T13:59:41Z</time>
      </trkpt>
      <trkpt lat="46.39243" lon="5.27222">
        <ele>225.4</ele>
        <time>2022-03-08T13:59:42Z</time>
      </trkpt>
      <trkpt lat="46.39233" lon="5.27233">
        <ele>225.6</ele>
        <time>2022-03-08T13:59:44Z</time>
      </trkpt>
      <trkpt lat="46.39225" lon="5.27245">
        <ele>225.8</ele>
        <time>2022-03-08T13:59:46Z</time>
      </trkpt>
      <trkpt lat="46.39219" lon="5.27259">
        <ele>226.2</ele>
        <time>2022-03-08T13:59:48Z</time>
      </trkpt>
      <trkpt lat="46.39211" lon="5.27282">
        <ele>226.6</ele>
        <time>2022-03-08T13:59:51Z</time>
      </trkpt>
      <trkpt lat="46.39198" lon="5.27331">
        <ele>227.4</ele>
        <time>2022-03-08T13:59:57Z</time>
      </trkpt>
      <trkpt lat="46.39194" lon="5.27347">
        <ele>227.6</ele>
        <time>2022-03-08T13:59:59Z</time>
      </trkpt>
      <trkpt lat="46.39179" lon="5.27386">
        <ele>227.8</ele>
        <time>2022-03-08T14:00:04Z</time>
      </trkpt>
      <trkpt lat="46.39175" lon="5.27392">
        <ele>227.8</ele>
        <time>2022-03-08T14:00:05Z</time>
      </trkpt>
      <trkpt lat="46.39151" lon="5.27419">
        <ele>227.8</ele>
        <time>2022-03-08T14:00:10Z</time>
      </trkpt>
      <trkpt lat="46.39103" lon="5.27457">
        <ele>227.8</ele>
        <time>2022-03-08T14:00:19Z</time>
      </trkpt>
      <trkpt lat="46.39087" lon="5.27471">
        <ele>228</ele>
        <time>2022-03-08T14:00:22Z</time>
      </trkpt>
      <trkpt lat="46.39083" lon="5.27475">
        <ele>228</ele>
        <time>2022-03-08T14:00:23Z</time>
      </trkpt>
      <trkpt lat="46.39073" lon="5.27481">
        <ele>227.8</ele>
        <time>2022-03-08T14:00:25Z</time>
      </trkpt>
      <trkpt lat="46.39064" lon="5.27489">
        <ele>227.8</ele>
        <time>2022-03-08T14:00:27Z</time>
      </trkpt>
      <trkpt lat="46.39036" lon="5.27502">
        <ele>228</ele>
        <time>2022-03-08T14:00:31Z</time>
      </trkpt>
      <trkpt lat="46.38997" lon="5.27529">
        <ele>228.4</ele>
        <time>2022-03-08T14:00:38Z</time>
      </trkpt>
      <trkpt lat="46.38982" lon="5.27539">
        <ele>228.8</ele>
        <time>2022-03-08T14:00:41Z</time>
      </trkpt>
      <trkpt lat="46.38964" lon="5.27549">
        <ele>229</ele>
        <time>2022-03-08T14:00:44Z</time>
      </trkpt>
      <trkpt lat="46.38945" lon="5.27557">
        <ele>229.4</ele>
        <time>2022-03-08T14:00:47Z</time>
      </trkpt>
      <trkpt lat="46.3894" lon="5.27559">
        <ele>229.6</ele>
        <time>2022-03-08T14:00:48Z</time>
      </trkpt>
      <trkpt lat="46.38912" lon="5.27568">
        <ele>229.8</ele>
        <time>2022-03-08T14:00:52Z</time>
      </trkpt>
      <trkpt lat="46.38907" lon="5.27568">
        <ele>229.8</ele>
        <time>2022-03-08T14:00:53Z</time>
      </trkpt>
      <trkpt lat="46.38902" lon="5.27567">
        <ele>229.8</ele>
        <time>2022-03-08T14:00:54Z</time>
      </trkpt>
      <trkpt lat="46.3889" lon="5.27562">
        <ele>229.8</ele>
        <time>2022-03-08T14:00:56Z</time>
      </trkpt>
      <trkpt lat="46.38884" lon="5.27558">
        <ele>230</ele>
        <time>2022-03-08T14:00:57Z</time>
      </trkpt>
      <trkpt lat="46.38858" lon="5.2754">
        <ele>230</ele>
        <time>2022-03-08T14:01:02Z</time>
      </trkpt>
      <trkpt lat="46.38846" lon="5.27534">
        <ele>230</ele>
        <time>2022-03-08T14:01:04Z</time>
      </trkpt>
      <trkpt lat="46.38806" lon="5.27511">
        <ele>230.4</ele>
        <time>2022-03-08T14:01:11Z</time>
      </trkpt>
      <trkpt lat="46.38794" lon="5.27506">
        <ele>230.6</ele>
        <time>2022-03-08T14:01:13Z</time>
      </trkpt>
      <trkpt lat="46.38766" lon="5.27493">
        <ele>231</ele>
        <time>2022-03-08T14:01:18Z</time>
      </trkpt>
      <trkpt lat="46.38721" lon="5.27463">
        <ele>231.2</ele>
        <time>2022-03-08T14:01:26Z</time>
      </trkpt>
      <trkpt lat="46.38671" lon="5.27422">
        <ele>231.4</ele>
        <time>2022-03-08T14:01:36Z</time>
      </trkpt>
      <trkpt lat="46.38666" lon="5.27418">
        <ele>231.4</ele>
        <time>2022-03-08T14:01:37Z</time>
      </trkpt>
      <trkpt lat="46.38656" lon="5.2741">
        <ele>231.8</ele>
        <time>2022-03-08T14:01:39Z</time>
      </trkpt>
      <trkpt lat="46.38646" lon="5.27404">
        <ele>232</ele>
        <time>2022-03-08T14:01:41Z</time>
      </trkpt>
      <trkpt lat="46.38634" lon="5.27404">
        <ele>232.2</ele>
        <time>2022-03-08T14:01:43Z</time>
      </trkpt>
      <trkpt lat="46.38625" lon="5.27412">
        <ele>232.2</ele>
        <time>2022-03-08T14:01:45Z</time>
      </trkpt>
      <trkpt lat="46.38621" lon="5.27418">
        <ele>232.2</ele>
        <time>2022-03-08T14:01:46Z</time>
      </trkpt>
      <trkpt lat="46.38604" lon="5.27447">
        <ele>232.2</ele>
        <time>2022-03-08T14:01:50Z</time>
      </trkpt>
      <trkpt lat="46.38593" lon="5.27461">
        <ele>231.8</ele>
        <time>2022-03-08T14:01:52Z</time>
      </trkpt>
      <trkpt lat="46.38566" lon="5.27486">
        <ele>231</ele>
        <time>2022-03-08T14:01:56Z</time>
      </trkpt>
      <trkpt lat="46.38558" lon="5.27491">
        <ele>230.8</ele>
        <time>2022-03-08T14:01:57Z</time>
      </trkpt>
      <trkpt lat="46.38543" lon="5.27498">
        <ele>229.6</ele>
        <time>2022-03-08T14:01:59Z</time>
      </trkpt>
      <trkpt lat="46.38516" lon="5.27514">
        <ele>227.8</ele>
        <time>2022-03-08T14:02:02Z</time>
      </trkpt>
      <trkpt lat="46.38508" lon="5.27521">
        <ele>227.4</ele>
        <time>2022-03-08T14:02:03Z</time>
      </trkpt>
      <trkpt lat="46.38501" lon="5.27527">
        <ele>226.6</ele>
        <time>2022-03-08T14:02:04Z</time>
      </trkpt>
      <trkpt lat="46.38483" lon="5.27545">
        <ele>225</ele>
        <time>2022-03-08T14:02:06Z</time>
      </trkpt>
      <trkpt lat="46.38475" lon="5.27554">
        <ele>224.4</ele>
        <time>2022-03-08T14:02:07Z</time>
      </trkpt>
      <trkpt lat="46.38467" lon="5.27563">
        <ele>223.4</ele>
        <time>2022-03-08T14:02:08Z</time>
      </trkpt>
      <trkpt lat="46.3846" lon="5.27573">
        <ele>222.2</ele>
        <time>2022-03-08T14:02:09Z</time>
      </trkpt>
      <trkpt lat="46.38445" lon="5.27591">
        <ele>220.2</ele>
        <time>2022-03-08T14:02:11Z</time>
      </trkpt>
      <trkpt lat="46.38432" lon="5.27608">
        <ele>218.4</ele>
        <time>2022-03-08T14:02:13Z</time>
      </trkpt>
      <trkpt lat="46.38419" lon="5.27625">
        <ele>217.4</ele>
        <time>2022-03-08T14:02:15Z</time>
      </trkpt>
      <trkpt lat="46.38398" lon="5.27649">
        <ele>216.4</ele>
        <time>2022-03-08T14:02:18Z</time>
      </trkpt>
      <trkpt lat="46.38375" lon="5.27668">
        <ele>215.4</ele>
        <time>2022-03-08T14:02:21Z</time>
      </trkpt>
      <trkpt lat="46.38367" lon="5.27673">
        <ele>214.8</ele>
        <time>2022-03-08T14:02:22Z</time>
      </trkpt>
      <trkpt lat="46.38352" lon="5.27683">
        <ele>213.8</ele>
        <time>2022-03-08T14:02:24Z</time>
      </trkpt>
      <trkpt lat="46.38324" lon="5.27704">
        <ele>212.6</ele>
        <time>2022-03-08T14:02:28Z</time>
      </trkpt>
      <trkpt lat="46.38317" lon="5.27709">
        <ele>212.2</ele>
        <time>2022-03-08T14:02:29Z</time>
      </trkpt>
      <trkpt lat="46.38296" lon="5.27721">
        <ele>211.6</ele>
        <time>2022-03-08T14:02:32Z</time>
      </trkpt>
      <trkpt lat="46.38289" lon="5.27723">
        <ele>211.6</ele>
        <time>2022-03-08T14:02:33Z</time>
      </trkpt>
      <trkpt lat="46.38282" lon="5.27725">
        <ele>211.4</ele>
        <time>2022-03-08T14:02:34Z</time>
      </trkpt>
      <trkpt lat="46.38248" lon="5.27735">
        <ele>210.4</ele>
        <time>2022-03-08T14:02:39Z</time>
      </trkpt>
      <trkpt lat="46.38229" lon="5.27742">
        <ele>210</ele>
        <time>2022-03-08T14:02:42Z</time>
      </trkpt>
      <trkpt lat="46.38188" lon="5.27774">
        <ele>209.4</ele>
        <time>2022-03-08T14:02:49Z</time>
      </trkpt>
      <trkpt lat="46.38183" lon="5.27779">
        <ele>209.2</ele>
        <time>2022-03-08T14:02:50Z</time>
      </trkpt>
      <trkpt lat="46.38176" lon="5.27792">
        <ele>208.8</ele>
        <time>2022-03-08T14:02:52Z</time>
      </trkpt>
      <trkpt lat="46.38172" lon="5.27821">
        <ele>208.4</ele>
        <time>2022-03-08T14:02:55Z</time>
      </trkpt>
      <trkpt lat="46.38171" lon="5.27838">
        <ele>208.2</ele>
        <time>2022-03-08T14:02:57Z</time>
      </trkpt>
      <trkpt lat="46.38165" lon="5.27905">
        <ele>208.4</ele>
        <time>2022-03-08T14:03:04Z</time>
      </trkpt>
      <trkpt lat="46.38156" lon="5.27965">
        <ele>208.8</ele>
        <time>2022-03-08T14:03:11Z</time>
      </trkpt>
      <trkpt lat="46.38149" lon="5.27987">
        <ele>208.8</ele>
        <time>2022-03-08T14:03:14Z</time>
      </trkpt>
      <trkpt lat="46.38139" lon="5.28006">
        <ele>208.8</ele>
        <time>2022-03-08T14:03:17Z</time>
      </trkpt>
      <trkpt lat="46.38105" lon="5.28051">
        <ele>209.4</ele>
        <time>2022-03-08T14:03:25Z</time>
      </trkpt>
      <trkpt lat="46.3807" lon="5.28104">
        <ele>209.8</ele>
        <time>2022-03-08T14:03:34Z</time>
      </trkpt>
      <trkpt lat="46.38045" lon="5.28142">
        <ele>210.6</ele>
        <time>2022-03-08T14:03:41Z</time>
      </trkpt>
      <trkpt lat="46.38039" lon="5.28152">
        <ele>210.8</ele>
        <time>2022-03-08T14:03:43Z</time>
      </trkpt>
      <trkpt lat="46.3803" lon="5.28164">
        <ele>211.2</ele>
        <time>2022-03-08T14:03:46Z</time>
      </trkpt>
      <trkpt lat="46.38023" lon="5.28171">
        <ele>211.6</ele>
        <time>2022-03-08T14:03:48Z</time>
      </trkpt>
      <trkpt lat="46.38021" lon="5.28174">
        <ele>211.6</ele>
        <time>2022-03-08T14:03:49Z</time>
      </trkpt>
      <trkpt lat="46.38004" lon="5.28188">
        <ele>212.6</ele>
        <time>2022-03-08T14:03:54Z</time>
      </trkpt>
      <trkpt lat="46.38001" lon="5.2819">
        <ele>213.4</ele>
        <time>2022-03-08T14:03:55Z</time>
      </trkpt>
      <trkpt lat="46.37997" lon="5.28192">
        <ele>213.6</ele>
        <time>2022-03-08T14:03:56Z</time>
      </trkpt>
      <trkpt lat="46.37985" lon="5.28198">
        <ele>215</ele>
        <time>2022-03-08T14:03:59Z</time>
      </trkpt>
      <trkpt lat="46.37973" lon="5.28199">
        <ele>215.4</ele>
        <time>2022-03-08T14:04:02Z</time>
      </trkpt>
      <trkpt lat="46.37965" lon="5.28195">
        <ele>216</ele>
        <time>2022-03-08T14:04:04Z</time>
      </trkpt>
      <trkpt lat="46.37955" lon="5.28191">
        <ele>216.4</ele>
        <time>2022-03-08T14:04:07Z</time>
      </trkpt>
      <trkpt lat="46.37942" lon="5.28183">
        <ele>217.4</ele>
        <time>2022-03-08T14:04:10Z</time>
      </trkpt>
      <trkpt lat="46.37934" lon="5.28178">
        <ele>217.6</ele>
        <time>2022-03-08T14:04:12Z</time>
      </trkpt>
      <trkpt lat="46.37928" lon="5.28174">
        <ele>218</ele>
        <time>2022-03-08T14:04:13Z</time>
      </trkpt>
      <trkpt lat="46.37915" lon="5.28165">
        <ele>218.4</ele>
        <time>2022-03-08T14:04:16Z</time>
      </trkpt>
      <trkpt lat="46.37906" lon="5.28157">
        <ele>218.6</ele>
        <time>2022-03-08T14:04:18Z</time>
      </trkpt>
      <trkpt lat="46.37879" lon="5.28134">
        <ele>218.4</ele>
        <time>2022-03-08T14:04:23Z</time>
      </trkpt>
      <trkpt lat="46.37874" lon="5.2813">
        <ele>218.4</ele>
        <time>2022-03-08T14:04:24Z</time>
      </trkpt>
      <trkpt lat="46.37836" lon="5.28108">
        <ele>217.6</ele>
        <time>2022-03-08T14:04:32Z</time>
      </trkpt>
      <trkpt lat="46.37794" lon="5.28078">
        <ele>217.6</ele>
        <time>2022-03-08T14:04:39Z</time>
      </trkpt>
      <trkpt lat="46.37775" lon="5.28045">
        <ele>218.6</ele>
        <time>2022-03-08T14:04:45Z</time>
      </trkpt>
      <trkpt lat="46.37767" lon="5.2803">
        <ele>219.4</ele>
        <time>2022-03-08T14:04:48Z</time>
      </trkpt>
      <trkpt lat="46.37758" lon="5.28016">
        <ele>219.8</ele>
        <time>2022-03-08T14:04:51Z</time>
      </trkpt>
      <trkpt lat="46.37754" lon="5.28011">
        <ele>220.4</ele>
        <time>2022-03-08T14:04:52Z</time>
      </trkpt>
      <trkpt lat="46.37751" lon="5.28007">
        <ele>220.6</ele>
        <time>2022-03-08T14:04:53Z</time>
      </trkpt>
      <trkpt lat="46.37745" lon="5.27997">
        <ele>221.2</ele>
        <time>2022-03-08T14:04:55Z</time>
      </trkpt>
      <trkpt lat="46.3774" lon="5.2799">
        <ele>221.4</ele>
        <time>2022-03-08T14:04:56Z</time>
      </trkpt>
      <trkpt lat="46.37726" lon="5.27962">
        <ele>221.6</ele>
        <time>2022-03-08T14:05:00Z</time>
      </trkpt>
      <trkpt lat="46.37723" lon="5.27955">
        <ele>221.6</ele>
        <time>2022-03-08T14:05:01Z</time>
      </trkpt>
      <trkpt lat="46.37711" lon="5.27934">
        <ele>221.6</ele>
        <time>2022-03-08T14:05:04Z</time>
      </trkpt>
      <trkpt lat="46.37704" lon="5.27927">
        <ele>221.6</ele>
        <time>2022-03-08T14:05:05Z</time>
      </trkpt>
      <trkpt lat="46.37687" lon="5.27915">
        <ele>220.8</ele>
        <time>2022-03-08T14:05:08Z</time>
      </trkpt>
      <trkpt lat="46.37674" lon="5.27905">
        <ele>220.2</ele>
        <time>2022-03-08T14:05:10Z</time>
      </trkpt>
      <trkpt lat="46.37652" lon="5.27885">
        <ele>220</ele>
        <time>2022-03-08T14:05:14Z</time>
      </trkpt>
      <trkpt lat="46.37625" lon="5.27857">
        <ele>220.8</ele>
        <time>2022-03-08T14:05:20Z</time>
      </trkpt>
      <trkpt lat="46.37616" lon="5.27846">
        <ele>221.2</ele>
        <time>2022-03-08T14:05:22Z</time>
      </trkpt>
      <trkpt lat="46.37609" lon="5.27832">
        <ele>221.6</ele>
        <time>2022-03-08T14:05:24Z</time>
      </trkpt>
      <trkpt lat="46.3759" lon="5.27782">
        <ele>222</ele>
        <time>2022-03-08T14:05:30Z</time>
      </trkpt>
      <trkpt lat="46.37577" lon="5.27737">
        <ele>222</ele>
        <time>2022-03-08T14:05:35Z</time>
      </trkpt>
      <trkpt lat="46.37574" lon="5.27728">
        <ele>221.8</ele>
        <time>2022-03-08T14:05:36Z</time>
      </trkpt>
      <trkpt lat="46.37562" lon="5.27713">
        <ele>221.4</ele>
        <time>2022-03-08T14:05:38Z</time>
      </trkpt>
      <trkpt lat="46.37548" lon="5.27707">
        <ele>221</ele>
        <time>2022-03-08T14:05:40Z</time>
      </trkpt>
      <trkpt lat="46.37542" lon="5.27706">
        <ele>221</ele>
        <time>2022-03-08T14:05:41Z</time>
      </trkpt>
      <trkpt lat="46.37502" lon="5.27701">
        <ele>220.6</ele>
        <time>2022-03-08T14:05:47Z</time>
      </trkpt>
      <trkpt lat="46.37478" lon="5.27693">
        <ele>220.2</ele>
        <time>2022-03-08T14:05:51Z</time>
      </trkpt>
      <trkpt lat="46.37472" lon="5.27691">
        <ele>220.2</ele>
        <time>2022-03-08T14:05:52Z</time>
      </trkpt>
      <trkpt lat="46.37449" lon="5.27679">
        <ele>220</ele>
        <time>2022-03-08T14:05:56Z</time>
      </trkpt>
      <trkpt lat="46.37444" lon="5.27675">
        <ele>220</ele>
        <time>2022-03-08T14:05:57Z</time>
      </trkpt>
      <trkpt lat="46.37422" lon="5.27659">
        <ele>220</ele>
        <time>2022-03-08T14:06:01Z</time>
      </trkpt>
      <trkpt lat="46.37411" lon="5.27654">
        <ele>220.4</ele>
        <time>2022-03-08T14:06:03Z</time>
      </trkpt>
      <trkpt lat="46.37406" lon="5.27652">
        <ele>220.6</ele>
        <time>2022-03-08T14:06:04Z</time>
      </trkpt>
      <trkpt lat="46.37369" lon="5.27643">
        <ele>220.8</ele>
        <time>2022-03-08T14:06:11Z</time>
      </trkpt>
      <trkpt lat="46.37365" lon="5.2764">
        <ele>220.8</ele>
        <time>2022-03-08T14:06:12Z</time>
      </trkpt>
      <trkpt lat="46.3736" lon="5.27635">
        <ele>220.8</ele>
        <time>2022-03-08T14:06:13Z</time>
      </trkpt>
      <trkpt lat="46.37355" lon="5.27621">
        <ele>220.8</ele>
        <time>2022-03-08T14:06:15Z</time>
      </trkpt>
      <trkpt lat="46.37357" lon="5.27589">
        <ele>220.8</ele>
        <time>2022-03-08T14:06:18Z</time>
      </trkpt>
      <trkpt lat="46.37365" lon="5.27542">
        <ele>219.8</ele>
        <time>2022-03-08T14:06:22Z</time>
      </trkpt>
      <trkpt lat="46.37372" lon="5.27515">
        <ele>218.4</ele>
        <time>2022-03-08T14:06:24Z</time>
      </trkpt>
      <trkpt lat="46.37378" lon="5.27494">
        <ele>217.2</ele>
        <time>2022-03-08T14:06:26Z</time>
      </trkpt>
      <trkpt lat="46.37382" lon="5.27484">
        <ele>217</ele>
        <time>2022-03-08T14:06:27Z</time>
      </trkpt>
      <trkpt lat="46.37395" lon="5.27451">
        <ele>216.4</ele>
        <time>2022-03-08T14:06:30Z</time>
      </trkpt>
      <trkpt lat="46.37405" lon="5.27435">
        <ele>216.2</ele>
        <time>2022-03-08T14:06:32Z</time>
      </trkpt>
      <trkpt lat="46.37412" lon="5.27429">
        <ele>216</ele>
        <time>2022-03-08T14:06:33Z</time>
      </trkpt>
      <trkpt lat="46.37428" lon="5.27416">
        <ele>216</ele>
        <time>2022-03-08T14:06:35Z</time>
      </trkpt>
      <trkpt lat="46.37434" lon="5.27409">
        <ele>216</ele>
        <time>2022-03-08T14:06:36Z</time>
      </trkpt>
      <trkpt lat="46.37445" lon="5.27395">
        <ele>216</ele>
        <time>2022-03-08T14:06:38Z</time>
      </trkpt>
      <trkpt lat="46.37455" lon="5.27379">
        <ele>216</ele>
        <time>2022-03-08T14:06:40Z</time>
      </trkpt>
      <trkpt lat="46.37462" lon="5.27361">
        <ele>216</ele>
        <time>2022-03-08T14:06:42Z</time>
      </trkpt>
      <trkpt lat="46.37468" lon="5.27335">
        <ele>216</ele>
        <time>2022-03-08T14:06:44Z</time>
      </trkpt>
      <trkpt lat="46.3747" lon="5.27299">
        <ele>215.8</ele>
        <time>2022-03-08T14:06:47Z</time>
      </trkpt>
      <trkpt lat="46.37469" lon="5.27258">
        <ele>214.8</ele>
        <time>2022-03-08T14:06:50Z</time>
      </trkpt>
      <trkpt lat="46.37471" lon="5.27244">
        <ele>214.2</ele>
        <time>2022-03-08T14:06:51Z</time>
      </trkpt>
      <trkpt lat="46.37473" lon="5.2723">
        <ele>213.8</ele>
        <time>2022-03-08T14:06:52Z</time>
      </trkpt>
      <trkpt lat="46.37476" lon="5.27216">
        <ele>213</ele>
        <time>2022-03-08T14:06:53Z</time>
      </trkpt>
      <trkpt lat="46.37478" lon="5.27202">
        <ele>212.2</ele>
        <time>2022-03-08T14:06:54Z</time>
      </trkpt>
      <trkpt lat="46.37478" lon="5.27188">
        <ele>212</ele>
        <time>2022-03-08T14:06:55Z</time>
      </trkpt>
      <trkpt lat="46.37477" lon="5.27175">
        <ele>211.4</ele>
        <time>2022-03-08T14:06:56Z</time>
      </trkpt>
      <trkpt lat="46.37472" lon="5.27147">
        <ele>210.8</ele>
        <time>2022-03-08T14:06:58Z</time>
      </trkpt>
      <trkpt lat="46.37469" lon="5.27134">
        <ele>210.6</ele>
        <time>2022-03-08T14:06:59Z</time>
      </trkpt>
      <trkpt lat="46.37458" lon="5.27086">
        <ele>210</ele>
        <time>2022-03-08T14:07:03Z</time>
      </trkpt>
      <trkpt lat="46.37453" lon="5.27066">
        <ele>209.6</ele>
        <time>2022-03-08T14:07:05Z</time>
      </trkpt>
      <trkpt lat="46.37448" lon="5.27056">
        <ele>209.6</ele>
        <time>2022-03-08T14:07:06Z</time>
      </trkpt>
      <trkpt lat="46.37441" lon="5.27049">
        <ele>209.4</ele>
        <time>2022-03-08T14:07:07Z</time>
      </trkpt>
      <trkpt lat="46.37433" lon="5.27045">
        <ele>209.4</ele>
        <time>2022-03-08T14:07:08Z</time>
      </trkpt>
      <trkpt lat="46.37424" lon="5.27045">
        <ele>209.4</ele>
        <time>2022-03-08T14:07:09Z</time>
      </trkpt>
      <trkpt lat="46.37416" lon="5.27048">
        <ele>209.4</ele>
        <time>2022-03-08T14:07:10Z</time>
      </trkpt>
      <trkpt lat="46.37408" lon="5.27054">
        <ele>209.4</ele>
        <time>2022-03-08T14:07:11Z</time>
      </trkpt>
      <trkpt lat="46.37394" lon="5.2707">
        <ele>209</ele>
        <time>2022-03-08T14:07:13Z</time>
      </trkpt>
      <trkpt lat="46.37372" lon="5.27095">
        <ele>208.4</ele>
        <time>2022-03-08T14:07:16Z</time>
      </trkpt>
      <trkpt lat="46.37354" lon="5.27108">
        <ele>207.6</ele>
        <time>2022-03-08T14:07:18Z</time>
      </trkpt>
      <trkpt lat="46.37327" lon="5.27126">
        <ele>206.2</ele>
        <time>2022-03-08T14:07:21Z</time>
      </trkpt>
      <trkpt lat="46.373" lon="5.27143">
        <ele>204.8</ele>
        <time>2022-03-08T14:07:24Z</time>
      </trkpt>
      <trkpt lat="46.37275" lon="5.2716">
        <ele>203.6</ele>
        <time>2022-03-08T14:07:27Z</time>
      </trkpt>
      <trkpt lat="46.37244" lon="5.2718">
        <ele>202.4</ele>
        <time>2022-03-08T14:07:31Z</time>
      </trkpt>
      <trkpt lat="46.3723" lon="5.27189">
        <ele>202.2</ele>
        <time>2022-03-08T14:07:33Z</time>
      </trkpt>
      <trkpt lat="46.37196" lon="5.2721">
        <ele>201.8</ele>
        <time>2022-03-08T14:07:38Z</time>
      </trkpt>
      <trkpt lat="46.37189" lon="5.27212">
        <ele>201.6</ele>
        <time>2022-03-08T14:07:39Z</time>
      </trkpt>
      <trkpt lat="46.37182" lon="5.27212">
        <ele>201.6</ele>
        <time>2022-03-08T14:07:40Z</time>
      </trkpt>
      <trkpt lat="46.37168" lon="5.27206">
        <ele>201.6</ele>
        <time>2022-03-08T14:07:42Z</time>
      </trkpt>
      <trkpt lat="46.37149" lon="5.27193">
        <ele>201.4</ele>
        <time>2022-03-08T14:07:45Z</time>
      </trkpt>
      <trkpt lat="46.37143" lon="5.27191">
        <ele>201.4</ele>
        <time>2022-03-08T14:07:46Z</time>
      </trkpt>
      <trkpt lat="46.37136" lon="5.27189">
        <ele>201.4</ele>
        <time>2022-03-08T14:07:47Z</time>
      </trkpt>
      <trkpt lat="46.37103" lon="5.27195">
        <ele>200.8</ele>
        <time>2022-03-08T14:07:52Z</time>
      </trkpt>
      <trkpt lat="46.3707" lon="5.27204">
        <ele>200.4</ele>
        <time>2022-03-08T14:07:57Z</time>
      </trkpt>
      <trkpt lat="46.37045" lon="5.2721">
        <ele>200.4</ele>
        <time>2022-03-08T14:08:01Z</time>
      </trkpt>
      <trkpt lat="46.37001" lon="5.27215">
        <ele>200.2</ele>
        <time>2022-03-08T14:08:08Z</time>
      </trkpt>
      <trkpt lat="46.36995" lon="5.27214">
        <ele>200.2</ele>
        <time>2022-03-08T14:08:09Z</time>
      </trkpt>
      <trkpt lat="46.36989" lon="5.27211">
        <ele>200.2</ele>
        <time>2022-03-08T14:08:10Z</time>
      </trkpt>
      <trkpt lat="46.36979" lon="5.272">
        <ele>200</ele>
        <time>2022-03-08T14:08:12Z</time>
      </trkpt>
      <trkpt lat="46.36966" lon="5.27169">
        <ele>200.2</ele>
        <time>2022-03-08T14:08:16Z</time>
      </trkpt>
      <trkpt lat="46.36942" lon="5.27116">
        <ele>200.6</ele>
        <time>2022-03-08T14:08:23Z</time>
      </trkpt>
      <trkpt lat="46.36937" lon="5.27109">
        <ele>200.6</ele>
        <time>2022-03-08T14:08:24Z</time>
      </trkpt>
      <trkpt lat="46.36932" lon="5.27103">
        <ele>200.4</ele>
        <time>2022-03-08T14:08:25Z</time>
      </trkpt>
      <trkpt lat="46.3692" lon="5.27095">
        <ele>200.2</ele>
        <time>2022-03-08T14:08:27Z</time>
      </trkpt>
      <trkpt lat="46.36913" lon="5.27092">
        <ele>200.2</ele>
        <time>2022-03-08T14:08:28Z</time>
      </trkpt>
      <trkpt lat="46.36907" lon="5.2709">
        <ele>200</ele>
        <time>2022-03-08T14:08:29Z</time>
      </trkpt>
      <trkpt lat="46.36887" lon="5.27088">
        <ele>199.6</ele>
        <time>2022-03-08T14:08:32Z</time>
      </trkpt>
      <trkpt lat="46.36875" lon="5.27086">
        <ele>199.4</ele>
        <time>2022-03-08T14:08:34Z</time>
      </trkpt>
      <trkpt lat="46.36863" lon="5.27082">
        <ele>199.2</ele>
        <time>2022-03-08T14:08:36Z</time>
      </trkpt>
      <trkpt lat="46.36857" lon="5.27079">
        <ele>199.2</ele>
        <time>2022-03-08T14:08:37Z</time>
      </trkpt>
      <trkpt lat="46.36824" lon="5.27055">
        <ele>199.6</ele>
        <time>2022-03-08T14:08:43Z</time>
      </trkpt>
      <trkpt lat="46.36775" lon="5.27021">
        <ele>200.4</ele>
        <time>2022-03-08T14:08:52Z</time>
      </trkpt>
      <trkpt lat="46.36764" lon="5.27013">
        <ele>200.4</ele>
        <time>2022-03-08T14:08:54Z</time>
      </trkpt>
      <trkpt lat="46.36743" lon="5.26997">
        <ele>200</ele>
        <time>2022-03-08T14:08:58Z</time>
      </trkpt>
      <trkpt lat="46.3673" lon="5.26981">
        <ele>199.8</ele>
        <time>2022-03-08T14:09:01Z</time>
      </trkpt>
      <trkpt lat="46.36723" lon="5.26966">
        <ele>199.8</ele>
        <time>2022-03-08T14:09:03Z</time>
      </trkpt>
      <trkpt lat="46.36719" lon="5.2695">
        <ele>199.8</ele>
        <time>2022-03-08T14:09:05Z</time>
      </trkpt>
      <trkpt lat="46.36717" lon="5.26933">
        <ele>200</ele>
        <time>2022-03-08T14:09:07Z</time>
      </trkpt>
      <trkpt lat="46.36718" lon="5.26906">
        <ele>200.2</ele>
        <time>2022-03-08T14:09:10Z</time>
      </trkpt>
      <trkpt lat="46.36719" lon="5.26895">
        <ele>200</ele>
        <time>2022-03-08T14:09:11Z</time>
      </trkpt>
      <trkpt lat="46.36729" lon="5.26845">
        <ele>200</ele>
        <time>2022-03-08T14:09:17Z</time>
      </trkpt>
      <trkpt lat="46.36737" lon="5.26797">
        <ele>200.2</ele>
        <time>2022-03-08T14:09:22Z</time>
      </trkpt>
      <trkpt lat="46.36737" lon="5.26788">
        <ele>200.2</ele>
        <time>2022-03-08T14:09:23Z</time>
      </trkpt>
      <trkpt lat="46.36736" lon="5.26778">
        <ele>200</ele>
        <time>2022-03-08T14:09:24Z</time>
      </trkpt>
      <trkpt lat="46.36732" lon="5.2676">
        <ele>200.4</ele>
        <time>2022-03-08T14:09:26Z</time>
      </trkpt>
      <trkpt lat="46.36729" lon="5.26749">
        <ele>200.4</ele>
        <time>2022-03-08T14:09:27Z</time>
      </trkpt>
      <trkpt lat="46.36726" lon="5.26743">
        <ele>200.4</ele>
        <time>2022-03-08T14:09:28Z</time>
      </trkpt>
      <trkpt lat="46.36713" lon="5.26723">
        <ele>200.4</ele>
        <time>2022-03-08T14:09:31Z</time>
      </trkpt>
      <trkpt lat="46.36703" lon="5.26712">
        <ele>200.6</ele>
        <time>2022-03-08T14:09:33Z</time>
      </trkpt>
      <trkpt lat="46.36692" lon="5.26702">
        <ele>200.2</ele>
        <time>2022-03-08T14:09:35Z</time>
      </trkpt>
      <trkpt lat="46.36686" lon="5.26698">
        <ele>200.4</ele>
        <time>2022-03-08T14:09:36Z</time>
      </trkpt>
      <trkpt lat="46.3668" lon="5.26696">
        <ele>200.4</ele>
        <time>2022-03-08T14:09:37Z</time>
      </trkpt>
      <trkpt lat="46.36661" lon="5.26696">
        <ele>200.4</ele>
        <time>2022-03-08T14:09:40Z</time>
      </trkpt>
      <trkpt lat="46.36606" lon="5.26701">
        <ele>200.4</ele>
        <time>2022-03-08T14:09:49Z</time>
      </trkpt>
      <trkpt lat="46.36551" lon="5.26697">
        <ele>200.2</ele>
        <time>2022-03-08T14:09:58Z</time>
      </trkpt>
      <trkpt lat="46.36539" lon="5.26695">
        <ele>200.2</ele>
        <time>2022-03-08T14:10:00Z</time>
      </trkpt>
      <trkpt lat="46.36498" lon="5.2668">
        <ele>200.4</ele>
        <time>2022-03-08T14:10:07Z</time>
      </trkpt>
      <trkpt lat="46.36492" lon="5.26678">
        <ele>200.6</ele>
        <time>2022-03-08T14:10:08Z</time>
      </trkpt>
      <trkpt lat="46.36475" lon="5.26671">
        <ele>200.6</ele>
        <time>2022-03-08T14:10:11Z</time>
      </trkpt>
      <trkpt lat="46.36436" lon="5.26654">
        <ele>201</ele>
        <time>2022-03-08T14:10:18Z</time>
      </trkpt>
      <trkpt lat="46.36389" lon="5.26624">
        <ele>201.6</ele>
        <time>2022-03-08T14:10:27Z</time>
      </trkpt>
      <trkpt lat="46.36352" lon="5.26602">
        <ele>202</ele>
        <time>2022-03-08T14:10:34Z</time>
      </trkpt>
      <trkpt lat="46.36323" lon="5.266">
        <ele>202.2</ele>
        <time>2022-03-08T14:10:39Z</time>
      </trkpt>
      <trkpt lat="46.36266" lon="5.26616">
        <ele>202</ele>
        <time>2022-03-08T14:10:49Z</time>
      </trkpt>
      <trkpt lat="46.36231" lon="5.26624">
        <ele>202.4</ele>
        <time>2022-03-08T14:10:55Z</time>
      </trkpt>
      <trkpt lat="46.36221" lon="5.26625">
        <ele>202.6</ele>
        <time>2022-03-08T14:10:57Z</time>
      </trkpt>
      <trkpt lat="46.36204" lon="5.26625">
        <ele>202.8</ele>
        <time>2022-03-08T14:11:00Z</time>
      </trkpt>
      <trkpt lat="46.36189" lon="5.26623">
        <ele>203.2</ele>
        <time>2022-03-08T14:11:03Z</time>
      </trkpt>
      <trkpt lat="46.36169" lon="5.26617">
        <ele>203.8</ele>
        <time>2022-03-08T14:11:07Z</time>
      </trkpt>
      <trkpt lat="46.36155" lon="5.26611">
        <ele>204.2</ele>
        <time>2022-03-08T14:11:10Z</time>
      </trkpt>
      <trkpt lat="46.36132" lon="5.26597">
        <ele>205</ele>
        <time>2022-03-08T14:11:16Z</time>
      </trkpt>
      <trkpt lat="46.36118" lon="5.26578">
        <ele>206.2</ele>
        <time>2022-03-08T14:11:21Z</time>
      </trkpt>
      <trkpt lat="46.36116" lon="5.26573">
        <ele>206.4</ele>
        <time>2022-03-08T14:11:22Z</time>
      </trkpt>
      <trkpt lat="46.36107" lon="5.26546">
        <ele>207.2</ele>
        <time>2022-03-08T14:11:27Z</time>
      </trkpt>
      <trkpt lat="46.36099" lon="5.26527">
        <ele>208.2</ele>
        <time>2022-03-08T14:11:31Z</time>
      </trkpt>
      <trkpt lat="46.36097" lon="5.26523">
        <ele>208.4</ele>
        <time>2022-03-08T14:11:32Z</time>
      </trkpt>
      <trkpt lat="46.36087" lon="5.26502">
        <ele>209.6</ele>
        <time>2022-03-08T14:11:37Z</time>
      </trkpt>
      <trkpt lat="46.36084" lon="5.26499">
        <ele>209.8</ele>
        <time>2022-03-08T14:11:38Z</time>
      </trkpt>
      <trkpt lat="46.36077" lon="5.26489">
        <ele>210.8</ele>
        <time>2022-03-08T14:11:41Z</time>
      </trkpt>
      <trkpt lat="46.3607" lon="5.26482">
        <ele>212.2</ele>
        <time>2022-03-08T14:11:44Z</time>
      </trkpt>
      <trkpt lat="46.36065" lon="5.26476">
        <ele>212.8</ele>
        <time>2022-03-08T14:11:46Z</time>
      </trkpt>
      <trkpt lat="46.3606" lon="5.26471">
        <ele>213.2</ele>
        <time>2022-03-08T14:11:48Z</time>
      </trkpt>
      <trkpt lat="46.36046" lon="5.26458">
        <ele>214.4</ele>
        <time>2022-03-08T14:11:53Z</time>
      </trkpt>
      <trkpt lat="46.36038" lon="5.26449">
        <ele>215</ele>
        <time>2022-03-08T14:11:56Z</time>
      </trkpt>
      <trkpt lat="46.36032" lon="5.26443">
        <ele>215.4</ele>
        <time>2022-03-08T14:11:58Z</time>
      </trkpt>
      <trkpt lat="46.36017" lon="5.26424">
        <ele>216.6</ele>
        <time>2022-03-08T14:12:04Z</time>
      </trkpt>
      <trkpt lat="46.36012" lon="5.26417">
        <ele>216.8</ele>
        <time>2022-03-08T14:12:06Z</time>
      </trkpt>
      <trkpt lat="46.35999" lon="5.26402">
        <ele>217.6</ele>
        <time>2022-03-08T14:12:11Z</time>
      </trkpt>
      <trkpt lat="46.35988" lon="5.26389">
        <ele>218.4</ele>
        <time>2022-03-08T14:12:15Z</time>
      </trkpt>
      <trkpt lat="46.35978" lon="5.2638">
        <ele>218.8</ele>
        <time>2022-03-08T14:12:18Z</time>
      </trkpt>
      <trkpt lat="46.35961" lon="5.26369">
        <ele>219.8</ele>
        <time>2022-03-08T14:12:23Z</time>
      </trkpt>
      <trkpt lat="46.35958" lon="5.26368">
        <ele>220</ele>
        <time>2022-03-08T14:12:24Z</time>
      </trkpt>
      <trkpt lat="46.35935" lon="5.2636">
        <ele>221</ele>
        <time>2022-03-08T14:12:30Z</time>
      </trkpt>
      <trkpt lat="46.35927" lon="5.26358">
        <ele>221.4</ele>
        <time>2022-03-08T14:12:32Z</time>
      </trkpt>
      <trkpt lat="46.35914" lon="5.26355">
        <ele>222</ele>
        <time>2022-03-08T14:12:35Z</time>
      </trkpt>
      <trkpt lat="46.35893" lon="5.26353">
        <ele>222.2</ele>
        <time>2022-03-08T14:12:40Z</time>
      </trkpt>
      <trkpt lat="46.35859" lon="5.2636">
        <ele>222.6</ele>
        <time>2022-03-08T14:12:48Z</time>
      </trkpt>
      <trkpt lat="46.35855" lon="5.26361">
        <ele>222.6</ele>
        <time>2022-03-08T14:12:49Z</time>
      </trkpt>
      <trkpt lat="46.35838" lon="5.2636">
        <ele>223</ele>
        <time>2022-03-08T14:12:53Z</time>
      </trkpt>
      <trkpt lat="46.35834" lon="5.2636">
        <ele>223.2</ele>
        <time>2022-03-08T14:12:54Z</time>
      </trkpt>
      <trkpt lat="46.35815" lon="5.26359">
        <ele>224.2</ele>
        <time>2022-03-08T14:12:59Z</time>
      </trkpt>
      <trkpt lat="46.35805" lon="5.26358">
        <ele>225.2</ele>
        <time>2022-03-08T14:13:02Z</time>
      </trkpt>
      <trkpt lat="46.35801" lon="5.26357">
        <ele>225.4</ele>
        <time>2022-03-08T14:13:03Z</time>
      </trkpt>
      <trkpt lat="46.35788" lon="5.26354">
        <ele>226.4</ele>
        <time>2022-03-08T14:13:07Z</time>
      </trkpt>
      <trkpt lat="46.35782" lon="5.26352">
        <ele>227</ele>
        <time>2022-03-08T14:13:09Z</time>
      </trkpt>
      <trkpt lat="46.35776" lon="5.26351">
        <ele>227.6</ele>
        <time>2022-03-08T14:13:11Z</time>
      </trkpt>
      <trkpt lat="46.3576" lon="5.26348">
        <ele>228.8</ele>
        <time>2022-03-08T14:13:16Z</time>
      </trkpt>
      <trkpt lat="46.35744" lon="5.26344">
        <ele>230.2</ele>
        <time>2022-03-08T14:13:21Z</time>
      </trkpt>
      <trkpt lat="46.3574" lon="5.26344">
        <ele>230.2</ele>
        <time>2022-03-08T14:13:22Z</time>
      </trkpt>
      <trkpt lat="46.35719" lon="5.26337">
        <ele>231.2</ele>
        <time>2022-03-08T14:13:28Z</time>
      </trkpt>
      <trkpt lat="46.35696" lon="5.26323">
        <ele>231.8</ele>
        <time>2022-03-08T14:13:33Z</time>
      </trkpt>
      <trkpt lat="46.35691" lon="5.26321">
        <ele>231.8</ele>
        <time>2022-03-08T14:13:34Z</time>
      </trkpt>
      <trkpt lat="46.35657" lon="5.26315">
        <ele>231.4</ele>
        <time>2022-03-08T14:13:40Z</time>
      </trkpt>
      <trkpt lat="46.35613" lon="5.26308">
        <ele>230.6</ele>
        <time>2022-03-08T14:13:47Z</time>
      </trkpt>
      <trkpt lat="46.35596" lon="5.26305">
        <ele>230</ele>
        <time>2022-03-08T14:13:50Z</time>
      </trkpt>
      <trkpt lat="46.35562" lon="5.263">
        <ele>230</ele>
        <time>2022-03-08T14:13:56Z</time>
      </trkpt>
      <trkpt lat="46.35519" lon="5.263">
        <ele>229.8</ele>
        <time>2022-03-08T14:14:04Z</time>
      </trkpt>
      <trkpt lat="46.35473" lon="5.26303">
        <ele>230</ele>
        <time>2022-03-08T14:14:13Z</time>
      </trkpt>
      <trkpt lat="46.35416" lon="5.26297">
        <ele>230.6</ele>
        <time>2022-03-08T14:14:24Z</time>
      </trkpt>
      <trkpt lat="46.3541" lon="5.26297">
        <ele>230.8</ele>
        <time>2022-03-08T14:14:25Z</time>
      </trkpt>
      <trkpt lat="46.35384" lon="5.26293">
        <ele>231</ele>
        <time>2022-03-08T14:14:30Z</time>
      </trkpt>
      <trkpt lat="46.35369" lon="5.26288">
        <ele>231.2</ele>
        <time>2022-03-08T14:14:33Z</time>
      </trkpt>
      <trkpt lat="46.35364" lon="5.26285">
        <ele>231.2</ele>
        <time>2022-03-08T14:14:34Z</time>
      </trkpt>
      <trkpt lat="46.35354" lon="5.26278">
        <ele>231.4</ele>
        <time>2022-03-08T14:14:36Z</time>
      </trkpt>
      <trkpt lat="46.35346" lon="5.26269">
        <ele>231.4</ele>
        <time>2022-03-08T14:14:38Z</time>
      </trkpt>
      <trkpt lat="46.35342" lon="5.26264">
        <ele>231.6</ele>
        <time>2022-03-08T14:14:39Z</time>
      </trkpt>
      <trkpt lat="46.35329" lon="5.26239">
        <ele>231.8</ele>
        <time>2022-03-08T14:14:43Z</time>
      </trkpt>
      <trkpt lat="46.35315" lon="5.26215">
        <ele>232</ele>
        <time>2022-03-08T14:14:47Z</time>
      </trkpt>
      <trkpt lat="46.35312" lon="5.2621">
        <ele>232.4</ele>
        <time>2022-03-08T14:14:48Z</time>
      </trkpt>
      <trkpt lat="46.35308" lon="5.26205">
        <ele>232.4</ele>
        <time>2022-03-08T14:14:49Z</time>
      </trkpt>
      <trkpt lat="46.35303" lon="5.26201">
        <ele>232.6</ele>
        <time>2022-03-08T14:14:50Z</time>
      </trkpt>
      <trkpt lat="46.3529" lon="5.26192">
        <ele>233</ele>
        <time>2022-03-08T14:14:53Z</time>
      </trkpt>
      <trkpt lat="46.35285" lon="5.2619">
        <ele>233</ele>
        <time>2022-03-08T14:14:54Z</time>
      </trkpt>
      <trkpt lat="46.35274" lon="5.26187">
        <ele>233.4</ele>
        <time>2022-03-08T14:14:56Z</time>
      </trkpt>
      <trkpt lat="46.35263" lon="5.26186">
        <ele>233.8</ele>
        <time>2022-03-08T14:14:58Z</time>
      </trkpt>
      <trkpt lat="46.35219" lon="5.26179">
        <ele>234</ele>
        <time>2022-03-08T14:15:06Z</time>
      </trkpt>
      <trkpt lat="46.3517" lon="5.26163">
        <ele>233.8</ele>
        <time>2022-03-08T14:15:15Z</time>
      </trkpt>
      <trkpt lat="46.35115" lon="5.26151">
        <ele>233.4</ele>
        <time>2022-03-08T14:15:24Z</time>
      </trkpt>
      <trkpt lat="46.35062" lon="5.26134">
        <ele>233.6</ele>
        <time>2022-03-08T14:15:34Z</time>
      </trkpt>
      <trkpt lat="46.35015" lon="5.2611">
        <ele>233.2</ele>
        <time>2022-03-08T14:15:42Z</time>
      </trkpt>
      <trkpt lat="46.34979" lon="5.26105">
        <ele>232.4</ele>
        <time>2022-03-08T14:15:47Z</time>
      </trkpt>
      <trkpt lat="46.3493" lon="5.26109">
        <ele>231.4</ele>
        <time>2022-03-08T14:15:54Z</time>
      </trkpt>
      <trkpt lat="46.34915" lon="5.26108">
        <ele>231.2</ele>
        <time>2022-03-08T14:15:56Z</time>
      </trkpt>
      <trkpt lat="46.34873" lon="5.26097">
        <ele>230.4</ele>
        <time>2022-03-08T14:16:02Z</time>
      </trkpt>
      <trkpt lat="46.34866" lon="5.26095">
        <ele>230.2</ele>
        <time>2022-03-08T14:16:03Z</time>
      </trkpt>
      <trkpt lat="46.3483" lon="5.26084">
        <ele>229.8</ele>
        <time>2022-03-08T14:16:08Z</time>
      </trkpt>
      <trkpt lat="46.34782" lon="5.26079">
        <ele>229.2</ele>
        <time>2022-03-08T14:16:15Z</time>
      </trkpt>
      <trkpt lat="46.34751" lon="5.26077">
        <ele>228</ele>
        <time>2022-03-08T14:16:19Z</time>
      </trkpt>
      <trkpt lat="46.34735" lon="5.26077">
        <ele>227.2</ele>
        <time>2022-03-08T14:16:21Z</time>
      </trkpt>
      <trkpt lat="46.34726" lon="5.26076">
        <ele>226.8</ele>
        <time>2022-03-08T14:16:22Z</time>
      </trkpt>
      <trkpt lat="46.34707" lon="5.26075">
        <ele>225.6</ele>
        <time>2022-03-08T14:16:24Z</time>
      </trkpt>
      <trkpt lat="46.3469" lon="5.26074">
        <ele>224.6</ele>
        <time>2022-03-08T14:16:26Z</time>
      </trkpt>
      <trkpt lat="46.34683" lon="5.26073">
        <ele>224.2</ele>
        <time>2022-03-08T14:16:27Z</time>
      </trkpt>
      <trkpt lat="46.34676" lon="5.26072">
        <ele>223.8</ele>
        <time>2022-03-08T14:16:28Z</time>
      </trkpt>
      <trkpt lat="46.34668" lon="5.26068">
        <ele>222.8</ele>
        <time>2022-03-08T14:16:29Z</time>
      </trkpt>
      <trkpt lat="46.34664" lon="5.26062">
        <ele>221.8</ele>
        <time>2022-03-08T14:16:30Z</time>
      </trkpt>
      <trkpt lat="46.34661" lon="5.26054">
        <ele>221.2</ele>
        <time>2022-03-08T14:16:31Z</time>
      </trkpt>
      <trkpt lat="46.34654" lon="5.26037">
        <ele>219.8</ele>
        <time>2022-03-08T14:16:33Z</time>
      </trkpt>
      <trkpt lat="46.34645" lon="5.26021">
        <ele>218.4</ele>
        <time>2022-03-08T14:16:35Z</time>
      </trkpt>
      <trkpt lat="46.34641" lon="5.26014">
        <ele>218</ele>
        <time>2022-03-08T14:16:36Z</time>
      </trkpt>
      <trkpt lat="46.34614" lon="5.25961">
        <ele>217.8</ele>
        <time>2022-03-08T14:16:43Z</time>
      </trkpt>
      <trkpt lat="46.34609" lon="5.25953">
        <ele>217.8</ele>
        <time>2022-03-08T14:16:44Z</time>
      </trkpt>
      <trkpt lat="46.34593" lon="5.2593">
        <ele>218.2</ele>
        <time>2022-03-08T14:16:48Z</time>
      </trkpt>
      <trkpt lat="46.34573" lon="5.25898">
        <ele>218.8</ele>
        <time>2022-03-08T14:16:53Z</time>
      </trkpt>
      <trkpt lat="46.34566" lon="5.25886">
        <ele>219</ele>
        <time>2022-03-08T14:16:55Z</time>
      </trkpt>
      <trkpt lat="46.34553" lon="5.25865">
        <ele>219.6</ele>
        <time>2022-03-08T14:16:59Z</time>
      </trkpt>
      <trkpt lat="46.34549" lon="5.25856">
        <ele>219.8</ele>
        <time>2022-03-08T14:17:01Z</time>
      </trkpt>
      <trkpt lat="46.34546" lon="5.25852">
        <ele>220</ele>
        <time>2022-03-08T14:17:02Z</time>
      </trkpt>
      <trkpt lat="46.34538" lon="5.2585">
        <ele>220</ele>
        <time>2022-03-08T14:17:04Z</time>
      </trkpt>
      <trkpt lat="46.34534" lon="5.25849">
        <ele>220.2</ele>
        <time>2022-03-08T14:17:05Z</time>
      </trkpt>
      <trkpt lat="46.34516" lon="5.25847">
        <ele>220.2</ele>
        <time>2022-03-08T14:17:08Z</time>
      </trkpt>
      <trkpt lat="46.34512" lon="5.25848">
        <ele>220.4</ele>
        <time>2022-03-08T14:17:09Z</time>
      </trkpt>
      <trkpt lat="46.34472" lon="5.25855">
        <ele>220.2</ele>
        <time>2022-03-08T14:17:16Z</time>
      </trkpt>
      <trkpt lat="46.34457" lon="5.25859">
        <ele>220.2</ele>
        <time>2022-03-08T14:17:19Z</time>
      </trkpt>
      <trkpt lat="46.34448" lon="5.25854">
        <ele>220.2</ele>
        <time>2022-03-08T14:17:21Z</time>
      </trkpt>
      <trkpt lat="46.34442" lon="5.25842">
        <ele>220.2</ele>
        <time>2022-03-08T14:17:23Z</time>
      </trkpt>
      <trkpt lat="46.34436" lon="5.25831">
        <ele>220.4</ele>
        <time>2022-03-08T14:17:25Z</time>
      </trkpt>
      <trkpt lat="46.34412" lon="5.25805">
        <ele>220.6</ele>
        <time>2022-03-08T14:17:31Z</time>
      </trkpt>
      <trkpt lat="46.344" lon="5.25794">
        <ele>221</ele>
        <time>2022-03-08T14:17:34Z</time>
      </trkpt>
      <trkpt lat="46.34397" lon="5.25789">
        <ele>221</ele>
        <time>2022-03-08T14:17:35Z</time>
      </trkpt>
      <trkpt lat="46.34394" lon="5.25779">
        <ele>221.2</ele>
        <time>2022-03-08T14:17:37Z</time>
      </trkpt>
      <trkpt lat="46.34391" lon="5.25754">
        <ele>221.6</ele>
        <time>2022-03-08T14:17:41Z</time>
      </trkpt>
      <trkpt lat="46.34391" lon="5.25748">
        <ele>221.6</ele>
        <time>2022-03-08T14:17:42Z</time>
      </trkpt>
      <trkpt lat="46.34391" lon="5.25742">
        <ele>221.6</ele>
        <time>2022-03-08T14:17:43Z</time>
      </trkpt>
      <trkpt lat="46.34394" lon="5.25729">
        <ele>221.8</ele>
        <time>2022-03-08T14:17:45Z</time>
      </trkpt>
      <trkpt lat="46.34396" lon="5.25723">
        <ele>221.8</ele>
        <time>2022-03-08T14:17:46Z</time>
      </trkpt>
      <trkpt lat="46.34407" lon="5.25685">
        <ele>222.4</ele>
        <time>2022-03-08T14:17:52Z</time>
      </trkpt>
      <trkpt lat="46.34408" lon="5.2568">
        <ele>222.8</ele>
        <time>2022-03-08T14:17:53Z</time>
      </trkpt>
      <trkpt lat="46.34413" lon="5.25659">
        <ele>224.2</ele>
        <time>2022-03-08T14:17:57Z</time>
      </trkpt>
      <trkpt lat="46.34414" lon="5.25654">
        <ele>224.4</ele>
        <time>2022-03-08T14:17:58Z</time>
      </trkpt>
      <trkpt lat="46.34422" lon="5.25644">
        <ele>225.6</ele>
        <time>2022-03-08T14:18:01Z</time>
      </trkpt>
      <trkpt lat="46.34425" lon="5.25643">
        <ele>226.2</ele>
        <time>2022-03-08T14:18:02Z</time>
      </trkpt>
      <trkpt lat="46.34438" lon="5.25647">
        <ele>226.6</ele>
        <time>2022-03-08T14:18:05Z</time>
      </trkpt>
      <trkpt lat="46.34443" lon="5.25648">
        <ele>227</ele>
        <time>2022-03-08T14:18:06Z</time>
      </trkpt>
      <trkpt lat="46.34467" lon="5.25648">
        <ele>228</ele>
        <time>2022-03-08T14:18:11Z</time>
      </trkpt>
      <trkpt lat="46.34477" lon="5.25646">
        <ele>228.4</ele>
        <time>2022-03-08T14:18:13Z</time>
      </trkpt>
      <trkpt lat="46.34494" lon="5.25643">
        <ele>228.8</ele>
        <time>2022-03-08T14:18:17Z</time>
      </trkpt>
      <trkpt lat="46.34507" lon="5.25638">
        <ele>229.2</ele>
        <time>2022-03-08T14:18:20Z</time>
      </trkpt>
      <trkpt lat="46.34529" lon="5.2563">
        <ele>230.2</ele>
        <time>2022-03-08T14:18:25Z</time>
      </trkpt>
      <trkpt lat="46.34544" lon="5.25626">
        <ele>231</ele>
        <time>2022-03-08T14:18:28Z</time>
      </trkpt>
      <trkpt lat="46.34567" lon="5.25616">
        <ele>231</ele>
        <time>2022-03-08T14:18:32Z</time>
      </trkpt>
      <trkpt lat="46.34578" lon="5.25608">
        <ele>230.8</ele>
        <time>2022-03-08T14:18:34Z</time>
      </trkpt>
      <trkpt lat="46.34593" lon="5.25587">
        <ele>230.4</ele>
        <time>2022-03-08T14:18:37Z</time>
      </trkpt>
      <trkpt lat="46.34599" lon="5.25576">
        <ele>230.2</ele>
        <time>2022-03-08T14:18:38Z</time>
      </trkpt>
      <trkpt lat="46.34601" lon="5.25567">
        <ele>230</ele>
        <time>2022-03-08T14:18:39Z</time>
      </trkpt>
      <trkpt lat="46.34606" lon="5.25543">
        <ele>229</ele>
        <time>2022-03-08T14:18:41Z</time>
      </trkpt>
      <trkpt lat="46.34607" lon="5.25531">
        <ele>228.6</ele>
        <time>2022-03-08T14:18:42Z</time>
      </trkpt>
      <trkpt lat="46.34612" lon="5.25501">
        <ele>228</ele>
        <time>2022-03-08T14:18:44Z</time>
      </trkpt>
      <trkpt lat="46.34617" lon="5.25477">
        <ele>226.8</ele>
        <time>2022-03-08T14:18:46Z</time>
      </trkpt>
      <trkpt lat="46.34621" lon="5.25464">
        <ele>226.4</ele>
        <time>2022-03-08T14:18:47Z</time>
      </trkpt>
      <trkpt lat="46.34624" lon="5.2545">
        <ele>225.8</ele>
        <time>2022-03-08T14:18:48Z</time>
      </trkpt>
      <trkpt lat="46.34629" lon="5.25422">
        <ele>224.4</ele>
        <time>2022-03-08T14:18:50Z</time>
      </trkpt>
      <trkpt lat="46.34632" lon="5.25395">
        <ele>223.6</ele>
        <time>2022-03-08T14:18:52Z</time>
      </trkpt>
      <trkpt lat="46.34634" lon="5.25381">
        <ele>223.4</ele>
        <time>2022-03-08T14:18:53Z</time>
      </trkpt>
      <trkpt lat="46.34639" lon="5.25353">
        <ele>222.2</ele>
        <time>2022-03-08T14:18:55Z</time>
      </trkpt>
      <trkpt lat="46.34646" lon="5.25326">
        <ele>221.8</ele>
        <time>2022-03-08T14:18:57Z</time>
      </trkpt>
      <trkpt lat="46.34655" lon="5.25286">
        <ele>221.2</ele>
        <time>2022-03-08T14:19:00Z</time>
      </trkpt>
      <trkpt lat="46.34665" lon="5.25249">
        <ele>220</ele>
        <time>2022-03-08T14:19:03Z</time>
      </trkpt>
      <trkpt lat="46.34673" lon="5.25213">
        <ele>219.2</ele>
        <time>2022-03-08T14:19:06Z</time>
      </trkpt>
      <trkpt lat="46.34689" lon="5.25152">
        <ele>219.2</ele>
        <time>2022-03-08T14:19:12Z</time>
      </trkpt>
      <trkpt lat="46.34704" lon="5.25104">
        <ele>220.8</ele>
        <time>2022-03-08T14:19:18Z</time>
      </trkpt>
      <trkpt lat="46.34709" lon="5.2509">
        <ele>221.6</ele>
        <time>2022-03-08T14:19:20Z</time>
      </trkpt>
      <trkpt lat="46.34714" lon="5.25073">
        <ele>222.2</ele>
        <time>2022-03-08T14:19:23Z</time>
      </trkpt>
      <trkpt lat="46.34716" lon="5.25068">
        <ele>222.6</ele>
        <time>2022-03-08T14:19:24Z</time>
      </trkpt>
      <trkpt lat="46.34722" lon="5.25053">
        <ele>224</ele>
        <time>2022-03-08T14:19:27Z</time>
      </trkpt>
      <trkpt lat="46.34726" lon="5.2504">
        <ele>225.2</ele>
        <time>2022-03-08T14:19:29Z</time>
      </trkpt>
      <trkpt lat="46.34741" lon="5.24998">
        <ele>226.2</ele>
        <time>2022-03-08T14:19:35Z</time>
      </trkpt>
      <trkpt lat="46.34757" lon="5.24956">
        <ele>226.6</ele>
        <time>2022-03-08T14:19:40Z</time>
      </trkpt>
      <trkpt lat="46.34777" lon="5.24904">
        <ele>226.4</ele>
        <time>2022-03-08T14:19:46Z</time>
      </trkpt>
      <trkpt lat="46.34807" lon="5.2485">
        <ele>225.2</ele>
        <time>2022-03-08T14:19:53Z</time>
      </trkpt>
      <trkpt lat="46.34828" lon="5.24812">
        <ele>223.8</ele>
        <time>2022-03-08T14:19:57Z</time>
      </trkpt>
      <trkpt lat="46.34851" lon="5.24755">
        <ele>223</ele>
        <time>2022-03-08T14:20:02Z</time>
      </trkpt>
      <trkpt lat="46.34855" lon="5.24742">
        <ele>222.8</ele>
        <time>2022-03-08T14:20:03Z</time>
      </trkpt>
      <trkpt lat="46.34864" lon="5.24693">
        <ele>222</ele>
        <time>2022-03-08T14:20:07Z</time>
      </trkpt>
      <trkpt lat="46.34865" lon="5.24669">
        <ele>221.6</ele>
        <time>2022-03-08T14:20:09Z</time>
      </trkpt>
      <trkpt lat="46.34867" lon="5.24638">
        <ele>221.6</ele>
        <time>2022-03-08T14:20:12Z</time>
      </trkpt>
      <trkpt lat="46.34871" lon="5.24603">
        <ele>222</ele>
        <time>2022-03-08T14:20:16Z</time>
      </trkpt>
      <trkpt lat="46.34872" lon="5.24596">
        <ele>222.2</ele>
        <time>2022-03-08T14:20:17Z</time>
      </trkpt>
      <trkpt lat="46.34874" lon="5.24589">
        <ele>222.6</ele>
        <time>2022-03-08T14:20:18Z</time>
      </trkpt>
      <trkpt lat="46.34876" lon="5.24582">
        <ele>223</ele>
        <time>2022-03-08T14:20:19Z</time>
      </trkpt>
      <trkpt lat="46.34879" lon="5.24569">
        <ele>223.6</ele>
        <time>2022-03-08T14:20:21Z</time>
      </trkpt>
      <trkpt lat="46.34882" lon="5.24562">
        <ele>224.2</ele>
        <time>2022-03-08T14:20:22Z</time>
      </trkpt>
      <trkpt lat="46.34887" lon="5.24549">
        <ele>225.4</ele>
        <time>2022-03-08T14:20:24Z</time>
      </trkpt>
      <trkpt lat="46.3489" lon="5.24543">
        <ele>225.6</ele>
        <time>2022-03-08T14:20:25Z</time>
      </trkpt>
      <trkpt lat="46.34898" lon="5.24529">
        <ele>226.6</ele>
        <time>2022-03-08T14:20:27Z</time>
      </trkpt>
      <trkpt lat="46.34913" lon="5.24504">
        <ele>227.8</ele>
        <time>2022-03-08T14:20:31Z</time>
      </trkpt>
      <trkpt lat="46.3492" lon="5.2449">
        <ele>228.4</ele>
        <time>2022-03-08T14:20:33Z</time>
      </trkpt>
      <trkpt lat="46.34928" lon="5.24476">
        <ele>229</ele>
        <time>2022-03-08T14:20:35Z</time>
      </trkpt>
      <trkpt lat="46.34944" lon="5.24443">
        <ele>230.2</ele>
        <time>2022-03-08T14:20:40Z</time>
      </trkpt>
      <trkpt lat="46.34959" lon="5.24408">
        <ele>231.2</ele>
        <time>2022-03-08T14:20:45Z</time>
      </trkpt>
      <trkpt lat="46.34966" lon="5.24394">
        <ele>231.8</ele>
        <time>2022-03-08T14:20:47Z</time>
      </trkpt>
      <trkpt lat="46.3497" lon="5.24386">
        <ele>232</ele>
        <time>2022-03-08T14:20:48Z</time>
      </trkpt>
      <trkpt lat="46.34979" lon="5.24371">
        <ele>232.2</ele>
        <time>2022-03-08T14:20:50Z</time>
      </trkpt>
      <trkpt lat="46.35003" lon="5.24329">
        <ele>232.6</ele>
        <time>2022-03-08T14:20:56Z</time>
      </trkpt>
      <trkpt lat="46.35041" lon="5.24276">
        <ele>232.6</ele>
        <time>2022-03-08T14:21:04Z</time>
      </trkpt>
      <trkpt lat="46.35088" lon="5.24235">
        <ele>233</ele>
        <time>2022-03-08T14:21:12Z</time>
      </trkpt>
      <trkpt lat="46.35099" lon="5.24222">
        <ele>233</ele>
        <time>2022-03-08T14:21:14Z</time>
      </trkpt>
      <trkpt lat="46.35112" lon="5.24199">
        <ele>233.2</ele>
        <time>2022-03-08T14:21:17Z</time>
      </trkpt>
      <trkpt lat="46.35145" lon="5.2413">
        <ele>233</ele>
        <time>2022-03-08T14:21:25Z</time>
      </trkpt>
      <trkpt lat="46.35154" lon="5.24114">
        <ele>233</ele>
        <time>2022-03-08T14:21:27Z</time>
      </trkpt>
      <trkpt lat="46.35189" lon="5.24046">
        <ele>233</ele>
        <time>2022-03-08T14:21:35Z</time>
      </trkpt>
      <trkpt lat="46.35202" lon="5.24019">
        <ele>232.8</ele>
        <time>2022-03-08T14:21:38Z</time>
      </trkpt>
      <trkpt lat="46.35236" lon="5.23946">
        <ele>232.6</ele>
        <time>2022-03-08T14:21:46Z</time>
      </trkpt>
      <trkpt lat="46.35261" lon="5.23867">
        <ele>232.4</ele>
        <time>2022-03-08T14:21:54Z</time>
      </trkpt>
      <trkpt lat="46.35284" lon="5.23795">
        <ele>232.4</ele>
        <time>2022-03-08T14:22:01Z</time>
      </trkpt>
      <trkpt lat="46.35293" lon="5.23764">
        <ele>232.4</ele>
        <time>2022-03-08T14:22:04Z</time>
      </trkpt>
      <trkpt lat="46.35317" lon="5.23687">
        <ele>232.8</ele>
        <time>2022-03-08T14:22:12Z</time>
      </trkpt>
      <trkpt lat="46.35323" lon="5.23666">
        <ele>232.8</ele>
        <time>2022-03-08T14:22:14Z</time>
      </trkpt>
      <trkpt lat="46.35335" lon="5.23631">
        <ele>232.2</ele>
        <time>2022-03-08T14:22:18Z</time>
      </trkpt>
      <trkpt lat="46.35344" lon="5.23615">
        <ele>232.2</ele>
        <time>2022-03-08T14:22:20Z</time>
      </trkpt>
      <trkpt lat="46.35356" lon="5.23604">
        <ele>232.2</ele>
        <time>2022-03-08T14:22:22Z</time>
      </trkpt>
      <trkpt lat="46.35363" lon="5.236">
        <ele>232.2</ele>
        <time>2022-03-08T14:22:23Z</time>
      </trkpt>
      <trkpt lat="46.35378" lon="5.23596">
        <ele>232.2</ele>
        <time>2022-03-08T14:22:25Z</time>
      </trkpt>
      <trkpt lat="46.35401" lon="5.23595">
        <ele>232.4</ele>
        <time>2022-03-08T14:22:28Z</time>
      </trkpt>
      <trkpt lat="46.35446" lon="5.23601">
        <ele>232.8</ele>
        <time>2022-03-08T14:22:34Z</time>
      </trkpt>
      <trkpt lat="46.35486" lon="5.23612">
        <ele>233</ele>
        <time>2022-03-08T14:22:39Z</time>
      </trkpt>
      <trkpt lat="46.355" lon="5.23612">
        <ele>233</ele>
        <time>2022-03-08T14:22:41Z</time>
      </trkpt>
      <trkpt lat="46.35557" lon="5.23606">
        <ele>232.6</ele>
        <time>2022-03-08T14:22:48Z</time>
      </trkpt>
      <trkpt lat="46.35565" lon="5.23604">
        <ele>232.6</ele>
        <time>2022-03-08T14:22:49Z</time>
      </trkpt>
      <trkpt lat="46.35619" lon="5.23588">
        <ele>232.4</ele>
        <time>2022-03-08T14:22:56Z</time>
      </trkpt>
      <trkpt lat="46.35628" lon="5.23583">
        <ele>232.4</ele>
        <time>2022-03-08T14:22:57Z</time>
      </trkpt>
      <trkpt lat="46.35635" lon="5.23578">
        <ele>232.4</ele>
        <time>2022-03-08T14:22:58Z</time>
      </trkpt>
      <trkpt lat="46.35646" lon="5.23563">
        <ele>232.4</ele>
        <time>2022-03-08T14:23:00Z</time>
      </trkpt>
      <trkpt lat="46.35654" lon="5.23539">
        <ele>232.4</ele>
        <time>2022-03-08T14:23:02Z</time>
      </trkpt>
      <trkpt lat="46.35656" lon="5.23527">
        <ele>232.2</ele>
        <time>2022-03-08T14:23:03Z</time>
      </trkpt>
      <trkpt lat="46.3567" lon="5.23455">
        <ele>231.6</ele>
        <time>2022-03-08T14:23:09Z</time>
      </trkpt>
      <trkpt lat="46.3568" lon="5.23431">
        <ele>231.2</ele>
        <time>2022-03-08T14:23:11Z</time>
      </trkpt>
      <trkpt lat="46.35685" lon="5.23423">
        <ele>231</ele>
        <time>2022-03-08T14:23:12Z</time>
      </trkpt>
      <trkpt lat="46.35719" lon="5.23362">
        <ele>230.6</ele>
        <time>2022-03-08T14:23:18Z</time>
      </trkpt>
      <trkpt lat="46.35737" lon="5.2331">
        <ele>230</ele>
        <time>2022-03-08T14:23:23Z</time>
      </trkpt>
      <trkpt lat="46.35744" lon="5.23287">
        <ele>229.8</ele>
        <time>2022-03-08T14:23:25Z</time>
      </trkpt>
      <trkpt lat="46.35763" lon="5.23223">
        <ele>229.4</ele>
        <time>2022-03-08T14:23:31Z</time>
      </trkpt>
      <trkpt lat="46.35778" lon="5.23179">
        <ele>229</ele>
        <time>2022-03-08T14:23:35Z</time>
      </trkpt>
      <trkpt lat="46.35782" lon="5.23169">
        <ele>228.8</ele>
        <time>2022-03-08T14:23:36Z</time>
      </trkpt>
      <trkpt lat="46.35786" lon="5.23161">
        <ele>228.4</ele>
        <time>2022-03-08T14:23:37Z</time>
      </trkpt>
      <trkpt lat="46.35792" lon="5.23152">
        <ele>228</ele>
        <time>2022-03-08T14:23:38Z</time>
      </trkpt>
      <trkpt lat="46.358" lon="5.23142">
        <ele>228</ele>
        <time>2022-03-08T14:23:39Z</time>
      </trkpt>
      <trkpt lat="46.35813" lon="5.2313">
        <ele>227.4</ele>
        <time>2022-03-08T14:23:41Z</time>
      </trkpt>
      <trkpt lat="46.35834" lon="5.23107">
        <ele>226.8</ele>
        <time>2022-03-08T14:23:44Z</time>
      </trkpt>
      <trkpt lat="46.35852" lon="5.23083">
        <ele>226.4</ele>
        <time>2022-03-08T14:23:47Z</time>
      </trkpt>
      <trkpt lat="46.35875" lon="5.23043">
        <ele>225.6</ele>
        <time>2022-03-08T14:23:51Z</time>
      </trkpt>
      <trkpt lat="46.35911" lon="5.2298">
        <ele>224.8</ele>
        <time>2022-03-08T14:23:57Z</time>
      </trkpt>
      <trkpt lat="46.35919" lon="5.22966">
        <ele>224.6</ele>
        <time>2022-03-08T14:23:58Z</time>
      </trkpt>
      <trkpt lat="46.35934" lon="5.22945">
        <ele>224.4</ele>
        <time>2022-03-08T14:24:00Z</time>
      </trkpt>
      <trkpt lat="46.35941" lon="5.22938">
        <ele>223.8</ele>
        <time>2022-03-08T14:24:01Z</time>
      </trkpt>
      <trkpt lat="46.35952" lon="5.22932">
        <ele>223.4</ele>
        <time>2022-03-08T14:24:02Z</time>
      </trkpt>
      <trkpt lat="46.35977" lon="5.2292">
        <ele>222.6</ele>
        <time>2022-03-08T14:24:04Z</time>
      </trkpt>
      <trkpt lat="46.35986" lon="5.22916">
        <ele>222</ele>
        <time>2022-03-08T14:24:05Z</time>
      </trkpt>
      <trkpt lat="46.36025" lon="5.22892">
        <ele>220.8</ele>
        <time>2022-03-08T14:24:08Z</time>
      </trkpt>
      <trkpt lat="46.36034" lon="5.22884">
        <ele>220</ele>
        <time>2022-03-08T14:24:09Z</time>
      </trkpt>
      <trkpt lat="46.36045" lon="5.22873">
        <ele>219.2</ele>
        <time>2022-03-08T14:24:10Z</time>
      </trkpt>
      <trkpt lat="46.36056" lon="5.2286">
        <ele>218.4</ele>
        <time>2022-03-08T14:24:11Z</time>
      </trkpt>
      <trkpt lat="46.36069" lon="5.22844">
        <ele>216.4</ele>
        <time>2022-03-08T14:24:12Z</time>
      </trkpt>
      <trkpt lat="46.3608" lon="5.22829">
        <ele>215.4</ele>
        <time>2022-03-08T14:24:13Z</time>
      </trkpt>
      <trkpt lat="46.36088" lon="5.22813">
        <ele>213.8</ele>
        <time>2022-03-08T14:24:14Z</time>
      </trkpt>
      <trkpt lat="46.36101" lon="5.22782">
        <ele>211.8</ele>
        <time>2022-03-08T14:24:16Z</time>
      </trkpt>
      <trkpt lat="46.36107" lon="5.22764">
        <ele>210.6</ele>
        <time>2022-03-08T14:24:17Z</time>
      </trkpt>
      <trkpt lat="46.36114" lon="5.22749">
        <ele>210.2</ele>
        <time>2022-03-08T14:24:18Z</time>
      </trkpt>
      <trkpt lat="46.36122" lon="5.22734">
        <ele>209</ele>
        <time>2022-03-08T14:24:19Z</time>
      </trkpt>
      <trkpt lat="46.36148" lon="5.22692">
        <ele>207.8</ele>
        <time>2022-03-08T14:24:22Z</time>
      </trkpt>
      <trkpt lat="46.36155" lon="5.2268">
        <ele>207.6</ele>
        <time>2022-03-08T14:24:23Z</time>
      </trkpt>
      <trkpt lat="46.36165" lon="5.22655">
        <ele>207</ele>
        <time>2022-03-08T14:24:25Z</time>
      </trkpt>
      <trkpt lat="46.36177" lon="5.22611">
        <ele>207</ele>
        <time>2022-03-08T14:24:28Z</time>
      </trkpt>
      <trkpt lat="46.36181" lon="5.22601">
        <ele>207</ele>
        <time>2022-03-08T14:24:29Z</time>
      </trkpt>
      <trkpt lat="46.36187" lon="5.2259">
        <ele>207</ele>
        <time>2022-03-08T14:24:30Z</time>
      </trkpt>
      <trkpt lat="46.36199" lon="5.22571">
        <ele>207.2</ele>
        <time>2022-03-08T14:24:32Z</time>
      </trkpt>
      <trkpt lat="46.36206" lon="5.22563">
        <ele>207.2</ele>
        <time>2022-03-08T14:24:33Z</time>
      </trkpt>
      <trkpt lat="46.36226" lon="5.22539">
        <ele>207.6</ele>
        <time>2022-03-08T14:24:36Z</time>
      </trkpt>
      <trkpt lat="46.36232" lon="5.22533">
        <ele>207.6</ele>
        <time>2022-03-08T14:24:37Z</time>
      </trkpt>
      <trkpt lat="46.36249" lon="5.22513">
        <ele>209</ele>
        <time>2022-03-08T14:24:40Z</time>
      </trkpt>
      <trkpt lat="46.36259" lon="5.22499">
        <ele>209.8</ele>
        <time>2022-03-08T14:24:42Z</time>
      </trkpt>
      <trkpt lat="46.36262" lon="5.22493">
        <ele>210</ele>
        <time>2022-03-08T14:24:43Z</time>
      </trkpt>
      <trkpt lat="46.36265" lon="5.22484">
        <ele>210.8</ele>
        <time>2022-03-08T14:24:44Z</time>
      </trkpt>
      <trkpt lat="46.36268" lon="5.22476">
        <ele>211.2</ele>
        <time>2022-03-08T14:24:45Z</time>
      </trkpt>
      <trkpt lat="46.36271" lon="5.22464">
        <ele>212.2</ele>
        <time>2022-03-08T14:24:46Z</time>
      </trkpt>
      <trkpt lat="46.36272" lon="5.22454">
        <ele>212.8</ele>
        <time>2022-03-08T14:24:47Z</time>
      </trkpt>
      <trkpt lat="46.36276" lon="5.22409">
        <ele>213.4</ele>
        <time>2022-03-08T14:24:51Z</time>
      </trkpt>
      <trkpt lat="46.36283" lon="5.2236">
        <ele>213</ele>
        <time>2022-03-08T14:24:55Z</time>
      </trkpt>
      <trkpt lat="46.36289" lon="5.2234">
        <ele>212.2</ele>
        <time>2022-03-08T14:24:57Z</time>
      </trkpt>
      <trkpt lat="46.36301" lon="5.22322">
        <ele>211.6</ele>
        <time>2022-03-08T14:24:59Z</time>
      </trkpt>
      <trkpt lat="46.36309" lon="5.22315">
        <ele>211.4</ele>
        <time>2022-03-08T14:25:00Z</time>
      </trkpt>
      <trkpt lat="46.36316" lon="5.22312">
        <ele>211.2</ele>
        <time>2022-03-08T14:25:01Z</time>
      </trkpt>
      <trkpt lat="46.36335" lon="5.22309">
        <ele>210.6</ele>
        <time>2022-03-08T14:25:03Z</time>
      </trkpt>
      <trkpt lat="46.36351" lon="5.22308">
        <ele>210.4</ele>
        <time>2022-03-08T14:25:05Z</time>
      </trkpt>
      <trkpt lat="46.36359" lon="5.22306">
        <ele>210.4</ele>
        <time>2022-03-08T14:25:06Z</time>
      </trkpt>
      <trkpt lat="46.36375" lon="5.22298">
        <ele>210</ele>
        <time>2022-03-08T14:25:08Z</time>
      </trkpt>
      <trkpt lat="46.36411" lon="5.2227">
        <ele>209.4</ele>
        <time>2022-03-08T14:25:13Z</time>
      </trkpt>
      <trkpt lat="46.36417" lon="5.22263">
        <ele>209.6</ele>
        <time>2022-03-08T14:25:14Z</time>
      </trkpt>
      <trkpt lat="46.36458" lon="5.22223">
        <ele>210.4</ele>
        <time>2022-03-08T14:25:21Z</time>
      </trkpt>
      <trkpt lat="46.3647" lon="5.22211">
        <ele>210.8</ele>
        <time>2022-03-08T14:25:23Z</time>
      </trkpt>
      <trkpt lat="46.36499" lon="5.22187">
        <ele>211.6</ele>
        <time>2022-03-08T14:25:28Z</time>
      </trkpt>
      <trkpt lat="46.36515" lon="5.22173">
        <ele>211.8</ele>
        <time>2022-03-08T14:25:31Z</time>
      </trkpt>
      <trkpt lat="46.36529" lon="5.2216">
        <ele>212.4</ele>
        <time>2022-03-08T14:25:34Z</time>
      </trkpt>
      <trkpt lat="46.36538" lon="5.22149">
        <ele>213</ele>
        <time>2022-03-08T14:25:36Z</time>
      </trkpt>
      <trkpt lat="46.36545" lon="5.22137">
        <ele>213.2</ele>
        <time>2022-03-08T14:25:38Z</time>
      </trkpt>
      <trkpt lat="46.36548" lon="5.22131">
        <ele>213.6</ele>
        <time>2022-03-08T14:25:39Z</time>
      </trkpt>
      <trkpt lat="46.36551" lon="5.22125">
        <ele>214</ele>
        <time>2022-03-08T14:25:40Z</time>
      </trkpt>
      <trkpt lat="46.36556" lon="5.22112">
        <ele>214.6</ele>
        <time>2022-03-08T14:25:42Z</time>
      </trkpt>
      <trkpt lat="46.36559" lon="5.22101">
        <ele>215.2</ele>
        <time>2022-03-08T14:25:44Z</time>
      </trkpt>
      <trkpt lat="46.36564" lon="5.22081">
        <ele>216.4</ele>
        <time>2022-03-08T14:25:47Z</time>
      </trkpt>
      <trkpt lat="46.36569" lon="5.22063">
        <ele>217.2</ele>
        <time>2022-03-08T14:25:50Z</time>
      </trkpt>
      <trkpt lat="46.3657" lon="5.22057">
        <ele>217.4</ele>
        <time>2022-03-08T14:25:51Z</time>
      </trkpt>
      <trkpt lat="46.36574" lon="5.2204">
        <ele>218.6</ele>
        <time>2022-03-08T14:25:54Z</time>
      </trkpt>
      <trkpt lat="46.36576" lon="5.22034">
        <ele>218.8</ele>
        <time>2022-03-08T14:25:55Z</time>
      </trkpt>
      <trkpt lat="46.3658" lon="5.22021">
        <ele>219.4</ele>
        <time>2022-03-08T14:25:57Z</time>
      </trkpt>
      <trkpt lat="46.36582" lon="5.22014">
        <ele>219.8</ele>
        <time>2022-03-08T14:25:58Z</time>
      </trkpt>
      <trkpt lat="46.3659" lon="5.21979">
        <ele>221</ele>
        <time>2022-03-08T14:26:03Z</time>
      </trkpt>
      <trkpt lat="46.36591" lon="5.21972">
        <ele>221.2</ele>
        <time>2022-03-08T14:26:04Z</time>
      </trkpt>
      <trkpt lat="46.36597" lon="5.21936">
        <ele>222.2</ele>
        <time>2022-03-08T14:26:09Z</time>
      </trkpt>
      <trkpt lat="46.36601" lon="5.21902">
        <ele>223.4</ele>
        <time>2022-03-08T14:26:14Z</time>
      </trkpt>
      <trkpt lat="46.36603" lon="5.21892">
        <ele>223.6</ele>
        <time>2022-03-08T14:26:15Z</time>
      </trkpt>
      <trkpt lat="46.3661" lon="5.21846">
        <ele>224.4</ele>
        <time>2022-03-08T14:26:21Z</time>
      </trkpt>
      <trkpt lat="46.36612" lon="5.21828">
        <ele>224.4</ele>
        <time>2022-03-08T14:26:23Z</time>
      </trkpt>
      <trkpt lat="46.36622" lon="5.21763">
        <ele>224.6</ele>
        <time>2022-03-08T14:26:31Z</time>
      </trkpt>
      <trkpt lat="46.36642" lon="5.21687">
        <ele>225.2</ele>
        <time>2022-03-08T14:26:40Z</time>
      </trkpt>
      <trkpt lat="46.36655" lon="5.21663">
        <ele>225.4</ele>
        <time>2022-03-08T14:26:43Z</time>
      </trkpt>
      <trkpt lat="46.36663" lon="5.21653">
        <ele>225.4</ele>
        <time>2022-03-08T14:26:45Z</time>
      </trkpt>
      <trkpt lat="46.36695" lon="5.21613">
        <ele>225.6</ele>
        <time>2022-03-08T14:26:51Z</time>
      </trkpt>
      <trkpt lat="46.367" lon="5.21604">
        <ele>225.6</ele>
        <time>2022-03-08T14:26:52Z</time>
      </trkpt>
      <trkpt lat="46.36717" lon="5.21557">
        <ele>225.8</ele>
        <time>2022-03-08T14:26:57Z</time>
      </trkpt>
      <trkpt lat="46.36733" lon="5.21489">
        <ele>226</ele>
        <time>2022-03-08T14:27:04Z</time>
      </trkpt>
      <trkpt lat="46.36752" lon="5.2142">
        <ele>226</ele>
        <time>2022-03-08T14:27:11Z</time>
      </trkpt>
      <trkpt lat="46.36761" lon="5.21402">
        <ele>226</ele>
        <time>2022-03-08T14:27:13Z</time>
      </trkpt>
      <trkpt lat="46.36773" lon="5.21385">
        <ele>226</ele>
        <time>2022-03-08T14:27:15Z</time>
      </trkpt>
      <trkpt lat="46.36779" lon="5.21377">
        <ele>225.8</ele>
        <time>2022-03-08T14:27:16Z</time>
      </trkpt>
      <trkpt lat="46.36787" lon="5.2136">
        <ele>225.6</ele>
        <time>2022-03-08T14:27:18Z</time>
      </trkpt>
      <trkpt lat="46.3679" lon="5.2135">
        <ele>225.6</ele>
        <time>2022-03-08T14:27:19Z</time>
      </trkpt>
      <trkpt lat="46.36792" lon="5.21338">
        <ele>225.4</ele>
        <time>2022-03-08T14:27:20Z</time>
      </trkpt>
      <trkpt lat="46.36795" lon="5.21311">
        <ele>225.2</ele>
        <time>2022-03-08T14:27:22Z</time>
      </trkpt>
      <trkpt lat="46.36797" lon="5.21272">
        <ele>224.6</ele>
        <time>2022-03-08T14:27:25Z</time>
      </trkpt>
      <trkpt lat="46.36797" lon="5.21259">
        <ele>224.4</ele>
        <time>2022-03-08T14:27:26Z</time>
      </trkpt>
      <trkpt lat="46.36798" lon="5.21206">
        <ele>223.4</ele>
        <time>2022-03-08T14:27:30Z</time>
      </trkpt>
      <trkpt lat="46.36799" lon="5.21177">
        <ele>222.6</ele>
        <time>2022-03-08T14:27:32Z</time>
      </trkpt>
      <trkpt lat="46.36799" lon="5.21162">
        <ele>222.2</ele>
        <time>2022-03-08T14:27:33Z</time>
      </trkpt>
      <trkpt lat="46.36798" lon="5.21133">
        <ele>220.8</ele>
        <time>2022-03-08T14:27:35Z</time>
      </trkpt>
      <trkpt lat="46.36798" lon="5.21105">
        <ele>219.2</ele>
        <time>2022-03-08T14:27:37Z</time>
      </trkpt>
      <trkpt lat="46.36798" lon="5.21092">
        <ele>218.8</ele>
        <time>2022-03-08T14:27:38Z</time>
      </trkpt>
      <trkpt lat="46.36798" lon="5.21062">
        <ele>218.2</ele>
        <time>2022-03-08T14:27:40Z</time>
      </trkpt>
      <trkpt lat="46.36796" lon="5.20988">
        <ele>217</ele>
        <time>2022-03-08T14:27:46Z</time>
      </trkpt>
      <trkpt lat="46.36796" lon="5.20978">
        <ele>216.8</ele>
        <time>2022-03-08T14:27:47Z</time>
      </trkpt>
      <trkpt lat="46.36794" lon="5.20917">
        <ele>217.2</ele>
        <time>2022-03-08T14:27:53Z</time>
      </trkpt>
      <trkpt lat="46.36794" lon="5.20875">
        <ele>218</ele>
        <time>2022-03-08T14:27:58Z</time>
      </trkpt>
      <trkpt lat="46.36794" lon="5.20865">
        <ele>218</ele>
        <time>2022-03-08T14:27:59Z</time>
      </trkpt>
      <trkpt lat="46.36794" lon="5.20843">
        <ele>219.4</ele>
        <time>2022-03-08T14:28:02Z</time>
      </trkpt>
      <trkpt lat="46.36797" lon="5.2081">
        <ele>220.2</ele>
        <time>2022-03-08T14:28:06Z</time>
      </trkpt>
      <trkpt lat="46.36798" lon="5.20802">
        <ele>220.4</ele>
        <time>2022-03-08T14:28:07Z</time>
      </trkpt>
      <trkpt lat="46.3681" lon="5.20761">
        <ele>221</ele>
        <time>2022-03-08T14:28:12Z</time>
      </trkpt>
      <trkpt lat="46.36818" lon="5.20747">
        <ele>221.2</ele>
        <time>2022-03-08T14:28:14Z</time>
      </trkpt>
      <trkpt lat="46.36828" lon="5.20734">
        <ele>221.6</ele>
        <time>2022-03-08T14:28:16Z</time>
      </trkpt>
      <trkpt lat="46.36843" lon="5.20718">
        <ele>222</ele>
        <time>2022-03-08T14:28:19Z</time>
      </trkpt>
      <trkpt lat="46.36862" lon="5.20694">
        <ele>222.4</ele>
        <time>2022-03-08T14:28:23Z</time>
      </trkpt>
      <trkpt lat="46.36869" lon="5.20681">
        <ele>222.6</ele>
        <time>2022-03-08T14:28:25Z</time>
      </trkpt>
      <trkpt lat="46.36876" lon="5.20667">
        <ele>222.6</ele>
        <time>2022-03-08T14:28:27Z</time>
      </trkpt>
      <trkpt lat="46.36879" lon="5.2066">
        <ele>222.8</ele>
        <time>2022-03-08T14:28:28Z</time>
      </trkpt>
      <trkpt lat="46.36891" lon="5.20625">
        <ele>223</ele>
        <time>2022-03-08T14:28:33Z</time>
      </trkpt>
      <trkpt lat="46.36898" lon="5.20609">
        <ele>223.2</ele>
        <time>2022-03-08T14:28:35Z</time>
      </trkpt>
      <trkpt lat="46.36903" lon="5.20596">
        <ele>223.6</ele>
        <time>2022-03-08T14:28:37Z</time>
      </trkpt>
      <trkpt lat="46.36906" lon="5.20588">
        <ele>223.6</ele>
        <time>2022-03-08T14:28:38Z</time>
      </trkpt>
      <trkpt lat="46.36915" lon="5.20563">
        <ele>223.8</ele>
        <time>2022-03-08T14:28:41Z</time>
      </trkpt>
      <trkpt lat="46.36918" lon="5.20555">
        <ele>223.8</ele>
        <time>2022-03-08T14:28:42Z</time>
      </trkpt>
      <trkpt lat="46.36935" lon="5.20521">
        <ele>224.2</ele>
        <time>2022-03-08T14:28:46Z</time>
      </trkpt>
      <trkpt lat="46.36941" lon="5.20503">
        <ele>224</ele>
        <time>2022-03-08T14:28:48Z</time>
      </trkpt>
      <trkpt lat="46.36947" lon="5.20483">
        <ele>224</ele>
        <time>2022-03-08T14:28:50Z</time>
      </trkpt>
      <trkpt lat="46.36949" lon="5.20464">
        <ele>224</ele>
        <time>2022-03-08T14:28:52Z</time>
      </trkpt>
      <trkpt lat="46.36951" lon="5.20385">
        <ele>223.8</ele>
        <time>2022-03-08T14:28:59Z</time>
      </trkpt>
      <trkpt lat="46.36955" lon="5.20307">
        <ele>223.2</ele>
        <time>2022-03-08T14:29:06Z</time>
      </trkpt>
      <trkpt lat="46.36956" lon="5.20268">
        <ele>222.2</ele>
        <time>2022-03-08T14:29:09Z</time>
      </trkpt>
      <trkpt lat="46.36957" lon="5.20254">
        <ele>222</ele>
        <time>2022-03-08T14:29:10Z</time>
      </trkpt>
      <trkpt lat="46.36958" lon="5.20239">
        <ele>221.2</ele>
        <time>2022-03-08T14:29:11Z</time>
      </trkpt>
      <trkpt lat="46.36959" lon="5.20194">
        <ele>219.6</ele>
        <time>2022-03-08T14:29:14Z</time>
      </trkpt>
      <trkpt lat="46.36961" lon="5.20163">
        <ele>219</ele>
        <time>2022-03-08T14:29:16Z</time>
      </trkpt>
      <trkpt lat="46.36962" lon="5.20133">
        <ele>217.6</ele>
        <time>2022-03-08T14:29:18Z</time>
      </trkpt>
      <trkpt lat="46.36966" lon="5.20102">
        <ele>216.2</ele>
        <time>2022-03-08T14:29:20Z</time>
      </trkpt>
      <trkpt lat="46.3697" lon="5.20087">
        <ele>216</ele>
        <time>2022-03-08T14:29:21Z</time>
      </trkpt>
      <trkpt lat="46.36977" lon="5.20057">
        <ele>214.6</ele>
        <time>2022-03-08T14:29:23Z</time>
      </trkpt>
      <trkpt lat="46.36988" lon="5.20012">
        <ele>213.4</ele>
        <time>2022-03-08T14:29:26Z</time>
      </trkpt>
      <trkpt lat="46.36994" lon="5.19984">
        <ele>213</ele>
        <time>2022-03-08T14:29:28Z</time>
      </trkpt>
      <trkpt lat="46.37006" lon="5.19915">
        <ele>212.4</ele>
        <time>2022-03-08T14:29:33Z</time>
      </trkpt>
      <trkpt lat="46.37009" lon="5.19903">
        <ele>212.4</ele>
        <time>2022-03-08T14:29:34Z</time>
      </trkpt>
      <trkpt lat="46.37014" lon="5.19891">
        <ele>212.4</ele>
        <time>2022-03-08T14:29:35Z</time>
      </trkpt>
      <trkpt lat="46.37019" lon="5.19881">
        <ele>212.4</ele>
        <time>2022-03-08T14:29:36Z</time>
      </trkpt>
      <trkpt lat="46.37045" lon="5.19848">
        <ele>212.4</ele>
        <time>2022-03-08T14:29:40Z</time>
      </trkpt>
      <trkpt lat="46.37056" lon="5.19833">
        <ele>212.4</ele>
        <time>2022-03-08T14:29:42Z</time>
      </trkpt>
      <trkpt lat="46.37065" lon="5.19814">
        <ele>212.6</ele>
        <time>2022-03-08T14:29:44Z</time>
      </trkpt>
      <trkpt lat="46.37074" lon="5.19774">
        <ele>212.8</ele>
        <time>2022-03-08T14:29:48Z</time>
      </trkpt>
      <trkpt lat="46.37078" lon="5.19745">
        <ele>213.6</ele>
        <time>2022-03-08T14:29:51Z</time>
      </trkpt>
      <trkpt lat="46.37083" lon="5.19708">
        <ele>214.4</ele>
        <time>2022-03-08T14:29:55Z</time>
      </trkpt>
      <trkpt lat="46.37085" lon="5.1969">
        <ele>215</ele>
        <time>2022-03-08T14:29:57Z</time>
      </trkpt>
      <trkpt lat="46.3709" lon="5.19653">
        <ele>216</ele>
        <time>2022-03-08T14:30:01Z</time>
      </trkpt>
      <trkpt lat="46.37092" lon="5.19644">
        <ele>216.6</ele>
        <time>2022-03-08T14:30:02Z</time>
      </trkpt>
      <trkpt lat="46.37097" lon="5.19618">
        <ele>217.4</ele>
        <time>2022-03-08T14:30:05Z</time>
      </trkpt>
      <trkpt lat="46.37103" lon="5.19594">
        <ele>218.4</ele>
        <time>2022-03-08T14:30:08Z</time>
      </trkpt>
      <trkpt lat="46.37106" lon="5.19577">
        <ele>219</ele>
        <time>2022-03-08T14:30:10Z</time>
      </trkpt>
      <trkpt lat="46.37109" lon="5.19549">
        <ele>219.4</ele>
        <time>2022-03-08T14:30:13Z</time>
      </trkpt>
      <trkpt lat="46.37109" lon="5.19524">
        <ele>219.6</ele>
        <time>2022-03-08T14:30:16Z</time>
      </trkpt>
      <trkpt lat="46.37102" lon="5.1944">
        <ele>220.6</ele>
        <time>2022-03-08T14:30:26Z</time>
      </trkpt>
      <trkpt lat="46.37102" lon="5.19399">
        <ele>221.6</ele>
        <time>2022-03-08T14:30:31Z</time>
      </trkpt>
      <trkpt lat="46.37102" lon="5.19391">
        <ele>221.6</ele>
        <time>2022-03-08T14:30:32Z</time>
      </trkpt>
      <trkpt lat="46.37103" lon="5.19382">
        <ele>222</ele>
        <time>2022-03-08T14:30:33Z</time>
      </trkpt>
      <trkpt lat="46.37115" lon="5.19316">
        <ele>222</ele>
        <time>2022-03-08T14:30:41Z</time>
      </trkpt>
      <trkpt lat="46.3713" lon="5.19251">
        <ele>222.6</ele>
        <time>2022-03-08T14:30:49Z</time>
      </trkpt>
      <trkpt lat="46.37148" lon="5.1917">
        <ele>222.6</ele>
        <time>2022-03-08T14:30:59Z</time>
      </trkpt>
      <trkpt lat="46.37155" lon="5.19137">
        <ele>223</ele>
        <time>2022-03-08T14:31:03Z</time>
      </trkpt>
      <trkpt lat="46.37162" lon="5.19105">
        <ele>223.6</ele>
        <time>2022-03-08T14:31:07Z</time>
      </trkpt>
      <trkpt lat="46.37173" lon="5.19053">
        <ele>224</ele>
        <time>2022-03-08T14:31:13Z</time>
      </trkpt>
      <trkpt lat="46.37176" lon="5.19034">
        <ele>224</ele>
        <time>2022-03-08T14:31:15Z</time>
      </trkpt>
      <trkpt lat="46.37186" lon="5.18976">
        <ele>223.8</ele>
        <time>2022-03-08T14:31:20Z</time>
      </trkpt>
      <trkpt lat="46.37193" lon="5.18927">
        <ele>223</ele>
        <time>2022-03-08T14:31:24Z</time>
      </trkpt>
      <trkpt lat="46.37202" lon="5.18865">
        <ele>222</ele>
        <time>2022-03-08T14:31:29Z</time>
      </trkpt>
      <trkpt lat="46.37205" lon="5.18853">
        <ele>222</ele>
        <time>2022-03-08T14:31:30Z</time>
      </trkpt>
      <trkpt lat="46.37215" lon="5.18805">
        <ele>221</ele>
        <time>2022-03-08T14:31:34Z</time>
      </trkpt>
      <trkpt lat="46.37216" lon="5.18793">
        <ele>221</ele>
        <time>2022-03-08T14:31:35Z</time>
      </trkpt>
      <trkpt lat="46.37217" lon="5.18782">
        <ele>220.8</ele>
        <time>2022-03-08T14:31:36Z</time>
      </trkpt>
      <trkpt lat="46.37213" lon="5.18746">
        <ele>220.6</ele>
        <time>2022-03-08T14:31:39Z</time>
      </trkpt>
      <trkpt lat="46.37201" lon="5.18692">
        <ele>220</ele>
        <time>2022-03-08T14:31:44Z</time>
      </trkpt>
      <trkpt lat="46.37194" lon="5.18627">
        <ele>219.2</ele>
        <time>2022-03-08T14:31:50Z</time>
      </trkpt>
      <trkpt lat="46.37192" lon="5.18595">
        <ele>219</ele>
        <time>2022-03-08T14:31:53Z</time>
      </trkpt>
      <trkpt lat="46.37192" lon="5.18555">
        <ele>219</ele>
        <time>2022-03-08T14:31:57Z</time>
      </trkpt>
      <trkpt lat="46.37197" lon="5.18535">
        <ele>219</ele>
        <time>2022-03-08T14:31:59Z</time>
      </trkpt>
      <trkpt lat="46.372" lon="5.18526">
        <ele>219</ele>
        <time>2022-03-08T14:32:00Z</time>
      </trkpt>
      <trkpt lat="46.37217" lon="5.18489">
        <ele>219</ele>
        <time>2022-03-08T14:32:04Z</time>
      </trkpt>
      <trkpt lat="46.37223" lon="5.18468">
        <ele>219</ele>
        <time>2022-03-08T14:32:06Z</time>
      </trkpt>
      <trkpt lat="46.37225" lon="5.18445">
        <ele>219</ele>
        <time>2022-03-08T14:32:08Z</time>
      </trkpt>
      <trkpt lat="46.37224" lon="5.1842">
        <ele>218.6</ele>
        <time>2022-03-08T14:32:10Z</time>
      </trkpt>
      <trkpt lat="46.37223" lon="5.18382">
        <ele>217.8</ele>
        <time>2022-03-08T14:32:13Z</time>
      </trkpt>
      <trkpt lat="46.37222" lon="5.18343">
        <ele>216.4</ele>
        <time>2022-03-08T14:32:16Z</time>
      </trkpt>
      <trkpt lat="46.37222" lon="5.18317">
        <ele>214.8</ele>
        <time>2022-03-08T14:32:18Z</time>
      </trkpt>
      <trkpt lat="46.3722" lon="5.18304">
        <ele>214.4</ele>
        <time>2022-03-08T14:32:19Z</time>
      </trkpt>
      <trkpt lat="46.37216" lon="5.1828">
        <ele>213.4</ele>
        <time>2022-03-08T14:32:21Z</time>
      </trkpt>
      <trkpt lat="46.3721" lon="5.18244">
        <ele>212.2</ele>
        <time>2022-03-08T14:32:24Z</time>
      </trkpt>
      <trkpt lat="46.37208" lon="5.18219">
        <ele>212</ele>
        <time>2022-03-08T14:32:26Z</time>
      </trkpt>
      <trkpt lat="46.37209" lon="5.18207">
        <ele>211.8</ele>
        <time>2022-03-08T14:32:27Z</time>
      </trkpt>
      <trkpt lat="46.37209" lon="5.18163">
        <ele>211.2</ele>
        <time>2022-03-08T14:32:31Z</time>
      </trkpt>
      <trkpt lat="46.37207" lon="5.18152">
        <ele>211</ele>
        <time>2022-03-08T14:32:32Z</time>
      </trkpt>
      <trkpt lat="46.37205" lon="5.18142">
        <ele>211</ele>
        <time>2022-03-08T14:32:33Z</time>
      </trkpt>
      <trkpt lat="46.37199" lon="5.18123">
        <ele>210.8</ele>
        <time>2022-03-08T14:32:35Z</time>
      </trkpt>
      <trkpt lat="46.37195" lon="5.18115">
        <ele>210.8</ele>
        <time>2022-03-08T14:32:36Z</time>
      </trkpt>
      <trkpt lat="46.3719" lon="5.18108">
        <ele>210.8</ele>
        <time>2022-03-08T14:32:37Z</time>
      </trkpt>
      <trkpt lat="46.37179" lon="5.18095">
        <ele>210.6</ele>
        <time>2022-03-08T14:32:39Z</time>
      </trkpt>
      <trkpt lat="46.37172" lon="5.18089">
        <ele>210.6</ele>
        <time>2022-03-08T14:32:40Z</time>
      </trkpt>
      <trkpt lat="46.37135" lon="5.18054">
        <ele>210.4</ele>
        <time>2022-03-08T14:32:46Z</time>
      </trkpt>
      <trkpt lat="46.37129" lon="5.18048">
        <ele>210.2</ele>
        <time>2022-03-08T14:32:47Z</time>
      </trkpt>
      <trkpt lat="46.37117" lon="5.18035">
        <ele>209.8</ele>
        <time>2022-03-08T14:32:49Z</time>
      </trkpt>
      <trkpt lat="46.37108" lon="5.18021">
        <ele>209.6</ele>
        <time>2022-03-08T14:32:51Z</time>
      </trkpt>
      <trkpt lat="46.37104" lon="5.18013">
        <ele>209.4</ele>
        <time>2022-03-08T14:32:52Z</time>
      </trkpt>
      <trkpt lat="46.37098" lon="5.17996">
        <ele>209.4</ele>
        <time>2022-03-08T14:32:54Z</time>
      </trkpt>
      <trkpt lat="46.37088" lon="5.17962">
        <ele>209.2</ele>
        <time>2022-03-08T14:32:58Z</time>
      </trkpt>
      <trkpt lat="46.37074" lon="5.17901">
        <ele>209.4</ele>
        <time>2022-03-08T14:33:05Z</time>
      </trkpt>
      <trkpt lat="46.37059" lon="5.17831">
        <ele>210.8</ele>
        <time>2022-03-08T14:33:14Z</time>
      </trkpt>
      <trkpt lat="46.37057" lon="5.17824">
        <ele>211.2</ele>
        <time>2022-03-08T14:33:15Z</time>
      </trkpt>
      <trkpt lat="46.37048" lon="5.17789">
        <ele>212.2</ele>
        <time>2022-03-08T14:33:20Z</time>
      </trkpt>
      <trkpt lat="46.37044" lon="5.17778">
        <ele>212.6</ele>
        <time>2022-03-08T14:33:22Z</time>
      </trkpt>
      <trkpt lat="46.37036" lon="5.17746">
        <ele>213.6</ele>
        <time>2022-03-08T14:33:27Z</time>
      </trkpt>
      <trkpt lat="46.37029" lon="5.17721">
        <ele>214.8</ele>
        <time>2022-03-08T14:33:31Z</time>
      </trkpt>
      <trkpt lat="46.37025" lon="5.17697">
        <ele>215.8</ele>
        <time>2022-03-08T14:33:35Z</time>
      </trkpt>
      <trkpt lat="46.37023" lon="5.17688">
        <ele>217</ele>
        <time>2022-03-08T14:33:37Z</time>
      </trkpt>
      <trkpt lat="46.37022" lon="5.17673">
        <ele>217.8</ele>
        <time>2022-03-08T14:33:40Z</time>
      </trkpt>
      <trkpt lat="46.37022" lon="5.1767">
        <ele>218.2</ele>
        <time>2022-03-08T14:33:41Z</time>
      </trkpt>
      <trkpt lat="46.37027" lon="5.17665">
        <ele>218.8</ele>
        <time>2022-03-08T14:33:43Z</time>
      </trkpt>
      <trkpt lat="46.37033" lon="5.17664">
        <ele>219.6</ele>
        <time>2022-03-08T14:33:45Z</time>
      </trkpt>
      <trkpt lat="46.37047" lon="5.1766">
        <ele>220.4</ele>
        <time>2022-03-08T14:33:49Z</time>
      </trkpt>
      <trkpt lat="46.37051" lon="5.17659">
        <ele>220.8</ele>
        <time>2022-03-08T14:33:50Z</time>
      </trkpt>
      <trkpt lat="46.3706" lon="5.17649">
        <ele>220.8</ele>
        <time>2022-03-08T14:33:53Z</time>
      </trkpt>
      <trkpt lat="46.37055" lon="5.17634">
        <ele>221</ele>
        <time>2022-03-08T14:33:56Z</time>
      </trkpt>
      <trkpt lat="46.37053" lon="5.17621">
        <ele>221</ele>
        <time>2022-03-08T14:33:58Z</time>
      </trkpt>
      <trkpt lat="46.37052" lon="5.17608">
        <ele>221.2</ele>
        <time>2022-03-08T14:34:00Z</time>
      </trkpt>
      <trkpt lat="46.3705" lon="5.17569">
        <ele>221.8</ele>
        <time>2022-03-08T14:34:07Z</time>
      </trkpt>
      <trkpt lat="46.37048" lon="5.17551">
        <ele>222</ele>
        <time>2022-03-08T14:34:12Z</time>
      </trkpt>
      <trkpt lat="46.37047" lon="5.17546">
        <ele>222</ele>
        <time>2022-03-08T14:34:14Z</time>
      </trkpt>
      <trkpt lat="46.37045" lon="5.17546">
        <ele>222</ele>
        <time>2022-03-08T14:34:16Z</time>
      </trkpt>
      <trkpt lat="46.37043" lon="5.17552">
        <ele>222.2</ele>
        <time>2022-03-08T14:34:18Z</time>
      </trkpt>
      <trkpt lat="46.37045" lon="5.17564">
        <ele>222.4</ele>
        <time>2022-03-08T14:34:20Z</time>
      </trkpt>
      <trkpt lat="46.37049" lon="5.17577">
        <ele>222.4</ele>
        <time>2022-03-08T14:34:22Z</time>
      </trkpt>
      <trkpt lat="46.3705" lon="5.17593">
        <ele>222.4</ele>
        <time>2022-03-08T14:34:24Z</time>
      </trkpt>
      <trkpt lat="46.37052" lon="5.17619">
        <ele>222.4</ele>
        <time>2022-03-08T14:34:27Z</time>
      </trkpt>
      <trkpt lat="46.37057" lon="5.17637">
        <ele>222.4</ele>
        <time>2022-03-08T14:34:29Z</time>
      </trkpt>
      <trkpt lat="46.37067" lon="5.17647">
        <ele>222.2</ele>
        <time>2022-03-08T14:34:31Z</time>
      </trkpt>
      <trkpt lat="46.37073" lon="5.17649">
        <ele>222.2</ele>
        <time>2022-03-08T14:34:32Z</time>
      </trkpt>
      <trkpt lat="46.37081" lon="5.1765">
        <ele>222.2</ele>
        <time>2022-03-08T14:34:33Z</time>
      </trkpt>
      <trkpt lat="46.37093" lon="5.1765">
        <ele>222</ele>
        <time>2022-03-08T14:34:35Z</time>
      </trkpt>
      <trkpt lat="46.371" lon="5.17651">
        <ele>221.8</ele>
        <time>2022-03-08T14:34:36Z</time>
      </trkpt>
      <trkpt lat="46.37108" lon="5.17655">
        <ele>221.8</ele>
        <time>2022-03-08T14:34:37Z</time>
      </trkpt>
      <trkpt lat="46.37121" lon="5.17666">
        <ele>221.8</ele>
        <time>2022-03-08T14:34:39Z</time>
      </trkpt>
      <trkpt lat="46.37154" lon="5.17708">
        <ele>220.8</ele>
        <time>2022-03-08T14:34:44Z</time>
      </trkpt>
      <trkpt lat="46.37159" lon="5.17715">
        <ele>220.2</ele>
        <time>2022-03-08T14:34:45Z</time>
      </trkpt>
      <trkpt lat="46.37178" lon="5.17747">
        <ele>218.8</ele>
        <time>2022-03-08T14:34:48Z</time>
      </trkpt>
      <trkpt lat="46.37195" lon="5.1778">
        <ele>217.8</ele>
        <time>2022-03-08T14:34:51Z</time>
      </trkpt>
      <trkpt lat="46.37201" lon="5.1779">
        <ele>217.6</ele>
        <time>2022-03-08T14:34:52Z</time>
      </trkpt>
      <trkpt lat="46.37231" lon="5.17848">
        <ele>217</ele>
        <time>2022-03-08T14:34:58Z</time>
      </trkpt>
      <trkpt lat="46.37253" lon="5.17888">
        <ele>217.2</ele>
        <time>2022-03-08T14:35:03Z</time>
      </trkpt>
      <trkpt lat="46.37273" lon="5.17927">
        <ele>218.6</ele>
        <time>2022-03-08T14:35:08Z</time>
      </trkpt>
      <trkpt lat="46.3728" lon="5.17942">
        <ele>219.2</ele>
        <time>2022-03-08T14:35:10Z</time>
      </trkpt>
      <trkpt lat="46.37285" lon="5.1795">
        <ele>219.8</ele>
        <time>2022-03-08T14:35:11Z</time>
      </trkpt>
      <trkpt lat="46.37302" lon="5.17981">
        <ele>220.6</ele>
        <time>2022-03-08T14:35:15Z</time>
      </trkpt>
      <trkpt lat="46.37307" lon="5.17988">
        <ele>220.8</ele>
        <time>2022-03-08T14:35:16Z</time>
      </trkpt>
      <trkpt lat="46.37312" lon="5.17996">
        <ele>221</ele>
        <time>2022-03-08T14:35:17Z</time>
      </trkpt>
      <trkpt lat="46.37321" lon="5.18012">
        <ele>221.8</ele>
        <time>2022-03-08T14:35:19Z</time>
      </trkpt>
      <trkpt lat="46.37339" lon="5.18046">
        <ele>222.4</ele>
        <time>2022-03-08T14:35:23Z</time>
      </trkpt>
      <trkpt lat="46.37374" lon="5.18107">
        <ele>222.8</ele>
        <time>2022-03-08T14:35:30Z</time>
      </trkpt>
      <trkpt lat="46.37385" lon="5.18126">
        <ele>222.6</ele>
        <time>2022-03-08T14:35:32Z</time>
      </trkpt>
      <trkpt lat="46.37422" lon="5.18192">
        <ele>222.6</ele>
        <time>2022-03-08T14:35:40Z</time>
      </trkpt>
      <trkpt lat="46.37427" lon="5.182">
        <ele>222.6</ele>
        <time>2022-03-08T14:35:41Z</time>
      </trkpt>
      <trkpt lat="46.37445" lon="5.18232">
        <ele>222.8</ele>
        <time>2022-03-08T14:35:45Z</time>
      </trkpt>
      <trkpt lat="46.3746" lon="5.18257">
        <ele>223</ele>
        <time>2022-03-08T14:35:48Z</time>
      </trkpt>
      <trkpt lat="46.37495" lon="5.18304">
        <ele>224</ele>
        <time>2022-03-08T14:35:55Z</time>
      </trkpt>
      <trkpt lat="46.37507" lon="5.18319">
        <ele>224.2</ele>
        <time>2022-03-08T14:35:57Z</time>
      </trkpt>
      <trkpt lat="46.3755" lon="5.18374">
        <ele>224.4</ele>
        <time>2022-03-08T14:36:05Z</time>
      </trkpt>
      <trkpt lat="46.37566" lon="5.18393">
        <ele>224.4</ele>
        <time>2022-03-08T14:36:08Z</time>
      </trkpt>
      <trkpt lat="46.37608" lon="5.18445">
        <ele>224</ele>
        <time>2022-03-08T14:36:15Z</time>
      </trkpt>
      <trkpt lat="46.37615" lon="5.18454">
        <ele>224</ele>
        <time>2022-03-08T14:36:16Z</time>
      </trkpt>
      <trkpt lat="46.37652" lon="5.185">
        <ele>223</ele>
        <time>2022-03-08T14:36:22Z</time>
      </trkpt>
      <trkpt lat="46.37672" lon="5.18527">
        <ele>222.4</ele>
        <time>2022-03-08T14:36:25Z</time>
      </trkpt>
      <trkpt lat="46.37712" lon="5.18577">
        <ele>221.4</ele>
        <time>2022-03-08T14:36:31Z</time>
      </trkpt>
      <trkpt lat="46.37719" lon="5.18586">
        <ele>220.8</ele>
        <time>2022-03-08T14:36:32Z</time>
      </trkpt>
      <trkpt lat="46.37742" lon="5.18615">
        <ele>220.4</ele>
        <time>2022-03-08T14:36:35Z</time>
      </trkpt>
      <trkpt lat="46.37765" lon="5.18644">
        <ele>219.2</ele>
        <time>2022-03-08T14:36:38Z</time>
      </trkpt>
      <trkpt lat="46.37774" lon="5.18656">
        <ele>219</ele>
        <time>2022-03-08T14:36:39Z</time>
      </trkpt>
      <trkpt lat="46.37802" lon="5.18691">
        <ele>218</ele>
        <time>2022-03-08T14:36:43Z</time>
      </trkpt>
      <trkpt lat="46.37843" lon="5.18745">
        <ele>217.4</ele>
        <time>2022-03-08T14:36:49Z</time>
      </trkpt>
      <trkpt lat="46.37879" lon="5.18789">
        <ele>218.2</ele>
        <time>2022-03-08T14:36:55Z</time>
      </trkpt>
      <trkpt lat="46.37916" lon="5.18835">
        <ele>219.6</ele>
        <time>2022-03-08T14:37:01Z</time>
      </trkpt>
      <trkpt lat="46.37928" lon="5.18851">
        <ele>220</ele>
        <time>2022-03-08T14:37:03Z</time>
      </trkpt>
      <trkpt lat="46.37958" lon="5.18889">
        <ele>220.6</ele>
        <time>2022-03-08T14:37:08Z</time>
      </trkpt>
      <trkpt lat="46.37976" lon="5.18911">
        <ele>221.2</ele>
        <time>2022-03-08T14:37:11Z</time>
      </trkpt>
      <trkpt lat="46.38016" lon="5.18964">
        <ele>221.6</ele>
        <time>2022-03-08T14:37:18Z</time>
      </trkpt>
      <trkpt lat="46.38027" lon="5.18978">
        <ele>221.8</ele>
        <time>2022-03-08T14:37:20Z</time>
      </trkpt>
      <trkpt lat="46.38033" lon="5.18985">
        <ele>221.8</ele>
        <time>2022-03-08T14:37:21Z</time>
      </trkpt>
      <trkpt lat="46.38078" lon="5.19044">
        <ele>222.4</ele>
        <time>2022-03-08T14:37:29Z</time>
      </trkpt>
      <trkpt lat="46.38095" lon="5.19065">
        <ele>222.8</ele>
        <time>2022-03-08T14:37:32Z</time>
      </trkpt>
      <trkpt lat="46.38142" lon="5.19125">
        <ele>223.8</ele>
        <time>2022-03-08T14:37:40Z</time>
      </trkpt>
      <trkpt lat="46.3819" lon="5.19186">
        <ele>224.8</ele>
        <time>2022-03-08T14:37:48Z</time>
      </trkpt>
      <trkpt lat="46.38196" lon="5.19193">
        <ele>225.2</ele>
        <time>2022-03-08T14:37:49Z</time>
      </trkpt>
      <trkpt lat="46.3824" lon="5.19249">
        <ele>225</ele>
        <time>2022-03-08T14:37:56Z</time>
      </trkpt>
      <trkpt lat="46.38262" lon="5.19277">
        <ele>224.4</ele>
        <time>2022-03-08T14:37:59Z</time>
      </trkpt>
      <trkpt lat="46.38275" lon="5.19292">
        <ele>224</ele>
        <time>2022-03-08T14:38:01Z</time>
      </trkpt>
      <trkpt lat="46.38319" lon="5.19348">
        <ele>223.6</ele>
        <time>2022-03-08T14:38:07Z</time>
      </trkpt>
      <trkpt lat="46.38361" lon="5.194">
        <ele>223.2</ele>
        <time>2022-03-08T14:38:13Z</time>
      </trkpt>
      <trkpt lat="46.38366" lon="5.19407">
        <ele>223</ele>
        <time>2022-03-08T14:38:14Z</time>
      </trkpt>
      <trkpt lat="46.38395" lon="5.19443">
        <ele>223</ele>
        <time>2022-03-08T14:38:18Z</time>
      </trkpt>
      <trkpt lat="46.38443" lon="5.19504">
        <ele>223</ele>
        <time>2022-03-08T14:38:25Z</time>
      </trkpt>
      <trkpt lat="46.3845" lon="5.19513">
        <ele>223</ele>
        <time>2022-03-08T14:38:26Z</time>
      </trkpt>
      <trkpt lat="46.38491" lon="5.19565">
        <ele>223.2</ele>
        <time>2022-03-08T14:38:32Z</time>
      </trkpt>
      <trkpt lat="46.38503" lon="5.19581">
        <ele>223.2</ele>
        <time>2022-03-08T14:38:34Z</time>
      </trkpt>
      <trkpt lat="46.38519" lon="5.196">
        <ele>223</ele>
        <time>2022-03-08T14:38:36Z</time>
      </trkpt>
      <trkpt lat="46.38565" lon="5.19659">
        <ele>223</ele>
        <time>2022-03-08T14:38:43Z</time>
      </trkpt>
      <trkpt lat="46.38593" lon="5.19695">
        <ele>222.8</ele>
        <time>2022-03-08T14:38:47Z</time>
      </trkpt>
      <trkpt lat="46.38635" lon="5.19747">
        <ele>222.8</ele>
        <time>2022-03-08T14:38:53Z</time>
      </trkpt>
      <trkpt lat="46.38663" lon="5.19782">
        <ele>222.8</ele>
        <time>2022-03-08T14:38:57Z</time>
      </trkpt>
      <trkpt lat="46.38708" lon="5.19838">
        <ele>222.4</ele>
        <time>2022-03-08T14:39:03Z</time>
      </trkpt>
      <trkpt lat="46.38724" lon="5.19858">
        <ele>222.2</ele>
        <time>2022-03-08T14:39:05Z</time>
      </trkpt>
      <trkpt lat="46.38739" lon="5.19878">
        <ele>221.6</ele>
        <time>2022-03-08T14:39:07Z</time>
      </trkpt>
      <trkpt lat="46.38764" lon="5.1991">
        <ele>220.6</ele>
        <time>2022-03-08T14:39:10Z</time>
      </trkpt>
      <trkpt lat="46.38789" lon="5.19941">
        <ele>219.8</ele>
        <time>2022-03-08T14:39:13Z</time>
      </trkpt>
      <trkpt lat="46.38797" lon="5.19952">
        <ele>219.4</ele>
        <time>2022-03-08T14:39:14Z</time>
      </trkpt>
      <trkpt lat="46.38823" lon="5.19984">
        <ele>217.4</ele>
        <time>2022-03-08T14:39:17Z</time>
      </trkpt>
      <trkpt lat="46.38849" lon="5.20016">
        <ele>216.2</ele>
        <time>2022-03-08T14:39:20Z</time>
      </trkpt>
      <trkpt lat="46.38866" lon="5.20037">
        <ele>215</ele>
        <time>2022-03-08T14:39:22Z</time>
      </trkpt>
      <trkpt lat="46.38883" lon="5.20059">
        <ele>213.8</ele>
        <time>2022-03-08T14:39:24Z</time>
      </trkpt>
      <trkpt lat="46.38931" lon="5.20121">
        <ele>212.8</ele>
        <time>2022-03-08T14:39:30Z</time>
      </trkpt>
      <trkpt lat="46.38937" lon="5.20128">
        <ele>212.8</ele>
        <time>2022-03-08T14:39:31Z</time>
      </trkpt>
      <trkpt lat="46.38972" lon="5.20172">
        <ele>213.2</ele>
        <time>2022-03-08T14:39:36Z</time>
      </trkpt>
      <trkpt lat="46.38992" lon="5.20195">
        <ele>213.6</ele>
        <time>2022-03-08T14:39:39Z</time>
      </trkpt>
      <trkpt lat="46.3901" lon="5.20218">
        <ele>214.4</ele>
        <time>2022-03-08T14:39:42Z</time>
      </trkpt>
      <trkpt lat="46.39035" lon="5.2025">
        <ele>215.6</ele>
        <time>2022-03-08T14:39:46Z</time>
      </trkpt>
      <trkpt lat="46.39048" lon="5.20267">
        <ele>216.2</ele>
        <time>2022-03-08T14:39:48Z</time>
      </trkpt>
      <trkpt lat="46.39053" lon="5.20273">
        <ele>216.4</ele>
        <time>2022-03-08T14:39:49Z</time>
      </trkpt>
      <trkpt lat="46.39066" lon="5.20287">
        <ele>216.6</ele>
        <time>2022-03-08T14:39:51Z</time>
      </trkpt>
      <trkpt lat="46.39088" lon="5.20317">
        <ele>217.4</ele>
        <time>2022-03-08T14:39:55Z</time>
      </trkpt>
      <trkpt lat="46.391" lon="5.20334">
        <ele>217.6</ele>
        <time>2022-03-08T14:39:57Z</time>
      </trkpt>
      <trkpt lat="46.39116" lon="5.20355">
        <ele>218.6</ele>
        <time>2022-03-08T14:40:00Z</time>
      </trkpt>
      <trkpt lat="46.39122" lon="5.20362">
        <ele>218.8</ele>
        <time>2022-03-08T14:40:01Z</time>
      </trkpt>
      <trkpt lat="46.39146" lon="5.20393">
        <ele>220</ele>
        <time>2022-03-08T14:40:05Z</time>
      </trkpt>
      <trkpt lat="46.39164" lon="5.20417">
        <ele>220.8</ele>
        <time>2022-03-08T14:40:08Z</time>
      </trkpt>
      <trkpt lat="46.3917" lon="5.20424">
        <ele>221</ele>
        <time>2022-03-08T14:40:09Z</time>
      </trkpt>
      <trkpt lat="46.39188" lon="5.20449">
        <ele>221.8</ele>
        <time>2022-03-08T14:40:12Z</time>
      </trkpt>
      <trkpt lat="46.39204" lon="5.2047">
        <ele>222.2</ele>
        <time>2022-03-08T14:40:15Z</time>
      </trkpt>
      <trkpt lat="46.3921" lon="5.20477">
        <ele>222.4</ele>
        <time>2022-03-08T14:40:16Z</time>
      </trkpt>
      <trkpt lat="46.39255" lon="5.20535">
        <ele>223</ele>
        <time>2022-03-08T14:40:24Z</time>
      </trkpt>
      <trkpt lat="46.3926" lon="5.20542">
        <ele>223.2</ele>
        <time>2022-03-08T14:40:25Z</time>
      </trkpt>
      <trkpt lat="46.39266" lon="5.20549">
        <ele>223.4</ele>
        <time>2022-03-08T14:40:26Z</time>
      </trkpt>
      <trkpt lat="46.39307" lon="5.20602">
        <ele>224</ele>
        <time>2022-03-08T14:40:34Z</time>
      </trkpt>
      <trkpt lat="46.39323" lon="5.20623">
        <ele>224.2</ele>
        <time>2022-03-08T14:40:37Z</time>
      </trkpt>
      <trkpt lat="46.39369" lon="5.2068">
        <ele>224.4</ele>
        <time>2022-03-08T14:40:45Z</time>
      </trkpt>
      <trkpt lat="46.39373" lon="5.20685">
        <ele>224.4</ele>
        <time>2022-03-08T14:40:46Z</time>
      </trkpt>
      <trkpt lat="46.39379" lon="5.20693">
        <ele>224.4</ele>
        <time>2022-03-08T14:40:47Z</time>
      </trkpt>
      <trkpt lat="46.39418" lon="5.20744">
        <ele>225</ele>
        <time>2022-03-08T14:40:54Z</time>
      </trkpt>
      <trkpt lat="46.39464" lon="5.20804">
        <ele>225</ele>
        <time>2022-03-08T14:41:02Z</time>
      </trkpt>
      <trkpt lat="46.39474" lon="5.20817">
        <ele>225</ele>
        <time>2022-03-08T14:41:04Z</time>
      </trkpt>
      <trkpt lat="46.39521" lon="5.20877">
        <ele>225.4</ele>
        <time>2022-03-08T14:41:12Z</time>
      </trkpt>
      <trkpt lat="46.39532" lon="5.2089">
        <ele>225.6</ele>
        <time>2022-03-08T14:41:14Z</time>
      </trkpt>
      <trkpt lat="46.39573" lon="5.20942">
        <ele>226.2</ele>
        <time>2022-03-08T14:41:21Z</time>
      </trkpt>
      <trkpt lat="46.39578" lon="5.20948">
        <ele>226.2</ele>
        <time>2022-03-08T14:41:22Z</time>
      </trkpt>
      <trkpt lat="46.39625" lon="5.21009">
        <ele>226.4</ele>
        <time>2022-03-08T14:41:30Z</time>
      </trkpt>
      <trkpt lat="46.39641" lon="5.2103">
        <ele>226.4</ele>
        <time>2022-03-08T14:41:33Z</time>
      </trkpt>
      <trkpt lat="46.39685" lon="5.2109">
        <ele>226</ele>
        <time>2022-03-08T14:41:40Z</time>
      </trkpt>
      <trkpt lat="46.39691" lon="5.21099">
        <ele>226</ele>
        <time>2022-03-08T14:41:41Z</time>
      </trkpt>
      <trkpt lat="46.39732" lon="5.21158">
        <ele>225</ele>
        <time>2022-03-08T14:41:47Z</time>
      </trkpt>
      <trkpt lat="46.39741" lon="5.21172">
        <ele>224.4</ele>
        <time>2022-03-08T14:41:48Z</time>
      </trkpt>
      <trkpt lat="46.39756" lon="5.21195">
        <ele>223.4</ele>
        <time>2022-03-08T14:41:50Z</time>
      </trkpt>
      <trkpt lat="46.39779" lon="5.21231">
        <ele>221.6</ele>
        <time>2022-03-08T14:41:53Z</time>
      </trkpt>
      <trkpt lat="46.39789" lon="5.21246">
        <ele>221.4</ele>
        <time>2022-03-08T14:41:54Z</time>
      </trkpt>
      <trkpt lat="46.39805" lon="5.2127">
        <ele>220.2</ele>
        <time>2022-03-08T14:41:56Z</time>
      </trkpt>
      <trkpt lat="46.39825" lon="5.213">
        <ele>219.2</ele>
        <time>2022-03-08T14:41:58Z</time>
      </trkpt>
      <trkpt lat="46.39842" lon="5.21325">
        <ele>217.2</ele>
        <time>2022-03-08T14:42:00Z</time>
      </trkpt>
      <trkpt lat="46.3986" lon="5.21353">
        <ele>215.4</ele>
        <time>2022-03-08T14:42:02Z</time>
      </trkpt>
      <trkpt lat="46.39881" lon="5.21383">
        <ele>214.4</ele>
        <time>2022-03-08T14:42:04Z</time>
      </trkpt>
      <trkpt lat="46.39897" lon="5.21409">
        <ele>213</ele>
        <time>2022-03-08T14:42:06Z</time>
      </trkpt>
      <trkpt lat="46.39926" lon="5.21453">
        <ele>211.8</ele>
        <time>2022-03-08T14:42:09Z</time>
      </trkpt>
      <trkpt lat="46.39961" lon="5.21506">
        <ele>210.4</ele>
        <time>2022-03-08T14:42:13Z</time>
      </trkpt>
      <trkpt lat="46.39987" lon="5.21545">
        <ele>209</ele>
        <time>2022-03-08T14:42:16Z</time>
      </trkpt>
      <trkpt lat="46.40021" lon="5.21593">
        <ele>208.4</ele>
        <time>2022-03-08T14:42:20Z</time>
      </trkpt>
      <trkpt lat="46.40041" lon="5.21621">
        <ele>207.8</ele>
        <time>2022-03-08T14:42:22Z</time>
      </trkpt>
      <trkpt lat="46.40065" lon="5.21661">
        <ele>207.2</ele>
        <time>2022-03-08T14:42:25Z</time>
      </trkpt>
      <trkpt lat="46.40091" lon="5.217">
        <ele>206.8</ele>
        <time>2022-03-08T14:42:28Z</time>
      </trkpt>
      <trkpt lat="46.40119" lon="5.21743">
        <ele>206.4</ele>
        <time>2022-03-08T14:42:31Z</time>
      </trkpt>
      <trkpt lat="46.40135" lon="5.21767">
        <ele>205.8</ele>
        <time>2022-03-08T14:42:33Z</time>
      </trkpt>
      <trkpt lat="46.40178" lon="5.21833">
        <ele>204.6</ele>
        <time>2022-03-08T14:42:38Z</time>
      </trkpt>
      <trkpt lat="46.40197" lon="5.21861">
        <ele>203.6</ele>
        <time>2022-03-08T14:42:40Z</time>
      </trkpt>
      <trkpt lat="46.40206" lon="5.21873">
        <ele>203.2</ele>
        <time>2022-03-08T14:42:41Z</time>
      </trkpt>
      <trkpt lat="46.40235" lon="5.21918">
        <ele>203</ele>
        <time>2022-03-08T14:42:45Z</time>
      </trkpt>
      <trkpt lat="46.40271" lon="5.21973">
        <ele>202.8</ele>
        <time>2022-03-08T14:42:50Z</time>
      </trkpt>
      <trkpt lat="46.40312" lon="5.22035">
        <ele>203.4</ele>
        <time>2022-03-08T14:42:57Z</time>
      </trkpt>
      <trkpt lat="46.40351" lon="5.22094">
        <ele>204.2</ele>
        <time>2022-03-08T14:43:04Z</time>
      </trkpt>
      <trkpt lat="46.40371" lon="5.22124">
        <ele>204.4</ele>
        <time>2022-03-08T14:43:08Z</time>
      </trkpt>
      <trkpt lat="46.40384" lon="5.22145">
        <ele>204.6</ele>
        <time>2022-03-08T14:43:11Z</time>
      </trkpt>
      <trkpt lat="46.40401" lon="5.22169">
        <ele>204.8</ele>
        <time>2022-03-08T14:43:15Z</time>
      </trkpt>
      <trkpt lat="46.40411" lon="5.2217">
        <ele>205.2</ele>
        <time>2022-03-08T14:43:17Z</time>
      </trkpt>
      <trkpt lat="46.40417" lon="5.22162">
        <ele>205.2</ele>
        <time>2022-03-08T14:43:19Z</time>
      </trkpt>
      <trkpt lat="46.40418" lon="5.22155">
        <ele>205.4</ele>
        <time>2022-03-08T14:43:20Z</time>
      </trkpt>
      <trkpt lat="46.40419" lon="5.22137">
        <ele>205.4</ele>
        <time>2022-03-08T14:43:22Z</time>
      </trkpt>
      <trkpt lat="46.4042" lon="5.22109">
        <ele>205.4</ele>
        <time>2022-03-08T14:43:25Z</time>
      </trkpt>
      <trkpt lat="46.40426" lon="5.22027">
        <ele>205</ele>
        <time>2022-03-08T14:43:32Z</time>
      </trkpt>
      <trkpt lat="46.40431" lon="5.21947">
        <ele>204.4</ele>
        <time>2022-03-08T14:43:39Z</time>
      </trkpt>
      <trkpt lat="46.40432" lon="5.21935">
        <ele>204.2</ele>
        <time>2022-03-08T14:43:40Z</time>
      </trkpt>
      <trkpt lat="46.40433" lon="5.219">
        <ele>203.4</ele>
        <time>2022-03-08T14:43:43Z</time>
      </trkpt>
      <trkpt lat="46.40436" lon="5.21867">
        <ele>203.2</ele>
        <time>2022-03-08T14:43:46Z</time>
      </trkpt>
      <trkpt lat="46.40442" lon="5.21787">
        <ele>202.6</ele>
        <time>2022-03-08T14:43:53Z</time>
      </trkpt>
      <trkpt lat="46.40443" lon="5.21769">
        <ele>202.4</ele>
        <time>2022-03-08T14:43:55Z</time>
      </trkpt>
      <trkpt lat="46.40449" lon="5.21698">
        <ele>202.2</ele>
        <time>2022-03-08T14:44:02Z</time>
      </trkpt>
      <trkpt lat="46.40454" lon="5.21634">
        <ele>202</ele>
        <time>2022-03-08T14:44:09Z</time>
      </trkpt>
      <trkpt lat="46.40458" lon="5.21571">
        <ele>201.8</ele>
        <time>2022-03-08T14:44:16Z</time>
      </trkpt>
      <trkpt lat="46.40464" lon="5.215">
        <ele>201.8</ele>
        <time>2022-03-08T14:44:24Z</time>
      </trkpt>
      <trkpt lat="46.40469" lon="5.2142">
        <ele>202.2</ele>
        <time>2022-03-08T14:44:33Z</time>
      </trkpt>
      <trkpt lat="46.40469" lon="5.21413">
        <ele>202.4</ele>
        <time>2022-03-08T14:44:34Z</time>
      </trkpt>
      <trkpt lat="46.40475" lon="5.21344">
        <ele>202.8</ele>
        <time>2022-03-08T14:44:42Z</time>
      </trkpt>
      <trkpt lat="46.40481" lon="5.21265">
        <ele>203.4</ele>
        <time>2022-03-08T14:44:51Z</time>
      </trkpt>
      <trkpt lat="46.40482" lon="5.21258">
        <ele>203.4</ele>
        <time>2022-03-08T14:44:52Z</time>
      </trkpt>
      <trkpt lat="46.40488" lon="5.21177">
        <ele>203.8</ele>
        <time>2022-03-08T14:45:00Z</time>
      </trkpt>
      <trkpt lat="46.40491" lon="5.21106">
        <ele>203.4</ele>
        <time>2022-03-08T14:45:07Z</time>
      </trkpt>
      <trkpt lat="46.40498" lon="5.21091">
        <ele>203.2</ele>
        <time>2022-03-08T14:45:09Z</time>
      </trkpt>
      <trkpt lat="46.40511" lon="5.21092">
        <ele>203.2</ele>
        <time>2022-03-08T14:45:11Z</time>
      </trkpt>
      <trkpt lat="46.40518" lon="5.21098">
        <ele>203</ele>
        <time>2022-03-08T14:45:12Z</time>
      </trkpt>
      <trkpt lat="46.40548" lon="5.21123">
        <ele>202.2</ele>
        <time>2022-03-08T14:45:16Z</time>
      </trkpt>
      <trkpt lat="46.40556" lon="5.21128">
        <ele>202</ele>
        <time>2022-03-08T14:45:17Z</time>
      </trkpt>
      <trkpt lat="46.40564" lon="5.21132">
        <ele>202</ele>
        <time>2022-03-08T14:45:18Z</time>
      </trkpt>
      <trkpt lat="46.40581" lon="5.21134">
        <ele>201.4</ele>
        <time>2022-03-08T14:45:20Z</time>
      </trkpt>
      <trkpt lat="46.4059" lon="5.21133">
        <ele>201.2</ele>
        <time>2022-03-08T14:45:21Z</time>
      </trkpt>
      <trkpt lat="46.40598" lon="5.2113">
        <ele>201.2</ele>
        <time>2022-03-08T14:45:22Z</time>
      </trkpt>
      <trkpt lat="46.40615" lon="5.21123">
        <ele>201</ele>
        <time>2022-03-08T14:45:24Z</time>
      </trkpt>
      <trkpt lat="46.4067" lon="5.21099">
        <ele>201.6</ele>
        <time>2022-03-08T14:45:31Z</time>
      </trkpt>
      <trkpt lat="46.40692" lon="5.21088">
        <ele>201.8</ele>
        <time>2022-03-08T14:45:34Z</time>
      </trkpt>
      <trkpt lat="46.4075" lon="5.21062">
        <ele>201.8</ele>
        <time>2022-03-08T14:45:42Z</time>
      </trkpt>
      <trkpt lat="46.40783" lon="5.21048">
        <ele>202.2</ele>
        <time>2022-03-08T14:45:47Z</time>
      </trkpt>
      <trkpt lat="46.40795" lon="5.21043">
        <ele>202.8</ele>
        <time>2022-03-08T14:45:49Z</time>
      </trkpt>
      <trkpt lat="46.40832" lon="5.21028">
        <ele>203.2</ele>
        <time>2022-03-08T14:45:55Z</time>
      </trkpt>
      <trkpt lat="46.40851" lon="5.2102">
        <ele>203.6</ele>
        <time>2022-03-08T14:45:58Z</time>
      </trkpt>
      <trkpt lat="46.40881" lon="5.21008">
        <ele>204.4</ele>
        <time>2022-03-08T14:46:03Z</time>
      </trkpt>
      <trkpt lat="46.40904" lon="5.20998">
        <ele>204.8</ele>
        <time>2022-03-08T14:46:07Z</time>
      </trkpt>
      <trkpt lat="46.40927" lon="5.20987">
        <ele>205.4</ele>
        <time>2022-03-08T14:46:11Z</time>
      </trkpt>
      <trkpt lat="46.40956" lon="5.20974">
        <ele>206.8</ele>
        <time>2022-03-08T14:46:16Z</time>
      </trkpt>
      <trkpt lat="46.40962" lon="5.20972">
        <ele>206.8</ele>
        <time>2022-03-08T14:46:17Z</time>
      </trkpt>
      <trkpt lat="46.41013" lon="5.20949">
        <ele>207.8</ele>
        <time>2022-03-08T14:46:25Z</time>
      </trkpt>
      <trkpt lat="46.41026" lon="5.20944">
        <ele>207.8</ele>
        <time>2022-03-08T14:46:27Z</time>
      </trkpt>
      <trkpt lat="46.41072" lon="5.20927">
        <ele>208</ele>
        <time>2022-03-08T14:46:34Z</time>
      </trkpt>
      <trkpt lat="46.41131" lon="5.20908">
        <ele>208</ele>
        <time>2022-03-08T14:46:43Z</time>
      </trkpt>
      <trkpt lat="46.41138" lon="5.20906">
        <ele>208.6</ele>
        <time>2022-03-08T14:46:44Z</time>
      </trkpt>
      <trkpt lat="46.41194" lon="5.20889">
        <ele>208.8</ele>
        <time>2022-03-08T14:46:52Z</time>
      </trkpt>
      <trkpt lat="46.41201" lon="5.20887">
        <ele>208.8</ele>
        <time>2022-03-08T14:46:53Z</time>
      </trkpt>
      <trkpt lat="46.41258" lon="5.20871">
        <ele>209.6</ele>
        <time>2022-03-08T14:47:01Z</time>
      </trkpt>
      <trkpt lat="46.41273" lon="5.20866">
        <ele>209.6</ele>
        <time>2022-03-08T14:47:03Z</time>
      </trkpt>
      <trkpt lat="46.41328" lon="5.2085">
        <ele>209.8</ele>
        <time>2022-03-08T14:47:10Z</time>
      </trkpt>
      <trkpt lat="46.41343" lon="5.20845">
        <ele>209.8</ele>
        <time>2022-03-08T14:47:12Z</time>
      </trkpt>
      <trkpt lat="46.41371" lon="5.20836">
        <ele>209.4</ele>
        <time>2022-03-08T14:47:16Z</time>
      </trkpt>
      <trkpt lat="46.41387" lon="5.20839">
        <ele>209.2</ele>
        <time>2022-03-08T14:47:18Z</time>
      </trkpt>
      <trkpt lat="46.41398" lon="5.20851">
        <ele>209</ele>
        <time>2022-03-08T14:47:20Z</time>
      </trkpt>
      <trkpt lat="46.41402" lon="5.20859">
        <ele>209.2</ele>
        <time>2022-03-08T14:47:21Z</time>
      </trkpt>
      <trkpt lat="46.41418" lon="5.20896">
        <ele>209.4</ele>
        <time>2022-03-08T14:47:25Z</time>
      </trkpt>
      <trkpt lat="46.41421" lon="5.20905">
        <ele>209.4</ele>
        <time>2022-03-08T14:47:26Z</time>
      </trkpt>
      <trkpt lat="46.41429" lon="5.20941">
        <ele>210</ele>
        <time>2022-03-08T14:47:30Z</time>
      </trkpt>
      <trkpt lat="46.4143" lon="5.2095">
        <ele>210.2</ele>
        <time>2022-03-08T14:47:31Z</time>
      </trkpt>
      <trkpt lat="46.41434" lon="5.20987">
        <ele>211.2</ele>
        <time>2022-03-08T14:47:35Z</time>
      </trkpt>
      <trkpt lat="46.41437" lon="5.21012">
        <ele>212.2</ele>
        <time>2022-03-08T14:47:38Z</time>
      </trkpt>
      <trkpt lat="46.41439" lon="5.2102">
        <ele>212.6</ele>
        <time>2022-03-08T14:47:39Z</time>
      </trkpt>
      <trkpt lat="46.41441" lon="5.21028">
        <ele>212.8</ele>
        <time>2022-03-08T14:47:40Z</time>
      </trkpt>
      <trkpt lat="46.41447" lon="5.21041">
        <ele>213.6</ele>
        <time>2022-03-08T14:47:42Z</time>
      </trkpt>
      <trkpt lat="46.4145" lon="5.21047">
        <ele>214</ele>
        <time>2022-03-08T14:47:43Z</time>
      </trkpt>
      <trkpt lat="46.41453" lon="5.21052">
        <ele>214.6</ele>
        <time>2022-03-08T14:47:44Z</time>
      </trkpt>
      <trkpt lat="46.41469" lon="5.21071">
        <ele>216</ele>
        <time>2022-03-08T14:47:48Z</time>
      </trkpt>
      <trkpt lat="46.41472" lon="5.21075">
        <ele>216.4</ele>
        <time>2022-03-08T14:47:49Z</time>
      </trkpt>
      <trkpt lat="46.41492" lon="5.21097">
        <ele>217</ele>
        <time>2022-03-08T14:47:53Z</time>
      </trkpt>
      <trkpt lat="46.41497" lon="5.21104">
        <ele>217</ele>
        <time>2022-03-08T14:47:54Z</time>
      </trkpt>
      <trkpt lat="46.41526" lon="5.21143">
        <ele>216.4</ele>
        <time>2022-03-08T14:47:59Z</time>
      </trkpt>
      <trkpt lat="46.41532" lon="5.21152">
        <ele>215.8</ele>
        <time>2022-03-08T14:48:00Z</time>
      </trkpt>
      <trkpt lat="46.41553" lon="5.21191">
        <ele>214.6</ele>
        <time>2022-03-08T14:48:04Z</time>
      </trkpt>
      <trkpt lat="46.4158" lon="5.21233">
        <ele>214.2</ele>
        <time>2022-03-08T14:48:09Z</time>
      </trkpt>
      <trkpt lat="46.41618" lon="5.2127">
        <ele>214</ele>
        <time>2022-03-08T14:48:15Z</time>
      </trkpt>
      <trkpt lat="46.41662" lon="5.21307">
        <ele>214.6</ele>
        <time>2022-03-08T14:48:22Z</time>
      </trkpt>
      <trkpt lat="46.41702" lon="5.21342">
        <ele>215.8</ele>
        <time>2022-03-08T14:48:29Z</time>
      </trkpt>
      <trkpt lat="46.41731" lon="5.21367">
        <ele>216.6</ele>
        <time>2022-03-08T14:48:34Z</time>
      </trkpt>
      <trkpt lat="46.41756" lon="5.21388">
        <ele>217.2</ele>
        <time>2022-03-08T14:48:38Z</time>
      </trkpt>
      <trkpt lat="46.41787" lon="5.21414">
        <ele>217.8</ele>
        <time>2022-03-08T14:48:43Z</time>
      </trkpt>
      <trkpt lat="46.41808" lon="5.21429">
        <ele>218</ele>
        <time>2022-03-08T14:48:46Z</time>
      </trkpt>
      <trkpt lat="46.41857" lon="5.21457">
        <ele>218.2</ele>
        <time>2022-03-08T14:48:53Z</time>
      </trkpt>
      <trkpt lat="46.41913" lon="5.21485">
        <ele>218</ele>
        <time>2022-03-08T14:49:01Z</time>
      </trkpt>
      <trkpt lat="46.41935" lon="5.21496">
        <ele>218</ele>
        <time>2022-03-08T14:49:04Z</time>
      </trkpt>
      <trkpt lat="46.41989" lon="5.2153">
        <ele>218.2</ele>
        <time>2022-03-08T14:49:11Z</time>
      </trkpt>
      <trkpt lat="46.41997" lon="5.21535">
        <ele>218.2</ele>
        <time>2022-03-08T14:49:12Z</time>
      </trkpt>
      <trkpt lat="46.42053" lon="5.21574">
        <ele>218</ele>
        <time>2022-03-08T14:49:19Z</time>
      </trkpt>
      <trkpt lat="46.4206" lon="5.21579">
        <ele>217.8</ele>
        <time>2022-03-08T14:49:20Z</time>
      </trkpt>
      <trkpt lat="46.42116" lon="5.21617">
        <ele>217</ele>
        <time>2022-03-08T14:49:27Z</time>
      </trkpt>
      <trkpt lat="46.4214" lon="5.21633">
        <ele>216.8</ele>
        <time>2022-03-08T14:49:30Z</time>
      </trkpt>
      <trkpt lat="46.42169" lon="5.21657">
        <ele>216.6</ele>
        <time>2022-03-08T14:49:34Z</time>
      </trkpt>
      <trkpt lat="46.42219" lon="5.21698">
        <ele>216.6</ele>
        <time>2022-03-08T14:49:41Z</time>
      </trkpt>
      <trkpt lat="46.42275" lon="5.21724">
        <ele>217.2</ele>
        <time>2022-03-08T14:49:48Z</time>
      </trkpt>
      <trkpt lat="46.42328" lon="5.21745">
        <ele>217.8</ele>
        <time>2022-03-08T14:49:55Z</time>
      </trkpt>
      <trkpt lat="46.42374" lon="5.21755">
        <ele>218.4</ele>
        <time>2022-03-08T14:50:01Z</time>
      </trkpt>
      <trkpt lat="46.42423" lon="5.21755">
        <ele>218.8</ele>
        <time>2022-03-08T14:50:07Z</time>
      </trkpt>
      <trkpt lat="46.4248" lon="5.21763">
        <ele>219.6</ele>
        <time>2022-03-08T14:50:14Z</time>
      </trkpt>
      <trkpt lat="46.42519" lon="5.21778">
        <ele>219.8</ele>
        <time>2022-03-08T14:50:19Z</time>
      </trkpt>
      <trkpt lat="46.42549" lon="5.21789">
        <ele>220.2</ele>
        <time>2022-03-08T14:50:23Z</time>
      </trkpt>
      <trkpt lat="46.4258" lon="5.21799">
        <ele>220.6</ele>
        <time>2022-03-08T14:50:27Z</time>
      </trkpt>
      <trkpt lat="46.42609" lon="5.21808">
        <ele>221</ele>
        <time>2022-03-08T14:50:31Z</time>
      </trkpt>
      <trkpt lat="46.42616" lon="5.21811">
        <ele>221</ele>
        <time>2022-03-08T14:50:32Z</time>
      </trkpt>
      <trkpt lat="46.42661" lon="5.21821">
        <ele>221.8</ele>
        <time>2022-03-08T14:50:38Z</time>
      </trkpt>
      <trkpt lat="46.42676" lon="5.21822">
        <ele>222</ele>
        <time>2022-03-08T14:50:40Z</time>
      </trkpt>
      <trkpt lat="46.42721" lon="5.21827">
        <ele>222.4</ele>
        <time>2022-03-08T14:50:46Z</time>
      </trkpt>
      <trkpt lat="46.42781" lon="5.21831">
        <ele>222.8</ele>
        <time>2022-03-08T14:50:54Z</time>
      </trkpt>
      <trkpt lat="46.42839" lon="5.21819">
        <ele>222.2</ele>
        <time>2022-03-08T14:51:01Z</time>
      </trkpt>
      <trkpt lat="46.4287" lon="5.21814">
        <ele>221.8</ele>
        <time>2022-03-08T14:51:05Z</time>
      </trkpt>
      <trkpt lat="46.42886" lon="5.21816">
        <ele>221.6</ele>
        <time>2022-03-08T14:51:07Z</time>
      </trkpt>
      <trkpt lat="46.42943" lon="5.21825">
        <ele>222</ele>
        <time>2022-03-08T14:51:14Z</time>
      </trkpt>
      <trkpt lat="46.42989" lon="5.21839">
        <ele>222.2</ele>
        <time>2022-03-08T14:51:20Z</time>
      </trkpt>
      <trkpt lat="46.43004" lon="5.21841">
        <ele>222.2</ele>
        <time>2022-03-08T14:51:22Z</time>
      </trkpt>
      <trkpt lat="46.4302" lon="5.21838">
        <ele>222.2</ele>
        <time>2022-03-08T14:51:24Z</time>
      </trkpt>
      <trkpt lat="46.43076" lon="5.21822">
        <ele>222.4</ele>
        <time>2022-03-08T14:51:31Z</time>
      </trkpt>
      <trkpt lat="46.43093" lon="5.21818">
        <ele>222.4</ele>
        <time>2022-03-08T14:51:33Z</time>
      </trkpt>
      <trkpt lat="46.43108" lon="5.21818">
        <ele>222.4</ele>
        <time>2022-03-08T14:51:35Z</time>
      </trkpt>
      <trkpt lat="46.43132" lon="5.21823">
        <ele>222.4</ele>
        <time>2022-03-08T14:51:38Z</time>
      </trkpt>
      <trkpt lat="46.43148" lon="5.21827">
        <ele>222.4</ele>
        <time>2022-03-08T14:51:40Z</time>
      </trkpt>
      <trkpt lat="46.43171" lon="5.21837">
        <ele>222.4</ele>
        <time>2022-03-08T14:51:43Z</time>
      </trkpt>
      <trkpt lat="46.43178" lon="5.21842">
        <ele>222.2</ele>
        <time>2022-03-08T14:51:44Z</time>
      </trkpt>
      <trkpt lat="46.43196" lon="5.21863">
        <ele>222.2</ele>
        <time>2022-03-08T14:51:47Z</time>
      </trkpt>
      <trkpt lat="46.43221" lon="5.21888">
        <ele>222.2</ele>
        <time>2022-03-08T14:51:51Z</time>
      </trkpt>
      <trkpt lat="46.43228" lon="5.21893">
        <ele>222.2</ele>
        <time>2022-03-08T14:51:52Z</time>
      </trkpt>
      <trkpt lat="46.4325" lon="5.21903">
        <ele>222.2</ele>
        <time>2022-03-08T14:51:56Z</time>
      </trkpt>
      <trkpt lat="46.43257" lon="5.21905">
        <ele>222.4</ele>
        <time>2022-03-08T14:51:59Z</time>
      </trkpt>
      <trkpt lat="46.43258" lon="5.21905">
        <ele>222.4</ele>
        <time>2022-03-08T14:52:02Z</time>
      </trkpt>
      <trkpt lat="46.4326" lon="5.2191">
        <ele>222.8</ele>
        <time>2022-03-08T14:53:18Z</time>
      </trkpt>
      <trkpt lat="46.43262" lon="5.21913">
        <ele>222.6</ele>
        <time>2022-03-08T14:53:19Z</time>
      </trkpt>
      <trkpt lat="46.43275" lon="5.21935">
        <ele>222.4</ele>
        <time>2022-03-08T14:53:24Z</time>
      </trkpt>
      <trkpt lat="46.43294" lon="5.21971">
        <ele>222.2</ele>
        <time>2022-03-08T14:53:29Z</time>
      </trkpt>
      <trkpt lat="46.43324" lon="5.22028">
        <ele>222</ele>
        <time>2022-03-08T14:53:36Z</time>
      </trkpt>
      <trkpt lat="46.43358" lon="5.22085">
        <ele>221.6</ele>
        <time>2022-03-08T14:53:42Z</time>
      </trkpt>
      <trkpt lat="46.43387" lon="5.22116">
        <ele>220.8</ele>
        <time>2022-03-08T14:53:46Z</time>
      </trkpt>
      <trkpt lat="46.43403" lon="5.22133">
        <ele>220.4</ele>
        <time>2022-03-08T14:53:48Z</time>
      </trkpt>
      <trkpt lat="46.43424" lon="5.22154">
        <ele>219.6</ele>
        <time>2022-03-08T14:53:51Z</time>
      </trkpt>
      <trkpt lat="46.43438" lon="5.22164">
        <ele>219</ele>
        <time>2022-03-08T14:53:53Z</time>
      </trkpt>
      <trkpt lat="46.43454" lon="5.22173">
        <ele>218.6</ele>
        <time>2022-03-08T14:53:55Z</time>
      </trkpt>
      <trkpt lat="46.43462" lon="5.22177">
        <ele>218.4</ele>
        <time>2022-03-08T14:53:56Z</time>
      </trkpt>
      <trkpt lat="46.43472" lon="5.22181">
        <ele>218.4</ele>
        <time>2022-03-08T14:53:57Z</time>
      </trkpt>
      <trkpt lat="46.43495" lon="5.22185">
        <ele>218.2</ele>
        <time>2022-03-08T14:54:00Z</time>
      </trkpt>
      <trkpt lat="46.43553" lon="5.22193">
        <ele>218.4</ele>
        <time>2022-03-08T14:54:07Z</time>
      </trkpt>
      <trkpt lat="46.43559" lon="5.22196">
        <ele>218.4</ele>
        <time>2022-03-08T14:54:08Z</time>
      </trkpt>
      <trkpt lat="46.43602" lon="5.22223">
        <ele>219.4</ele>
        <time>2022-03-08T14:54:14Z</time>
      </trkpt>
      <trkpt lat="46.43609" lon="5.22228">
        <ele>219.4</ele>
        <time>2022-03-08T14:54:15Z</time>
      </trkpt>
      <trkpt lat="46.43649" lon="5.22266">
        <ele>219.8</ele>
        <time>2022-03-08T14:54:21Z</time>
      </trkpt>
      <trkpt lat="46.43684" lon="5.22302">
        <ele>220.2</ele>
        <time>2022-03-08T14:54:27Z</time>
      </trkpt>
      <trkpt lat="46.43696" lon="5.22313">
        <ele>220.8</ele>
        <time>2022-03-08T14:54:29Z</time>
      </trkpt>
      <trkpt lat="46.43727" lon="5.22343">
        <ele>221.6</ele>
        <time>2022-03-08T14:54:34Z</time>
      </trkpt>
      <trkpt lat="46.43751" lon="5.22366">
        <ele>221.8</ele>
        <time>2022-03-08T14:54:38Z</time>
      </trkpt>
      <trkpt lat="46.43785" lon="5.22399">
        <ele>221.4</ele>
        <time>2022-03-08T14:54:43Z</time>
      </trkpt>
      <trkpt lat="46.43831" lon="5.2244">
        <ele>221.2</ele>
        <time>2022-03-08T14:54:50Z</time>
      </trkpt>
      <trkpt lat="46.43839" lon="5.22446">
        <ele>221.2</ele>
        <time>2022-03-08T14:54:51Z</time>
      </trkpt>
      <trkpt lat="46.43884" lon="5.22478">
        <ele>220.6</ele>
        <time>2022-03-08T14:54:57Z</time>
      </trkpt>
      <trkpt lat="46.43897" lon="5.22484">
        <ele>220.4</ele>
        <time>2022-03-08T14:54:59Z</time>
      </trkpt>
      <trkpt lat="46.43944" lon="5.2249">
        <ele>220.2</ele>
        <time>2022-03-08T14:55:05Z</time>
      </trkpt>
      <trkpt lat="46.44" lon="5.22489">
        <ele>220.2</ele>
        <time>2022-03-08T14:55:12Z</time>
      </trkpt>
      <trkpt lat="46.4406" lon="5.22493">
        <ele>220</ele>
        <time>2022-03-08T14:55:19Z</time>
      </trkpt>
      <trkpt lat="46.44092" lon="5.22493">
        <ele>220</ele>
        <time>2022-03-08T14:55:23Z</time>
      </trkpt>
      <trkpt lat="46.44108" lon="5.22485">
        <ele>219.8</ele>
        <time>2022-03-08T14:55:25Z</time>
      </trkpt>
      <trkpt lat="46.44121" lon="5.2247">
        <ele>219.8</ele>
        <time>2022-03-08T14:55:27Z</time>
      </trkpt>
      <trkpt lat="46.44126" lon="5.22461">
        <ele>219.8</ele>
        <time>2022-03-08T14:55:28Z</time>
      </trkpt>
      <trkpt lat="46.44129" lon="5.2245">
        <ele>219.8</ele>
        <time>2022-03-08T14:55:29Z</time>
      </trkpt>
      <trkpt lat="46.44139" lon="5.22419">
        <ele>220</ele>
        <time>2022-03-08T14:55:32Z</time>
      </trkpt>
      <trkpt lat="46.44147" lon="5.22398">
        <ele>220.2</ele>
        <time>2022-03-08T14:55:34Z</time>
      </trkpt>
      <trkpt lat="46.4416" lon="5.22382">
        <ele>220.2</ele>
        <time>2022-03-08T14:55:36Z</time>
      </trkpt>
      <trkpt lat="46.44174" lon="5.22375">
        <ele>220.2</ele>
        <time>2022-03-08T14:55:38Z</time>
      </trkpt>
      <trkpt lat="46.44183" lon="5.22375">
        <ele>220.2</ele>
        <time>2022-03-08T14:55:39Z</time>
      </trkpt>
      <trkpt lat="46.44191" lon="5.22376">
        <ele>220.2</ele>
        <time>2022-03-08T14:55:40Z</time>
      </trkpt>
      <trkpt lat="46.44215" lon="5.22384">
        <ele>219.8</ele>
        <time>2022-03-08T14:55:43Z</time>
      </trkpt>
      <trkpt lat="46.4423" lon="5.22389">
        <ele>219.6</ele>
        <time>2022-03-08T14:55:45Z</time>
      </trkpt>
      <trkpt lat="46.44271" lon="5.22396">
        <ele>219.8</ele>
        <time>2022-03-08T14:55:50Z</time>
      </trkpt>
      <trkpt lat="46.44295" lon="5.224">
        <ele>219.8</ele>
        <time>2022-03-08T14:55:53Z</time>
      </trkpt>
      <trkpt lat="46.44316" lon="5.22407">
        <ele>219.8</ele>
        <time>2022-03-08T14:55:56Z</time>
      </trkpt>
      <trkpt lat="46.44356" lon="5.22416">
        <ele>220</ele>
        <time>2022-03-08T14:56:01Z</time>
      </trkpt>
      <trkpt lat="46.44374" lon="5.22421">
        <ele>219.8</ele>
        <time>2022-03-08T14:56:03Z</time>
      </trkpt>
      <trkpt lat="46.44388" lon="5.22431">
        <ele>219.8</ele>
        <time>2022-03-08T14:56:05Z</time>
      </trkpt>
      <trkpt lat="46.44411" lon="5.22454">
        <ele>219.6</ele>
        <time>2022-03-08T14:56:08Z</time>
      </trkpt>
      <trkpt lat="46.44417" lon="5.22459">
        <ele>219.6</ele>
        <time>2022-03-08T14:56:09Z</time>
      </trkpt>
      <trkpt lat="46.44467" lon="5.22485">
        <ele>219.4</ele>
        <time>2022-03-08T14:56:15Z</time>
      </trkpt>
      <trkpt lat="46.44521" lon="5.22511">
        <ele>219.4</ele>
        <time>2022-03-08T14:56:22Z</time>
      </trkpt>
      <trkpt lat="46.44527" lon="5.22514">
        <ele>219.2</ele>
        <time>2022-03-08T14:56:23Z</time>
      </trkpt>
      <trkpt lat="46.44573" lon="5.2254">
        <ele>218.6</ele>
        <time>2022-03-08T14:56:29Z</time>
      </trkpt>
      <trkpt lat="46.44588" lon="5.2255">
        <ele>218.2</ele>
        <time>2022-03-08T14:56:31Z</time>
      </trkpt>
      <trkpt lat="46.44628" lon="5.22574">
        <ele>217.8</ele>
        <time>2022-03-08T14:56:37Z</time>
      </trkpt>
      <trkpt lat="46.44659" lon="5.22586">
        <ele>218</ele>
        <time>2022-03-08T14:56:42Z</time>
      </trkpt>
      <trkpt lat="46.44664" lon="5.2259">
        <ele>218</ele>
        <time>2022-03-08T14:56:43Z</time>
      </trkpt>
      <trkpt lat="46.44667" lon="5.22596">
        <ele>218</ele>
        <time>2022-03-08T14:56:44Z</time>
      </trkpt>
      <trkpt lat="46.44671" lon="5.22611">
        <ele>218</ele>
        <time>2022-03-08T14:56:46Z</time>
      </trkpt>
      <trkpt lat="46.44674" lon="5.2266">
        <ele>218</ele>
        <time>2022-03-08T14:56:51Z</time>
      </trkpt>
      <trkpt lat="46.44677" lon="5.2272">
        <ele>218</ele>
        <time>2022-03-08T14:56:57Z</time>
      </trkpt>
      <trkpt lat="46.44679" lon="5.22773">
        <ele>218</ele>
        <time>2022-03-08T14:57:02Z</time>
      </trkpt>
      <trkpt lat="46.44681" lon="5.22803">
        <ele>218.4</ele>
        <time>2022-03-08T14:57:05Z</time>
      </trkpt>
      <trkpt lat="46.44683" lon="5.22834">
        <ele>218.6</ele>
        <time>2022-03-08T14:57:08Z</time>
      </trkpt>
      <trkpt lat="46.44687" lon="5.22843">
        <ele>218.6</ele>
        <time>2022-03-08T14:57:09Z</time>
      </trkpt>
      <trkpt lat="46.44691" lon="5.22849">
        <ele>218.6</ele>
        <time>2022-03-08T14:57:10Z</time>
      </trkpt>
      <trkpt lat="46.44706" lon="5.22859">
        <ele>218.6</ele>
        <time>2022-03-08T14:57:12Z</time>
      </trkpt>
      <trkpt lat="46.44743" lon="5.22885">
        <ele>218</ele>
        <time>2022-03-08T14:57:17Z</time>
      </trkpt>
      <trkpt lat="46.44779" lon="5.22916">
        <ele>217.4</ele>
        <time>2022-03-08T14:57:22Z</time>
      </trkpt>
      <trkpt lat="46.44786" lon="5.22921">
        <ele>217.4</ele>
        <time>2022-03-08T14:57:23Z</time>
      </trkpt>
      <trkpt lat="46.44837" lon="5.22957">
        <ele>217.2</ele>
        <time>2022-03-08T14:57:30Z</time>
      </trkpt>
      <trkpt lat="46.44848" lon="5.22973">
        <ele>217.2</ele>
        <time>2022-03-08T14:57:32Z</time>
      </trkpt>
      <trkpt lat="46.44856" lon="5.22992">
        <ele>217.2</ele>
        <time>2022-03-08T14:57:34Z</time>
      </trkpt>
      <trkpt lat="46.44884" lon="5.23068">
        <ele>217.6</ele>
        <time>2022-03-08T14:57:42Z</time>
      </trkpt>
      <trkpt lat="46.44903" lon="5.23096">
        <ele>218</ele>
        <time>2022-03-08T14:57:46Z</time>
      </trkpt>
      <trkpt lat="46.44907" lon="5.231">
        <ele>218.2</ele>
        <time>2022-03-08T14:57:47Z</time>
      </trkpt>
      <trkpt lat="46.44918" lon="5.2311">
        <ele>218.4</ele>
        <time>2022-03-08T14:57:49Z</time>
      </trkpt>
      <trkpt lat="46.44924" lon="5.23119">
        <ele>218.4</ele>
        <time>2022-03-08T14:57:51Z</time>
      </trkpt>
      <trkpt lat="46.44927" lon="5.23122">
        <ele>218.6</ele>
        <time>2022-03-08T14:57:52Z</time>
      </trkpt>
      <trkpt lat="46.44936" lon="5.23122">
        <ele>218.8</ele>
        <time>2022-03-08T14:57:54Z</time>
      </trkpt>
      <trkpt lat="46.4495" lon="5.23094">
        <ele>219</ele>
        <time>2022-03-08T14:57:58Z</time>
      </trkpt>
      <trkpt lat="46.44953" lon="5.23087">
        <ele>219</ele>
        <time>2022-03-08T14:57:59Z</time>
      </trkpt>
      <trkpt lat="46.44958" lon="5.23065">
        <ele>219.2</ele>
        <time>2022-03-08T14:58:01Z</time>
      </trkpt>
      <trkpt lat="46.44971" lon="5.22981">
        <ele>218.8</ele>
        <time>2022-03-08T14:58:08Z</time>
      </trkpt>
      <trkpt lat="46.44982" lon="5.22924">
        <ele>218.4</ele>
        <time>2022-03-08T14:58:13Z</time>
      </trkpt>
      <trkpt lat="46.4499" lon="5.22904">
        <ele>218.2</ele>
        <time>2022-03-08T14:58:15Z</time>
      </trkpt>
      <trkpt lat="46.45006" lon="5.2288">
        <ele>218</ele>
        <time>2022-03-08T14:58:18Z</time>
      </trkpt>
      <trkpt lat="46.45012" lon="5.22873">
        <ele>218</ele>
        <time>2022-03-08T14:58:19Z</time>
      </trkpt>
      <trkpt lat="46.45053" lon="5.22847">
        <ele>217.8</ele>
        <time>2022-03-08T14:58:25Z</time>
      </trkpt>
      <trkpt lat="46.45066" lon="5.22837">
        <ele>218</ele>
        <time>2022-03-08T14:58:27Z</time>
      </trkpt>
      <trkpt lat="46.45076" lon="5.22822">
        <ele>218</ele>
        <time>2022-03-08T14:58:29Z</time>
      </trkpt>
      <trkpt lat="46.45084" lon="5.22778">
        <ele>218.4</ele>
        <time>2022-03-08T14:58:33Z</time>
      </trkpt>
      <trkpt lat="46.45103" lon="5.22695">
        <ele>218.8</ele>
        <time>2022-03-08T14:58:41Z</time>
      </trkpt>
      <trkpt lat="46.45131" lon="5.22618">
        <ele>219.2</ele>
        <time>2022-03-08T14:58:49Z</time>
      </trkpt>
      <trkpt lat="46.45151" lon="5.22536">
        <ele>219.2</ele>
        <time>2022-03-08T14:58:57Z</time>
      </trkpt>
      <trkpt lat="46.45154" lon="5.22526">
        <ele>219.4</ele>
        <time>2022-03-08T14:58:58Z</time>
      </trkpt>
      <trkpt lat="46.45177" lon="5.22447">
        <ele>219</ele>
        <time>2022-03-08T14:59:06Z</time>
      </trkpt>
      <trkpt lat="46.4518" lon="5.22437">
        <ele>219</ele>
        <time>2022-03-08T14:59:07Z</time>
      </trkpt>
      <trkpt lat="46.45208" lon="5.22361">
        <ele>218.6</ele>
        <time>2022-03-08T14:59:15Z</time>
      </trkpt>
      <trkpt lat="46.45215" lon="5.22342">
        <ele>218.6</ele>
        <time>2022-03-08T14:59:17Z</time>
      </trkpt>
      <trkpt lat="46.45224" lon="5.22323">
        <ele>218.6</ele>
        <time>2022-03-08T14:59:19Z</time>
      </trkpt>
      <trkpt lat="46.45237" lon="5.22308">
        <ele>218.6</ele>
        <time>2022-03-08T14:59:21Z</time>
      </trkpt>
      <trkpt lat="46.4528" lon="5.22278">
        <ele>218.4</ele>
        <time>2022-03-08T14:59:27Z</time>
      </trkpt>
      <trkpt lat="46.4533" lon="5.22247">
        <ele>217.8</ele>
        <time>2022-03-08T14:59:34Z</time>
      </trkpt>
      <trkpt lat="46.45337" lon="5.22243">
        <ele>217.8</ele>
        <time>2022-03-08T14:59:35Z</time>
      </trkpt>
      <trkpt lat="46.45389" lon="5.22213">
        <ele>217.8</ele>
        <time>2022-03-08T14:59:42Z</time>
      </trkpt>
      <trkpt lat="46.45405" lon="5.22201">
        <ele>217.6</ele>
        <time>2022-03-08T14:59:44Z</time>
      </trkpt>
      <trkpt lat="46.45412" lon="5.22194">
        <ele>217.6</ele>
        <time>2022-03-08T14:59:45Z</time>
      </trkpt>
      <trkpt lat="46.45418" lon="5.22186">
        <ele>217.6</ele>
        <time>2022-03-08T14:59:46Z</time>
      </trkpt>
      <trkpt lat="46.45429" lon="5.22167">
        <ele>217.4</ele>
        <time>2022-03-08T14:59:48Z</time>
      </trkpt>
      <trkpt lat="46.45435" lon="5.22156">
        <ele>217.4</ele>
        <time>2022-03-08T14:59:49Z</time>
      </trkpt>
      <trkpt lat="46.45462" lon="5.22088">
        <ele>217.2</ele>
        <time>2022-03-08T14:59:55Z</time>
      </trkpt>
      <trkpt lat="46.45466" lon="5.22076">
        <ele>217.2</ele>
        <time>2022-03-08T14:59:56Z</time>
      </trkpt>
      <trkpt lat="46.45492" lon="5.21999">
        <ele>217</ele>
        <time>2022-03-08T15:00:03Z</time>
      </trkpt>
      <trkpt lat="46.455" lon="5.21978">
        <ele>217</ele>
        <time>2022-03-08T15:00:05Z</time>
      </trkpt>
      <trkpt lat="46.45528" lon="5.21907">
        <ele>216.6</ele>
        <time>2022-03-08T15:00:12Z</time>
      </trkpt>
      <trkpt lat="46.45557" lon="5.21842">
        <ele>216.8</ele>
        <time>2022-03-08T15:00:19Z</time>
      </trkpt>
      <trkpt lat="46.45588" lon="5.21771">
        <ele>217.4</ele>
        <time>2022-03-08T15:00:26Z</time>
      </trkpt>
      <trkpt lat="46.45616" lon="5.217">
        <ele>216.8</ele>
        <time>2022-03-08T15:00:33Z</time>
      </trkpt>
      <trkpt lat="46.45631" lon="5.21671">
        <ele>216.6</ele>
        <time>2022-03-08T15:00:36Z</time>
      </trkpt>
      <trkpt lat="46.45641" lon="5.21653">
        <ele>216.4</ele>
        <time>2022-03-08T15:00:38Z</time>
      </trkpt>
      <trkpt lat="46.45672" lon="5.21598">
        <ele>216</ele>
        <time>2022-03-08T15:00:44Z</time>
      </trkpt>
      <trkpt lat="46.45704" lon="5.2155">
        <ele>216</ele>
        <time>2022-03-08T15:00:50Z</time>
      </trkpt>
      <trkpt lat="46.45736" lon="5.21521">
        <ele>216.8</ele>
        <time>2022-03-08T15:00:55Z</time>
      </trkpt>
      <trkpt lat="46.45782" lon="5.21499">
        <ele>217.6</ele>
        <time>2022-03-08T15:01:01Z</time>
      </trkpt>
      <trkpt lat="46.4579" lon="5.21495">
        <ele>217.8</ele>
        <time>2022-03-08T15:01:02Z</time>
      </trkpt>
      <trkpt lat="46.45799" lon="5.21493">
        <ele>217.8</ele>
        <time>2022-03-08T15:01:03Z</time>
      </trkpt>
      <trkpt lat="46.45824" lon="5.21491">
        <ele>217.4</ele>
        <time>2022-03-08T15:01:06Z</time>
      </trkpt>
      <trkpt lat="46.45872" lon="5.21499">
        <ele>217.2</ele>
        <time>2022-03-08T15:01:11Z</time>
      </trkpt>
      <trkpt lat="46.45929" lon="5.21515">
        <ele>216.8</ele>
        <time>2022-03-08T15:01:17Z</time>
      </trkpt>
      <trkpt lat="46.45939" lon="5.21519">
        <ele>216.4</ele>
        <time>2022-03-08T15:01:18Z</time>
      </trkpt>
      <trkpt lat="46.45995" lon="5.21547">
        <ele>215.8</ele>
        <time>2022-03-08T15:01:24Z</time>
      </trkpt>
      <trkpt lat="46.46005" lon="5.21553">
        <ele>215.6</ele>
        <time>2022-03-08T15:01:25Z</time>
      </trkpt>
      <trkpt lat="46.46041" lon="5.21586">
        <ele>214.2</ele>
        <time>2022-03-08T15:01:29Z</time>
      </trkpt>
      <trkpt lat="46.4605" lon="5.21595">
        <ele>214.2</ele>
        <time>2022-03-08T15:01:30Z</time>
      </trkpt>
      <trkpt lat="46.46097" lon="5.21655">
        <ele>213.8</ele>
        <time>2022-03-08T15:01:36Z</time>
      </trkpt>
      <trkpt lat="46.46112" lon="5.21673">
        <ele>213.6</ele>
        <time>2022-03-08T15:01:38Z</time>
      </trkpt>
      <trkpt lat="46.46139" lon="5.21711">
        <ele>213.6</ele>
        <time>2022-03-08T15:01:42Z</time>
      </trkpt>
      <trkpt lat="46.46176" lon="5.21775">
        <ele>213.6</ele>
        <time>2022-03-08T15:01:48Z</time>
      </trkpt>
      <trkpt lat="46.46185" lon="5.21789">
        <ele>213.2</ele>
        <time>2022-03-08T15:01:49Z</time>
      </trkpt>
      <trkpt lat="46.46214" lon="5.21833">
        <ele>212.2</ele>
        <time>2022-03-08T15:01:53Z</time>
      </trkpt>
      <trkpt lat="46.4624" lon="5.2187">
        <ele>210.6</ele>
        <time>2022-03-08T15:01:56Z</time>
      </trkpt>
      <trkpt lat="46.46262" lon="5.21905">
        <ele>209.4</ele>
        <time>2022-03-08T15:01:59Z</time>
      </trkpt>
      <trkpt lat="46.46278" lon="5.21924">
        <ele>208.6</ele>
        <time>2022-03-08T15:02:01Z</time>
      </trkpt>
      <trkpt lat="46.46287" lon="5.21932">
        <ele>208.4</ele>
        <time>2022-03-08T15:02:02Z</time>
      </trkpt>
      <trkpt lat="46.46323" lon="5.21954">
        <ele>208.2</ele>
        <time>2022-03-08T15:02:06Z</time>
      </trkpt>
      <trkpt lat="46.46371" lon="5.21981">
        <ele>209.2</ele>
        <time>2022-03-08T15:02:12Z</time>
      </trkpt>
      <trkpt lat="46.46389" lon="5.21988">
        <ele>209.6</ele>
        <time>2022-03-08T15:02:14Z</time>
      </trkpt>
      <trkpt lat="46.46414" lon="5.21995">
        <ele>210.4</ele>
        <time>2022-03-08T15:02:17Z</time>
      </trkpt>
      <trkpt lat="46.4643" lon="5.21997">
        <ele>210.8</ele>
        <time>2022-03-08T15:02:19Z</time>
      </trkpt>
      <trkpt lat="46.46472" lon="5.22004">
        <ele>212</ele>
        <time>2022-03-08T15:02:24Z</time>
      </trkpt>
      <trkpt lat="46.46521" lon="5.22019">
        <ele>212.8</ele>
        <time>2022-03-08T15:02:30Z</time>
      </trkpt>
      <trkpt lat="46.46529" lon="5.22022">
        <ele>213</ele>
        <time>2022-03-08T15:02:31Z</time>
      </trkpt>
      <trkpt lat="46.46569" lon="5.22034">
        <ele>213.4</ele>
        <time>2022-03-08T15:02:36Z</time>
      </trkpt>
      <trkpt lat="46.46577" lon="5.22034">
        <ele>213.4</ele>
        <time>2022-03-08T15:02:37Z</time>
      </trkpt>
      <trkpt lat="46.4662" lon="5.22023">
        <ele>213</ele>
        <time>2022-03-08T15:02:42Z</time>
      </trkpt>
      <trkpt lat="46.46671" lon="5.22018">
        <ele>212.4</ele>
        <time>2022-03-08T15:02:48Z</time>
      </trkpt>
      <trkpt lat="46.467" lon="5.22017">
        <ele>211.8</ele>
        <time>2022-03-08T15:02:51Z</time>
      </trkpt>
      <trkpt lat="46.46729" lon="5.22016">
        <ele>210.8</ele>
        <time>2022-03-08T15:02:54Z</time>
      </trkpt>
      <trkpt lat="46.46755" lon="5.22012">
        <ele>209.6</ele>
        <time>2022-03-08T15:02:57Z</time>
      </trkpt>
      <trkpt lat="46.46767" lon="5.22009">
        <ele>209.2</ele>
        <time>2022-03-08T15:02:58Z</time>
      </trkpt>
      <trkpt lat="46.46795" lon="5.21998">
        <ele>208.6</ele>
        <time>2022-03-08T15:03:01Z</time>
      </trkpt>
      <trkpt lat="46.46805" lon="5.21999">
        <ele>208.4</ele>
        <time>2022-03-08T15:03:02Z</time>
      </trkpt>
      <trkpt lat="46.46814" lon="5.22002">
        <ele>207.6</ele>
        <time>2022-03-08T15:03:03Z</time>
      </trkpt>
      <trkpt lat="46.46823" lon="5.22009">
        <ele>207.6</ele>
        <time>2022-03-08T15:03:04Z</time>
      </trkpt>
      <trkpt lat="46.46832" lon="5.22019">
        <ele>207.4</ele>
        <time>2022-03-08T15:03:05Z</time>
      </trkpt>
      <trkpt lat="46.46839" lon="5.22031">
        <ele>207.2</ele>
        <time>2022-03-08T15:03:06Z</time>
      </trkpt>
      <trkpt lat="46.46846" lon="5.22044">
        <ele>207</ele>
        <time>2022-03-08T15:03:07Z</time>
      </trkpt>
      <trkpt lat="46.46859" lon="5.22072">
        <ele>205.8</ele>
        <time>2022-03-08T15:03:09Z</time>
      </trkpt>
      <trkpt lat="46.46871" lon="5.22099">
        <ele>205</ele>
        <time>2022-03-08T15:03:11Z</time>
      </trkpt>
      <trkpt lat="46.46879" lon="5.22111">
        <ele>204</ele>
        <time>2022-03-08T15:03:12Z</time>
      </trkpt>
      <trkpt lat="46.46888" lon="5.22121">
        <ele>203.8</ele>
        <time>2022-03-08T15:03:13Z</time>
      </trkpt>
      <trkpt lat="46.46898" lon="5.22129">
        <ele>203.2</ele>
        <time>2022-03-08T15:03:14Z</time>
      </trkpt>
      <trkpt lat="46.46907" lon="5.22132">
        <ele>202.8</ele>
        <time>2022-03-08T15:03:15Z</time>
      </trkpt>
      <trkpt lat="46.46933" lon="5.22135">
        <ele>200.8</ele>
        <time>2022-03-08T15:03:17Z</time>
      </trkpt>
      <trkpt lat="46.46956" lon="5.22133">
        <ele>199.4</ele>
        <time>2022-03-08T15:03:19Z</time>
      </trkpt>
      <trkpt lat="46.46997" lon="5.2213">
        <ele>198.8</ele>
        <time>2022-03-08T15:03:23Z</time>
      </trkpt>
      <trkpt lat="46.47042" lon="5.2213">
        <ele>199.6</ele>
        <time>2022-03-08T15:03:28Z</time>
      </trkpt>
      <trkpt lat="46.47075" lon="5.22139">
        <ele>200.2</ele>
        <time>2022-03-08T15:03:32Z</time>
      </trkpt>
      <trkpt lat="46.47083" lon="5.22142">
        <ele>200.6</ele>
        <time>2022-03-08T15:03:33Z</time>
      </trkpt>
      <trkpt lat="46.47115" lon="5.22154">
        <ele>202.2</ele>
        <time>2022-03-08T15:03:37Z</time>
      </trkpt>
      <trkpt lat="46.47122" lon="5.22157">
        <ele>202.4</ele>
        <time>2022-03-08T15:03:38Z</time>
      </trkpt>
      <trkpt lat="46.47144" lon="5.22165">
        <ele>203.2</ele>
        <time>2022-03-08T15:03:41Z</time>
      </trkpt>
      <trkpt lat="46.47165" lon="5.22173">
        <ele>204.2</ele>
        <time>2022-03-08T15:03:44Z</time>
      </trkpt>
      <trkpt lat="46.47172" lon="5.22175">
        <ele>204.4</ele>
        <time>2022-03-08T15:03:45Z</time>
      </trkpt>
      <trkpt lat="46.47206" lon="5.22188">
        <ele>205.4</ele>
        <time>2022-03-08T15:03:50Z</time>
      </trkpt>
      <trkpt lat="46.47213" lon="5.22191">
        <ele>205.4</ele>
        <time>2022-03-08T15:03:51Z</time>
      </trkpt>
      <trkpt lat="46.47256" lon="5.22208">
        <ele>206.4</ele>
        <time>2022-03-08T15:03:58Z</time>
      </trkpt>
      <trkpt lat="46.47269" lon="5.22212">
        <ele>206.8</ele>
        <time>2022-03-08T15:04:00Z</time>
      </trkpt>
      <trkpt lat="46.473" lon="5.22222">
        <ele>207.6</ele>
        <time>2022-03-08T15:04:05Z</time>
      </trkpt>
      <trkpt lat="46.47325" lon="5.22231">
        <ele>208.2</ele>
        <time>2022-03-08T15:04:09Z</time>
      </trkpt>
      <trkpt lat="46.47337" lon="5.22235">
        <ele>208.8</ele>
        <time>2022-03-08T15:04:11Z</time>
      </trkpt>
      <trkpt lat="46.47355" lon="5.22242">
        <ele>209.4</ele>
        <time>2022-03-08T15:04:14Z</time>
      </trkpt>
      <trkpt lat="46.47366" lon="5.22249">
        <ele>209.8</ele>
        <time>2022-03-08T15:04:16Z</time>
      </trkpt>
      <trkpt lat="46.47402" lon="5.22268">
        <ele>210.6</ele>
        <time>2022-03-08T15:04:22Z</time>
      </trkpt>
      <trkpt lat="46.47421" lon="5.22278">
        <ele>211</ele>
        <time>2022-03-08T15:04:25Z</time>
      </trkpt>
      <trkpt lat="46.47453" lon="5.22296">
        <ele>211</ele>
        <time>2022-03-08T15:04:30Z</time>
      </trkpt>
      <trkpt lat="46.47508" lon="5.22326">
        <ele>211.4</ele>
        <time>2022-03-08T15:04:38Z</time>
      </trkpt>
      <trkpt lat="46.47513" lon="5.2233">
        <ele>211.2</ele>
        <time>2022-03-08T15:04:39Z</time>
      </trkpt>
      <trkpt lat="46.47563" lon="5.22357">
        <ele>211.4</ele>
        <time>2022-03-08T15:04:46Z</time>
      </trkpt>
      <trkpt lat="46.47618" lon="5.22379">
        <ele>211.6</ele>
        <time>2022-03-08T15:04:55Z</time>
      </trkpt>
      <trkpt lat="46.47666" lon="5.22393">
        <ele>211.8</ele>
        <time>2022-03-08T15:05:02Z</time>
      </trkpt>
      <trkpt lat="46.47687" lon="5.22396">
        <ele>212.2</ele>
        <time>2022-03-08T15:05:05Z</time>
      </trkpt>
      <trkpt lat="46.47711" lon="5.22397">
        <ele>212.8</ele>
        <time>2022-03-08T15:05:09Z</time>
      </trkpt>
      <trkpt lat="46.47729" lon="5.22398">
        <ele>213.2</ele>
        <time>2022-03-08T15:05:12Z</time>
      </trkpt>
      <trkpt lat="46.47754" lon="5.22401">
        <ele>213.6</ele>
        <time>2022-03-08T15:05:16Z</time>
      </trkpt>
      <trkpt lat="46.47771" lon="5.22403">
        <ele>213.4</ele>
        <time>2022-03-08T15:05:19Z</time>
      </trkpt>
      <trkpt lat="46.47775" lon="5.22406">
        <ele>213.2</ele>
        <time>2022-03-08T15:05:20Z</time>
      </trkpt>
      <trkpt lat="46.47779" lon="5.22412">
        <ele>213.2</ele>
        <time>2022-03-08T15:05:21Z</time>
      </trkpt>
      <trkpt lat="46.47783" lon="5.22427">
        <ele>213.2</ele>
        <time>2022-03-08T15:05:23Z</time>
      </trkpt>
      <trkpt lat="46.47789" lon="5.22464">
        <ele>213</ele>
        <time>2022-03-08T15:05:27Z</time>
      </trkpt>
      <trkpt lat="46.47805" lon="5.22539">
        <ele>213.2</ele>
        <time>2022-03-08T15:05:34Z</time>
      </trkpt>
      <trkpt lat="46.47808" lon="5.22549">
        <ele>213.4</ele>
        <time>2022-03-08T15:05:35Z</time>
      </trkpt>
      <trkpt lat="46.47811" lon="5.22558">
        <ele>213.4</ele>
        <time>2022-03-08T15:05:36Z</time>
      </trkpt>
      <trkpt lat="46.47826" lon="5.22584">
        <ele>213.4</ele>
        <time>2022-03-08T15:05:39Z</time>
      </trkpt>
      <trkpt lat="46.47861" lon="5.22625">
        <ele>212.6</ele>
        <time>2022-03-08T15:05:44Z</time>
      </trkpt>
      <trkpt lat="46.47877" lon="5.22642">
        <ele>211.8</ele>
        <time>2022-03-08T15:05:46Z</time>
      </trkpt>
      <trkpt lat="46.47901" lon="5.22668">
        <ele>210.6</ele>
        <time>2022-03-08T15:05:49Z</time>
      </trkpt>
      <trkpt lat="46.4791" lon="5.22677">
        <ele>210.2</ele>
        <time>2022-03-08T15:05:50Z</time>
      </trkpt>
      <trkpt lat="46.47927" lon="5.22695">
        <ele>209.4</ele>
        <time>2022-03-08T15:05:52Z</time>
      </trkpt>
      <trkpt lat="46.47945" lon="5.22713">
        <ele>208.2</ele>
        <time>2022-03-08T15:05:54Z</time>
      </trkpt>
      <trkpt lat="46.47962" lon="5.22735">
        <ele>207.4</ele>
        <time>2022-03-08T15:05:56Z</time>
      </trkpt>
      <trkpt lat="46.47969" lon="5.22746">
        <ele>207.2</ele>
        <time>2022-03-08T15:05:57Z</time>
      </trkpt>
      <trkpt lat="46.47976" lon="5.22759">
        <ele>206</ele>
        <time>2022-03-08T15:05:58Z</time>
      </trkpt>
      <trkpt lat="46.47988" lon="5.22787">
        <ele>204.8</ele>
        <time>2022-03-08T15:06:00Z</time>
      </trkpt>
      <trkpt lat="46.48003" lon="5.22829">
        <ele>203.4</ele>
        <time>2022-03-08T15:06:03Z</time>
      </trkpt>
      <trkpt lat="46.48027" lon="5.22895">
        <ele>202.4</ele>
        <time>2022-03-08T15:06:08Z</time>
      </trkpt>
      <trkpt lat="46.48033" lon="5.22912">
        <ele>202.2</ele>
        <time>2022-03-08T15:06:09Z</time>
      </trkpt>
      <trkpt lat="46.4804" lon="5.22941">
        <ele>202</ele>
        <time>2022-03-08T15:06:11Z</time>
      </trkpt>
      <trkpt lat="46.48044" lon="5.22971">
        <ele>201.4</ele>
        <time>2022-03-08T15:06:13Z</time>
      </trkpt>
      <trkpt lat="46.48045" lon="5.22985">
        <ele>201</ele>
        <time>2022-03-08T15:06:14Z</time>
      </trkpt>
      <trkpt lat="46.48047" lon="5.23026">
        <ele>199.8</ele>
        <time>2022-03-08T15:06:17Z</time>
      </trkpt>
      <trkpt lat="46.48047" lon="5.23037">
        <ele>199.6</ele>
        <time>2022-03-08T15:06:18Z</time>
      </trkpt>
      <trkpt lat="46.48047" lon="5.23049">
        <ele>198.6</ele>
        <time>2022-03-08T15:06:19Z</time>
      </trkpt>
      <trkpt lat="46.48047" lon="5.23078">
        <ele>197.8</ele>
        <time>2022-03-08T15:06:22Z</time>
      </trkpt>
      <trkpt lat="46.48048" lon="5.23087">
        <ele>197.4</ele>
        <time>2022-03-08T15:06:23Z</time>
      </trkpt>
      <trkpt lat="46.48048" lon="5.23116">
        <ele>196.2</ele>
        <time>2022-03-08T15:06:26Z</time>
      </trkpt>
      <trkpt lat="46.48049" lon="5.2315">
        <ele>195.6</ele>
        <time>2022-03-08T15:06:29Z</time>
      </trkpt>
      <trkpt lat="46.4805" lon="5.23191">
        <ele>195</ele>
        <time>2022-03-08T15:06:32Z</time>
      </trkpt>
      <trkpt lat="46.4805" lon="5.23219">
        <ele>194.6</ele>
        <time>2022-03-08T15:06:34Z</time>
      </trkpt>
      <trkpt lat="46.48052" lon="5.23288">
        <ele>193.8</ele>
        <time>2022-03-08T15:06:39Z</time>
      </trkpt>
      <trkpt lat="46.48054" lon="5.23327">
        <ele>193</ele>
        <time>2022-03-08T15:06:42Z</time>
      </trkpt>
      <trkpt lat="46.48054" lon="5.23352">
        <ele>192.8</ele>
        <time>2022-03-08T15:06:44Z</time>
      </trkpt>
      <trkpt lat="46.48055" lon="5.2339">
        <ele>192.8</ele>
        <time>2022-03-08T15:06:47Z</time>
      </trkpt>
      <trkpt lat="46.48058" lon="5.23476">
        <ele>192</ele>
        <time>2022-03-08T15:06:54Z</time>
      </trkpt>
      <trkpt lat="46.48058" lon="5.23488">
        <ele>191.8</ele>
        <time>2022-03-08T15:06:55Z</time>
      </trkpt>
      <trkpt lat="46.48059" lon="5.23573">
        <ele>191.2</ele>
        <time>2022-03-08T15:07:02Z</time>
      </trkpt>
      <trkpt lat="46.48061" lon="5.23608">
        <ele>191</ele>
        <time>2022-03-08T15:07:05Z</time>
      </trkpt>
      <trkpt lat="46.4807" lon="5.23674">
        <ele>191.2</ele>
        <time>2022-03-08T15:07:11Z</time>
      </trkpt>
      <trkpt lat="46.4809" lon="5.23733">
        <ele>191.4</ele>
        <time>2022-03-08T15:07:17Z</time>
      </trkpt>
      <trkpt lat="46.48123" lon="5.23788">
        <ele>191.8</ele>
        <time>2022-03-08T15:07:24Z</time>
      </trkpt>
      <trkpt lat="46.48169" lon="5.23843">
        <ele>191.8</ele>
        <time>2022-03-08T15:07:32Z</time>
      </trkpt>
      <trkpt lat="46.48178" lon="5.2386">
        <ele>192</ele>
        <time>2022-03-08T15:07:34Z</time>
      </trkpt>
      <trkpt lat="46.48184" lon="5.2388">
        <ele>192.2</ele>
        <time>2022-03-08T15:07:36Z</time>
      </trkpt>
      <trkpt lat="46.48188" lon="5.239">
        <ele>192.4</ele>
        <time>2022-03-08T15:07:38Z</time>
      </trkpt>
      <trkpt lat="46.48188" lon="5.2392">
        <ele>192.6</ele>
        <time>2022-03-08T15:07:40Z</time>
      </trkpt>
      <trkpt lat="46.48186" lon="5.23939">
        <ele>192.8</ele>
        <time>2022-03-08T15:07:42Z</time>
      </trkpt>
      <trkpt lat="46.48174" lon="5.2398">
        <ele>193.4</ele>
        <time>2022-03-08T15:07:47Z</time>
      </trkpt>
      <trkpt lat="46.48169" lon="5.23993">
        <ele>194</ele>
        <time>2022-03-08T15:07:49Z</time>
      </trkpt>
      <trkpt lat="46.48162" lon="5.24013">
        <ele>194.8</ele>
        <time>2022-03-08T15:07:52Z</time>
      </trkpt>
      <trkpt lat="46.48161" lon="5.24018">
        <ele>195</ele>
        <time>2022-03-08T15:07:53Z</time>
      </trkpt>
      <trkpt lat="46.48159" lon="5.24024">
        <ele>195.2</ele>
        <time>2022-03-08T15:07:54Z</time>
      </trkpt>
      <trkpt lat="46.48151" lon="5.24042">
        <ele>195.8</ele>
        <time>2022-03-08T15:07:57Z</time>
      </trkpt>
      <trkpt lat="46.48147" lon="5.24053">
        <ele>196.2</ele>
        <time>2022-03-08T15:07:59Z</time>
      </trkpt>
      <trkpt lat="46.48134" lon="5.2408">
        <ele>197.2</ele>
        <time>2022-03-08T15:08:04Z</time>
      </trkpt>
      <trkpt lat="46.48132" lon="5.24086">
        <ele>197.4</ele>
        <time>2022-03-08T15:08:05Z</time>
      </trkpt>
      <trkpt lat="46.48123" lon="5.24108">
        <ele>198.4</ele>
        <time>2022-03-08T15:08:09Z</time>
      </trkpt>
      <trkpt lat="46.48117" lon="5.24124">
        <ele>199.4</ele>
        <time>2022-03-08T15:08:12Z</time>
      </trkpt>
      <trkpt lat="46.48113" lon="5.24136">
        <ele>200</ele>
        <time>2022-03-08T15:08:14Z</time>
      </trkpt>
      <trkpt lat="46.48109" lon="5.24147">
        <ele>200.6</ele>
        <time>2022-03-08T15:08:16Z</time>
      </trkpt>
      <trkpt lat="46.48102" lon="5.24162">
        <ele>201.6</ele>
        <time>2022-03-08T15:08:19Z</time>
      </trkpt>
      <trkpt lat="46.48097" lon="5.24177">
        <ele>202.8</ele>
        <time>2022-03-08T15:08:22Z</time>
      </trkpt>
      <trkpt lat="46.48093" lon="5.24187">
        <ele>203.2</ele>
        <time>2022-03-08T15:08:24Z</time>
      </trkpt>
      <trkpt lat="46.48092" lon="5.24193">
        <ele>203.8</ele>
        <time>2022-03-08T15:08:25Z</time>
      </trkpt>
      <trkpt lat="46.48085" lon="5.24212">
        <ele>205.2</ele>
        <time>2022-03-08T15:08:29Z</time>
      </trkpt>
      <trkpt lat="46.48077" lon="5.24236">
        <ele>206.4</ele>
        <time>2022-03-08T15:08:34Z</time>
      </trkpt>
      <trkpt lat="46.48075" lon="5.24242">
        <ele>206.6</ele>
        <time>2022-03-08T15:08:35Z</time>
      </trkpt>
      <trkpt lat="46.48073" lon="5.24258">
        <ele>207.4</ele>
        <time>2022-03-08T15:08:38Z</time>
      </trkpt>
      <trkpt lat="46.48072" lon="5.24281">
        <ele>208.2</ele>
        <time>2022-03-08T15:08:42Z</time>
      </trkpt>
      <trkpt lat="46.48075" lon="5.24292">
        <ele>208.6</ele>
        <time>2022-03-08T15:08:44Z</time>
      </trkpt>
      <trkpt lat="46.48081" lon="5.24307">
        <ele>209.2</ele>
        <time>2022-03-08T15:08:47Z</time>
      </trkpt>
      <trkpt lat="46.48086" lon="5.24316">
        <ele>210</ele>
        <time>2022-03-08T15:08:49Z</time>
      </trkpt>
      <trkpt lat="46.481" lon="5.24332">
        <ele>210.8</ele>
        <time>2022-03-08T15:08:54Z</time>
      </trkpt>
      <trkpt lat="46.48106" lon="5.24339">
        <ele>211.2</ele>
        <time>2022-03-08T15:08:56Z</time>
      </trkpt>
      <trkpt lat="46.48117" lon="5.2435">
        <ele>212</ele>
        <time>2022-03-08T15:09:00Z</time>
      </trkpt>
      <trkpt lat="46.4812" lon="5.2435">
        <ele>212.6</ele>
        <time>2022-03-08T15:09:01Z</time>
      </trkpt>
      <trkpt lat="46.48126" lon="5.24345">
        <ele>213</ele>
        <time>2022-03-08T15:09:03Z</time>
      </trkpt>
      <trkpt lat="46.48134" lon="5.24337">
        <ele>213.6</ele>
        <time>2022-03-08T15:09:05Z</time>
      </trkpt>
      <trkpt lat="46.48145" lon="5.24323">
        <ele>214.2</ele>
        <time>2022-03-08T15:09:08Z</time>
      </trkpt>
      <trkpt lat="46.48171" lon="5.2429">
        <ele>214.6</ele>
        <time>2022-03-08T15:09:15Z</time>
      </trkpt>
      <trkpt lat="46.48175" lon="5.24284">
        <ele>214.6</ele>
        <time>2022-03-08T15:09:16Z</time>
      </trkpt>
      <trkpt lat="46.48179" lon="5.24279">
        <ele>214.8</ele>
        <time>2022-03-08T15:09:17Z</time>
      </trkpt>
      <trkpt lat="46.48195" lon="5.24263">
        <ele>215.6</ele>
        <time>2022-03-08T15:09:21Z</time>
      </trkpt>
      <trkpt lat="46.48201" lon="5.24259">
        <ele>215.8</ele>
        <time>2022-03-08T15:09:22Z</time>
      </trkpt>
      <trkpt lat="46.48206" lon="5.24258">
        <ele>215.8</ele>
        <time>2022-03-08T15:09:23Z</time>
      </trkpt>
      <trkpt lat="46.48218" lon="5.24258">
        <ele>216</ele>
        <time>2022-03-08T15:09:25Z</time>
      </trkpt>
      <trkpt lat="46.48224" lon="5.24258">
        <ele>216</ele>
        <time>2022-03-08T15:09:26Z</time>
      </trkpt>
      <trkpt lat="46.48254" lon="5.24266">
        <ele>216.4</ele>
        <time>2022-03-08T15:09:31Z</time>
      </trkpt>
      <trkpt lat="46.48301" lon="5.2428">
        <ele>216.6</ele>
        <time>2022-03-08T15:09:38Z</time>
      </trkpt>
      <trkpt lat="46.48314" lon="5.24289">
        <ele>216.6</ele>
        <time>2022-03-08T15:09:40Z</time>
      </trkpt>
      <trkpt lat="46.48326" lon="5.24303">
        <ele>216.2</ele>
        <time>2022-03-08T15:09:42Z</time>
      </trkpt>
      <trkpt lat="46.48357" lon="5.24338">
        <ele>215.6</ele>
        <time>2022-03-08T15:09:47Z</time>
      </trkpt>
      <trkpt lat="46.48383" lon="5.2435">
        <ele>215.2</ele>
        <time>2022-03-08T15:09:50Z</time>
      </trkpt>
      <trkpt lat="46.4841" lon="5.24364">
        <ele>214</ele>
        <time>2022-03-08T15:09:53Z</time>
      </trkpt>
      <trkpt lat="46.48419" lon="5.2437">
        <ele>213.4</ele>
        <time>2022-03-08T15:09:54Z</time>
      </trkpt>
      <trkpt lat="46.48427" lon="5.24378">
        <ele>213.2</ele>
        <time>2022-03-08T15:09:55Z</time>
      </trkpt>
      <trkpt lat="46.48435" lon="5.24386">
        <ele>212.8</ele>
        <time>2022-03-08T15:09:56Z</time>
      </trkpt>
      <trkpt lat="46.48464" lon="5.2442">
        <ele>211.6</ele>
        <time>2022-03-08T15:10:00Z</time>
      </trkpt>
      <trkpt lat="46.48477" lon="5.24436">
        <ele>211.2</ele>
        <time>2022-03-08T15:10:02Z</time>
      </trkpt>
      <trkpt lat="46.48515" lon="5.24481">
        <ele>211.2</ele>
        <time>2022-03-08T15:10:08Z</time>
      </trkpt>
      <trkpt lat="46.48555" lon="5.24529">
        <ele>211.8</ele>
        <time>2022-03-08T15:10:15Z</time>
      </trkpt>
      <trkpt lat="46.48585" lon="5.24562">
        <ele>212.4</ele>
        <time>2022-03-08T15:10:20Z</time>
      </trkpt>
      <trkpt lat="46.48591" lon="5.24566">
        <ele>212.8</ele>
        <time>2022-03-08T15:10:21Z</time>
      </trkpt>
      <trkpt lat="46.48599" lon="5.24572">
        <ele>213</ele>
        <time>2022-03-08T15:10:22Z</time>
      </trkpt>
      <trkpt lat="46.48629" lon="5.24588">
        <ele>213.4</ele>
        <time>2022-03-08T15:10:26Z</time>
      </trkpt>
      <trkpt lat="46.48684" lon="5.24617">
        <ele>213.4</ele>
        <time>2022-03-08T15:10:33Z</time>
      </trkpt>
      <trkpt lat="46.48692" lon="5.24621">
        <ele>213.4</ele>
        <time>2022-03-08T15:10:34Z</time>
      </trkpt>
      <trkpt lat="46.48746" lon="5.2464">
        <ele>213</ele>
        <time>2022-03-08T15:10:41Z</time>
      </trkpt>
      <trkpt lat="46.48759" lon="5.24651">
        <ele>213.2</ele>
        <time>2022-03-08T15:10:43Z</time>
      </trkpt>
      <trkpt lat="46.48765" lon="5.24658">
        <ele>213.4</ele>
        <time>2022-03-08T15:10:44Z</time>
      </trkpt>
      <trkpt lat="46.48777" lon="5.24672">
        <ele>213.4</ele>
        <time>2022-03-08T15:10:46Z</time>
      </trkpt>
      <trkpt lat="46.48797" lon="5.2469">
        <ele>213.6</ele>
        <time>2022-03-08T15:10:49Z</time>
      </trkpt>
      <trkpt lat="46.48823" lon="5.24717">
        <ele>213.8</ele>
        <time>2022-03-08T15:10:53Z</time>
      </trkpt>
      <trkpt lat="46.48855" lon="5.2475">
        <ele>213.4</ele>
        <time>2022-03-08T15:10:58Z</time>
      </trkpt>
      <trkpt lat="46.48902" lon="5.24805">
        <ele>213</ele>
        <time>2022-03-08T15:11:05Z</time>
      </trkpt>
      <trkpt lat="46.48923" lon="5.24829">
        <ele>212.8</ele>
        <time>2022-03-08T15:11:08Z</time>
      </trkpt>
      <trkpt lat="46.48943" lon="5.24854">
        <ele>212.4</ele>
        <time>2022-03-08T15:11:11Z</time>
      </trkpt>
      <trkpt lat="46.48971" lon="5.24891">
        <ele>212</ele>
        <time>2022-03-08T15:11:15Z</time>
      </trkpt>
      <trkpt lat="46.48987" lon="5.24927">
        <ele>211.6</ele>
        <time>2022-03-08T15:11:18Z</time>
      </trkpt>
      <trkpt lat="46.48992" lon="5.24941">
        <ele>211.4</ele>
        <time>2022-03-08T15:11:19Z</time>
      </trkpt>
      <trkpt lat="46.48994" lon="5.24952">
        <ele>211</ele>
        <time>2022-03-08T15:11:20Z</time>
      </trkpt>
      <trkpt lat="46.49003" lon="5.25">
        <ele>210.2</ele>
        <time>2022-03-08T15:11:23Z</time>
      </trkpt>
      <trkpt lat="46.49004" lon="5.25012">
        <ele>210</ele>
        <time>2022-03-08T15:11:24Z</time>
      </trkpt>
      <trkpt lat="46.49008" lon="5.25043">
        <ele>208.8</ele>
        <time>2022-03-08T15:11:26Z</time>
      </trkpt>
      <trkpt lat="46.49017" lon="5.25108">
        <ele>207.6</ele>
        <time>2022-03-08T15:11:30Z</time>
      </trkpt>
      <trkpt lat="46.49021" lon="5.25139">
        <ele>207</ele>
        <time>2022-03-08T15:11:32Z</time>
      </trkpt>
      <trkpt lat="46.49025" lon="5.25166">
        <ele>205.8</ele>
        <time>2022-03-08T15:11:34Z</time>
      </trkpt>
      <trkpt lat="46.49032" lon="5.25226">
        <ele>204.6</ele>
        <time>2022-03-08T15:11:38Z</time>
      </trkpt>
      <trkpt lat="46.49034" lon="5.2524">
        <ele>204.4</ele>
        <time>2022-03-08T15:11:39Z</time>
      </trkpt>
      <trkpt lat="46.49044" lon="5.25314">
        <ele>204.6</ele>
        <time>2022-03-08T15:11:45Z</time>
      </trkpt>
      <trkpt lat="46.49055" lon="5.25395">
        <ele>205.6</ele>
        <time>2022-03-08T15:11:52Z</time>
      </trkpt>
      <trkpt lat="46.49056" lon="5.25408">
        <ele>205.6</ele>
        <time>2022-03-08T15:11:53Z</time>
      </trkpt>
      <trkpt lat="46.49058" lon="5.25421">
        <ele>205.6</ele>
        <time>2022-03-08T15:11:54Z</time>
      </trkpt>
      <trkpt lat="46.49063" lon="5.25475">
        <ele>205.8</ele>
        <time>2022-03-08T15:11:58Z</time>
      </trkpt>
      <trkpt lat="46.4907" lon="5.25516">
        <ele>205.6</ele>
        <time>2022-03-08T15:12:01Z</time>
      </trkpt>
      <trkpt lat="46.49074" lon="5.25529">
        <ele>205.4</ele>
        <time>2022-03-08T15:12:02Z</time>
      </trkpt>
      <trkpt lat="46.49079" lon="5.25542">
        <ele>205.2</ele>
        <time>2022-03-08T15:12:03Z</time>
      </trkpt>
      <trkpt lat="46.4909" lon="5.25562">
        <ele>204.8</ele>
        <time>2022-03-08T15:12:05Z</time>
      </trkpt>
      <trkpt lat="46.49099" lon="5.25573">
        <ele>204.2</ele>
        <time>2022-03-08T15:12:06Z</time>
      </trkpt>
      <trkpt lat="46.49124" lon="5.25598">
        <ele>202.8</ele>
        <time>2022-03-08T15:12:09Z</time>
      </trkpt>
      <trkpt lat="46.49148" lon="5.2562">
        <ele>201.8</ele>
        <time>2022-03-08T15:12:12Z</time>
      </trkpt>
      <trkpt lat="46.49183" lon="5.25655">
        <ele>200.4</ele>
        <time>2022-03-08T15:12:16Z</time>
      </trkpt>
      <trkpt lat="46.49207" lon="5.25679">
        <ele>200</ele>
        <time>2022-03-08T15:12:19Z</time>
      </trkpt>
      <trkpt lat="46.49246" lon="5.25716">
        <ele>199.4</ele>
        <time>2022-03-08T15:12:24Z</time>
      </trkpt>
      <trkpt lat="46.49254" lon="5.25724">
        <ele>199</ele>
        <time>2022-03-08T15:12:25Z</time>
      </trkpt>
      <trkpt lat="46.49299" lon="5.25768">
        <ele>198.6</ele>
        <time>2022-03-08T15:12:31Z</time>
      </trkpt>
      <trkpt lat="46.49306" lon="5.25776">
        <ele>198.8</ele>
        <time>2022-03-08T15:12:32Z</time>
      </trkpt>
      <trkpt lat="46.49346" lon="5.25818">
        <ele>198.6</ele>
        <time>2022-03-08T15:12:38Z</time>
      </trkpt>
      <trkpt lat="46.49395" lon="5.25866">
        <ele>198.4</ele>
        <time>2022-03-08T15:12:45Z</time>
      </trkpt>
      <trkpt lat="46.494" lon="5.25872">
        <ele>198.4</ele>
        <time>2022-03-08T15:12:46Z</time>
      </trkpt>
      <trkpt lat="46.49451" lon="5.25923">
        <ele>198.4</ele>
        <time>2022-03-08T15:12:53Z</time>
      </trkpt>
      <trkpt lat="46.49457" lon="5.2593">
        <ele>198.4</ele>
        <time>2022-03-08T15:12:54Z</time>
      </trkpt>
      <trkpt lat="46.49505" lon="5.25976">
        <ele>198.4</ele>
        <time>2022-03-08T15:13:01Z</time>
      </trkpt>
      <trkpt lat="46.49518" lon="5.25989">
        <ele>198.4</ele>
        <time>2022-03-08T15:13:03Z</time>
      </trkpt>
      <trkpt lat="46.49555" lon="5.2603">
        <ele>198.6</ele>
        <time>2022-03-08T15:13:09Z</time>
      </trkpt>
      <trkpt lat="46.49591" lon="5.26081">
        <ele>198.6</ele>
        <time>2022-03-08T15:13:15Z</time>
      </trkpt>
      <trkpt lat="46.49601" lon="5.26101">
        <ele>198.4</ele>
        <time>2022-03-08T15:13:17Z</time>
      </trkpt>
      <trkpt lat="46.49612" lon="5.26132">
        <ele>198.4</ele>
        <time>2022-03-08T15:13:20Z</time>
      </trkpt>
      <trkpt lat="46.49622" lon="5.26203">
        <ele>198.4</ele>
        <time>2022-03-08T15:13:26Z</time>
      </trkpt>
      <trkpt lat="46.49627" lon="5.26283">
        <ele>198.2</ele>
        <time>2022-03-08T15:13:33Z</time>
      </trkpt>
      <trkpt lat="46.49628" lon="5.26294">
        <ele>198.2</ele>
        <time>2022-03-08T15:13:34Z</time>
      </trkpt>
      <trkpt lat="46.49632" lon="5.26355">
        <ele>198.8</ele>
        <time>2022-03-08T15:13:40Z</time>
      </trkpt>
      <trkpt lat="46.49636" lon="5.26396">
        <ele>199.8</ele>
        <time>2022-03-08T15:13:45Z</time>
      </trkpt>
      <trkpt lat="46.49637" lon="5.26404">
        <ele>200.2</ele>
        <time>2022-03-08T15:13:46Z</time>
      </trkpt>
      <trkpt lat="46.49641" lon="5.26424">
        <ele>201.2</ele>
        <time>2022-03-08T15:13:49Z</time>
      </trkpt>
      <trkpt lat="46.49646" lon="5.26446">
        <ele>202.2</ele>
        <time>2022-03-08T15:13:52Z</time>
      </trkpt>
      <trkpt lat="46.49648" lon="5.26453">
        <ele>202.6</ele>
        <time>2022-03-08T15:13:53Z</time>
      </trkpt>
      <trkpt lat="46.49653" lon="5.26473">
        <ele>203.4</ele>
        <time>2022-03-08T15:13:56Z</time>
      </trkpt>
      <trkpt lat="46.49663" lon="5.26498">
        <ele>204.4</ele>
        <time>2022-03-08T15:14:00Z</time>
      </trkpt>
      <trkpt lat="46.49666" lon="5.26505">
        <ele>204.6</ele>
        <time>2022-03-08T15:14:01Z</time>
      </trkpt>
      <trkpt lat="46.49673" lon="5.26524">
        <ele>205.6</ele>
        <time>2022-03-08T15:14:04Z</time>
      </trkpt>
      <trkpt lat="46.49684" lon="5.26551">
        <ele>206.8</ele>
        <time>2022-03-08T15:14:08Z</time>
      </trkpt>
      <trkpt lat="46.49688" lon="5.26559">
        <ele>207</ele>
        <time>2022-03-08T15:14:09Z</time>
      </trkpt>
      <trkpt lat="46.49695" lon="5.26576">
        <ele>207.8</ele>
        <time>2022-03-08T15:14:12Z</time>
      </trkpt>
      <trkpt lat="46.49697" lon="5.26582">
        <ele>208</ele>
        <time>2022-03-08T15:14:13Z</time>
      </trkpt>
      <trkpt lat="46.49701" lon="5.26593">
        <ele>209</ele>
        <time>2022-03-08T15:14:15Z</time>
      </trkpt>
      <trkpt lat="46.49703" lon="5.26599">
        <ele>209.2</ele>
        <time>2022-03-08T15:14:16Z</time>
      </trkpt>
      <trkpt lat="46.4971" lon="5.26617">
        <ele>210</ele>
        <time>2022-03-08T15:14:19Z</time>
      </trkpt>
      <trkpt lat="46.49718" lon="5.26635">
        <ele>210.6</ele>
        <time>2022-03-08T15:14:22Z</time>
      </trkpt>
      <trkpt lat="46.49722" lon="5.26647">
        <ele>211</ele>
        <time>2022-03-08T15:14:24Z</time>
      </trkpt>
      <trkpt lat="46.49729" lon="5.26666">
        <ele>211.6</ele>
        <time>2022-03-08T15:14:27Z</time>
      </trkpt>
      <trkpt lat="46.49731" lon="5.26673">
        <ele>212.2</ele>
        <time>2022-03-08T15:14:28Z</time>
      </trkpt>
      <trkpt lat="46.49734" lon="5.26686">
        <ele>212.8</ele>
        <time>2022-03-08T15:14:30Z</time>
      </trkpt>
      <trkpt lat="46.49738" lon="5.26709">
        <ele>213.2</ele>
        <time>2022-03-08T15:14:33Z</time>
      </trkpt>
      <trkpt lat="46.49741" lon="5.26741">
        <ele>213.8</ele>
        <time>2022-03-08T15:14:37Z</time>
      </trkpt>
      <trkpt lat="46.4974" lon="5.26784">
        <ele>214.4</ele>
        <time>2022-03-08T15:14:42Z</time>
      </trkpt>
      <trkpt lat="46.49739" lon="5.26795">
        <ele>214.4</ele>
        <time>2022-03-08T15:14:43Z</time>
      </trkpt>
      <trkpt lat="46.49729" lon="5.26849">
        <ele>214.6</ele>
        <time>2022-03-08T15:14:49Z</time>
      </trkpt>
      <trkpt lat="46.49706" lon="5.26924">
        <ele>214.2</ele>
        <time>2022-03-08T15:14:57Z</time>
      </trkpt>
      <trkpt lat="46.49687" lon="5.26979">
        <ele>214.2</ele>
        <time>2022-03-08T15:15:04Z</time>
      </trkpt>
      <trkpt lat="46.49671" lon="5.27023">
        <ele>215.4</ele>
        <time>2022-03-08T15:15:10Z</time>
      </trkpt>
      <trkpt lat="46.49668" lon="5.27031">
        <ele>215.4</ele>
        <time>2022-03-08T15:15:11Z</time>
      </trkpt>
      <trkpt lat="46.49648" lon="5.271">
        <ele>216.6</ele>
        <time>2022-03-08T15:15:19Z</time>
      </trkpt>
      <trkpt lat="46.49641" lon="5.27127">
        <ele>216.8</ele>
        <time>2022-03-08T15:15:22Z</time>
      </trkpt>
      <trkpt lat="46.49634" lon="5.27186">
        <ele>216.4</ele>
        <time>2022-03-08T15:15:28Z</time>
      </trkpt>
      <trkpt lat="46.4964" lon="5.27239">
        <ele>216</ele>
        <time>2022-03-08T15:15:33Z</time>
      </trkpt>
      <trkpt lat="46.49646" lon="5.27264">
        <ele>215.6</ele>
        <time>2022-03-08T15:15:35Z</time>
      </trkpt>
      <trkpt lat="46.49649" lon="5.27273">
        <ele>215.6</ele>
        <time>2022-03-08T15:15:36Z</time>
      </trkpt>
      <trkpt lat="46.49653" lon="5.27285">
        <ele>215.2</ele>
        <time>2022-03-08T15:15:37Z</time>
      </trkpt>
      <trkpt lat="46.49663" lon="5.27308">
        <ele>214</ele>
        <time>2022-03-08T15:15:39Z</time>
      </trkpt>
      <trkpt lat="46.4968" lon="5.27343">
        <ele>213.2</ele>
        <time>2022-03-08T15:15:42Z</time>
      </trkpt>
      <trkpt lat="46.49692" lon="5.27367">
        <ele>212.6</ele>
        <time>2022-03-08T15:15:44Z</time>
      </trkpt>
      <trkpt lat="46.49709" lon="5.27405">
        <ele>211</ele>
        <time>2022-03-08T15:15:47Z</time>
      </trkpt>
      <trkpt lat="46.49721" lon="5.2745">
        <ele>209.6</ele>
        <time>2022-03-08T15:15:50Z</time>
      </trkpt>
      <trkpt lat="46.49723" lon="5.27466">
        <ele>208.8</ele>
        <time>2022-03-08T15:15:51Z</time>
      </trkpt>
      <trkpt lat="46.49725" lon="5.27499">
        <ele>207.6</ele>
        <time>2022-03-08T15:15:53Z</time>
      </trkpt>
      <trkpt lat="46.49724" lon="5.27533">
        <ele>206.6</ele>
        <time>2022-03-08T15:15:55Z</time>
      </trkpt>
      <trkpt lat="46.49723" lon="5.27584">
        <ele>205.2</ele>
        <time>2022-03-08T15:15:58Z</time>
      </trkpt>
      <trkpt lat="46.49725" lon="5.27635">
        <ele>204.2</ele>
        <time>2022-03-08T15:16:01Z</time>
      </trkpt>
      <trkpt lat="46.49727" lon="5.27652">
        <ele>202.6</ele>
        <time>2022-03-08T15:16:02Z</time>
      </trkpt>
      <trkpt lat="46.49735" lon="5.27703">
        <ele>201</ele>
        <time>2022-03-08T15:16:05Z</time>
      </trkpt>
      <trkpt lat="46.49738" lon="5.2772">
        <ele>200.8</ele>
        <time>2022-03-08T15:16:06Z</time>
      </trkpt>
      <trkpt lat="46.49744" lon="5.27753">
        <ele>199.8</ele>
        <time>2022-03-08T15:16:08Z</time>
      </trkpt>
      <trkpt lat="46.4975" lon="5.27787">
        <ele>198.8</ele>
        <time>2022-03-08T15:16:10Z</time>
      </trkpt>
      <trkpt lat="46.49753" lon="5.27803">
        <ele>197.6</ele>
        <time>2022-03-08T15:16:11Z</time>
      </trkpt>
      <trkpt lat="46.4976" lon="5.27852">
        <ele>196.4</ele>
        <time>2022-03-08T15:16:14Z</time>
      </trkpt>
      <trkpt lat="46.49762" lon="5.27915">
        <ele>195.2</ele>
        <time>2022-03-08T15:16:18Z</time>
      </trkpt>
      <trkpt lat="46.49764" lon="5.27989">
        <ele>194.2</ele>
        <time>2022-03-08T15:16:23Z</time>
      </trkpt>
      <trkpt lat="46.49764" lon="5.28017">
        <ele>194</ele>
        <time>2022-03-08T15:16:25Z</time>
      </trkpt>
      <trkpt lat="46.49762" lon="5.28103">
        <ele>193.2</ele>
        <time>2022-03-08T15:16:31Z</time>
      </trkpt>
      <trkpt lat="46.49751" lon="5.28178">
        <ele>192</ele>
        <time>2022-03-08T15:16:37Z</time>
      </trkpt>
      <trkpt lat="46.49749" lon="5.28189">
        <ele>192</ele>
        <time>2022-03-08T15:16:38Z</time>
      </trkpt>
      <trkpt lat="46.49735" lon="5.28267">
        <ele>191.8</ele>
        <time>2022-03-08T15:16:45Z</time>
      </trkpt>
      <trkpt lat="46.49716" lon="5.28337">
        <ele>192</ele>
        <time>2022-03-08T15:16:52Z</time>
      </trkpt>
      <trkpt lat="46.49697" lon="5.28416">
        <ele>191.6</ele>
        <time>2022-03-08T15:17:00Z</time>
      </trkpt>
      <trkpt lat="46.49692" lon="5.28474">
        <ele>191.4</ele>
        <time>2022-03-08T15:17:06Z</time>
      </trkpt>
      <trkpt lat="46.49681" lon="5.28541">
        <ele>191.6</ele>
        <time>2022-03-08T15:17:13Z</time>
      </trkpt>
      <trkpt lat="46.49667" lon="5.28603">
        <ele>192.2</ele>
        <time>2022-03-08T15:17:20Z</time>
      </trkpt>
      <trkpt lat="46.49653" lon="5.28663">
        <ele>192.4</ele>
        <time>2022-03-08T15:17:26Z</time>
      </trkpt>
      <trkpt lat="46.49633" lon="5.28742">
        <ele>191.4</ele>
        <time>2022-03-08T15:17:34Z</time>
      </trkpt>
      <trkpt lat="46.49628" lon="5.28762">
        <ele>191</ele>
        <time>2022-03-08T15:17:36Z</time>
      </trkpt>
      <trkpt lat="46.49619" lon="5.28813">
        <ele>190.8</ele>
        <time>2022-03-08T15:17:41Z</time>
      </trkpt>
      <trkpt lat="46.49606" lon="5.28891">
        <ele>191</ele>
        <time>2022-03-08T15:17:49Z</time>
      </trkpt>
      <trkpt lat="46.49591" lon="5.2897">
        <ele>191.2</ele>
        <time>2022-03-08T15:17:58Z</time>
      </trkpt>
      <trkpt lat="46.49589" lon="5.28978">
        <ele>191.4</ele>
        <time>2022-03-08T15:17:59Z</time>
      </trkpt>
      <trkpt lat="46.49584" lon="5.29006">
        <ele>192.2</ele>
        <time>2022-03-08T15:18:03Z</time>
      </trkpt>
      <trkpt lat="46.49581" lon="5.29027">
        <ele>193</ele>
        <time>2022-03-08T15:18:06Z</time>
      </trkpt>
      <trkpt lat="46.49579" lon="5.29033">
        <ele>193.2</ele>
        <time>2022-03-08T15:18:07Z</time>
      </trkpt>
      <trkpt lat="46.49575" lon="5.29058">
        <ele>194.2</ele>
        <time>2022-03-08T15:18:11Z</time>
      </trkpt>
      <trkpt lat="46.49574" lon="5.29063">
        <ele>194.4</ele>
        <time>2022-03-08T15:18:12Z</time>
      </trkpt>
      <trkpt lat="46.49572" lon="5.29075">
        <ele>194.8</ele>
        <time>2022-03-08T15:18:14Z</time>
      </trkpt>
      <trkpt lat="46.4957" lon="5.29086">
        <ele>195.2</ele>
        <time>2022-03-08T15:18:16Z</time>
      </trkpt>
      <trkpt lat="46.49564" lon="5.29119">
        <ele>196.6</ele>
        <time>2022-03-08T15:18:22Z</time>
      </trkpt>
      <trkpt lat="46.49562" lon="5.2913">
        <ele>197.4</ele>
        <time>2022-03-08T15:18:24Z</time>
      </trkpt>
      <trkpt lat="46.49559" lon="5.29141">
        <ele>197.6</ele>
        <time>2022-03-08T15:18:26Z</time>
      </trkpt>
      <trkpt lat="46.4955" lon="5.29167">
        <ele>198.8</ele>
        <time>2022-03-08T15:18:31Z</time>
      </trkpt>
      <trkpt lat="46.49548" lon="5.29172">
        <ele>199</ele>
        <time>2022-03-08T15:18:32Z</time>
      </trkpt>
      <trkpt lat="46.49538" lon="5.29191">
        <ele>199.8</ele>
        <time>2022-03-08T15:18:36Z</time>
      </trkpt>
      <trkpt lat="46.49527" lon="5.29214">
        <ele>201</ele>
        <time>2022-03-08T15:18:41Z</time>
      </trkpt>
      <trkpt lat="46.4952" lon="5.29234">
        <ele>202.2</ele>
        <time>2022-03-08T15:18:45Z</time>
      </trkpt>
      <trkpt lat="46.49515" lon="5.29248">
        <ele>203.2</ele>
        <time>2022-03-08T15:18:48Z</time>
      </trkpt>
      <trkpt lat="46.49513" lon="5.29261">
        <ele>203.6</ele>
        <time>2022-03-08T15:18:50Z</time>
      </trkpt>
      <trkpt lat="46.49511" lon="5.29276">
        <ele>204.2</ele>
        <time>2022-03-08T15:18:53Z</time>
      </trkpt>
      <trkpt lat="46.4951" lon="5.2931">
        <ele>205.6</ele>
        <time>2022-03-08T15:18:59Z</time>
      </trkpt>
      <trkpt lat="46.49514" lon="5.29338">
        <ele>206.8</ele>
        <time>2022-03-08T15:19:04Z</time>
      </trkpt>
      <trkpt lat="46.49517" lon="5.29354">
        <ele>207.2</ele>
        <time>2022-03-08T15:19:07Z</time>
      </trkpt>
      <trkpt lat="46.4952" lon="5.29365">
        <ele>207.8</ele>
        <time>2022-03-08T15:19:09Z</time>
      </trkpt>
      <trkpt lat="46.49528" lon="5.29383">
        <ele>209.4</ele>
        <time>2022-03-08T15:19:13Z</time>
      </trkpt>
      <trkpt lat="46.49533" lon="5.29394">
        <ele>209.8</ele>
        <time>2022-03-08T15:19:15Z</time>
      </trkpt>
      <trkpt lat="46.49539" lon="5.29407">
        <ele>210.4</ele>
        <time>2022-03-08T15:19:18Z</time>
      </trkpt>
      <trkpt lat="46.49555" lon="5.29436">
        <ele>211.6</ele>
        <time>2022-03-08T15:19:24Z</time>
      </trkpt>
      <trkpt lat="46.49576" lon="5.29474">
        <ele>212.8</ele>
        <time>2022-03-08T15:19:31Z</time>
      </trkpt>
      <trkpt lat="46.49579" lon="5.2948">
        <ele>212.8</ele>
        <time>2022-03-08T15:19:32Z</time>
      </trkpt>
      <trkpt lat="46.4961" lon="5.29535">
        <ele>213.6</ele>
        <time>2022-03-08T15:19:40Z</time>
      </trkpt>
      <trkpt lat="46.49646" lon="5.29597">
        <ele>213.8</ele>
        <time>2022-03-08T15:19:48Z</time>
      </trkpt>
      <trkpt lat="46.4965" lon="5.29603">
        <ele>214</ele>
        <time>2022-03-08T15:19:49Z</time>
      </trkpt>
      <trkpt lat="46.49688" lon="5.29669">
        <ele>213.6</ele>
        <time>2022-03-08T15:19:57Z</time>
      </trkpt>
      <trkpt lat="46.49693" lon="5.29677">
        <ele>213.6</ele>
        <time>2022-03-08T15:19:58Z</time>
      </trkpt>
      <trkpt lat="46.49728" lon="5.29739">
        <ele>213.4</ele>
        <time>2022-03-08T15:20:05Z</time>
      </trkpt>
      <trkpt lat="46.4975" lon="5.29785">
        <ele>212.8</ele>
        <time>2022-03-08T15:20:10Z</time>
      </trkpt>
      <trkpt lat="46.49763" lon="5.29793">
        <ele>212.8</ele>
        <time>2022-03-08T15:20:12Z</time>
      </trkpt>
      <trkpt lat="46.49769" lon="5.29794">
        <ele>212.8</ele>
        <time>2022-03-08T15:20:13Z</time>
      </trkpt>
      <trkpt lat="46.49815" lon="5.29804">
        <ele>212.8</ele>
        <time>2022-03-08T15:20:19Z</time>
      </trkpt>
      <trkpt lat="46.4987" lon="5.29823">
        <ele>212.4</ele>
        <time>2022-03-08T15:20:26Z</time>
      </trkpt>
      <trkpt lat="46.49884" lon="5.2983">
        <ele>212.2</ele>
        <time>2022-03-08T15:20:28Z</time>
      </trkpt>
      <trkpt lat="46.49929" lon="5.29846">
        <ele>212</ele>
        <time>2022-03-08T15:20:33Z</time>
      </trkpt>
      <trkpt lat="46.49954" lon="5.29855">
        <ele>211.4</ele>
        <time>2022-03-08T15:20:36Z</time>
      </trkpt>
      <trkpt lat="46.49974" lon="5.29858">
        <ele>210.6</ele>
        <time>2022-03-08T15:20:38Z</time>
      </trkpt>
      <trkpt lat="46.49993" lon="5.2986">
        <ele>210.4</ele>
        <time>2022-03-08T15:20:40Z</time>
      </trkpt>
      <trkpt lat="46.50011" lon="5.29867">
        <ele>210.2</ele>
        <time>2022-03-08T15:20:42Z</time>
      </trkpt>
      <trkpt lat="46.50031" lon="5.29888">
        <ele>209.6</ele>
        <time>2022-03-08T15:20:45Z</time>
      </trkpt>
      <trkpt lat="46.50057" lon="5.29924">
        <ele>209.6</ele>
        <time>2022-03-08T15:20:49Z</time>
      </trkpt>
      <trkpt lat="46.50061" lon="5.29932">
        <ele>209.4</ele>
        <time>2022-03-08T15:20:50Z</time>
      </trkpt>
      <trkpt lat="46.5008" lon="5.29983">
        <ele>209.6</ele>
        <time>2022-03-08T15:20:55Z</time>
      </trkpt>
      <trkpt lat="46.50086" lon="5.30039">
        <ele>210.2</ele>
        <time>2022-03-08T15:21:00Z</time>
      </trkpt>
      <trkpt lat="46.50086" lon="5.30123">
        <ele>210.4</ele>
        <time>2022-03-08T15:21:07Z</time>
      </trkpt>
      <trkpt lat="46.50086" lon="5.30147">
        <ele>210.4</ele>
        <time>2022-03-08T15:21:09Z</time>
      </trkpt>
      <trkpt lat="46.50086" lon="5.30228">
        <ele>210.4</ele>
        <time>2022-03-08T15:21:16Z</time>
      </trkpt>
      <trkpt lat="46.50085" lon="5.30251">
        <ele>210</ele>
        <time>2022-03-08T15:21:18Z</time>
      </trkpt>
      <trkpt lat="46.50076" lon="5.30323">
        <ele>209.4</ele>
        <time>2022-03-08T15:21:24Z</time>
      </trkpt>
      <trkpt lat="46.50067" lon="5.30348">
        <ele>208.8</ele>
        <time>2022-03-08T15:21:26Z</time>
      </trkpt>
      <trkpt lat="46.50063" lon="5.30356">
        <ele>208.8</ele>
        <time>2022-03-08T15:21:27Z</time>
      </trkpt>
      <trkpt lat="46.5005" lon="5.30379">
        <ele>208.4</ele>
        <time>2022-03-08T15:21:29Z</time>
      </trkpt>
      <trkpt lat="46.50036" lon="5.30395">
        <ele>207.6</ele>
        <time>2022-03-08T15:21:31Z</time>
      </trkpt>
      <trkpt lat="46.49999" lon="5.30424">
        <ele>207</ele>
        <time>2022-03-08T15:21:36Z</time>
      </trkpt>
      <trkpt lat="46.49971" lon="5.30449">
        <ele>207.2</ele>
        <time>2022-03-08T15:21:41Z</time>
      </trkpt>
      <trkpt lat="46.49953" lon="5.30476">
        <ele>207.6</ele>
        <time>2022-03-08T15:21:45Z</time>
      </trkpt>
      <trkpt lat="46.4995" lon="5.30483">
        <ele>208</ele>
        <time>2022-03-08T15:21:46Z</time>
      </trkpt>
      <trkpt lat="46.49941" lon="5.30507">
        <ele>208.6</ele>
        <time>2022-03-08T15:21:49Z</time>
      </trkpt>
      <trkpt lat="46.49937" lon="5.30521">
        <ele>209</ele>
        <time>2022-03-08T15:21:51Z</time>
      </trkpt>
      <trkpt lat="46.49931" lon="5.30562">
        <ele>209.8</ele>
        <time>2022-03-08T15:21:56Z</time>
      </trkpt>
      <trkpt lat="46.4993" lon="5.30579">
        <ele>210</ele>
        <time>2022-03-08T15:21:58Z</time>
      </trkpt>
      <trkpt lat="46.49929" lon="5.30588">
        <ele>210.2</ele>
        <time>2022-03-08T15:21:59Z</time>
      </trkpt>
      <trkpt lat="46.4993" lon="5.30603">
        <ele>210.8</ele>
        <time>2022-03-08T15:22:01Z</time>
      </trkpt>
      <trkpt lat="46.49933" lon="5.30621">
        <ele>211.2</ele>
        <time>2022-03-08T15:22:03Z</time>
      </trkpt>
      <trkpt lat="46.49936" lon="5.30636">
        <ele>212</ele>
        <time>2022-03-08T15:22:05Z</time>
      </trkpt>
      <trkpt lat="46.49944" lon="5.30676">
        <ele>213.2</ele>
        <time>2022-03-08T15:22:10Z</time>
      </trkpt>
      <trkpt lat="46.49953" lon="5.30727">
        <ele>214</ele>
        <time>2022-03-08T15:22:16Z</time>
      </trkpt>
      <trkpt lat="46.49956" lon="5.30744">
        <ele>214.2</ele>
        <time>2022-03-08T15:22:18Z</time>
      </trkpt>
      <trkpt lat="46.49965" lon="5.30787">
        <ele>215</ele>
        <time>2022-03-08T15:22:23Z</time>
      </trkpt>
      <trkpt lat="46.49969" lon="5.30806">
        <ele>215.2</ele>
        <time>2022-03-08T15:22:25Z</time>
      </trkpt>
      <trkpt lat="46.49987" lon="5.30865">
        <ele>215.2</ele>
        <time>2022-03-08T15:22:31Z</time>
      </trkpt>
      <trkpt lat="46.50013" lon="5.30931">
        <ele>214.2</ele>
        <time>2022-03-08T15:22:37Z</time>
      </trkpt>
      <trkpt lat="46.50018" lon="5.30944">
        <ele>214</ele>
        <time>2022-03-08T15:22:38Z</time>
      </trkpt>
      <trkpt lat="46.50027" lon="5.3097">
        <ele>213</ele>
        <time>2022-03-08T15:22:40Z</time>
      </trkpt>
      <trkpt lat="46.50036" lon="5.30997">
        <ele>212.2</ele>
        <time>2022-03-08T15:22:42Z</time>
      </trkpt>
      <trkpt lat="46.50041" lon="5.3101">
        <ele>211.8</ele>
        <time>2022-03-08T15:22:43Z</time>
      </trkpt>
      <trkpt lat="46.50051" lon="5.31039">
        <ele>210.8</ele>
        <time>2022-03-08T15:22:45Z</time>
      </trkpt>
      <trkpt lat="46.50066" lon="5.31083">
        <ele>209.8</ele>
        <time>2022-03-08T15:22:48Z</time>
      </trkpt>
      <trkpt lat="46.50071" lon="5.31099">
        <ele>209.4</ele>
        <time>2022-03-08T15:22:49Z</time>
      </trkpt>
      <trkpt lat="46.5008" lon="5.31129">
        <ele>207.8</ele>
        <time>2022-03-08T15:22:51Z</time>
      </trkpt>
      <trkpt lat="46.5009" lon="5.31159">
        <ele>206.4</ele>
        <time>2022-03-08T15:22:53Z</time>
      </trkpt>
      <trkpt lat="46.50099" lon="5.31187">
        <ele>205.4</ele>
        <time>2022-03-08T15:22:55Z</time>
      </trkpt>
      <trkpt lat="46.50108" lon="5.31212">
        <ele>204.8</ele>
        <time>2022-03-08T15:22:57Z</time>
      </trkpt>
      <trkpt lat="46.50131" lon="5.31274">
        <ele>204.6</ele>
        <time>2022-03-08T15:23:02Z</time>
      </trkpt>
      <trkpt lat="46.50155" lon="5.31345">
        <ele>205.2</ele>
        <time>2022-03-08T15:23:08Z</time>
      </trkpt>
      <trkpt lat="46.50181" lon="5.31421">
        <ele>205.4</ele>
        <time>2022-03-08T15:23:14Z</time>
      </trkpt>
      <trkpt lat="46.5019" lon="5.31447">
        <ele>205.2</ele>
        <time>2022-03-08T15:23:16Z</time>
      </trkpt>
      <trkpt lat="46.502" lon="5.31477">
        <ele>204.4</ele>
        <time>2022-03-08T15:23:18Z</time>
      </trkpt>
      <trkpt lat="46.50218" lon="5.31527">
        <ele>203.2</ele>
        <time>2022-03-08T15:23:22Z</time>
      </trkpt>
      <trkpt lat="46.50224" lon="5.31539">
        <ele>202.6</ele>
        <time>2022-03-08T15:23:23Z</time>
      </trkpt>
      <trkpt lat="46.50237" lon="5.31562">
        <ele>201.6</ele>
        <time>2022-03-08T15:23:25Z</time>
      </trkpt>
      <trkpt lat="46.50253" lon="5.31581">
        <ele>200.2</ele>
        <time>2022-03-08T15:23:27Z</time>
      </trkpt>
      <trkpt lat="46.50278" lon="5.31605">
        <ele>199.2</ele>
        <time>2022-03-08T15:23:30Z</time>
      </trkpt>
      <trkpt lat="46.50304" lon="5.31625">
        <ele>198.6</ele>
        <time>2022-03-08T15:23:33Z</time>
      </trkpt>
      <trkpt lat="46.50337" lon="5.3165">
        <ele>198.2</ele>
        <time>2022-03-08T15:23:37Z</time>
      </trkpt>
      <trkpt lat="46.50361" lon="5.3167">
        <ele>198</ele>
        <time>2022-03-08T15:23:40Z</time>
      </trkpt>
      <trkpt lat="46.50368" lon="5.31678">
        <ele>198</ele>
        <time>2022-03-08T15:23:41Z</time>
      </trkpt>
      <trkpt lat="46.50387" lon="5.31707">
        <ele>198</ele>
        <time>2022-03-08T15:23:44Z</time>
      </trkpt>
      <trkpt lat="46.50409" lon="5.31756">
        <ele>198.2</ele>
        <time>2022-03-08T15:23:49Z</time>
      </trkpt>
      <trkpt lat="46.50423" lon="5.31808">
        <ele>198.4</ele>
        <time>2022-03-08T15:23:54Z</time>
      </trkpt>
      <trkpt lat="46.50435" lon="5.31883">
        <ele>198.8</ele>
        <time>2022-03-08T15:24:01Z</time>
      </trkpt>
      <trkpt lat="46.50435" lon="5.31949">
        <ele>199.2</ele>
        <time>2022-03-08T15:24:07Z</time>
      </trkpt>
      <trkpt lat="46.50433" lon="5.32013">
        <ele>199.2</ele>
        <time>2022-03-08T15:24:13Z</time>
      </trkpt>
      <trkpt lat="46.50432" lon="5.32044">
        <ele>199.2</ele>
        <time>2022-03-08T15:24:16Z</time>
      </trkpt>
      <trkpt lat="46.5043" lon="5.32123">
        <ele>200</ele>
        <time>2022-03-08T15:24:24Z</time>
      </trkpt>
      <trkpt lat="46.5043" lon="5.32149">
        <ele>200.2</ele>
        <time>2022-03-08T15:24:27Z</time>
      </trkpt>
      <trkpt lat="46.50428" lon="5.32206">
        <ele>200.8</ele>
        <time>2022-03-08T15:24:33Z</time>
      </trkpt>
      <trkpt lat="46.50428" lon="5.3224">
        <ele>201.4</ele>
        <time>2022-03-08T15:24:37Z</time>
      </trkpt>
      <trkpt lat="46.50431" lon="5.32283">
        <ele>201.8</ele>
        <time>2022-03-08T15:24:42Z</time>
      </trkpt>
      <trkpt lat="46.50441" lon="5.3234">
        <ele>202.6</ele>
        <time>2022-03-08T15:24:48Z</time>
      </trkpt>
      <trkpt lat="46.50459" lon="5.3242">
        <ele>202.2</ele>
        <time>2022-03-08T15:24:56Z</time>
      </trkpt>
      <trkpt lat="46.50466" lon="5.32483">
        <ele>202.2</ele>
        <time>2022-03-08T15:25:02Z</time>
      </trkpt>
      <trkpt lat="46.50471" lon="5.32552">
        <ele>202.8</ele>
        <time>2022-03-08T15:25:09Z</time>
      </trkpt>
      <trkpt lat="46.50474" lon="5.32636">
        <ele>203.6</ele>
        <time>2022-03-08T15:25:18Z</time>
      </trkpt>
      <trkpt lat="46.50474" lon="5.32654">
        <ele>203.8</ele>
        <time>2022-03-08T15:25:20Z</time>
      </trkpt>
      <trkpt lat="46.50473" lon="5.32709">
        <ele>204.8</ele>
        <time>2022-03-08T15:25:26Z</time>
      </trkpt>
      <trkpt lat="46.50473" lon="5.32716">
        <ele>204.6</ele>
        <time>2022-03-08T15:25:27Z</time>
      </trkpt>
      <trkpt lat="46.50471" lon="5.32798">
        <ele>205.8</ele>
        <time>2022-03-08T15:25:36Z</time>
      </trkpt>
      <trkpt lat="46.50471" lon="5.32817">
        <ele>206</ele>
        <time>2022-03-08T15:25:38Z</time>
      </trkpt>
      <trkpt lat="46.50469" lon="5.32895">
        <ele>206.6</ele>
        <time>2022-03-08T15:25:47Z</time>
      </trkpt>
      <trkpt lat="46.50469" lon="5.32912">
        <ele>206.8</ele>
        <time>2022-03-08T15:25:49Z</time>
      </trkpt>
      <trkpt lat="46.50469" lon="5.32918">
        <ele>207</ele>
        <time>2022-03-08T15:25:50Z</time>
      </trkpt>
      <trkpt lat="46.50469" lon="5.32947">
        <ele>208.2</ele>
        <time>2022-03-08T15:25:54Z</time>
      </trkpt>
      <trkpt lat="46.50468" lon="5.32961">
        <ele>208.6</ele>
        <time>2022-03-08T15:25:56Z</time>
      </trkpt>
      <trkpt lat="46.50468" lon="5.32997">
        <ele>209.6</ele>
        <time>2022-03-08T15:26:01Z</time>
      </trkpt>
      <trkpt lat="46.50467" lon="5.33032">
        <ele>210.6</ele>
        <time>2022-03-08T15:26:06Z</time>
      </trkpt>
      <trkpt lat="46.50467" lon="5.33059">
        <ele>211.6</ele>
        <time>2022-03-08T15:26:10Z</time>
      </trkpt>
      <trkpt lat="46.50467" lon="5.33081">
        <ele>212.6</ele>
        <time>2022-03-08T15:26:13Z</time>
      </trkpt>
      <trkpt lat="46.50466" lon="5.33109">
        <ele>213.8</ele>
        <time>2022-03-08T15:26:17Z</time>
      </trkpt>
      <trkpt lat="46.50467" lon="5.33137">
        <ele>215</ele>
        <time>2022-03-08T15:26:21Z</time>
      </trkpt>
      <trkpt lat="46.50466" lon="5.33166">
        <ele>216</ele>
        <time>2022-03-08T15:26:25Z</time>
      </trkpt>
      <trkpt lat="46.50466" lon="5.33172">
        <ele>216.4</ele>
        <time>2022-03-08T15:26:26Z</time>
      </trkpt>
      <trkpt lat="46.50465" lon="5.33193">
        <ele>217.2</ele>
        <time>2022-03-08T15:26:29Z</time>
      </trkpt>
      <trkpt lat="46.50464" lon="5.33223">
        <ele>218</ele>
        <time>2022-03-08T15:26:33Z</time>
      </trkpt>
      <trkpt lat="46.50464" lon="5.33231">
        <ele>218.2</ele>
        <time>2022-03-08T15:26:34Z</time>
      </trkpt>
      <trkpt lat="46.50463" lon="5.33257">
        <ele>218.6</ele>
        <time>2022-03-08T15:26:37Z</time>
      </trkpt>
      <trkpt lat="46.50463" lon="5.33266">
        <ele>218.6</ele>
        <time>2022-03-08T15:26:38Z</time>
      </trkpt>
      <trkpt lat="46.50463" lon="5.33293">
        <ele>218.8</ele>
        <time>2022-03-08T15:26:41Z</time>
      </trkpt>
      <trkpt lat="46.50462" lon="5.33314">
        <ele>218.8</ele>
        <time>2022-03-08T15:26:43Z</time>
      </trkpt>
      <trkpt lat="46.50459" lon="5.33373">
        <ele>218.6</ele>
        <time>2022-03-08T15:26:49Z</time>
      </trkpt>
      <trkpt lat="46.50447" lon="5.33417">
        <ele>218.2</ele>
        <time>2022-03-08T15:26:54Z</time>
      </trkpt>
      <trkpt lat="46.50439" lon="5.33431">
        <ele>218.4</ele>
        <time>2022-03-08T15:26:56Z</time>
      </trkpt>
      <trkpt lat="46.50429" lon="5.33445">
        <ele>218.4</ele>
        <time>2022-03-08T15:26:58Z</time>
      </trkpt>
      <trkpt lat="46.50421" lon="5.33455">
        <ele>218.6</ele>
        <time>2022-03-08T15:27:00Z</time>
      </trkpt>
      <trkpt lat="46.50406" lon="5.3347">
        <ele>219.2</ele>
        <time>2022-03-08T15:27:03Z</time>
      </trkpt>
      <trkpt lat="46.50388" lon="5.33489">
        <ele>219.6</ele>
        <time>2022-03-08T15:27:07Z</time>
      </trkpt>
      <trkpt lat="46.50379" lon="5.33497">
        <ele>219.8</ele>
        <time>2022-03-08T15:27:09Z</time>
      </trkpt>
      <trkpt lat="46.50374" lon="5.33502">
        <ele>219.8</ele>
        <time>2022-03-08T15:27:10Z</time>
      </trkpt>
      <trkpt lat="46.50359" lon="5.33517">
        <ele>220.2</ele>
        <time>2022-03-08T15:27:13Z</time>
      </trkpt>
      <trkpt lat="46.50355" lon="5.33521">
        <ele>220.2</ele>
        <time>2022-03-08T15:27:14Z</time>
      </trkpt>
      <trkpt lat="46.50318" lon="5.33555">
        <ele>221.2</ele>
        <time>2022-03-08T15:27:21Z</time>
      </trkpt>
      <trkpt lat="46.50309" lon="5.33563">
        <ele>221.2</ele>
        <time>2022-03-08T15:27:23Z</time>
      </trkpt>
      <trkpt lat="46.50283" lon="5.33591">
        <ele>221.6</ele>
        <time>2022-03-08T15:27:28Z</time>
      </trkpt>
      <trkpt lat="46.50273" lon="5.33603">
        <ele>221.6</ele>
        <time>2022-03-08T15:27:30Z</time>
      </trkpt>
      <trkpt lat="46.50264" lon="5.33613">
        <ele>221.6</ele>
        <time>2022-03-08T15:27:32Z</time>
      </trkpt>
      <trkpt lat="46.50229" lon="5.33651">
        <ele>222.2</ele>
        <time>2022-03-08T15:27:39Z</time>
      </trkpt>
      <trkpt lat="46.50225" lon="5.33657">
        <ele>222.4</ele>
        <time>2022-03-08T15:27:40Z</time>
      </trkpt>
      <trkpt lat="46.50181" lon="5.33707">
        <ele>222.6</ele>
        <time>2022-03-08T15:27:48Z</time>
      </trkpt>
      <trkpt lat="46.50176" lon="5.33712">
        <ele>222.8</ele>
        <time>2022-03-08T15:27:49Z</time>
      </trkpt>
      <trkpt lat="46.5017" lon="5.3372">
        <ele>222.8</ele>
        <time>2022-03-08T15:27:50Z</time>
      </trkpt>
      <trkpt lat="46.50142" lon="5.33754">
        <ele>223</ele>
        <time>2022-03-08T15:27:55Z</time>
      </trkpt>
      <trkpt lat="46.50114" lon="5.33785">
        <ele>222.6</ele>
        <time>2022-03-08T15:28:00Z</time>
      </trkpt>
      <trkpt lat="46.50077" lon="5.33822">
        <ele>222.2</ele>
        <time>2022-03-08T15:28:07Z</time>
      </trkpt>
      <trkpt lat="46.50067" lon="5.33832">
        <ele>222.2</ele>
        <time>2022-03-08T15:28:09Z</time>
      </trkpt>
      <trkpt lat="46.50053" lon="5.33847">
        <ele>222.4</ele>
        <time>2022-03-08T15:28:12Z</time>
      </trkpt>
      <trkpt lat="46.5003" lon="5.33871">
        <ele>223.4</ele>
        <time>2022-03-08T15:28:17Z</time>
      </trkpt>
      <trkpt lat="46.50019" lon="5.33884">
        <ele>223.8</ele>
        <time>2022-03-08T15:28:20Z</time>
      </trkpt>
      <trkpt lat="46.50006" lon="5.33899">
        <ele>224.2</ele>
        <time>2022-03-08T15:28:23Z</time>
      </trkpt>
      <trkpt lat="46.50001" lon="5.33904">
        <ele>224.4</ele>
        <time>2022-03-08T15:28:24Z</time>
      </trkpt>
      <trkpt lat="46.49997" lon="5.33909">
        <ele>224.4</ele>
        <time>2022-03-08T15:28:25Z</time>
      </trkpt>
      <trkpt lat="46.4996" lon="5.33949">
        <ele>225</ele>
        <time>2022-03-08T15:28:32Z</time>
      </trkpt>
      <trkpt lat="46.49943" lon="5.33968">
        <ele>225.2</ele>
        <time>2022-03-08T15:28:35Z</time>
      </trkpt>
      <trkpt lat="46.49924" lon="5.33989">
        <ele>225</ele>
        <time>2022-03-08T15:28:38Z</time>
      </trkpt>
      <trkpt lat="46.49885" lon="5.34035">
        <ele>223.6</ele>
        <time>2022-03-08T15:28:44Z</time>
      </trkpt>
      <trkpt lat="46.49866" lon="5.34056">
        <ele>223</ele>
        <time>2022-03-08T15:28:47Z</time>
      </trkpt>
      <trkpt lat="46.49849" lon="5.34077">
        <ele>222.4</ele>
        <time>2022-03-08T15:28:50Z</time>
      </trkpt>
      <trkpt lat="46.49839" lon="5.34091">
        <ele>222</ele>
        <time>2022-03-08T15:28:52Z</time>
      </trkpt>
      <trkpt lat="46.49826" lon="5.34114">
        <ele>221.6</ele>
        <time>2022-03-08T15:28:55Z</time>
      </trkpt>
      <trkpt lat="46.49788" lon="5.34177">
        <ele>222</ele>
        <time>2022-03-08T15:29:03Z</time>
      </trkpt>
      <trkpt lat="46.4975" lon="5.34239">
        <ele>222</ele>
        <time>2022-03-08T15:29:11Z</time>
      </trkpt>
      <trkpt lat="46.49717" lon="5.34297">
        <ele>222</ele>
        <time>2022-03-08T15:29:18Z</time>
      </trkpt>
      <trkpt lat="46.49698" lon="5.34353">
        <ele>221.8</ele>
        <time>2022-03-08T15:29:24Z</time>
      </trkpt>
      <trkpt lat="46.49683" lon="5.34408">
        <ele>221.2</ele>
        <time>2022-03-08T15:29:29Z</time>
      </trkpt>
      <trkpt lat="46.49676" lon="5.34432">
        <ele>220.8</ele>
        <time>2022-03-08T15:29:31Z</time>
      </trkpt>
      <trkpt lat="46.4966" lon="5.34491">
        <ele>219.8</ele>
        <time>2022-03-08T15:29:36Z</time>
      </trkpt>
      <trkpt lat="46.49658" lon="5.34499">
        <ele>219.4</ele>
        <time>2022-03-08T15:29:37Z</time>
      </trkpt>
      <trkpt lat="46.4965" lon="5.34523">
        <ele>219.2</ele>
        <time>2022-03-08T15:29:39Z</time>
      </trkpt>
      <trkpt lat="46.49645" lon="5.34531">
        <ele>218.8</ele>
        <time>2022-03-08T15:29:40Z</time>
      </trkpt>
      <trkpt lat="46.49639" lon="5.34539">
        <ele>218.8</ele>
        <time>2022-03-08T15:29:41Z</time>
      </trkpt>
      <trkpt lat="46.49612" lon="5.3457">
        <ele>218.2</ele>
        <time>2022-03-08T15:29:45Z</time>
      </trkpt>
      <trkpt lat="46.49596" lon="5.34593">
        <ele>217.6</ele>
        <time>2022-03-08T15:29:48Z</time>
      </trkpt>
      <trkpt lat="46.49581" lon="5.34614">
        <ele>217.2</ele>
        <time>2022-03-08T15:29:51Z</time>
      </trkpt>
      <trkpt lat="46.49556" lon="5.34644">
        <ele>217.4</ele>
        <time>2022-03-08T15:29:56Z</time>
      </trkpt>
      <trkpt lat="46.49545" lon="5.34656">
        <ele>217.6</ele>
        <time>2022-03-08T15:29:59Z</time>
      </trkpt>
      <trkpt lat="46.49542" lon="5.3466">
        <ele>218</ele>
        <time>2022-03-08T15:30:00Z</time>
      </trkpt>
      <trkpt lat="46.49531" lon="5.34671">
        <ele>218.2</ele>
        <time>2022-03-08T15:30:03Z</time>
      </trkpt>
      <trkpt lat="46.49518" lon="5.34686">
        <ele>218.8</ele>
        <time>2022-03-08T15:30:06Z</time>
      </trkpt>
      <trkpt lat="46.49501" lon="5.34708">
        <ele>219.8</ele>
        <time>2022-03-08T15:30:10Z</time>
      </trkpt>
      <trkpt lat="46.49495" lon="5.34714">
        <ele>220.4</ele>
        <time>2022-03-08T15:30:12Z</time>
      </trkpt>
      <trkpt lat="46.4949" lon="5.34721">
        <ele>221</ele>
        <time>2022-03-08T15:30:14Z</time>
      </trkpt>
      <trkpt lat="46.49479" lon="5.34734">
        <ele>221.6</ele>
        <time>2022-03-08T15:30:17Z</time>
      </trkpt>
      <trkpt lat="46.49472" lon="5.34745">
        <ele>222</ele>
        <time>2022-03-08T15:30:19Z</time>
      </trkpt>
      <trkpt lat="46.49461" lon="5.34759">
        <ele>223</ele>
        <time>2022-03-08T15:30:23Z</time>
      </trkpt>
      <trkpt lat="46.49458" lon="5.34761">
        <ele>223.2</ele>
        <time>2022-03-08T15:30:24Z</time>
      </trkpt>
      <trkpt lat="46.49447" lon="5.34774">
        <ele>224.4</ele>
        <time>2022-03-08T15:30:27Z</time>
      </trkpt>
      <trkpt lat="46.49445" lon="5.34775">
        <ele>224.6</ele>
        <time>2022-03-08T15:30:28Z</time>
      </trkpt>
      <trkpt lat="46.49435" lon="5.34788">
        <ele>225.4</ele>
        <time>2022-03-08T15:30:31Z</time>
      </trkpt>
      <trkpt lat="46.49424" lon="5.34799">
        <ele>226</ele>
        <time>2022-03-08T15:30:34Z</time>
      </trkpt>
      <trkpt lat="46.49414" lon="5.34805">
        <ele>226.2</ele>
        <time>2022-03-08T15:30:36Z</time>
      </trkpt>
      <trkpt lat="46.49406" lon="5.3481">
        <ele>226.8</ele>
        <time>2022-03-08T15:30:38Z</time>
      </trkpt>
      <trkpt lat="46.49391" lon="5.34818">
        <ele>227.4</ele>
        <time>2022-03-08T15:30:41Z</time>
      </trkpt>
      <trkpt lat="46.49381" lon="5.34823">
        <ele>227.6</ele>
        <time>2022-03-08T15:30:43Z</time>
      </trkpt>
      <trkpt lat="46.49377" lon="5.34824">
        <ele>227.6</ele>
        <time>2022-03-08T15:30:44Z</time>
      </trkpt>
      <trkpt lat="46.49344" lon="5.34828">
        <ele>227.8</ele>
        <time>2022-03-08T15:30:50Z</time>
      </trkpt>
      <trkpt lat="46.49321" lon="5.34829">
        <ele>227.6</ele>
        <time>2022-03-08T15:30:54Z</time>
      </trkpt>
      <trkpt lat="46.49315" lon="5.34832">
        <ele>227.4</ele>
        <time>2022-03-08T15:30:55Z</time>
      </trkpt>
      <trkpt lat="46.49296" lon="5.3484">
        <ele>227.4</ele>
        <time>2022-03-08T15:30:58Z</time>
      </trkpt>
      <trkpt lat="46.49279" lon="5.34851">
        <ele>227.6</ele>
        <time>2022-03-08T15:31:01Z</time>
      </trkpt>
      <trkpt lat="46.49252" lon="5.34889">
        <ele>227.8</ele>
        <time>2022-03-08T15:31:07Z</time>
      </trkpt>
      <trkpt lat="46.49224" lon="5.34932">
        <ele>227.8</ele>
        <time>2022-03-08T15:31:13Z</time>
      </trkpt>
      <trkpt lat="46.49196" lon="5.3497">
        <ele>227.8</ele>
        <time>2022-03-08T15:31:20Z</time>
      </trkpt>
      <trkpt lat="46.49174" lon="5.34998">
        <ele>228.2</ele>
        <time>2022-03-08T15:31:25Z</time>
      </trkpt>
      <trkpt lat="46.4917" lon="5.35001">
        <ele>228.2</ele>
        <time>2022-03-08T15:31:26Z</time>
      </trkpt>
      <trkpt lat="46.49147" lon="5.35025">
        <ele>228.2</ele>
        <time>2022-03-08T15:31:31Z</time>
      </trkpt>
      <trkpt lat="46.49113" lon="5.35055">
        <ele>228.2</ele>
        <time>2022-03-08T15:31:38Z</time>
      </trkpt>
      <trkpt lat="46.49094" lon="5.35073">
        <ele>228.6</ele>
        <time>2022-03-08T15:31:42Z</time>
      </trkpt>
      <trkpt lat="46.49086" lon="5.3508">
        <ele>228.6</ele>
        <time>2022-03-08T15:31:44Z</time>
      </trkpt>
      <trkpt lat="46.49069" lon="5.35098">
        <ele>229.4</ele>
        <time>2022-03-08T15:31:48Z</time>
      </trkpt>
      <trkpt lat="46.49064" lon="5.35102">
        <ele>229.6</ele>
        <time>2022-03-08T15:31:49Z</time>
      </trkpt>
      <trkpt lat="46.49036" lon="5.35127">
        <ele>230.4</ele>
        <time>2022-03-08T15:31:54Z</time>
      </trkpt>
      <trkpt lat="46.49021" lon="5.35156">
        <ele>230.4</ele>
        <time>2022-03-08T15:31:58Z</time>
      </trkpt>
      <trkpt lat="46.49017" lon="5.35163">
        <ele>230.4</ele>
        <time>2022-03-08T15:31:59Z</time>
      </trkpt>
      <trkpt lat="46.48992" lon="5.35217">
        <ele>230.2</ele>
        <time>2022-03-08T15:32:05Z</time>
      </trkpt>
      <trkpt lat="46.48966" lon="5.35275">
        <ele>229.4</ele>
        <time>2022-03-08T15:32:11Z</time>
      </trkpt>
      <trkpt lat="46.48961" lon="5.35285">
        <ele>229.2</ele>
        <time>2022-03-08T15:32:12Z</time>
      </trkpt>
      <trkpt lat="46.48931" lon="5.35351">
        <ele>228.4</ele>
        <time>2022-03-08T15:32:19Z</time>
      </trkpt>
      <trkpt lat="46.48927" lon="5.3536">
        <ele>228.2</ele>
        <time>2022-03-08T15:32:20Z</time>
      </trkpt>
      <trkpt lat="46.48903" lon="5.35412">
        <ele>228.2</ele>
        <time>2022-03-08T15:32:26Z</time>
      </trkpt>
      <trkpt lat="46.48878" lon="5.35468">
        <ele>228.6</ele>
        <time>2022-03-08T15:32:33Z</time>
      </trkpt>
      <trkpt lat="46.48849" lon="5.35535">
        <ele>229</ele>
        <time>2022-03-08T15:32:41Z</time>
      </trkpt>
      <trkpt lat="46.48842" lon="5.35551">
        <ele>229.4</ele>
        <time>2022-03-08T15:32:43Z</time>
      </trkpt>
      <trkpt lat="46.48813" lon="5.35617">
        <ele>229.6</ele>
        <time>2022-03-08T15:32:51Z</time>
      </trkpt>
      <trkpt lat="46.48809" lon="5.35625">
        <ele>229.6</ele>
        <time>2022-03-08T15:32:52Z</time>
      </trkpt>
      <trkpt lat="46.48784" lon="5.3568">
        <ele>229.2</ele>
        <time>2022-03-08T15:32:59Z</time>
      </trkpt>
      <trkpt lat="46.48757" lon="5.35743">
        <ele>229</ele>
        <time>2022-03-08T15:33:06Z</time>
      </trkpt>
      <trkpt lat="46.48733" lon="5.35801">
        <ele>229.4</ele>
        <time>2022-03-08T15:33:13Z</time>
      </trkpt>
      <trkpt lat="46.48729" lon="5.35809">
        <ele>229.4</ele>
        <time>2022-03-08T15:33:14Z</time>
      </trkpt>
      <trkpt lat="46.48715" lon="5.35846">
        <ele>230</ele>
        <time>2022-03-08T15:33:19Z</time>
      </trkpt>
      <trkpt lat="46.487" lon="5.35874">
        <ele>230</ele>
        <time>2022-03-08T15:33:23Z</time>
      </trkpt>
      <trkpt lat="46.48697" lon="5.35882">
        <ele>230</ele>
        <time>2022-03-08T15:33:24Z</time>
      </trkpt>
      <trkpt lat="46.48689" lon="5.35911">
        <ele>230.2</ele>
        <time>2022-03-08T15:33:28Z</time>
      </trkpt>
      <trkpt lat="46.48687" lon="5.35919">
        <ele>230.6</ele>
        <time>2022-03-08T15:33:29Z</time>
      </trkpt>
      <trkpt lat="46.48682" lon="5.3595">
        <ele>231.4</ele>
        <time>2022-03-08T15:33:33Z</time>
      </trkpt>
      <trkpt lat="46.48675" lon="5.35996">
        <ele>232.2</ele>
        <time>2022-03-08T15:33:38Z</time>
      </trkpt>
      <trkpt lat="46.4866" lon="5.36068">
        <ele>232.2</ele>
        <time>2022-03-08T15:33:45Z</time>
      </trkpt>
      <trkpt lat="46.48645" lon="5.36146">
        <ele>231</ele>
        <time>2022-03-08T15:33:52Z</time>
      </trkpt>
      <trkpt lat="46.48643" lon="5.36157">
        <ele>231</ele>
        <time>2022-03-08T15:33:53Z</time>
      </trkpt>
      <trkpt lat="46.48637" lon="5.36229">
        <ele>231</ele>
        <time>2022-03-08T15:34:00Z</time>
      </trkpt>
      <trkpt lat="46.48631" lon="5.36283">
        <ele>231.2</ele>
        <time>2022-03-08T15:34:06Z</time>
      </trkpt>
      <trkpt lat="46.48629" lon="5.36291">
        <ele>231.2</ele>
        <time>2022-03-08T15:34:07Z</time>
      </trkpt>
      <trkpt lat="46.48623" lon="5.36305">
        <ele>231.4</ele>
        <time>2022-03-08T15:34:09Z</time>
      </trkpt>
      <trkpt lat="46.48619" lon="5.36311">
        <ele>231.6</ele>
        <time>2022-03-08T15:34:10Z</time>
      </trkpt>
      <trkpt lat="46.48615" lon="5.36315">
        <ele>231.8</ele>
        <time>2022-03-08T15:34:11Z</time>
      </trkpt>
      <trkpt lat="46.48605" lon="5.3632">
        <ele>232.2</ele>
        <time>2022-03-08T15:34:13Z</time>
      </trkpt>
      <trkpt lat="46.48595" lon="5.36322">
        <ele>232.6</ele>
        <time>2022-03-08T15:34:15Z</time>
      </trkpt>
      <trkpt lat="46.48574" lon="5.36325">
        <ele>233.6</ele>
        <time>2022-03-08T15:34:19Z</time>
      </trkpt>
      <trkpt lat="46.48569" lon="5.36325">
        <ele>234.2</ele>
        <time>2022-03-08T15:34:20Z</time>
      </trkpt>
      <trkpt lat="46.4856" lon="5.36327">
        <ele>234.8</ele>
        <time>2022-03-08T15:34:22Z</time>
      </trkpt>
      <trkpt lat="46.48535" lon="5.36331">
        <ele>235.8</ele>
        <time>2022-03-08T15:34:27Z</time>
      </trkpt>
      <trkpt lat="46.4852" lon="5.36333">
        <ele>236.4</ele>
        <time>2022-03-08T15:34:30Z</time>
      </trkpt>
      <trkpt lat="46.48489" lon="5.36339">
        <ele>237.2</ele>
        <time>2022-03-08T15:34:36Z</time>
      </trkpt>
      <trkpt lat="46.48455" lon="5.36344">
        <ele>237.6</ele>
        <time>2022-03-08T15:34:42Z</time>
      </trkpt>
      <trkpt lat="46.48419" lon="5.36354">
        <ele>238.2</ele>
        <time>2022-03-08T15:34:48Z</time>
      </trkpt>
      <trkpt lat="46.48409" lon="5.3636">
        <ele>238.2</ele>
        <time>2022-03-08T15:34:50Z</time>
      </trkpt>
      <trkpt lat="46.48375" lon="5.36392">
        <ele>238.2</ele>
        <time>2022-03-08T15:34:57Z</time>
      </trkpt>
      <trkpt lat="46.48339" lon="5.36431">
        <ele>239.2</ele>
        <time>2022-03-08T15:35:05Z</time>
      </trkpt>
      <trkpt lat="46.48336" lon="5.36435">
        <ele>239.2</ele>
        <time>2022-03-08T15:35:06Z</time>
      </trkpt>
      <trkpt lat="46.48312" lon="5.36461">
        <ele>240</ele>
        <time>2022-03-08T15:35:12Z</time>
      </trkpt>
      <trkpt lat="46.48301" lon="5.36473">
        <ele>240.4</ele>
        <time>2022-03-08T15:35:15Z</time>
      </trkpt>
      <trkpt lat="46.48274" lon="5.36503">
        <ele>241.4</ele>
        <time>2022-03-08T15:35:22Z</time>
      </trkpt>
      <trkpt lat="46.48266" lon="5.36512">
        <ele>241.8</ele>
        <time>2022-03-08T15:35:24Z</time>
      </trkpt>
      <trkpt lat="46.48254" lon="5.36526">
        <ele>242.2</ele>
        <time>2022-03-08T15:35:27Z</time>
      </trkpt>
      <trkpt lat="46.48242" lon="5.36539">
        <ele>242.6</ele>
        <time>2022-03-08T15:35:30Z</time>
      </trkpt>
      <trkpt lat="46.48238" lon="5.36543">
        <ele>242.6</ele>
        <time>2022-03-08T15:35:31Z</time>
      </trkpt>
      <trkpt lat="46.48226" lon="5.36556">
        <ele>242.8</ele>
        <time>2022-03-08T15:35:34Z</time>
      </trkpt>
      <trkpt lat="46.48216" lon="5.36559">
        <ele>243</ele>
        <time>2022-03-08T15:35:36Z</time>
      </trkpt>
      <trkpt lat="46.48206" lon="5.36557">
        <ele>243.2</ele>
        <time>2022-03-08T15:35:38Z</time>
      </trkpt>
      <trkpt lat="46.48198" lon="5.36562">
        <ele>243.4</ele>
        <time>2022-03-08T15:35:40Z</time>
      </trkpt>
      <trkpt lat="46.48194" lon="5.36566">
        <ele>243.6</ele>
        <time>2022-03-08T15:35:41Z</time>
      </trkpt>
      <trkpt lat="46.48191" lon="5.36571">
        <ele>243.8</ele>
        <time>2022-03-08T15:35:42Z</time>
      </trkpt>
      <trkpt lat="46.48188" lon="5.36577">
        <ele>244</ele>
        <time>2022-03-08T15:35:43Z</time>
      </trkpt>
      <trkpt lat="46.48181" lon="5.36598">
        <ele>244.4</ele>
        <time>2022-03-08T15:35:46Z</time>
      </trkpt>
      <trkpt lat="46.48174" lon="5.36609">
        <ele>244.6</ele>
        <time>2022-03-08T15:35:48Z</time>
      </trkpt>
      <trkpt lat="46.48145" lon="5.36645">
        <ele>245.4</ele>
        <time>2022-03-08T15:35:56Z</time>
      </trkpt>
      <trkpt lat="46.48144" lon="5.36646">
        <ele>245.4</ele>
        <time>2022-03-08T15:35:58Z</time>
      </trkpt>
      <trkpt lat="46.4814" lon="5.36646">
        <ele>245.6</ele>
        <time>2022-03-08T15:35:59Z</time>
      </trkpt>
      <trkpt lat="46.48131" lon="5.36654">
        <ele>245.6</ele>
        <time>2022-03-08T15:36:01Z</time>
      </trkpt>
      <trkpt lat="46.48127" lon="5.36658">
        <ele>245.8</ele>
        <time>2022-03-08T15:36:02Z</time>
      </trkpt>
      <trkpt lat="46.48113" lon="5.36675">
        <ele>246.2</ele>
        <time>2022-03-08T15:36:06Z</time>
      </trkpt>
      <trkpt lat="46.4811" lon="5.3668">
        <ele>246.2</ele>
        <time>2022-03-08T15:36:07Z</time>
      </trkpt>
      <trkpt lat="46.48111" lon="5.36692">
        <ele>246.4</ele>
        <time>2022-03-08T15:36:09Z</time>
      </trkpt>
      <trkpt lat="46.48116" lon="5.36701">
        <ele>246.6</ele>
        <time>2022-03-08T15:36:11Z</time>
      </trkpt>
      <trkpt lat="46.48123" lon="5.36708">
        <ele>246.8</ele>
        <time>2022-03-08T15:36:13Z</time>
      </trkpt>
      <trkpt lat="46.4814" lon="5.36726">
        <ele>248</ele>
        <time>2022-03-08T15:36:18Z</time>
      </trkpt>
      <trkpt lat="46.48158" lon="5.36745">
        <ele>248.6</ele>
        <time>2022-03-08T15:36:23Z</time>
      </trkpt>
      <trkpt lat="46.48169" lon="5.36755">
        <ele>249.2</ele>
        <time>2022-03-08T15:36:26Z</time>
      </trkpt>
      <trkpt lat="46.48187" lon="5.3677">
        <ele>250.4</ele>
        <time>2022-03-08T15:36:31Z</time>
      </trkpt>
      <trkpt lat="46.48194" lon="5.36777">
        <ele>250.8</ele>
        <time>2022-03-08T15:36:33Z</time>
      </trkpt>
      <trkpt lat="46.48208" lon="5.36789">
        <ele>251.6</ele>
        <time>2022-03-08T15:36:37Z</time>
      </trkpt>
      <trkpt lat="46.48229" lon="5.36807">
        <ele>252.6</ele>
        <time>2022-03-08T15:36:43Z</time>
      </trkpt>
      <trkpt lat="46.48233" lon="5.3681">
        <ele>253</ele>
        <time>2022-03-08T15:36:44Z</time>
      </trkpt>
      <trkpt lat="46.48243" lon="5.36818">
        <ele>254</ele>
        <time>2022-03-08T15:36:47Z</time>
      </trkpt>
      <trkpt lat="46.48259" lon="5.36834">
        <ele>255</ele>
        <time>2022-03-08T15:36:52Z</time>
      </trkpt>
    </trkseg>
  </trk>
</gpx>